<?xml version="1.0" encoding="utf-8"?>
<gpx xmlns:xsi="http://www.w3.org/2001/XMLSchema-instance" xmlns:xsd="http://www.w3.org/2001/XMLSchema" version="1.1" creator="Shapelink.com" xmlns="http://www.topografix.com/GPX/1/1" xmlns:gpxtpx="http://www.garmin.com/xmlschemas/TrackPointExtension/v1">
  <metadata>
    <name>Kører 51.81 km, 2011-07-05</name>
    <desc></desc>
    <author><name>Jojje Borssén</name></author> 
    <time>2011-07-05T10:10:45Z</time>
  </metadata>
  <trk>
    <name>Kører 51.81 km, 2011-07-05</name>
    <trkseg>
      <trkpt lat="62.546849" lon="12.332186">
        <ele>720.587</ele>
        <time>2011-07-05T10:10:45Z</time>
      </trkpt>
      <trkpt lat="62.547028" lon="12.332223">
        <ele>722.63</ele>
        <time>2011-07-05T10:10:55Z</time>
      </trkpt>
      <trkpt lat="62.547045" lon="12.332236">
        <ele>723.061</ele>
        <time>2011-07-05T10:10:56Z</time>
      </trkpt>
      <trkpt lat="62.547092" lon="12.332316">
        <ele>723.76</ele>
        <time>2011-07-05T10:11:01Z</time>
      </trkpt>
      <trkpt lat="62.547101" lon="12.332318">
        <ele>723.89</ele>
        <time>2011-07-05T10:11:02Z</time>
      </trkpt>
      <trkpt lat="62.54715" lon="12.332301">
        <ele>724.018</ele>
        <time>2011-07-05T10:11:07Z</time>
      </trkpt>
      <trkpt lat="62.547213" lon="12.33223">
        <ele>725.214</ele>
        <time>2011-07-05T10:11:14Z</time>
      </trkpt>
      <trkpt lat="62.547236" lon="12.332255">
        <ele>725.258</ele>
        <time>2011-07-05T10:11:16Z</time>
      </trkpt>
      <trkpt lat="62.547295" lon="12.332514">
        <ele>726.491</ele>
        <time>2011-07-05T10:11:25Z</time>
      </trkpt>
      <trkpt lat="62.547351" lon="12.332516">
        <ele>729.019</ele>
        <time>2011-07-05T10:11:32Z</time>
      </trkpt>
      <trkpt lat="62.547369" lon="12.332573">
        <ele>729.202</ele>
        <time>2011-07-05T10:11:38Z</time>
      </trkpt>
      <trkpt lat="62.547406" lon="12.332602">
        <ele>729.099</ele>
        <time>2011-07-05T10:11:43Z</time>
      </trkpt>
      <trkpt lat="62.547452" lon="12.332673">
        <ele>730.068</ele>
        <time>2011-07-05T10:11:51Z</time>
      </trkpt>
      <trkpt lat="62.54747" lon="12.332712">
        <ele>730.439</ele>
        <time>2011-07-05T10:11:54Z</time>
      </trkpt>
      <trkpt lat="62.547507" lon="12.332905">
        <ele>731.482</ele>
        <time>2011-07-05T10:12:03Z</time>
      </trkpt>
      <trkpt lat="62.547514" lon="12.332977">
        <ele>732.336</ele>
        <time>2011-07-05T10:12:07Z</time>
      </trkpt>
      <trkpt lat="62.547545" lon="12.332972">
        <ele>732.49</ele>
        <time>2011-07-05T10:12:10Z</time>
      </trkpt>
      <trkpt lat="62.547585" lon="12.332834">
        <ele>732.197</ele>
        <time>2011-07-05T10:12:18Z</time>
      </trkpt>
      <trkpt lat="62.547637" lon="12.332702">
        <ele>731.832</ele>
        <time>2011-07-05T10:12:22Z</time>
      </trkpt>
      <trkpt lat="62.547702" lon="12.332515">
        <ele>732.255</ele>
        <time>2011-07-05T10:12:27Z</time>
      </trkpt>
      <trkpt lat="62.547737" lon="12.332406">
        <ele>732.748</ele>
        <time>2011-07-05T10:12:34Z</time>
      </trkpt>
      <trkpt lat="62.547807" lon="12.332472">
        <ele>732.035</ele>
        <time>2011-07-05T10:13:03Z</time>
      </trkpt>
      <trkpt lat="62.547816" lon="12.332512">
        <ele>732.155</ele>
        <time>2011-07-05T10:13:05Z</time>
      </trkpt>
      <trkpt lat="62.547846" lon="12.332625">
        <ele>732.847</ele>
        <time>2011-07-05T10:13:10Z</time>
      </trkpt>
      <trkpt lat="62.547881" lon="12.332768">
        <ele>733.754</ele>
        <time>2011-07-05T10:13:16Z</time>
      </trkpt>
      <trkpt lat="62.547907" lon="12.332882">
        <ele>734.567</ele>
        <time>2011-07-05T10:13:21Z</time>
      </trkpt>
      <trkpt lat="62.547938" lon="12.332989">
        <ele>735.166</ele>
        <time>2011-07-05T10:13:27Z</time>
      </trkpt>
      <trkpt lat="62.547955" lon="12.333084">
        <ele>736.116</ele>
        <time>2011-07-05T10:13:33Z</time>
      </trkpt>
      <trkpt lat="62.548102" lon="12.333049">
        <ele>735.088</ele>
        <time>2011-07-05T10:14:05Z</time>
      </trkpt>
      <trkpt lat="62.548174" lon="12.332759">
        <ele>734.99</ele>
        <time>2011-07-05T10:14:11Z</time>
      </trkpt>
      <trkpt lat="62.548217" lon="12.332484">
        <ele>734.475</ele>
        <time>2011-07-05T10:14:16Z</time>
      </trkpt>
      <trkpt lat="62.548228" lon="12.332386">
        <ele>734.109</ele>
        <time>2011-07-05T10:14:18Z</time>
      </trkpt>
      <trkpt lat="62.548255" lon="12.331989">
        <ele>732.232</ele>
        <time>2011-07-05T10:14:25Z</time>
      </trkpt>
      <trkpt lat="62.548302" lon="12.3317">
        <ele>730.262</ele>
        <time>2011-07-05T10:14:31Z</time>
      </trkpt>
      <trkpt lat="62.548305" lon="12.331619">
        <ele>729.813</ele>
        <time>2011-07-05T10:14:33Z</time>
      </trkpt>
      <trkpt lat="62.54823" lon="12.331259">
        <ele>728.507</ele>
        <time>2011-07-05T10:14:39Z</time>
      </trkpt>
      <trkpt lat="62.548178" lon="12.330916">
        <ele>726.593</ele>
        <time>2011-07-05T10:14:44Z</time>
      </trkpt>
      <trkpt lat="62.548179" lon="12.330569">
        <ele>725.014</ele>
        <time>2011-07-05T10:14:49Z</time>
      </trkpt>
      <trkpt lat="62.548186" lon="12.33047">
        <ele>724.503</ele>
        <time>2011-07-05T10:14:51Z</time>
      </trkpt>
      <trkpt lat="62.548194" lon="12.330243">
        <ele>723.544</ele>
        <time>2011-07-05T10:14:56Z</time>
      </trkpt>
      <trkpt lat="62.548205" lon="12.329904">
        <ele>723.262</ele>
        <time>2011-07-05T10:15:02Z</time>
      </trkpt>
      <trkpt lat="62.548271" lon="12.329643">
        <ele>722.555</ele>
        <time>2011-07-05T10:15:07Z</time>
      </trkpt>
      <trkpt lat="62.548366" lon="12.329394">
        <ele>721.266</ele>
        <time>2011-07-05T10:15:13Z</time>
      </trkpt>
      <trkpt lat="62.548435" lon="12.329208">
        <ele>720.745</ele>
        <time>2011-07-05T10:15:18Z</time>
      </trkpt>
      <trkpt lat="62.548482" lon="12.329013">
        <ele>719.925</ele>
        <time>2011-07-05T10:15:23Z</time>
      </trkpt>
      <trkpt lat="62.548499" lon="12.328949">
        <ele>719.811</ele>
        <time>2011-07-05T10:15:26Z</time>
      </trkpt>
      <trkpt lat="62.548532" lon="12.328644">
        <ele>718.387</ele>
        <time>2011-07-05T10:15:32Z</time>
      </trkpt>
      <trkpt lat="62.548622" lon="12.328356">
        <ele>717.498</ele>
        <time>2011-07-05T10:15:38Z</time>
      </trkpt>
      <trkpt lat="62.548713" lon="12.328147">
        <ele>717.27</ele>
        <time>2011-07-05T10:15:44Z</time>
      </trkpt>
      <trkpt lat="62.548752" lon="12.32789">
        <ele>716.96</ele>
        <time>2011-07-05T10:15:50Z</time>
      </trkpt>
      <trkpt lat="62.548754" lon="12.327787">
        <ele>716.289</ele>
        <time>2011-07-05T10:15:53Z</time>
      </trkpt>
      <trkpt lat="62.548698" lon="12.327569">
        <ele>713.972</ele>
        <time>2011-07-05T10:15:59Z</time>
      </trkpt>
      <trkpt lat="62.548605" lon="12.327213">
        <ele>710.949</ele>
        <time>2011-07-05T10:16:06Z</time>
      </trkpt>
      <trkpt lat="62.548595" lon="12.3269">
        <ele>708.614</ele>
        <time>2011-07-05T10:16:11Z</time>
      </trkpt>
      <trkpt lat="62.548588" lon="12.326764">
        <ele>708.05</ele>
        <time>2011-07-05T10:16:13Z</time>
      </trkpt>
      <trkpt lat="62.548555" lon="12.326463">
        <ele>707.063</ele>
        <time>2011-07-05T10:16:18Z</time>
      </trkpt>
      <trkpt lat="62.548546" lon="12.326137">
        <ele>705.526</ele>
        <time>2011-07-05T10:16:24Z</time>
      </trkpt>
      <trkpt lat="62.54855" lon="12.325894">
        <ele>704.235</ele>
        <time>2011-07-05T10:16:28Z</time>
      </trkpt>
      <trkpt lat="62.548573" lon="12.325609">
        <ele>702.914</ele>
        <time>2011-07-05T10:16:33Z</time>
      </trkpt>
      <trkpt lat="62.548624" lon="12.325453">
        <ele>702.148</ele>
        <time>2011-07-05T10:16:37Z</time>
      </trkpt>
      <trkpt lat="62.548691" lon="12.325326">
        <ele>702.254</ele>
        <time>2011-07-05T10:16:43Z</time>
      </trkpt>
      <trkpt lat="62.548728" lon="12.325202">
        <ele>702.152</ele>
        <time>2011-07-05T10:16:48Z</time>
      </trkpt>
      <trkpt lat="62.548774" lon="12.325048">
        <ele>702.582</ele>
        <time>2011-07-05T10:16:55Z</time>
      </trkpt>
      <trkpt lat="62.54881" lon="12.32497">
        <ele>702.689</ele>
        <time>2011-07-05T10:16:59Z</time>
      </trkpt>
      <trkpt lat="62.548855" lon="12.324867">
        <ele>703.127</ele>
        <time>2011-07-05T10:17:06Z</time>
      </trkpt>
      <trkpt lat="62.548911" lon="12.324797">
        <ele>703.755</ele>
        <time>2011-07-05T10:17:13Z</time>
      </trkpt>
      <trkpt lat="62.549013" lon="12.324795">
        <ele>705.041</ele>
        <time>2011-07-05T10:17:22Z</time>
      </trkpt>
      <trkpt lat="62.549103" lon="12.324878">
        <ele>706.851</ele>
        <time>2011-07-05T10:17:29Z</time>
      </trkpt>
      <trkpt lat="62.549129" lon="12.324884">
        <ele>707.193</ele>
        <time>2011-07-05T10:17:31Z</time>
      </trkpt>
      <trkpt lat="62.549168" lon="12.324924">
        <ele>707.872</ele>
        <time>2011-07-05T10:17:36Z</time>
      </trkpt>
      <trkpt lat="62.549238" lon="12.324944">
        <ele>708.881</ele>
        <time>2011-07-05T10:17:42Z</time>
      </trkpt>
      <trkpt lat="62.549264" lon="12.32495">
        <ele>709.202</ele>
        <time>2011-07-05T10:17:45Z</time>
      </trkpt>
      <trkpt lat="62.54933" lon="12.324938">
        <ele>709.927</ele>
        <time>2011-07-05T10:17:50Z</time>
      </trkpt>
      <trkpt lat="62.549352" lon="12.324923">
        <ele>710.234</ele>
        <time>2011-07-05T10:17:52Z</time>
      </trkpt>
      <trkpt lat="62.54941" lon="12.324995">
        <ele>710.98</ele>
        <time>2011-07-05T10:17:59Z</time>
      </trkpt>
      <trkpt lat="62.549517" lon="12.325118">
        <ele>711.896</ele>
        <time>2011-07-05T10:18:09Z</time>
      </trkpt>
      <trkpt lat="62.549559" lon="12.3252">
        <ele>713.374</ele>
        <time>2011-07-05T10:18:15Z</time>
      </trkpt>
      <trkpt lat="62.549593" lon="12.325285">
        <ele>714.55</ele>
        <time>2011-07-05T10:18:22Z</time>
      </trkpt>
      <trkpt lat="62.549603" lon="12.32534">
        <ele>715.201</ele>
        <time>2011-07-05T10:18:26Z</time>
      </trkpt>
      <trkpt lat="62.549618" lon="12.325483">
        <ele>716.906</ele>
        <time>2011-07-05T10:18:35Z</time>
      </trkpt>
      <trkpt lat="62.54963" lon="12.325601">
        <ele>718.569</ele>
        <time>2011-07-05T10:18:42Z</time>
      </trkpt>
      <trkpt lat="62.549652" lon="12.325714">
        <ele>719.711</ele>
        <time>2011-07-05T10:18:48Z</time>
      </trkpt>
      <trkpt lat="62.549682" lon="12.325857">
        <ele>721.315</ele>
        <time>2011-07-05T10:18:57Z</time>
      </trkpt>
      <trkpt lat="62.549716" lon="12.32595">
        <ele>722.935</ele>
        <time>2011-07-05T10:19:04Z</time>
      </trkpt>
      <trkpt lat="62.549727" lon="12.325981">
        <ele>723.322</ele>
        <time>2011-07-05T10:19:06Z</time>
      </trkpt>
      <trkpt lat="62.549802" lon="12.32604">
        <ele>724.399</ele>
        <time>2011-07-05T10:19:14Z</time>
      </trkpt>
      <trkpt lat="62.549916" lon="12.326078">
        <ele>724.995</ele>
        <time>2011-07-05T10:19:23Z</time>
      </trkpt>
      <trkpt lat="62.550033" lon="12.326042">
        <ele>725.277</ele>
        <time>2011-07-05T10:19:31Z</time>
      </trkpt>
      <trkpt lat="62.550145" lon="12.325987">
        <ele>725.573</ele>
        <time>2011-07-05T10:19:36Z</time>
      </trkpt>
      <trkpt lat="62.550251" lon="12.325978">
        <ele>726.247</ele>
        <time>2011-07-05T10:19:43Z</time>
      </trkpt>
      <trkpt lat="62.550455" lon="12.325971">
        <ele>726.783</ele>
        <time>2011-07-05T10:19:52Z</time>
      </trkpt>
      <trkpt lat="62.550575" lon="12.326013">
        <ele>727.72</ele>
        <time>2011-07-05T10:19:59Z</time>
      </trkpt>
      <trkpt lat="62.550659" lon="12.326068">
        <ele>729.516</ele>
        <time>2011-07-05T10:20:07Z</time>
      </trkpt>
      <trkpt lat="62.550745" lon="12.326145">
        <ele>731.122</ele>
        <time>2011-07-05T10:20:15Z</time>
      </trkpt>
      <trkpt lat="62.550893" lon="12.326383">
        <ele>732.545</ele>
        <time>2011-07-05T10:20:25Z</time>
      </trkpt>
      <trkpt lat="62.551016" lon="12.326566">
        <ele>733.222</ele>
        <time>2011-07-05T10:20:34Z</time>
      </trkpt>
      <trkpt lat="62.551146" lon="12.32672">
        <ele>733.901</ele>
        <time>2011-07-05T10:20:42Z</time>
      </trkpt>
      <trkpt lat="62.55129" lon="12.326893">
        <ele>734.904</ele>
        <time>2011-07-05T10:20:51Z</time>
      </trkpt>
      <trkpt lat="62.551339" lon="12.326944">
        <ele>735.533</ele>
        <time>2011-07-05T10:20:54Z</time>
      </trkpt>
      <trkpt lat="62.551392" lon="12.327127">
        <ele>735.82</ele>
        <time>2011-07-05T10:21:01Z</time>
      </trkpt>
      <trkpt lat="62.551477" lon="12.327226">
        <ele>737.093</ele>
        <time>2011-07-05T10:21:07Z</time>
      </trkpt>
      <trkpt lat="62.551525" lon="12.327269">
        <ele>738.642</ele>
        <time>2011-07-05T10:21:12Z</time>
      </trkpt>
      <trkpt lat="62.551569" lon="12.327326">
        <ele>740.213</ele>
        <time>2011-07-05T10:21:18Z</time>
      </trkpt>
      <trkpt lat="62.551641" lon="12.32741">
        <ele>741.853</ele>
        <time>2011-07-05T10:21:24Z</time>
      </trkpt>
      <trkpt lat="62.551645" lon="12.327422">
        <ele>742.184</ele>
        <time>2011-07-05T10:21:25Z</time>
      </trkpt>
      <trkpt lat="62.551696" lon="12.327507">
        <ele>743.342</ele>
        <time>2011-07-05T10:21:30Z</time>
      </trkpt>
      <trkpt lat="62.55171" lon="12.327554">
        <ele>743.93</ele>
        <time>2011-07-05T10:21:32Z</time>
      </trkpt>
      <trkpt lat="62.551794" lon="12.327682">
        <ele>745.249</ele>
        <time>2011-07-05T10:21:40Z</time>
      </trkpt>
      <trkpt lat="62.551858" lon="12.327821">
        <ele>746.844</ele>
        <time>2011-07-05T10:21:47Z</time>
      </trkpt>
      <trkpt lat="62.551941" lon="12.327945">
        <ele>748.904</ele>
        <time>2011-07-05T10:21:55Z</time>
      </trkpt>
      <trkpt lat="62.552022" lon="12.328064">
        <ele>750.914</ele>
        <time>2011-07-05T10:22:03Z</time>
      </trkpt>
      <trkpt lat="62.552111" lon="12.328132">
        <ele>752.144</ele>
        <time>2011-07-05T10:22:10Z</time>
      </trkpt>
      <trkpt lat="62.552193" lon="12.328198">
        <ele>753.264</ele>
        <time>2011-07-05T10:22:17Z</time>
      </trkpt>
      <trkpt lat="62.552258" lon="12.328262">
        <ele>754.06</ele>
        <time>2011-07-05T10:22:23Z</time>
      </trkpt>
      <trkpt lat="62.55237" lon="12.328302">
        <ele>755.409</ele>
        <time>2011-07-05T10:22:32Z</time>
      </trkpt>
      <trkpt lat="62.552464" lon="12.32833">
        <ele>757.026</ele>
        <time>2011-07-05T10:22:40Z</time>
      </trkpt>
      <trkpt lat="62.552521" lon="12.328327">
        <ele>758.056</ele>
        <time>2011-07-05T10:22:45Z</time>
      </trkpt>
      <trkpt lat="62.552599" lon="12.328364">
        <ele>759.172</ele>
        <time>2011-07-05T10:22:52Z</time>
      </trkpt>
      <trkpt lat="62.55267" lon="12.328396">
        <ele>759.724</ele>
        <time>2011-07-05T10:22:57Z</time>
      </trkpt>
      <trkpt lat="62.552734" lon="12.328361">
        <ele>760.263</ele>
        <time>2011-07-05T10:23:01Z</time>
      </trkpt>
      <trkpt lat="62.552866" lon="12.328349">
        <ele>761.188</ele>
        <time>2011-07-05T10:23:09Z</time>
      </trkpt>
      <trkpt lat="62.552951" lon="12.328393">
        <ele>762.008</ele>
        <time>2011-07-05T10:23:15Z</time>
      </trkpt>
      <trkpt lat="62.552968" lon="12.3284">
        <ele>762.179</ele>
        <time>2011-07-05T10:23:16Z</time>
      </trkpt>
      <trkpt lat="62.55308" lon="12.328411">
        <ele>762.915</ele>
        <time>2011-07-05T10:23:23Z</time>
      </trkpt>
      <trkpt lat="62.553112" lon="12.32842">
        <ele>763.125</ele>
        <time>2011-07-05T10:23:25Z</time>
      </trkpt>
      <trkpt lat="62.553222" lon="12.328504">
        <ele>763.863</ele>
        <time>2011-07-05T10:23:33Z</time>
      </trkpt>
      <trkpt lat="62.553233" lon="12.328513">
        <ele>763.936</ele>
        <time>2011-07-05T10:23:34Z</time>
      </trkpt>
      <trkpt lat="62.553287" lon="12.32856">
        <ele>764.152</ele>
        <time>2011-07-05T10:23:39Z</time>
      </trkpt>
      <trkpt lat="62.553336" lon="12.32862">
        <ele>764.39</ele>
        <time>2011-07-05T10:23:44Z</time>
      </trkpt>
      <trkpt lat="62.55346" lon="12.328753">
        <ele>765.984</ele>
        <time>2011-07-05T10:23:54Z</time>
      </trkpt>
      <trkpt lat="62.553559" lon="12.328882">
        <ele>767.764</ele>
        <time>2011-07-05T10:24:02Z</time>
      </trkpt>
      <trkpt lat="62.553615" lon="12.328967">
        <ele>768.756</ele>
        <time>2011-07-05T10:24:07Z</time>
      </trkpt>
      <trkpt lat="62.553727" lon="12.32914">
        <ele>770.552</ele>
        <time>2011-07-05T10:24:18Z</time>
      </trkpt>
      <trkpt lat="62.553802" lon="12.329245">
        <ele>771.832</ele>
        <time>2011-07-05T10:24:25Z</time>
      </trkpt>
      <trkpt lat="62.553875" lon="12.329326">
        <ele>772.889</ele>
        <time>2011-07-05T10:24:32Z</time>
      </trkpt>
      <trkpt lat="62.553942" lon="12.329469">
        <ele>774.056</ele>
        <time>2011-07-05T10:24:39Z</time>
      </trkpt>
      <trkpt lat="62.553988" lon="12.3296">
        <ele>775.645</ele>
        <time>2011-07-05T10:24:46Z</time>
      </trkpt>
      <trkpt lat="62.554055" lon="12.329741">
        <ele>776.94</ele>
        <time>2011-07-05T10:24:53Z</time>
      </trkpt>
      <trkpt lat="62.554089" lon="12.329786">
        <ele>777.471</ele>
        <time>2011-07-05T10:24:57Z</time>
      </trkpt>
      <trkpt lat="62.554136" lon="12.32985">
        <ele>778.379</ele>
        <time>2011-07-05T10:25:02Z</time>
      </trkpt>
      <trkpt lat="62.554194" lon="12.329924">
        <ele>779.779</ele>
        <time>2011-07-05T10:25:09Z</time>
      </trkpt>
      <trkpt lat="62.554217" lon="12.329936">
        <ele>780.083</ele>
        <time>2011-07-05T10:25:11Z</time>
      </trkpt>
      <trkpt lat="62.554301" lon="12.329974">
        <ele>780.964</ele>
        <time>2011-07-05T10:25:18Z</time>
      </trkpt>
      <trkpt lat="62.554381" lon="12.330046">
        <ele>782.332</ele>
        <time>2011-07-05T10:25:26Z</time>
      </trkpt>
      <trkpt lat="62.554494" lon="12.330162">
        <ele>782.779</ele>
        <time>2011-07-05T10:25:35Z</time>
      </trkpt>
      <trkpt lat="62.554625" lon="12.330214">
        <ele>783.414</ele>
        <time>2011-07-05T10:25:43Z</time>
      </trkpt>
      <trkpt lat="62.55478" lon="12.33013">
        <ele>784.377</ele>
        <time>2011-07-05T10:25:51Z</time>
      </trkpt>
      <trkpt lat="62.554852" lon="12.330095">
        <ele>785.39</ele>
        <time>2011-07-05T10:25:57Z</time>
      </trkpt>
      <trkpt lat="62.554878" lon="12.330085">
        <ele>785.571</ele>
        <time>2011-07-05T10:25:59Z</time>
      </trkpt>
      <trkpt lat="62.554966" lon="12.330086">
        <ele>786.082</ele>
        <time>2011-07-05T10:26:06Z</time>
      </trkpt>
      <trkpt lat="62.555014" lon="12.330155">
        <ele>786.934</ele>
        <time>2011-07-05T10:26:12Z</time>
      </trkpt>
      <trkpt lat="62.555092" lon="12.330236">
        <ele>788.348</ele>
        <time>2011-07-05T10:26:20Z</time>
      </trkpt>
      <trkpt lat="62.555149" lon="12.33034">
        <ele>789.305</ele>
        <time>2011-07-05T10:26:26Z</time>
      </trkpt>
      <trkpt lat="62.555219" lon="12.330427">
        <ele>790.729</ele>
        <time>2011-07-05T10:26:34Z</time>
      </trkpt>
      <trkpt lat="62.555338" lon="12.330474">
        <ele>792.205</ele>
        <time>2011-07-05T10:26:42Z</time>
      </trkpt>
      <trkpt lat="62.555371" lon="12.330492">
        <ele>792.982</ele>
        <time>2011-07-05T10:26:45Z</time>
      </trkpt>
      <trkpt lat="62.555473" lon="12.330544">
        <ele>794.137</ele>
        <time>2011-07-05T10:26:52Z</time>
      </trkpt>
      <trkpt lat="62.555608" lon="12.330528">
        <ele>795.528</ele>
        <time>2011-07-05T10:27:01Z</time>
      </trkpt>
      <trkpt lat="62.555734" lon="12.330508">
        <ele>796.778</ele>
        <time>2011-07-05T10:27:10Z</time>
      </trkpt>
      <trkpt lat="62.555779" lon="12.330512">
        <ele>797.153</ele>
        <time>2011-07-05T10:27:13Z</time>
      </trkpt>
      <trkpt lat="62.555881" lon="12.330448">
        <ele>798.245</ele>
        <time>2011-07-05T10:27:22Z</time>
      </trkpt>
      <trkpt lat="62.556005" lon="12.330388">
        <ele>799.355</ele>
        <time>2011-07-05T10:27:30Z</time>
      </trkpt>
      <trkpt lat="62.556119" lon="12.330323">
        <ele>800.029</ele>
        <time>2011-07-05T10:27:38Z</time>
      </trkpt>
      <trkpt lat="62.556213" lon="12.330248">
        <ele>800.888</ele>
        <time>2011-07-05T10:27:45Z</time>
      </trkpt>
      <trkpt lat="62.556255" lon="12.330217">
        <ele>801.149</ele>
        <time>2011-07-05T10:27:48Z</time>
      </trkpt>
      <trkpt lat="62.556329" lon="12.33013">
        <ele>801.701</ele>
        <time>2011-07-05T10:27:55Z</time>
      </trkpt>
      <trkpt lat="62.556385" lon="12.330027">
        <ele>801.685</ele>
        <time>2011-07-05T10:28:00Z</time>
      </trkpt>
      <trkpt lat="62.556495" lon="12.329973">
        <ele>802.137</ele>
        <time>2011-07-05T10:28:08Z</time>
      </trkpt>
      <trkpt lat="62.556592" lon="12.329981">
        <ele>803.322</ele>
        <time>2011-07-05T10:28:15Z</time>
      </trkpt>
      <trkpt lat="62.556682" lon="12.329986">
        <ele>804.867</ele>
        <time>2011-07-05T10:28:22Z</time>
      </trkpt>
      <trkpt lat="62.556709" lon="12.330005">
        <ele>805.345</ele>
        <time>2011-07-05T10:28:25Z</time>
      </trkpt>
      <trkpt lat="62.556788" lon="12.330004">
        <ele>807.434</ele>
        <time>2011-07-05T10:28:32Z</time>
      </trkpt>
      <trkpt lat="62.556892" lon="12.330013">
        <ele>809.122</ele>
        <time>2011-07-05T10:28:39Z</time>
      </trkpt>
      <trkpt lat="62.556911" lon="12.330046">
        <ele>809.84</ele>
        <time>2011-07-05T10:28:42Z</time>
      </trkpt>
      <trkpt lat="62.556961" lon="12.330037">
        <ele>810.751</ele>
        <time>2011-07-05T10:28:46Z</time>
      </trkpt>
      <trkpt lat="62.557022" lon="12.330108">
        <ele>812.923</ele>
        <time>2011-07-05T10:28:54Z</time>
      </trkpt>
      <trkpt lat="62.557061" lon="12.330179">
        <ele>814.558</ele>
        <time>2011-07-05T10:29:00Z</time>
      </trkpt>
      <trkpt lat="62.557091" lon="12.330184">
        <ele>815.434</ele>
        <time>2011-07-05T10:29:04Z</time>
      </trkpt>
      <trkpt lat="62.557168" lon="12.330243">
        <ele>816.393</ele>
        <time>2011-07-05T10:29:11Z</time>
      </trkpt>
      <trkpt lat="62.557179" lon="12.330251">
        <ele>816.598</ele>
        <time>2011-07-05T10:29:12Z</time>
      </trkpt>
      <trkpt lat="62.557225" lon="12.330268">
        <ele>817.155</ele>
        <time>2011-07-05T10:29:16Z</time>
      </trkpt>
      <trkpt lat="62.557258" lon="12.330301">
        <ele>817.724</ele>
        <time>2011-07-05T10:29:19Z</time>
      </trkpt>
      <trkpt lat="62.557323" lon="12.330321">
        <ele>818.744</ele>
        <time>2011-07-05T10:29:24Z</time>
      </trkpt>
      <trkpt lat="62.557388" lon="12.330415">
        <ele>820.2</ele>
        <time>2011-07-05T10:29:32Z</time>
      </trkpt>
      <trkpt lat="62.557396" lon="12.330419">
        <ele>820.383</ele>
        <time>2011-07-05T10:29:33Z</time>
      </trkpt>
      <trkpt lat="62.557458" lon="12.330434">
        <ele>821.019</ele>
        <time>2011-07-05T10:29:38Z</time>
      </trkpt>
      <trkpt lat="62.557499" lon="12.33044">
        <ele>821.158</ele>
        <time>2011-07-05T10:29:41Z</time>
      </trkpt>
      <trkpt lat="62.557595" lon="12.330468">
        <ele>821.831</ele>
        <time>2011-07-05T10:29:48Z</time>
      </trkpt>
      <trkpt lat="62.557674" lon="12.330545">
        <ele>822.661</ele>
        <time>2011-07-05T10:29:55Z</time>
      </trkpt>
      <trkpt lat="62.557716" lon="12.330569">
        <ele>823.335</ele>
        <time>2011-07-05T10:30:01Z</time>
      </trkpt>
      <trkpt lat="62.557725" lon="12.330574">
        <ele>823.434</ele>
        <time>2011-07-05T10:30:02Z</time>
      </trkpt>
      <trkpt lat="62.557741" lon="12.330597">
        <ele>823.869</ele>
        <time>2011-07-05T10:30:06Z</time>
      </trkpt>
      <trkpt lat="62.557828" lon="12.330675">
        <ele>824.406</ele>
        <time>2011-07-05T10:30:27Z</time>
      </trkpt>
      <trkpt lat="62.557834" lon="12.330686">
        <ele>824.532</ele>
        <time>2011-07-05T10:30:28Z</time>
      </trkpt>
      <trkpt lat="62.557867" lon="12.330764">
        <ele>825.221</ele>
        <time>2011-07-05T10:30:32Z</time>
      </trkpt>
      <trkpt lat="62.5579" lon="12.330865">
        <ele>825.611</ele>
        <time>2011-07-05T10:30:37Z</time>
      </trkpt>
      <trkpt lat="62.557905" lon="12.330885">
        <ele>825.747</ele>
        <time>2011-07-05T10:30:38Z</time>
      </trkpt>
      <trkpt lat="62.557938" lon="12.330983">
        <ele>825.975</ele>
        <time>2011-07-05T10:30:43Z</time>
      </trkpt>
      <trkpt lat="62.557988" lon="12.331155">
        <ele>826.452</ele>
        <time>2011-07-05T10:30:50Z</time>
      </trkpt>
      <trkpt lat="62.557988" lon="12.331206">
        <ele>826.533</ele>
        <time>2011-07-05T10:30:52Z</time>
      </trkpt>
      <trkpt lat="62.558038" lon="12.331273">
        <ele>827.066</ele>
        <time>2011-07-05T10:30:58Z</time>
      </trkpt>
      <trkpt lat="62.558047" lon="12.331273">
        <ele>827.137</ele>
        <time>2011-07-05T10:30:59Z</time>
      </trkpt>
      <trkpt lat="62.558094" lon="12.331232">
        <ele>827.372</ele>
        <time>2011-07-05T10:31:04Z</time>
      </trkpt>
      <trkpt lat="62.558191" lon="12.33134">
        <ele>828.282</ele>
        <time>2011-07-05T10:31:12Z</time>
      </trkpt>
      <trkpt lat="62.55827" lon="12.331492">
        <ele>829.577</ele>
        <time>2011-07-05T10:31:21Z</time>
      </trkpt>
      <trkpt lat="62.558338" lon="12.331574">
        <ele>831.245</ele>
        <time>2011-07-05T10:31:28Z</time>
      </trkpt>
      <trkpt lat="62.558393" lon="12.331598">
        <ele>831.701</ele>
        <time>2011-07-05T10:31:34Z</time>
      </trkpt>
      <trkpt lat="62.558458" lon="12.33158">
        <ele>831.966</ele>
        <time>2011-07-05T10:31:39Z</time>
      </trkpt>
      <trkpt lat="62.558491" lon="12.331566">
        <ele>831.619</ele>
        <time>2011-07-05T10:31:41Z</time>
      </trkpt>
      <trkpt lat="62.558542" lon="12.331624">
        <ele>831.914</ele>
        <time>2011-07-05T10:31:47Z</time>
      </trkpt>
      <trkpt lat="62.558556" lon="12.331611">
        <ele>831.954</ele>
        <time>2011-07-05T10:31:48Z</time>
      </trkpt>
      <trkpt lat="62.558594" lon="12.331568">
        <ele>832.162</ele>
        <time>2011-07-05T10:31:51Z</time>
      </trkpt>
      <trkpt lat="62.558707" lon="12.331569">
        <ele>833.554</ele>
        <time>2011-07-05T10:31:59Z</time>
      </trkpt>
      <trkpt lat="62.558787" lon="12.331544">
        <ele>834.383</ele>
        <time>2011-07-05T10:32:06Z</time>
      </trkpt>
      <trkpt lat="62.558864" lon="12.33148">
        <ele>834.629</ele>
        <time>2011-07-05T10:32:13Z</time>
      </trkpt>
      <trkpt lat="62.558891" lon="12.33148">
        <ele>834.645</ele>
        <time>2011-07-05T10:32:15Z</time>
      </trkpt>
      <trkpt lat="62.55894" lon="12.331446">
        <ele>834.915</ele>
        <time>2011-07-05T10:32:19Z</time>
      </trkpt>
      <trkpt lat="62.558995" lon="12.3314">
        <ele>835.151</ele>
        <time>2011-07-05T10:32:25Z</time>
      </trkpt>
      <trkpt lat="62.559076" lon="12.331539">
        <ele>835.355</ele>
        <time>2011-07-05T10:32:38Z</time>
      </trkpt>
      <trkpt lat="62.559183" lon="12.33163">
        <ele>836.333</ele>
        <time>2011-07-05T10:32:47Z</time>
      </trkpt>
      <trkpt lat="62.559253" lon="12.331717">
        <ele>838.176</ele>
        <time>2011-07-05T10:32:53Z</time>
      </trkpt>
      <trkpt lat="62.559358" lon="12.331682">
        <ele>839.678</ele>
        <time>2011-07-05T10:33:00Z</time>
      </trkpt>
      <trkpt lat="62.559451" lon="12.331676">
        <ele>839.202</ele>
        <time>2011-07-05T10:33:07Z</time>
      </trkpt>
      <trkpt lat="62.559542" lon="12.331631">
        <ele>837.574</ele>
        <time>2011-07-05T10:33:12Z</time>
      </trkpt>
      <trkpt lat="62.559653" lon="12.331554">
        <ele>837.941</ele>
        <time>2011-07-05T10:33:17Z</time>
      </trkpt>
      <trkpt lat="62.559783" lon="12.3315">
        <ele>839.423</ele>
        <time>2011-07-05T10:33:23Z</time>
      </trkpt>
      <trkpt lat="62.559862" lon="12.331498">
        <ele>839.727</ele>
        <time>2011-07-05T10:33:27Z</time>
      </trkpt>
      <trkpt lat="62.55989" lon="12.33147">
        <ele>839.605</ele>
        <time>2011-07-05T10:33:29Z</time>
      </trkpt>
      <trkpt lat="62.559997" lon="12.331438">
        <ele>839.864</ele>
        <time>2011-07-05T10:33:38Z</time>
      </trkpt>
      <trkpt lat="62.560096" lon="12.33129">
        <ele>840.62</ele>
        <time>2011-07-05T10:33:46Z</time>
      </trkpt>
      <trkpt lat="62.56019" lon="12.331207">
        <ele>840.711</ele>
        <time>2011-07-05T10:33:54Z</time>
      </trkpt>
      <trkpt lat="62.560293" lon="12.331247">
        <ele>840.382</ele>
        <time>2011-07-05T10:33:59Z</time>
      </trkpt>
      <trkpt lat="62.560358" lon="12.331196">
        <ele>841.487</ele>
        <time>2011-07-05T10:34:04Z</time>
      </trkpt>
      <trkpt lat="62.560447" lon="12.331193">
        <ele>841.634</ele>
        <time>2011-07-05T10:34:10Z</time>
      </trkpt>
      <trkpt lat="62.56046" lon="12.331191">
        <ele>841.783</ele>
        <time>2011-07-05T10:34:11Z</time>
      </trkpt>
      <trkpt lat="62.560504" lon="12.331155">
        <ele>843.548</ele>
        <time>2011-07-05T10:34:15Z</time>
      </trkpt>
      <trkpt lat="62.560525" lon="12.33114">
        <ele>844.533</ele>
        <time>2011-07-05T10:34:17Z</time>
      </trkpt>
      <trkpt lat="62.560569" lon="12.331097">
        <ele>845.847</ele>
        <time>2011-07-05T10:34:23Z</time>
      </trkpt>
      <trkpt lat="62.560597" lon="12.331015">
        <ele>847.529</ele>
        <time>2011-07-05T10:34:30Z</time>
      </trkpt>
      <trkpt lat="62.560624" lon="12.330889">
        <ele>848.548</ele>
        <time>2011-07-05T10:34:38Z</time>
      </trkpt>
      <trkpt lat="62.560623" lon="12.330877">
        <ele>848.832</ele>
        <time>2011-07-05T10:34:40Z</time>
      </trkpt>
      <trkpt lat="62.56073" lon="12.330888">
        <ele>847.82</ele>
        <time>2011-07-05T10:34:58Z</time>
      </trkpt>
      <trkpt lat="62.560778" lon="12.330873">
        <ele>847.962</ele>
        <time>2011-07-05T10:35:02Z</time>
      </trkpt>
      <trkpt lat="62.56082" lon="12.330658">
        <ele>848.874</ele>
        <time>2011-07-05T10:35:10Z</time>
      </trkpt>
      <trkpt lat="62.56088" lon="12.330546">
        <ele>848.669</ele>
        <time>2011-07-05T10:35:16Z</time>
      </trkpt>
      <trkpt lat="62.560984" lon="12.330484">
        <ele>849.878</ele>
        <time>2011-07-05T10:35:25Z</time>
      </trkpt>
      <trkpt lat="62.561015" lon="12.330463">
        <ele>849.699</ele>
        <time>2011-07-05T10:35:29Z</time>
      </trkpt>
      <trkpt lat="62.561149" lon="12.330304">
        <ele>847.814</ele>
        <time>2011-07-05T10:35:45Z</time>
      </trkpt>
      <trkpt lat="62.561168" lon="12.330277">
        <ele>847.478</ele>
        <time>2011-07-05T10:35:47Z</time>
      </trkpt>
      <trkpt lat="62.561252" lon="12.330084">
        <ele>845.22</ele>
        <time>2011-07-05T10:35:56Z</time>
      </trkpt>
      <trkpt lat="62.561296" lon="12.329894">
        <ele>844.108</ele>
        <time>2011-07-05T10:36:04Z</time>
      </trkpt>
      <trkpt lat="62.561358" lon="12.329738">
        <ele>842.736</ele>
        <time>2011-07-05T10:36:11Z</time>
      </trkpt>
      <trkpt lat="62.561436" lon="12.329688">
        <ele>842.139</ele>
        <time>2011-07-05T10:36:17Z</time>
      </trkpt>
      <trkpt lat="62.561546" lon="12.329655">
        <ele>841.955</ele>
        <time>2011-07-05T10:36:25Z</time>
      </trkpt>
      <trkpt lat="62.56164" lon="12.32957">
        <ele>841.984</ele>
        <time>2011-07-05T10:36:32Z</time>
      </trkpt>
      <trkpt lat="62.561785" lon="12.329629">
        <ele>842.311</ele>
        <time>2011-07-05T10:36:41Z</time>
      </trkpt>
      <trkpt lat="62.561875" lon="12.329692">
        <ele>842.948</ele>
        <time>2011-07-05T10:36:46Z</time>
      </trkpt>
      <trkpt lat="62.561947" lon="12.329745">
        <ele>843.044</ele>
        <time>2011-07-05T10:36:50Z</time>
      </trkpt>
      <trkpt lat="62.562087" lon="12.329834">
        <ele>844.115</ele>
        <time>2011-07-05T10:36:56Z</time>
      </trkpt>
      <trkpt lat="62.562151" lon="12.329848">
        <ele>844.564</ele>
        <time>2011-07-05T10:36:59Z</time>
      </trkpt>
      <trkpt lat="62.562318" lon="12.330204">
        <ele>844.394</ele>
        <time>2011-07-05T10:37:08Z</time>
      </trkpt>
      <trkpt lat="62.562402" lon="12.330326">
        <ele>845.329</ele>
        <time>2011-07-05T10:37:14Z</time>
      </trkpt>
      <trkpt lat="62.562415" lon="12.330337">
        <ele>845.37</ele>
        <time>2011-07-05T10:37:15Z</time>
      </trkpt>
      <trkpt lat="62.562519" lon="12.330426">
        <ele>846.111</ele>
        <time>2011-07-05T10:37:20Z</time>
      </trkpt>
      <trkpt lat="62.56261" lon="12.330403">
        <ele>846.317</ele>
        <time>2011-07-05T10:37:24Z</time>
      </trkpt>
      <trkpt lat="62.562737" lon="12.330491">
        <ele>846.004</ele>
        <time>2011-07-05T10:37:29Z</time>
      </trkpt>
      <trkpt lat="62.562873" lon="12.330574">
        <ele>846.149</ele>
        <time>2011-07-05T10:37:35Z</time>
      </trkpt>
      <trkpt lat="62.563026" lon="12.33067">
        <ele>846.39</ele>
        <time>2011-07-05T10:37:42Z</time>
      </trkpt>
      <trkpt lat="62.563198" lon="12.330724">
        <ele>847.301</ele>
        <time>2011-07-05T10:37:49Z</time>
      </trkpt>
      <trkpt lat="62.563435" lon="12.330808">
        <ele>849.065</ele>
        <time>2011-07-05T10:37:58Z</time>
      </trkpt>
      <trkpt lat="62.563609" lon="12.330883">
        <ele>849.714</ele>
        <time>2011-07-05T10:38:05Z</time>
      </trkpt>
      <trkpt lat="62.563758" lon="12.330991">
        <ele>850.44</ele>
        <time>2011-07-05T10:38:11Z</time>
      </trkpt>
      <trkpt lat="62.563879" lon="12.33109">
        <ele>851.935</ele>
        <time>2011-07-05T10:38:17Z</time>
      </trkpt>
      <trkpt lat="62.563981" lon="12.331113">
        <ele>853.11</ele>
        <time>2011-07-05T10:38:22Z</time>
      </trkpt>
      <trkpt lat="62.564084" lon="12.331175">
        <ele>854.296</ele>
        <time>2011-07-05T10:38:27Z</time>
      </trkpt>
      <trkpt lat="62.564118" lon="12.331181">
        <ele>854.455</ele>
        <time>2011-07-05T10:38:28Z</time>
      </trkpt>
      <trkpt lat="62.564168" lon="12.331293">
        <ele>854.915</ele>
        <time>2011-07-05T10:38:32Z</time>
      </trkpt>
      <trkpt lat="62.564189" lon="12.331303">
        <ele>855.186</ele>
        <time>2011-07-05T10:38:33Z</time>
      </trkpt>
      <trkpt lat="62.564364" lon="12.331386">
        <ele>857.044</ele>
        <time>2011-07-05T10:38:41Z</time>
      </trkpt>
      <trkpt lat="62.564587" lon="12.331448">
        <ele>858.341</ele>
        <time>2011-07-05T10:38:50Z</time>
      </trkpt>
      <trkpt lat="62.56469" lon="12.331515">
        <ele>859.998</ele>
        <time>2011-07-05T10:38:56Z</time>
      </trkpt>
      <trkpt lat="62.564704" lon="12.331533">
        <ele>860.079</ele>
        <time>2011-07-05T10:38:57Z</time>
      </trkpt>
      <trkpt lat="62.564798" lon="12.331555">
        <ele>860.066</ele>
        <time>2011-07-05T10:39:03Z</time>
      </trkpt>
      <trkpt lat="62.564863" lon="12.331531">
        <ele>860.542</ele>
        <time>2011-07-05T10:39:08Z</time>
      </trkpt>
      <trkpt lat="62.564994" lon="12.331578">
        <ele>860.992</ele>
        <time>2011-07-05T10:39:22Z</time>
      </trkpt>
      <trkpt lat="62.565134" lon="12.331642">
        <ele>862.017</ele>
        <time>2011-07-05T10:39:28Z</time>
      </trkpt>
      <trkpt lat="62.565245" lon="12.331721">
        <ele>862.865</ele>
        <time>2011-07-05T10:39:33Z</time>
      </trkpt>
      <trkpt lat="62.565407" lon="12.331741">
        <ele>864.018</ele>
        <time>2011-07-05T10:39:40Z</time>
      </trkpt>
      <trkpt lat="62.565517" lon="12.331777">
        <ele>864.828</ele>
        <time>2011-07-05T10:39:45Z</time>
      </trkpt>
      <trkpt lat="62.565646" lon="12.331786">
        <ele>866.011</ele>
        <time>2011-07-05T10:39:51Z</time>
      </trkpt>
      <trkpt lat="62.565655" lon="12.331771">
        <ele>866.305</ele>
        <time>2011-07-05T10:39:54Z</time>
      </trkpt>
      <trkpt lat="62.56571" lon="12.331744">
        <ele>865.443</ele>
        <time>2011-07-05T10:40:06Z</time>
      </trkpt>
      <trkpt lat="62.56574" lon="12.331735">
        <ele>866.099</ele>
        <time>2011-07-05T10:40:10Z</time>
      </trkpt>
      <trkpt lat="62.565775" lon="12.331758">
        <ele>866.396</ele>
        <time>2011-07-05T10:40:13Z</time>
      </trkpt>
      <trkpt lat="62.565865" lon="12.331779">
        <ele>867.135</ele>
        <time>2011-07-05T10:40:19Z</time>
      </trkpt>
      <trkpt lat="62.565939" lon="12.331851">
        <ele>868.6</ele>
        <time>2011-07-05T10:40:24Z</time>
      </trkpt>
      <trkpt lat="62.566065" lon="12.332036">
        <ele>870.892</ele>
        <time>2011-07-05T10:40:31Z</time>
      </trkpt>
      <trkpt lat="62.566205" lon="12.332096">
        <ele>872.34</ele>
        <time>2011-07-05T10:40:37Z</time>
      </trkpt>
      <trkpt lat="62.566351" lon="12.332173">
        <ele>873.429</ele>
        <time>2011-07-05T10:40:43Z</time>
      </trkpt>
      <trkpt lat="62.566516" lon="12.332266">
        <ele>874.314</ele>
        <time>2011-07-05T10:40:50Z</time>
      </trkpt>
      <trkpt lat="62.566623" lon="12.332291">
        <ele>874.724</ele>
        <time>2011-07-05T10:40:56Z</time>
      </trkpt>
      <trkpt lat="62.566754" lon="12.332263">
        <ele>875.015</ele>
        <time>2011-07-05T10:41:02Z</time>
      </trkpt>
      <trkpt lat="62.566876" lon="12.33228">
        <ele>875.63</ele>
        <time>2011-07-05T10:41:07Z</time>
      </trkpt>
      <trkpt lat="62.56694" lon="12.332281">
        <ele>876.419</ele>
        <time>2011-07-05T10:41:11Z</time>
      </trkpt>
      <trkpt lat="62.567018" lon="12.33231">
        <ele>876.548</ele>
        <time>2011-07-05T10:41:17Z</time>
      </trkpt>
      <trkpt lat="62.567034" lon="12.332305">
        <ele>876.759</ele>
        <time>2011-07-05T10:41:19Z</time>
      </trkpt>
      <trkpt lat="62.567116" lon="12.332325">
        <ele>876.831</ele>
        <time>2011-07-05T10:41:54Z</time>
      </trkpt>
      <trkpt lat="62.567199" lon="12.332403">
        <ele>876.817</ele>
        <time>2011-07-05T10:42:00Z</time>
      </trkpt>
      <trkpt lat="62.567218" lon="12.33242">
        <ele>876.873</ele>
        <time>2011-07-05T10:42:01Z</time>
      </trkpt>
      <trkpt lat="62.567319" lon="12.332535">
        <ele>876.59</ele>
        <time>2011-07-05T10:42:06Z</time>
      </trkpt>
      <trkpt lat="62.567477" lon="12.332561">
        <ele>876.758</ele>
        <time>2011-07-05T10:42:12Z</time>
      </trkpt>
      <trkpt lat="62.567564" lon="12.33268">
        <ele>877.249</ele>
        <time>2011-07-05T10:42:17Z</time>
      </trkpt>
      <trkpt lat="62.567695" lon="12.332832">
        <ele>877.789</ele>
        <time>2011-07-05T10:42:24Z</time>
      </trkpt>
      <trkpt lat="62.567784" lon="12.332774">
        <ele>878.836</ele>
        <time>2011-07-05T10:42:29Z</time>
      </trkpt>
      <trkpt lat="62.567889" lon="12.332677">
        <ele>878.678</ele>
        <time>2011-07-05T10:42:34Z</time>
      </trkpt>
      <trkpt lat="62.567947" lon="12.33257">
        <ele>878.368</ele>
        <time>2011-07-05T10:42:38Z</time>
      </trkpt>
      <trkpt lat="62.5681" lon="12.332329">
        <ele>878.732</ele>
        <time>2011-07-05T10:42:45Z</time>
      </trkpt>
      <trkpt lat="62.568169" lon="12.33223">
        <ele>878.775</ele>
        <time>2011-07-05T10:42:48Z</time>
      </trkpt>
      <trkpt lat="62.568327" lon="12.332166">
        <ele>878.619</ele>
        <time>2011-07-05T10:42:54Z</time>
      </trkpt>
      <trkpt lat="62.568352" lon="12.332141">
        <ele>878.615</ele>
        <time>2011-07-05T10:42:55Z</time>
      </trkpt>
      <trkpt lat="62.56856" lon="12.331967">
        <ele>878.677</ele>
        <time>2011-07-05T10:43:03Z</time>
      </trkpt>
      <trkpt lat="62.568805" lon="12.331784">
        <ele>879.034</ele>
        <time>2011-07-05T10:43:12Z</time>
      </trkpt>
      <trkpt lat="62.569129" lon="12.331552">
        <ele>879.258</ele>
        <time>2011-07-05T10:43:24Z</time>
      </trkpt>
      <trkpt lat="62.569288" lon="12.331468">
        <ele>879.585</ele>
        <time>2011-07-05T10:43:30Z</time>
      </trkpt>
      <trkpt lat="62.569402" lon="12.331366">
        <ele>879.43</ele>
        <time>2011-07-05T10:43:35Z</time>
      </trkpt>
      <trkpt lat="62.569511" lon="12.331238">
        <ele>879.207</ele>
        <time>2011-07-05T10:43:40Z</time>
      </trkpt>
      <trkpt lat="62.569584" lon="12.331128">
        <ele>878.954</ele>
        <time>2011-07-05T10:43:44Z</time>
      </trkpt>
      <trkpt lat="62.569682" lon="12.331113">
        <ele>879.078</ele>
        <time>2011-07-05T10:43:49Z</time>
      </trkpt>
      <trkpt lat="62.569748" lon="12.331105">
        <ele>879.49</ele>
        <time>2011-07-05T10:43:54Z</time>
      </trkpt>
      <trkpt lat="62.569822" lon="12.330968">
        <ele>880.045</ele>
        <time>2011-07-05T10:44:01Z</time>
      </trkpt>
      <trkpt lat="62.569867" lon="12.330959">
        <ele>880.354</ele>
        <time>2011-07-05T10:44:04Z</time>
      </trkpt>
      <trkpt lat="62.56995" lon="12.330981">
        <ele>880.336</ele>
        <time>2011-07-05T10:44:08Z</time>
      </trkpt>
      <trkpt lat="62.570075" lon="12.330992">
        <ele>881.339</ele>
        <time>2011-07-05T10:44:15Z</time>
      </trkpt>
      <trkpt lat="62.570125" lon="12.330999">
        <ele>881.771</ele>
        <time>2011-07-05T10:44:19Z</time>
      </trkpt>
      <trkpt lat="62.570164" lon="12.33098">
        <ele>882.049</ele>
        <time>2011-07-05T10:44:21Z</time>
      </trkpt>
      <trkpt lat="62.57025" lon="12.33099">
        <ele>883.504</ele>
        <time>2011-07-05T10:44:25Z</time>
      </trkpt>
      <trkpt lat="62.570286" lon="12.330989">
        <ele>883.948</ele>
        <time>2011-07-05T10:44:27Z</time>
      </trkpt>
      <trkpt lat="62.570383" lon="12.330879">
        <ele>884.009</ele>
        <time>2011-07-05T10:44:35Z</time>
      </trkpt>
      <trkpt lat="62.570424" lon="12.330747">
        <ele>884.054</ele>
        <time>2011-07-05T10:44:41Z</time>
      </trkpt>
      <trkpt lat="62.570502" lon="12.330615">
        <ele>883.88</ele>
        <time>2011-07-05T10:44:48Z</time>
      </trkpt>
      <trkpt lat="62.570574" lon="12.33053">
        <ele>883.825</ele>
        <time>2011-07-05T10:44:54Z</time>
      </trkpt>
      <trkpt lat="62.5706" lon="12.330519">
        <ele>883.644</ele>
        <time>2011-07-05T10:44:56Z</time>
      </trkpt>
      <trkpt lat="62.570671" lon="12.330446">
        <ele>882.73</ele>
        <time>2011-07-05T10:45:01Z</time>
      </trkpt>
      <trkpt lat="62.570729" lon="12.330429">
        <ele>883.224</ele>
        <time>2011-07-05T10:45:07Z</time>
      </trkpt>
      <trkpt lat="62.570739" lon="12.33044">
        <ele>883.386</ele>
        <time>2011-07-05T10:45:09Z</time>
      </trkpt>
      <trkpt lat="62.570826" lon="12.330496">
        <ele>882.657</ele>
        <time>2011-07-05T10:45:14Z</time>
      </trkpt>
      <trkpt lat="62.570904" lon="12.330533">
        <ele>882.954</ele>
        <time>2011-07-05T10:45:19Z</time>
      </trkpt>
      <trkpt lat="62.570996" lon="12.330458">
        <ele>883.076</ele>
        <time>2011-07-05T10:45:23Z</time>
      </trkpt>
      <trkpt lat="62.571038" lon="12.330398">
        <ele>883.365</ele>
        <time>2011-07-05T10:45:26Z</time>
      </trkpt>
      <trkpt lat="62.571111" lon="12.330371">
        <ele>882.969</ele>
        <time>2011-07-05T10:45:32Z</time>
      </trkpt>
      <trkpt lat="62.571142" lon="12.330348">
        <ele>883.028</ele>
        <time>2011-07-05T10:45:34Z</time>
      </trkpt>
      <trkpt lat="62.571179" lon="12.330277">
        <ele>882.99</ele>
        <time>2011-07-05T10:45:38Z</time>
      </trkpt>
      <trkpt lat="62.571164" lon="12.330247">
        <ele>882.916</ele>
        <time>2011-07-05T10:45:40Z</time>
      </trkpt>
      <trkpt lat="62.571234" lon="12.330035">
        <ele>882.492</ele>
        <time>2011-07-05T10:45:46Z</time>
      </trkpt>
      <trkpt lat="62.571319" lon="12.329915">
        <ele>883.05</ele>
        <time>2011-07-05T10:45:52Z</time>
      </trkpt>
      <trkpt lat="62.571412" lon="12.329872">
        <ele>883.61</ele>
        <time>2011-07-05T10:46:00Z</time>
      </trkpt>
      <trkpt lat="62.571473" lon="12.329743">
        <ele>884.117</ele>
        <time>2011-07-05T10:46:08Z</time>
      </trkpt>
      <trkpt lat="62.571564" lon="12.329668">
        <ele>883.281</ele>
        <time>2011-07-05T10:46:13Z</time>
      </trkpt>
      <trkpt lat="62.571666" lon="12.329648">
        <ele>883.576</ele>
        <time>2011-07-05T10:46:18Z</time>
      </trkpt>
      <trkpt lat="62.571703" lon="12.329568">
        <ele>883.885</ele>
        <time>2011-07-05T10:46:21Z</time>
      </trkpt>
      <trkpt lat="62.571844" lon="12.329532">
        <ele>884.373</ele>
        <time>2011-07-05T10:46:28Z</time>
      </trkpt>
      <trkpt lat="62.571925" lon="12.329477">
        <ele>886.299</ele>
        <time>2011-07-05T10:46:34Z</time>
      </trkpt>
      <trkpt lat="62.572038" lon="12.329463">
        <ele>886.466</ele>
        <time>2011-07-05T10:46:38Z</time>
      </trkpt>
      <trkpt lat="62.572094" lon="12.329444">
        <ele>887.204</ele>
        <time>2011-07-05T10:46:41Z</time>
      </trkpt>
      <trkpt lat="62.572131" lon="12.329452">
        <ele>887.894</ele>
        <time>2011-07-05T10:46:43Z</time>
      </trkpt>
      <trkpt lat="62.57225" lon="12.329407">
        <ele>888.224</ele>
        <time>2011-07-05T10:46:49Z</time>
      </trkpt>
      <trkpt lat="62.572291" lon="12.329359">
        <ele>888.381</ele>
        <time>2011-07-05T10:46:52Z</time>
      </trkpt>
      <trkpt lat="62.572356" lon="12.329331">
        <ele>888.468</ele>
        <time>2011-07-05T10:46:57Z</time>
      </trkpt>
      <trkpt lat="62.57246" lon="12.329213">
        <ele>890.085</ele>
        <time>2011-07-05T10:47:05Z</time>
      </trkpt>
      <trkpt lat="62.572528" lon="12.329215">
        <ele>891.302</ele>
        <time>2011-07-05T10:47:11Z</time>
      </trkpt>
      <trkpt lat="62.572542" lon="12.32921">
        <ele>891.36</ele>
        <time>2011-07-05T10:47:12Z</time>
      </trkpt>
      <trkpt lat="62.572621" lon="12.329242">
        <ele>892.936</ele>
        <time>2011-07-05T10:47:18Z</time>
      </trkpt>
      <trkpt lat="62.572731" lon="12.329181">
        <ele>893.69</ele>
        <time>2011-07-05T10:47:27Z</time>
      </trkpt>
      <trkpt lat="62.572744" lon="12.329167">
        <ele>893.696</ele>
        <time>2011-07-05T10:47:28Z</time>
      </trkpt>
      <trkpt lat="62.572857" lon="12.32917">
        <ele>892.791</ele>
        <time>2011-07-05T10:47:36Z</time>
      </trkpt>
      <trkpt lat="62.57296" lon="12.329158">
        <ele>893.728</ele>
        <time>2011-07-05T10:47:42Z</time>
      </trkpt>
      <trkpt lat="62.573094" lon="12.329104">
        <ele>894.793</ele>
        <time>2011-07-05T10:47:47Z</time>
      </trkpt>
      <trkpt lat="62.573222" lon="12.329022">
        <ele>895.525</ele>
        <time>2011-07-05T10:47:52Z</time>
      </trkpt>
      <trkpt lat="62.573337" lon="12.329005">
        <ele>895.93</ele>
        <time>2011-07-05T10:47:56Z</time>
      </trkpt>
      <trkpt lat="62.573473" lon="12.329013">
        <ele>896.562</ele>
        <time>2011-07-05T10:48:01Z</time>
      </trkpt>
      <trkpt lat="62.573614" lon="12.328994">
        <ele>896.835</ele>
        <time>2011-07-05T10:48:06Z</time>
      </trkpt>
      <trkpt lat="62.573784" lon="12.329004">
        <ele>897.818</ele>
        <time>2011-07-05T10:48:12Z</time>
      </trkpt>
      <trkpt lat="62.573935" lon="12.328987">
        <ele>898.76</ele>
        <time>2011-07-05T10:48:18Z</time>
      </trkpt>
      <trkpt lat="62.574038" lon="12.329014">
        <ele>899.123</ele>
        <time>2011-07-05T10:48:22Z</time>
      </trkpt>
      <trkpt lat="62.574164" lon="12.328944">
        <ele>899.071</ele>
        <time>2011-07-05T10:48:27Z</time>
      </trkpt>
      <trkpt lat="62.57431" lon="12.328874">
        <ele>899.156</ele>
        <time>2011-07-05T10:48:33Z</time>
      </trkpt>
      <trkpt lat="62.574364" lon="12.328871">
        <ele>899.255</ele>
        <time>2011-07-05T10:48:35Z</time>
      </trkpt>
      <trkpt lat="62.574422" lon="12.328765">
        <ele>899.168</ele>
        <time>2011-07-05T10:48:39Z</time>
      </trkpt>
      <trkpt lat="62.574447" lon="12.32875">
        <ele>899.114</ele>
        <time>2011-07-05T10:48:40Z</time>
      </trkpt>
      <trkpt lat="62.574566" lon="12.32879">
        <ele>899.653</ele>
        <time>2011-07-05T10:48:46Z</time>
      </trkpt>
      <trkpt lat="62.574678" lon="12.328765">
        <ele>899.742</ele>
        <time>2011-07-05T10:48:52Z</time>
      </trkpt>
      <trkpt lat="62.574833" lon="12.328716">
        <ele>899.111</ele>
        <time>2011-07-05T10:48:58Z</time>
      </trkpt>
      <trkpt lat="62.57497" lon="12.328707">
        <ele>899.101</ele>
        <time>2011-07-05T10:49:03Z</time>
      </trkpt>
      <trkpt lat="62.575024" lon="12.32873">
        <ele>899.289</ele>
        <time>2011-07-05T10:49:05Z</time>
      </trkpt>
      <trkpt lat="62.575128" lon="12.328699">
        <ele>900.033</ele>
        <time>2011-07-05T10:49:09Z</time>
      </trkpt>
      <trkpt lat="62.575217" lon="12.328581">
        <ele>900.251</ele>
        <time>2011-07-05T10:49:13Z</time>
      </trkpt>
      <trkpt lat="62.575327" lon="12.328552">
        <ele>900.462</ele>
        <time>2011-07-05T10:49:19Z</time>
      </trkpt>
      <trkpt lat="62.575413" lon="12.328573">
        <ele>900.855</ele>
        <time>2011-07-05T10:49:25Z</time>
      </trkpt>
      <trkpt lat="62.575496" lon="12.328558">
        <ele>902.273</ele>
        <time>2011-07-05T10:49:31Z</time>
      </trkpt>
      <trkpt lat="62.575507" lon="12.328569">
        <ele>902.716</ele>
        <time>2011-07-05T10:49:32Z</time>
      </trkpt>
      <trkpt lat="62.575524" lon="12.328596">
        <ele>903.337</ele>
        <time>2011-07-05T10:49:35Z</time>
      </trkpt>
      <trkpt lat="62.57538" lon="12.328542">
        <ele>901.386</ele>
        <time>2011-07-05T10:49:48Z</time>
      </trkpt>
      <trkpt lat="62.575327" lon="12.328504">
        <ele>900.659</ele>
        <time>2011-07-05T10:49:50Z</time>
      </trkpt>
      <trkpt lat="62.575277" lon="12.328502">
        <ele>900.287</ele>
        <time>2011-07-05T10:49:53Z</time>
      </trkpt>
      <trkpt lat="62.575386" lon="12.328543">
        <ele>900.806</ele>
        <time>2011-07-05T10:49:58Z</time>
      </trkpt>
      <trkpt lat="62.575414" lon="12.328548">
        <ele>900.898</ele>
        <time>2011-07-05T10:49:59Z</time>
      </trkpt>
      <trkpt lat="62.575527" lon="12.328496">
        <ele>902.723</ele>
        <time>2011-07-05T10:50:04Z</time>
      </trkpt>
      <trkpt lat="62.575539" lon="12.328567">
        <ele>903.827</ele>
        <time>2011-07-05T10:50:08Z</time>
      </trkpt>
      <trkpt lat="62.575595" lon="12.328515">
        <ele>904.036</ele>
        <time>2011-07-05T10:50:12Z</time>
      </trkpt>
      <trkpt lat="62.575725" lon="12.328467">
        <ele>904.408</ele>
        <time>2011-07-05T10:50:19Z</time>
      </trkpt>
      <trkpt lat="62.575729" lon="12.328461">
        <ele>904.821</ele>
        <time>2011-07-05T10:50:21Z</time>
      </trkpt>
      <trkpt lat="62.575787" lon="12.328495">
        <ele>904.692</ele>
        <time>2011-07-05T10:50:33Z</time>
      </trkpt>
      <trkpt lat="62.575942" lon="12.328524">
        <ele>904.589</ele>
        <time>2011-07-05T10:50:39Z</time>
      </trkpt>
      <trkpt lat="62.576109" lon="12.328593">
        <ele>904.408</ele>
        <time>2011-07-05T10:50:46Z</time>
      </trkpt>
      <trkpt lat="62.57627" lon="12.328641">
        <ele>903.232</ele>
        <time>2011-07-05T10:50:52Z</time>
      </trkpt>
      <trkpt lat="62.576449" lon="12.32871">
        <ele>901.411</ele>
        <time>2011-07-05T10:50:59Z</time>
      </trkpt>
      <trkpt lat="62.576586" lon="12.328735">
        <ele>899.202</ele>
        <time>2011-07-05T10:51:04Z</time>
      </trkpt>
      <trkpt lat="62.576734" lon="12.328785">
        <ele>898.07</ele>
        <time>2011-07-05T10:51:09Z</time>
      </trkpt>
      <trkpt lat="62.576845" lon="12.328853">
        <ele>898.838</ele>
        <time>2011-07-05T10:51:14Z</time>
      </trkpt>
      <trkpt lat="62.576973" lon="12.328916">
        <ele>898.539</ele>
        <time>2011-07-05T10:51:19Z</time>
      </trkpt>
      <trkpt lat="62.577103" lon="12.329032">
        <ele>899.212</ele>
        <time>2011-07-05T10:51:25Z</time>
      </trkpt>
      <trkpt lat="62.577247" lon="12.329002">
        <ele>898.668</ele>
        <time>2011-07-05T10:51:30Z</time>
      </trkpt>
      <trkpt lat="62.577445" lon="12.329104">
        <ele>898.164</ele>
        <time>2011-07-05T10:51:37Z</time>
      </trkpt>
      <trkpt lat="62.57747" lon="12.329133">
        <ele>898.065</ele>
        <time>2011-07-05T10:51:38Z</time>
      </trkpt>
      <trkpt lat="62.577575" lon="12.329175">
        <ele>896.93</ele>
        <time>2011-07-05T10:51:42Z</time>
      </trkpt>
      <trkpt lat="62.57766" lon="12.329158">
        <ele>896.567</ele>
        <time>2011-07-05T10:51:47Z</time>
      </trkpt>
      <trkpt lat="62.577742" lon="12.329133">
        <ele>896.324</ele>
        <time>2011-07-05T10:51:55Z</time>
      </trkpt>
      <trkpt lat="62.577786" lon="12.329117">
        <ele>896.019</ele>
        <time>2011-07-05T10:52:00Z</time>
      </trkpt>
      <trkpt lat="62.577842" lon="12.329128">
        <ele>895.957</ele>
        <time>2011-07-05T10:52:06Z</time>
      </trkpt>
      <trkpt lat="62.57791" lon="12.329115">
        <ele>896.232</ele>
        <time>2011-07-05T10:52:14Z</time>
      </trkpt>
      <trkpt lat="62.577979" lon="12.329103">
        <ele>896.218</ele>
        <time>2011-07-05T10:52:21Z</time>
      </trkpt>
      <trkpt lat="62.578045" lon="12.329076">
        <ele>896.754</ele>
        <time>2011-07-05T10:52:28Z</time>
      </trkpt>
      <trkpt lat="62.578117" lon="12.329164">
        <ele>895.905</ele>
        <time>2011-07-05T10:52:37Z</time>
      </trkpt>
      <trkpt lat="62.578175" lon="12.329283">
        <ele>894.65</ele>
        <time>2011-07-05T10:52:42Z</time>
      </trkpt>
      <trkpt lat="62.578352" lon="12.329394">
        <ele>894.238</ele>
        <time>2011-07-05T10:52:48Z</time>
      </trkpt>
      <trkpt lat="62.578575" lon="12.329455">
        <ele>894.07</ele>
        <time>2011-07-05T10:52:55Z</time>
      </trkpt>
      <trkpt lat="62.578713" lon="12.329569">
        <ele>894.461</ele>
        <time>2011-07-05T10:53:01Z</time>
      </trkpt>
      <trkpt lat="62.578862" lon="12.32964">
        <ele>895.097</ele>
        <time>2011-07-05T10:53:07Z</time>
      </trkpt>
      <trkpt lat="62.579019" lon="12.329699">
        <ele>894.963</ele>
        <time>2011-07-05T10:53:13Z</time>
      </trkpt>
      <trkpt lat="62.579169" lon="12.329788">
        <ele>895.336</ele>
        <time>2011-07-05T10:53:19Z</time>
      </trkpt>
      <trkpt lat="62.579326" lon="12.32984">
        <ele>896.214</ele>
        <time>2011-07-05T10:53:25Z</time>
      </trkpt>
      <trkpt lat="62.579493" lon="12.32985">
        <ele>896.372</ele>
        <time>2011-07-05T10:53:31Z</time>
      </trkpt>
      <trkpt lat="62.579602" lon="12.3298">
        <ele>894.743</ele>
        <time>2011-07-05T10:53:36Z</time>
      </trkpt>
      <trkpt lat="62.579691" lon="12.329792">
        <ele>892.534</ele>
        <time>2011-07-05T10:53:41Z</time>
      </trkpt>
      <trkpt lat="62.579765" lon="12.329785">
        <ele>890.639</ele>
        <time>2011-07-05T10:53:46Z</time>
      </trkpt>
      <trkpt lat="62.579794" lon="12.329757">
        <ele>889.752</ele>
        <time>2011-07-05T10:53:48Z</time>
      </trkpt>
      <trkpt lat="62.579814" lon="12.329732">
        <ele>888.955</ele>
        <time>2011-07-05T10:53:50Z</time>
      </trkpt>
      <trkpt lat="62.579842" lon="12.329724">
        <ele>888.876</ele>
        <time>2011-07-05T10:53:52Z</time>
      </trkpt>
      <trkpt lat="62.579861" lon="12.329694">
        <ele>889.116</ele>
        <time>2011-07-05T10:53:54Z</time>
      </trkpt>
      <trkpt lat="62.579918" lon="12.329673">
        <ele>890.628</ele>
        <time>2011-07-05T10:54:01Z</time>
      </trkpt>
      <trkpt lat="62.580016" lon="12.329702">
        <ele>891.008</ele>
        <time>2011-07-05T10:54:18Z</time>
      </trkpt>
      <trkpt lat="62.58018" lon="12.329823">
        <ele>891.73</ele>
        <time>2011-07-05T10:54:24Z</time>
      </trkpt>
      <trkpt lat="62.580259" lon="12.329919">
        <ele>891.93</ele>
        <time>2011-07-05T10:54:27Z</time>
      </trkpt>
      <trkpt lat="62.580404" lon="12.329922">
        <ele>891.901</ele>
        <time>2011-07-05T10:54:32Z</time>
      </trkpt>
      <trkpt lat="62.580541" lon="12.329985">
        <ele>892.313</ele>
        <time>2011-07-05T10:54:37Z</time>
      </trkpt>
      <trkpt lat="62.580683" lon="12.329991">
        <ele>892.386</ele>
        <time>2011-07-05T10:54:42Z</time>
      </trkpt>
      <trkpt lat="62.580812" lon="12.32993">
        <ele>891.242</ele>
        <time>2011-07-05T10:54:46Z</time>
      </trkpt>
      <trkpt lat="62.580878" lon="12.329915">
        <ele>890.894</ele>
        <time>2011-07-05T10:54:48Z</time>
      </trkpt>
      <trkpt lat="62.581101" lon="12.3299">
        <ele>891.104</ele>
        <time>2011-07-05T10:54:55Z</time>
      </trkpt>
      <trkpt lat="62.581315" lon="12.329924">
        <ele>891.597</ele>
        <time>2011-07-05T10:55:02Z</time>
      </trkpt>
      <trkpt lat="62.581489" lon="12.329917">
        <ele>892.277</ele>
        <time>2011-07-05T10:55:08Z</time>
      </trkpt>
      <trkpt lat="62.58165" lon="12.330015">
        <ele>891.611</ele>
        <time>2011-07-05T10:55:14Z</time>
      </trkpt>
      <trkpt lat="62.581693" lon="12.330062">
        <ele>891.515</ele>
        <time>2011-07-05T10:55:16Z</time>
      </trkpt>
      <trkpt lat="62.58179" lon="12.330076">
        <ele>891.694</ele>
        <time>2011-07-05T10:55:20Z</time>
      </trkpt>
      <trkpt lat="62.581841" lon="12.330099">
        <ele>891.726</ele>
        <time>2011-07-05T10:55:22Z</time>
      </trkpt>
      <trkpt lat="62.581905" lon="12.330247">
        <ele>891.482</ele>
        <time>2011-07-05T10:55:27Z</time>
      </trkpt>
      <trkpt lat="62.581999" lon="12.330349">
        <ele>891.772</ele>
        <time>2011-07-05T10:55:32Z</time>
      </trkpt>
      <trkpt lat="62.582022" lon="12.330369">
        <ele>891.982</ele>
        <time>2011-07-05T10:55:33Z</time>
      </trkpt>
      <trkpt lat="62.582182" lon="12.33057">
        <ele>892.855</ele>
        <time>2011-07-05T10:55:40Z</time>
      </trkpt>
      <trkpt lat="62.582308" lon="12.330694">
        <ele>892.876</ele>
        <time>2011-07-05T10:55:45Z</time>
      </trkpt>
      <trkpt lat="62.582471" lon="12.330892">
        <ele>893.851</ele>
        <time>2011-07-05T10:55:52Z</time>
      </trkpt>
      <trkpt lat="62.582679" lon="12.331048">
        <ele>894.005</ele>
        <time>2011-07-05T10:56:00Z</time>
      </trkpt>
      <trkpt lat="62.582881" lon="12.33098">
        <ele>893.497</ele>
        <time>2011-07-05T10:56:07Z</time>
      </trkpt>
      <trkpt lat="62.58305" lon="12.330859">
        <ele>893.309</ele>
        <time>2011-07-05T10:56:13Z</time>
      </trkpt>
      <trkpt lat="62.583206" lon="12.330709">
        <ele>893.258</ele>
        <time>2011-07-05T10:56:19Z</time>
      </trkpt>
      <trkpt lat="62.583351" lon="12.330602">
        <ele>892.693</ele>
        <time>2011-07-05T10:56:24Z</time>
      </trkpt>
      <trkpt lat="62.583483" lon="12.330585">
        <ele>893.133</ele>
        <time>2011-07-05T10:56:29Z</time>
      </trkpt>
      <trkpt lat="62.583624" lon="12.330564">
        <ele>892.523</ele>
        <time>2011-07-05T10:56:34Z</time>
      </trkpt>
      <trkpt lat="62.583669" lon="12.330497">
        <ele>892.198</ele>
        <time>2011-07-05T10:56:36Z</time>
      </trkpt>
      <trkpt lat="62.583757" lon="12.330582">
        <ele>892.014</ele>
        <time>2011-07-05T10:56:41Z</time>
      </trkpt>
      <trkpt lat="62.583897" lon="12.330651">
        <ele>892.321</ele>
        <time>2011-07-05T10:56:46Z</time>
      </trkpt>
      <trkpt lat="62.584031" lon="12.330715">
        <ele>892.754</ele>
        <time>2011-07-05T10:56:51Z</time>
      </trkpt>
      <trkpt lat="62.584187" lon="12.330794">
        <ele>893.079</ele>
        <time>2011-07-05T10:56:57Z</time>
      </trkpt>
      <trkpt lat="62.584327" lon="12.330738">
        <ele>892.62</ele>
        <time>2011-07-05T10:57:02Z</time>
      </trkpt>
      <trkpt lat="62.584448" lon="12.330773">
        <ele>891.775</ele>
        <time>2011-07-05T10:57:06Z</time>
      </trkpt>
      <trkpt lat="62.584614" lon="12.330742">
        <ele>890.8</ele>
        <time>2011-07-05T10:57:12Z</time>
      </trkpt>
      <trkpt lat="62.584743" lon="12.330684">
        <ele>889.498</ele>
        <time>2011-07-05T10:57:17Z</time>
      </trkpt>
      <trkpt lat="62.584846" lon="12.330624">
        <ele>888.286</ele>
        <time>2011-07-05T10:57:21Z</time>
      </trkpt>
      <trkpt lat="62.584901" lon="12.330601">
        <ele>887.943</ele>
        <time>2011-07-05T10:57:24Z</time>
      </trkpt>
      <trkpt lat="62.584986" lon="12.330587">
        <ele>887.885</ele>
        <time>2011-07-05T10:57:28Z</time>
      </trkpt>
      <trkpt lat="62.585228" lon="12.330443">
        <ele>887.711</ele>
        <time>2011-07-05T10:57:36Z</time>
      </trkpt>
      <trkpt lat="62.585395" lon="12.330364">
        <ele>888.218</ele>
        <time>2011-07-05T10:57:42Z</time>
      </trkpt>
      <trkpt lat="62.585507" lon="12.330241">
        <ele>889.293</ele>
        <time>2011-07-05T10:57:47Z</time>
      </trkpt>
      <trkpt lat="62.585682" lon="12.330159">
        <ele>888.407</ele>
        <time>2011-07-05T10:57:53Z</time>
      </trkpt>
      <trkpt lat="62.585777" lon="12.330088">
        <ele>887.222</ele>
        <time>2011-07-05T10:57:58Z</time>
      </trkpt>
      <trkpt lat="62.585804" lon="12.330065">
        <ele>886.097</ele>
        <time>2011-07-05T10:58:02Z</time>
      </trkpt>
      <trkpt lat="62.585824" lon="12.330042">
        <ele>885.887</ele>
        <time>2011-07-05T10:58:08Z</time>
      </trkpt>
      <trkpt lat="62.585876" lon="12.330029">
        <ele>886.699</ele>
        <time>2011-07-05T10:58:13Z</time>
      </trkpt>
      <trkpt lat="62.585978" lon="12.329988">
        <ele>888.41</ele>
        <time>2011-07-05T10:58:19Z</time>
      </trkpt>
      <trkpt lat="62.586116" lon="12.330014">
        <ele>889.501</ele>
        <time>2011-07-05T10:58:25Z</time>
      </trkpt>
      <trkpt lat="62.586272" lon="12.330032">
        <ele>890.273</ele>
        <time>2011-07-05T10:58:32Z</time>
      </trkpt>
      <trkpt lat="62.58639" lon="12.329994">
        <ele>890.617</ele>
        <time>2011-07-05T10:58:38Z</time>
      </trkpt>
      <trkpt lat="62.586456" lon="12.329975">
        <ele>890.375</ele>
        <time>2011-07-05T10:58:43Z</time>
      </trkpt>
      <trkpt lat="62.586471" lon="12.329975">
        <ele>890.509</ele>
        <time>2011-07-05T10:58:44Z</time>
      </trkpt>
      <trkpt lat="62.58658" lon="12.329977">
        <ele>890.728</ele>
        <time>2011-07-05T10:58:51Z</time>
      </trkpt>
      <trkpt lat="62.586704" lon="12.329937">
        <ele>890.558</ele>
        <time>2011-07-05T10:58:56Z</time>
      </trkpt>
      <trkpt lat="62.586806" lon="12.329806">
        <ele>891.059</ele>
        <time>2011-07-05T10:59:01Z</time>
      </trkpt>
      <trkpt lat="62.586887" lon="12.329734">
        <ele>892.27</ele>
        <time>2011-07-05T10:59:05Z</time>
      </trkpt>
      <trkpt lat="62.587046" lon="12.329673">
        <ele>893.875</ele>
        <time>2011-07-05T10:59:12Z</time>
      </trkpt>
      <trkpt lat="62.587168" lon="12.329647">
        <ele>894.938</ele>
        <time>2011-07-05T10:59:17Z</time>
      </trkpt>
      <trkpt lat="62.58729" lon="12.329641">
        <ele>895.78</ele>
        <time>2011-07-05T10:59:22Z</time>
      </trkpt>
      <trkpt lat="62.587433" lon="12.329541">
        <ele>895.97</ele>
        <time>2011-07-05T10:59:28Z</time>
      </trkpt>
      <trkpt lat="62.587617" lon="12.329505">
        <ele>895.736</ele>
        <time>2011-07-05T10:59:35Z</time>
      </trkpt>
      <trkpt lat="62.587805" lon="12.329428">
        <ele>894.94</ele>
        <time>2011-07-05T10:59:42Z</time>
      </trkpt>
      <trkpt lat="62.587961" lon="12.329406">
        <ele>895.064</ele>
        <time>2011-07-05T10:59:48Z</time>
      </trkpt>
      <trkpt lat="62.588094" lon="12.329385">
        <ele>895.06</ele>
        <time>2011-07-05T10:59:53Z</time>
      </trkpt>
      <trkpt lat="62.588166" lon="12.329384">
        <ele>895.554</ele>
        <time>2011-07-05T10:59:57Z</time>
      </trkpt>
      <trkpt lat="62.588299" lon="12.32942">
        <ele>894.68</ele>
        <time>2011-07-05T11:00:03Z</time>
      </trkpt>
      <trkpt lat="62.58834" lon="12.329369">
        <ele>894.249</ele>
        <time>2011-07-05T11:00:05Z</time>
      </trkpt>
      <trkpt lat="62.588455" lon="12.329349">
        <ele>893.978</ele>
        <time>2011-07-05T11:00:10Z</time>
      </trkpt>
      <trkpt lat="62.588627" lon="12.329379">
        <ele>894.897</ele>
        <time>2011-07-05T11:00:17Z</time>
      </trkpt>
      <trkpt lat="62.588754" lon="12.329395">
        <ele>895.355</ele>
        <time>2011-07-05T11:00:22Z</time>
      </trkpt>
      <trkpt lat="62.588889" lon="12.329447">
        <ele>896.015</ele>
        <time>2011-07-05T11:00:27Z</time>
      </trkpt>
      <trkpt lat="62.588989" lon="12.329405">
        <ele>896.587</ele>
        <time>2011-07-05T11:00:31Z</time>
      </trkpt>
      <trkpt lat="62.58908" lon="12.329344">
        <ele>896.954</ele>
        <time>2011-07-05T11:00:35Z</time>
      </trkpt>
      <trkpt lat="62.589256" lon="12.329315">
        <ele>897.427</ele>
        <time>2011-07-05T11:00:42Z</time>
      </trkpt>
      <trkpt lat="62.589396" lon="12.329331">
        <ele>898.552</ele>
        <time>2011-07-05T11:00:48Z</time>
      </trkpt>
      <trkpt lat="62.589484" lon="12.329266">
        <ele>899.451</ele>
        <time>2011-07-05T11:00:52Z</time>
      </trkpt>
      <trkpt lat="62.589625" lon="12.32932">
        <ele>900.496</ele>
        <time>2011-07-05T11:00:58Z</time>
      </trkpt>
      <trkpt lat="62.589707" lon="12.329329">
        <ele>900.877</ele>
        <time>2011-07-05T11:01:04Z</time>
      </trkpt>
      <trkpt lat="62.589786" lon="12.329289">
        <ele>901.751</ele>
        <time>2011-07-05T11:01:11Z</time>
      </trkpt>
      <trkpt lat="62.589821" lon="12.329269">
        <ele>901.463</ele>
        <time>2011-07-05T11:01:15Z</time>
      </trkpt>
      <trkpt lat="62.589735" lon="12.329268">
        <ele>901.636</ele>
        <time>2011-07-05T11:01:24Z</time>
      </trkpt>
      <trkpt lat="62.589834" lon="12.329235">
        <ele>901.5</ele>
        <time>2011-07-05T11:01:30Z</time>
      </trkpt>
      <trkpt lat="62.58988" lon="12.329239">
        <ele>901.677</ele>
        <time>2011-07-05T11:01:35Z</time>
      </trkpt>
      <trkpt lat="62.589911" lon="12.329238">
        <ele>901.606</ele>
        <time>2011-07-05T11:01:40Z</time>
      </trkpt>
      <trkpt lat="62.589995" lon="12.329254">
        <ele>901.301</ele>
        <time>2011-07-05T11:01:47Z</time>
      </trkpt>
      <trkpt lat="62.590027" lon="12.329247">
        <ele>901.078</ele>
        <time>2011-07-05T11:01:51Z</time>
      </trkpt>
      <trkpt lat="62.590099" lon="12.32914">
        <ele>900.822</ele>
        <time>2011-07-05T11:01:59Z</time>
      </trkpt>
      <trkpt lat="62.590155" lon="12.328999">
        <ele>899.89</ele>
        <time>2011-07-05T11:02:06Z</time>
      </trkpt>
      <trkpt lat="62.590283" lon="12.32885">
        <ele>898.784</ele>
        <time>2011-07-05T11:02:12Z</time>
      </trkpt>
      <trkpt lat="62.590428" lon="12.328777">
        <ele>897.917</ele>
        <time>2011-07-05T11:02:18Z</time>
      </trkpt>
      <trkpt lat="62.590608" lon="12.328703">
        <ele>898.908</ele>
        <time>2011-07-05T11:02:26Z</time>
      </trkpt>
      <trkpt lat="62.590793" lon="12.328656">
        <ele>899.836</ele>
        <time>2011-07-05T11:02:34Z</time>
      </trkpt>
      <trkpt lat="62.590887" lon="12.328669">
        <ele>901.618</ele>
        <time>2011-07-05T11:02:40Z</time>
      </trkpt>
      <trkpt lat="62.590912" lon="12.328666">
        <ele>902.466</ele>
        <time>2011-07-05T11:02:42Z</time>
      </trkpt>
      <trkpt lat="62.590964" lon="12.328665">
        <ele>903.513</ele>
        <time>2011-07-05T11:02:47Z</time>
      </trkpt>
      <trkpt lat="62.590989" lon="12.328647">
        <ele>904.212</ele>
        <time>2011-07-05T11:02:49Z</time>
      </trkpt>
      <trkpt lat="62.591068" lon="12.328584">
        <ele>905.026</ele>
        <time>2011-07-05T11:02:56Z</time>
      </trkpt>
      <trkpt lat="62.591136" lon="12.328539">
        <ele>905.272</ele>
        <time>2011-07-05T11:03:02Z</time>
      </trkpt>
      <trkpt lat="62.591201" lon="12.32852">
        <ele>905.432</ele>
        <time>2011-07-05T11:03:07Z</time>
      </trkpt>
      <trkpt lat="62.59125" lon="12.328596">
        <ele>905.453</ele>
        <time>2011-07-05T11:03:13Z</time>
      </trkpt>
      <trkpt lat="62.591317" lon="12.328474">
        <ele>907.181</ele>
        <time>2011-07-05T11:03:21Z</time>
      </trkpt>
      <trkpt lat="62.591408" lon="12.328302">
        <ele>907.511</ele>
        <time>2011-07-05T11:03:28Z</time>
      </trkpt>
      <trkpt lat="62.591428" lon="12.328277">
        <ele>907.52</ele>
        <time>2011-07-05T11:03:29Z</time>
      </trkpt>
      <trkpt lat="62.591522" lon="12.328301">
        <ele>908.74</ele>
        <time>2011-07-05T11:03:34Z</time>
      </trkpt>
      <trkpt lat="62.591594" lon="12.328368">
        <ele>909.706</ele>
        <time>2011-07-05T11:03:38Z</time>
      </trkpt>
      <trkpt lat="62.59171" lon="12.328412">
        <ele>911.744</ele>
        <time>2011-07-05T11:03:44Z</time>
      </trkpt>
      <trkpt lat="62.591738" lon="12.328374">
        <ele>912.143</ele>
        <time>2011-07-05T11:03:46Z</time>
      </trkpt>
      <trkpt lat="62.591888" lon="12.32825">
        <ele>910.921</ele>
        <time>2011-07-05T11:03:52Z</time>
      </trkpt>
      <trkpt lat="62.592012" lon="12.328169">
        <ele>910.848</ele>
        <time>2011-07-05T11:03:57Z</time>
      </trkpt>
      <trkpt lat="62.59213" lon="12.32814">
        <ele>912.313</ele>
        <time>2011-07-05T11:04:04Z</time>
      </trkpt>
      <trkpt lat="62.592272" lon="12.32806">
        <ele>915.107</ele>
        <time>2011-07-05T11:04:15Z</time>
      </trkpt>
      <trkpt lat="62.592304" lon="12.328003">
        <ele>915.705</ele>
        <time>2011-07-05T11:04:18Z</time>
      </trkpt>
      <trkpt lat="62.592379" lon="12.327913">
        <ele>916.895</ele>
        <time>2011-07-05T11:04:25Z</time>
      </trkpt>
      <trkpt lat="62.592437" lon="12.32787">
        <ele>917.513</ele>
        <time>2011-07-05T11:04:30Z</time>
      </trkpt>
      <trkpt lat="62.592532" lon="12.327837">
        <ele>918.863</ele>
        <time>2011-07-05T11:04:37Z</time>
      </trkpt>
      <trkpt lat="62.592569" lon="12.327832">
        <ele>918.672</ele>
        <time>2011-07-05T11:04:40Z</time>
      </trkpt>
      <trkpt lat="62.592646" lon="12.327846">
        <ele>918.971</ele>
        <time>2011-07-05T11:04:46Z</time>
      </trkpt>
      <trkpt lat="62.592731" lon="12.32794">
        <ele>920.961</ele>
        <time>2011-07-05T11:04:54Z</time>
      </trkpt>
      <trkpt lat="62.592735" lon="12.327957">
        <ele>921.315</ele>
        <time>2011-07-05T11:04:55Z</time>
      </trkpt>
      <trkpt lat="62.592811" lon="12.327945">
        <ele>921.311</ele>
        <time>2011-07-05T11:05:02Z</time>
      </trkpt>
      <trkpt lat="62.592917" lon="12.32799">
        <ele>923.708</ele>
        <time>2011-07-05T11:05:11Z</time>
      </trkpt>
      <trkpt lat="62.593011" lon="12.327999">
        <ele>924.333</ele>
        <time>2011-07-05T11:05:18Z</time>
      </trkpt>
      <trkpt lat="62.593101" lon="12.327941">
        <ele>925.081</ele>
        <time>2011-07-05T11:05:25Z</time>
      </trkpt>
      <trkpt lat="62.593174" lon="12.327926">
        <ele>925.331</ele>
        <time>2011-07-05T11:05:31Z</time>
      </trkpt>
      <trkpt lat="62.593181" lon="12.32793">
        <ele>925.263</ele>
        <time>2011-07-05T11:05:32Z</time>
      </trkpt>
      <trkpt lat="62.593199" lon="12.327941">
        <ele>925.064</ele>
        <time>2011-07-05T11:05:35Z</time>
      </trkpt>
      <trkpt lat="62.593206" lon="12.328034">
        <ele>924.736</ele>
        <time>2011-07-05T11:05:39Z</time>
      </trkpt>
      <trkpt lat="62.593245" lon="12.328286">
        <ele>924.582</ele>
        <time>2011-07-05T11:05:48Z</time>
      </trkpt>
      <trkpt lat="62.593271" lon="12.32846">
        <ele>924.819</ele>
        <time>2011-07-05T11:05:54Z</time>
      </trkpt>
      <trkpt lat="62.593302" lon="12.328543">
        <ele>925.166</ele>
        <time>2011-07-05T11:05:57Z</time>
      </trkpt>
      <trkpt lat="62.593336" lon="12.328587">
        <ele>925.933</ele>
        <time>2011-07-05T11:06:00Z</time>
      </trkpt>
      <trkpt lat="62.593376" lon="12.328741">
        <ele>927.214</ele>
        <time>2011-07-05T11:06:07Z</time>
      </trkpt>
      <trkpt lat="62.593421" lon="12.328812">
        <ele>927.338</ele>
        <time>2011-07-05T11:06:11Z</time>
      </trkpt>
      <trkpt lat="62.593419" lon="12.328953">
        <ele>927.818</ele>
        <time>2011-07-05T11:06:16Z</time>
      </trkpt>
      <trkpt lat="62.59348" lon="12.329005">
        <ele>928.407</ele>
        <time>2011-07-05T11:06:20Z</time>
      </trkpt>
      <trkpt lat="62.593599" lon="12.329064">
        <ele>929.777</ele>
        <time>2011-07-05T11:06:28Z</time>
      </trkpt>
      <trkpt lat="62.593692" lon="12.329056">
        <ele>929.804</ele>
        <time>2011-07-05T11:06:33Z</time>
      </trkpt>
      <trkpt lat="62.593791" lon="12.32909">
        <ele>930.254</ele>
        <time>2011-07-05T11:06:39Z</time>
      </trkpt>
      <trkpt lat="62.593925" lon="12.329112">
        <ele>930.887</ele>
        <time>2011-07-05T11:06:49Z</time>
      </trkpt>
      <trkpt lat="62.594033" lon="12.32914">
        <ele>931.015</ele>
        <time>2011-07-05T11:06:57Z</time>
      </trkpt>
      <trkpt lat="62.594159" lon="12.32917">
        <ele>931.708</ele>
        <time>2011-07-05T11:07:06Z</time>
      </trkpt>
      <trkpt lat="62.594297" lon="12.329203">
        <ele>932.996</ele>
        <time>2011-07-05T11:07:16Z</time>
      </trkpt>
      <trkpt lat="62.594354" lon="12.32922">
        <ele>933.388</ele>
        <time>2011-07-05T11:07:20Z</time>
      </trkpt>
      <trkpt lat="62.594379" lon="12.329215">
        <ele>933.622</ele>
        <time>2011-07-05T11:07:22Z</time>
      </trkpt>
      <trkpt lat="62.594423" lon="12.329281">
        <ele>934.773</ele>
        <time>2011-07-05T11:07:27Z</time>
      </trkpt>
      <trkpt lat="62.594458" lon="12.32932">
        <ele>937.127</ele>
        <time>2011-07-05T11:07:33Z</time>
      </trkpt>
      <trkpt lat="62.594478" lon="12.329354">
        <ele>938.619</ele>
        <time>2011-07-05T11:07:37Z</time>
      </trkpt>
      <trkpt lat="62.594554" lon="12.329339">
        <ele>940.426</ele>
        <time>2011-07-05T11:07:44Z</time>
      </trkpt>
      <trkpt lat="62.594656" lon="12.329307">
        <ele>941.694</ele>
        <time>2011-07-05T11:07:52Z</time>
      </trkpt>
      <trkpt lat="62.594756" lon="12.329295">
        <ele>942.857</ele>
        <time>2011-07-05T11:07:59Z</time>
      </trkpt>
      <trkpt lat="62.594878" lon="12.329307">
        <ele>943.987</ele>
        <time>2011-07-05T11:08:07Z</time>
      </trkpt>
      <trkpt lat="62.594977" lon="12.329339">
        <ele>944.403</ele>
        <time>2011-07-05T11:08:14Z</time>
      </trkpt>
      <trkpt lat="62.595081" lon="12.329365">
        <ele>944.985</ele>
        <time>2011-07-05T11:08:21Z</time>
      </trkpt>
      <trkpt lat="62.595121" lon="12.329369">
        <ele>945.25</ele>
        <time>2011-07-05T11:08:23Z</time>
      </trkpt>
      <trkpt lat="62.59526" lon="12.329317">
        <ele>946.873</ele>
        <time>2011-07-05T11:08:30Z</time>
      </trkpt>
      <trkpt lat="62.59534" lon="12.329301">
        <ele>947.129</ele>
        <time>2011-07-05T11:08:34Z</time>
      </trkpt>
      <trkpt lat="62.595365" lon="12.329309">
        <ele>947.241</ele>
        <time>2011-07-05T11:08:35Z</time>
      </trkpt>
      <trkpt lat="62.595407" lon="12.329329">
        <ele>947.474</ele>
        <time>2011-07-05T11:08:37Z</time>
      </trkpt>
      <trkpt lat="62.595458" lon="12.329338">
        <ele>947.922</ele>
        <time>2011-07-05T11:08:43Z</time>
      </trkpt>
      <trkpt lat="62.59553" lon="12.329377">
        <ele>947.609</ele>
        <time>2011-07-05T11:08:50Z</time>
      </trkpt>
      <trkpt lat="62.595593" lon="12.329454">
        <ele>948.69</ele>
        <time>2011-07-05T11:08:57Z</time>
      </trkpt>
      <trkpt lat="62.595627" lon="12.32952">
        <ele>949.535</ele>
        <time>2011-07-05T11:09:00Z</time>
      </trkpt>
      <trkpt lat="62.595771" lon="12.329513">
        <ele>951.783</ele>
        <time>2011-07-05T11:09:08Z</time>
      </trkpt>
      <trkpt lat="62.595791" lon="12.329503">
        <ele>952.077</ele>
        <time>2011-07-05T11:09:10Z</time>
      </trkpt>
      <trkpt lat="62.595892" lon="12.329516">
        <ele>954.215</ele>
        <time>2011-07-05T11:09:19Z</time>
      </trkpt>
      <trkpt lat="62.595995" lon="12.329584">
        <ele>955.302</ele>
        <time>2011-07-05T11:09:27Z</time>
      </trkpt>
      <trkpt lat="62.596047" lon="12.329613">
        <ele>955.771</ele>
        <time>2011-07-05T11:09:31Z</time>
      </trkpt>
      <trkpt lat="62.596129" lon="12.329622">
        <ele>956.458</ele>
        <time>2011-07-05T11:09:37Z</time>
      </trkpt>
      <trkpt lat="62.596207" lon="12.329634">
        <ele>957.489</ele>
        <time>2011-07-05T11:09:42Z</time>
      </trkpt>
      <trkpt lat="62.596299" lon="12.329633">
        <ele>958.893</ele>
        <time>2011-07-05T11:09:46Z</time>
      </trkpt>
      <trkpt lat="62.596454" lon="12.329636">
        <ele>959.325</ele>
        <time>2011-07-05T11:09:53Z</time>
      </trkpt>
      <trkpt lat="62.596577" lon="12.329654">
        <ele>959.601</ele>
        <time>2011-07-05T11:09:58Z</time>
      </trkpt>
      <trkpt lat="62.5966" lon="12.329645">
        <ele>959.648</ele>
        <time>2011-07-05T11:09:59Z</time>
      </trkpt>
      <trkpt lat="62.59679" lon="12.32978">
        <ele>960.104</ele>
        <time>2011-07-05T11:10:07Z</time>
      </trkpt>
      <trkpt lat="62.596909" lon="12.329822">
        <ele>961.016</ele>
        <time>2011-07-05T11:10:12Z</time>
      </trkpt>
      <trkpt lat="62.597" lon="12.329933">
        <ele>960.773</ele>
        <time>2011-07-05T11:10:17Z</time>
      </trkpt>
      <trkpt lat="62.597016" lon="12.329956">
        <ele>960.424</ele>
        <time>2011-07-05T11:10:19Z</time>
      </trkpt>
      <trkpt lat="62.597029" lon="12.329994">
        <ele>959.541</ele>
        <time>2011-07-05T11:10:24Z</time>
      </trkpt>
      <trkpt lat="62.597044" lon="12.330039">
        <ele>959.523</ele>
        <time>2011-07-05T11:10:28Z</time>
      </trkpt>
      <trkpt lat="62.597036" lon="12.330032">
        <ele>959.708</ele>
        <time>2011-07-05T11:10:31Z</time>
      </trkpt>
      <trkpt lat="62.597101" lon="12.33007">
        <ele>960.214</ele>
        <time>2011-07-05T11:10:36Z</time>
      </trkpt>
      <trkpt lat="62.597189" lon="12.330112">
        <ele>962.221</ele>
        <time>2011-07-05T11:10:43Z</time>
      </trkpt>
      <trkpt lat="62.597202" lon="12.330117">
        <ele>962.428</ele>
        <time>2011-07-05T11:10:44Z</time>
      </trkpt>
      <trkpt lat="62.597257" lon="12.330148">
        <ele>963.003</ele>
        <time>2011-07-05T11:10:48Z</time>
      </trkpt>
      <trkpt lat="62.59743" lon="12.330171">
        <ele>964.215</ele>
        <time>2011-07-05T11:10:55Z</time>
      </trkpt>
      <trkpt lat="62.597454" lon="12.330173">
        <ele>964.516</ele>
        <time>2011-07-05T11:10:56Z</time>
      </trkpt>
      <trkpt lat="62.597571" lon="12.330258">
        <ele>966.455</ele>
        <time>2011-07-05T11:11:02Z</time>
      </trkpt>
      <trkpt lat="62.597711" lon="12.330268">
        <ele>968.495</ele>
        <time>2011-07-05T11:11:09Z</time>
      </trkpt>
      <trkpt lat="62.597839" lon="12.330278">
        <ele>970.317</ele>
        <time>2011-07-05T11:11:15Z</time>
      </trkpt>
      <trkpt lat="62.597967" lon="12.330281">
        <ele>970.782</ele>
        <time>2011-07-05T11:11:20Z</time>
      </trkpt>
      <trkpt lat="62.59816" lon="12.330257">
        <ele>970.802</ele>
        <time>2011-07-05T11:11:27Z</time>
      </trkpt>
      <trkpt lat="62.598351" lon="12.330263">
        <ele>970.581</ele>
        <time>2011-07-05T11:11:34Z</time>
      </trkpt>
      <trkpt lat="62.598427" lon="12.330272">
        <ele>970.373</ele>
        <time>2011-07-05T11:11:37Z</time>
      </trkpt>
      <trkpt lat="62.59857" lon="12.330313">
        <ele>969.32</ele>
        <time>2011-07-05T11:11:42Z</time>
      </trkpt>
      <trkpt lat="62.598754" lon="12.330424">
        <ele>969.235</ele>
        <time>2011-07-05T11:11:49Z</time>
      </trkpt>
      <trkpt lat="62.598862" lon="12.330499">
        <ele>969.054</ele>
        <time>2011-07-05T11:11:54Z</time>
      </trkpt>
      <trkpt lat="62.598953" lon="12.330585">
        <ele>969.217</ele>
        <time>2011-07-05T11:12:00Z</time>
      </trkpt>
      <trkpt lat="62.598987" lon="12.330582">
        <ele>969.211</ele>
        <time>2011-07-05T11:12:03Z</time>
      </trkpt>
      <trkpt lat="62.599132" lon="12.330598">
        <ele>969.484</ele>
        <time>2011-07-05T11:12:10Z</time>
      </trkpt>
      <trkpt lat="62.599264" lon="12.330486">
        <ele>969.374</ele>
        <time>2011-07-05T11:12:16Z</time>
      </trkpt>
      <trkpt lat="62.599326" lon="12.33043">
        <ele>968.591</ele>
        <time>2011-07-05T11:12:21Z</time>
      </trkpt>
      <trkpt lat="62.599396" lon="12.330357">
        <ele>968.044</ele>
        <time>2011-07-05T11:12:26Z</time>
      </trkpt>
      <trkpt lat="62.599532" lon="12.330306">
        <ele>966.833</ele>
        <time>2011-07-05T11:12:31Z</time>
      </trkpt>
      <trkpt lat="62.599668" lon="12.330311">
        <ele>965.9</ele>
        <time>2011-07-05T11:12:36Z</time>
      </trkpt>
      <trkpt lat="62.599804" lon="12.330257">
        <ele>964.801</ele>
        <time>2011-07-05T11:12:41Z</time>
      </trkpt>
      <trkpt lat="62.599957" lon="12.330213">
        <ele>964.135</ele>
        <time>2011-07-05T11:12:47Z</time>
      </trkpt>
      <trkpt lat="62.600085" lon="12.330186">
        <ele>963.371</ele>
        <time>2011-07-05T11:12:52Z</time>
      </trkpt>
      <trkpt lat="62.600212" lon="12.330133">
        <ele>962.193</ele>
        <time>2011-07-05T11:12:57Z</time>
      </trkpt>
      <trkpt lat="62.600357" lon="12.330121">
        <ele>960.429</ele>
        <time>2011-07-05T11:13:03Z</time>
      </trkpt>
      <trkpt lat="62.600456" lon="12.33014">
        <ele>959.027</ele>
        <time>2011-07-05T11:13:08Z</time>
      </trkpt>
      <trkpt lat="62.600609" lon="12.33014">
        <ele>958.818</ele>
        <time>2011-07-05T11:13:14Z</time>
      </trkpt>
      <trkpt lat="62.600744" lon="12.330143">
        <ele>958.25</ele>
        <time>2011-07-05T11:13:19Z</time>
      </trkpt>
      <trkpt lat="62.600887" lon="12.330108">
        <ele>957.594</ele>
        <time>2011-07-05T11:13:24Z</time>
      </trkpt>
      <trkpt lat="62.601067" lon="12.330046">
        <ele>956.44</ele>
        <time>2011-07-05T11:13:30Z</time>
      </trkpt>
      <trkpt lat="62.601242" lon="12.330001">
        <ele>955.807</ele>
        <time>2011-07-05T11:13:36Z</time>
      </trkpt>
      <trkpt lat="62.601426" lon="12.329953">
        <ele>954.592</ele>
        <time>2011-07-05T11:13:42Z</time>
      </trkpt>
      <trkpt lat="62.601473" lon="12.329985">
        <ele>954.154</ele>
        <time>2011-07-05T11:13:44Z</time>
      </trkpt>
      <trkpt lat="62.601629" lon="12.329911">
        <ele>952.027</ele>
        <time>2011-07-05T11:13:50Z</time>
      </trkpt>
      <trkpt lat="62.601665" lon="12.329901">
        <ele>951.53</ele>
        <time>2011-07-05T11:13:52Z</time>
      </trkpt>
      <trkpt lat="62.601834" lon="12.329895">
        <ele>949.86</ele>
        <time>2011-07-05T11:13:59Z</time>
      </trkpt>
      <trkpt lat="62.601945" lon="12.329872">
        <ele>949.861</ele>
        <time>2011-07-05T11:14:04Z</time>
      </trkpt>
      <trkpt lat="62.602086" lon="12.32981">
        <ele>948.927</ele>
        <time>2011-07-05T11:14:09Z</time>
      </trkpt>
      <trkpt lat="62.602111" lon="12.329813">
        <ele>948.646</ele>
        <time>2011-07-05T11:14:10Z</time>
      </trkpt>
      <trkpt lat="62.60222" lon="12.329836">
        <ele>947.871</ele>
        <time>2011-07-05T11:14:15Z</time>
      </trkpt>
      <trkpt lat="62.602281" lon="12.329824">
        <ele>947.424</ele>
        <time>2011-07-05T11:14:18Z</time>
      </trkpt>
      <trkpt lat="62.60237" lon="12.329886">
        <ele>947.09</ele>
        <time>2011-07-05T11:14:23Z</time>
      </trkpt>
      <trkpt lat="62.60242" lon="12.32992">
        <ele>947.004</ele>
        <time>2011-07-05T11:14:25Z</time>
      </trkpt>
      <trkpt lat="62.602456" lon="12.329981">
        <ele>946.868</ele>
        <time>2011-07-05T11:14:27Z</time>
      </trkpt>
      <trkpt lat="62.60253" lon="12.329951">
        <ele>946.672</ele>
        <time>2011-07-05T11:14:33Z</time>
      </trkpt>
      <trkpt lat="62.602544" lon="12.329953">
        <ele>946.758</ele>
        <time>2011-07-05T11:14:34Z</time>
      </trkpt>
      <trkpt lat="62.602607" lon="12.329948">
        <ele>946.875</ele>
        <time>2011-07-05T11:14:38Z</time>
      </trkpt>
      <trkpt lat="62.602674" lon="12.329902">
        <ele>946.772</ele>
        <time>2011-07-05T11:14:43Z</time>
      </trkpt>
      <trkpt lat="62.602744" lon="12.329814">
        <ele>946.111</ele>
        <time>2011-07-05T11:14:49Z</time>
      </trkpt>
      <trkpt lat="62.602847" lon="12.329722">
        <ele>945.648</ele>
        <time>2011-07-05T11:14:57Z</time>
      </trkpt>
      <trkpt lat="62.602952" lon="12.329715">
        <ele>945.656</ele>
        <time>2011-07-05T11:15:02Z</time>
      </trkpt>
      <trkpt lat="62.603083" lon="12.329687">
        <ele>944.741</ele>
        <time>2011-07-05T11:15:07Z</time>
      </trkpt>
      <trkpt lat="62.603211" lon="12.329607">
        <ele>944.218</ele>
        <time>2011-07-05T11:15:12Z</time>
      </trkpt>
      <trkpt lat="62.603339" lon="12.329547">
        <ele>943.763</ele>
        <time>2011-07-05T11:15:17Z</time>
      </trkpt>
      <trkpt lat="62.603404" lon="12.329511">
        <ele>943.548</ele>
        <time>2011-07-05T11:15:20Z</time>
      </trkpt>
      <trkpt lat="62.603533" lon="12.329483">
        <ele>942.039</ele>
        <time>2011-07-05T11:15:26Z</time>
      </trkpt>
      <trkpt lat="62.603632" lon="12.329533">
        <ele>941.162</ele>
        <time>2011-07-05T11:15:31Z</time>
      </trkpt>
      <trkpt lat="62.603727" lon="12.329564">
        <ele>940.804</ele>
        <time>2011-07-05T11:15:36Z</time>
      </trkpt>
      <trkpt lat="62.603874" lon="12.329551">
        <ele>939.6</ele>
        <time>2011-07-05T11:15:42Z</time>
      </trkpt>
      <trkpt lat="62.603971" lon="12.32952">
        <ele>939.047</ele>
        <time>2011-07-05T11:15:46Z</time>
      </trkpt>
      <trkpt lat="62.604011" lon="12.329477">
        <ele>938.738</ele>
        <time>2011-07-05T11:15:48Z</time>
      </trkpt>
      <trkpt lat="62.604139" lon="12.329392">
        <ele>937.096</ele>
        <time>2011-07-05T11:15:54Z</time>
      </trkpt>
      <trkpt lat="62.604259" lon="12.329351">
        <ele>936.315</ele>
        <time>2011-07-05T11:15:59Z</time>
      </trkpt>
      <trkpt lat="62.604433" lon="12.329241">
        <ele>935.929</ele>
        <time>2011-07-05T11:16:06Z</time>
      </trkpt>
      <trkpt lat="62.604586" lon="12.329256">
        <ele>935.038</ele>
        <time>2011-07-05T11:16:12Z</time>
      </trkpt>
      <trkpt lat="62.604789" lon="12.329245">
        <ele>934.119</ele>
        <time>2011-07-05T11:16:19Z</time>
      </trkpt>
      <trkpt lat="62.604956" lon="12.329174">
        <ele>934.147</ele>
        <time>2011-07-05T11:16:26Z</time>
      </trkpt>
      <trkpt lat="62.605038" lon="12.329143">
        <ele>934.063</ele>
        <time>2011-07-05T11:16:32Z</time>
      </trkpt>
      <trkpt lat="62.605177" lon="12.329135">
        <ele>933.88</ele>
        <time>2011-07-05T11:16:41Z</time>
      </trkpt>
      <trkpt lat="62.605328" lon="12.32916">
        <ele>933.704</ele>
        <time>2011-07-05T11:16:47Z</time>
      </trkpt>
      <trkpt lat="62.605438" lon="12.329119">
        <ele>933.326</ele>
        <time>2011-07-05T11:16:52Z</time>
      </trkpt>
      <trkpt lat="62.605576" lon="12.329066">
        <ele>933.686</ele>
        <time>2011-07-05T11:16:58Z</time>
      </trkpt>
      <trkpt lat="62.605729" lon="12.328947">
        <ele>934.529</ele>
        <time>2011-07-05T11:17:05Z</time>
      </trkpt>
      <trkpt lat="62.605778" lon="12.328926">
        <ele>934.838</ele>
        <time>2011-07-05T11:17:09Z</time>
      </trkpt>
      <trkpt lat="62.605845" lon="12.328907">
        <ele>934.848</ele>
        <time>2011-07-05T11:17:14Z</time>
      </trkpt>
      <trkpt lat="62.605904" lon="12.328888">
        <ele>934.821</ele>
        <time>2011-07-05T11:17:19Z</time>
      </trkpt>
      <trkpt lat="62.605916" lon="12.328896">
        <ele>934.78</ele>
        <time>2011-07-05T11:17:22Z</time>
      </trkpt>
      <trkpt lat="62.605994" lon="12.328868">
        <ele>934.237</ele>
        <time>2011-07-05T11:17:31Z</time>
      </trkpt>
      <trkpt lat="62.606066" lon="12.328922">
        <ele>933.485</ele>
        <time>2011-07-05T11:17:38Z</time>
      </trkpt>
      <trkpt lat="62.606105" lon="12.328924">
        <ele>933.104</ele>
        <time>2011-07-05T11:17:41Z</time>
      </trkpt>
      <trkpt lat="62.606204" lon="12.328922">
        <ele>932.896</ele>
        <time>2011-07-05T11:17:49Z</time>
      </trkpt>
      <trkpt lat="62.60628" lon="12.328881">
        <ele>933.452</ele>
        <time>2011-07-05T11:17:55Z</time>
      </trkpt>
      <trkpt lat="62.606344" lon="12.328845">
        <ele>933.487</ele>
        <time>2011-07-05T11:18:00Z</time>
      </trkpt>
      <trkpt lat="62.606432" lon="12.328855">
        <ele>933.241</ele>
        <time>2011-07-05T11:18:06Z</time>
      </trkpt>
      <trkpt lat="62.60653" lon="12.328849">
        <ele>933.279</ele>
        <time>2011-07-05T11:18:11Z</time>
      </trkpt>
      <trkpt lat="62.606623" lon="12.328816">
        <ele>932.501</ele>
        <time>2011-07-05T11:18:16Z</time>
      </trkpt>
      <trkpt lat="62.606645" lon="12.328813">
        <ele>932.129</ele>
        <time>2011-07-05T11:18:17Z</time>
      </trkpt>
      <trkpt lat="62.606841" lon="12.32874">
        <ele>932.719</ele>
        <time>2011-07-05T11:18:25Z</time>
      </trkpt>
      <trkpt lat="62.607056" lon="12.328716">
        <ele>934.051</ele>
        <time>2011-07-05T11:18:33Z</time>
      </trkpt>
      <trkpt lat="62.60714" lon="12.328701">
        <ele>934.572</ele>
        <time>2011-07-05T11:18:38Z</time>
      </trkpt>
      <trkpt lat="62.607172" lon="12.328724">
        <ele>935.066</ele>
        <time>2011-07-05T11:18:43Z</time>
      </trkpt>
      <trkpt lat="62.607214" lon="12.328706">
        <ele>935.595</ele>
        <time>2011-07-05T11:18:49Z</time>
      </trkpt>
      <trkpt lat="62.607243" lon="12.328711">
        <ele>935.795</ele>
        <time>2011-07-05T11:18:54Z</time>
      </trkpt>
      <trkpt lat="62.607339" lon="12.328744">
        <ele>935.835</ele>
        <time>2011-07-05T11:19:01Z</time>
      </trkpt>
      <trkpt lat="62.607433" lon="12.32876">
        <ele>936.163</ele>
        <time>2011-07-05T11:19:05Z</time>
      </trkpt>
      <trkpt lat="62.607531" lon="12.328724">
        <ele>935.606</ele>
        <time>2011-07-05T11:19:09Z</time>
      </trkpt>
      <trkpt lat="62.607645" lon="12.328707">
        <ele>934.991</ele>
        <time>2011-07-05T11:19:14Z</time>
      </trkpt>
      <trkpt lat="62.607734" lon="12.328638">
        <ele>935.299</ele>
        <time>2011-07-05T11:19:18Z</time>
      </trkpt>
      <trkpt lat="62.607829" lon="12.328544">
        <ele>935.638</ele>
        <time>2011-07-05T11:19:22Z</time>
      </trkpt>
      <trkpt lat="62.607986" lon="12.328525">
        <ele>935.989</ele>
        <time>2011-07-05T11:19:28Z</time>
      </trkpt>
      <trkpt lat="62.60801" lon="12.328524">
        <ele>935.897</ele>
        <time>2011-07-05T11:19:29Z</time>
      </trkpt>
      <trkpt lat="62.608095" lon="12.328554">
        <ele>935.499</ele>
        <time>2011-07-05T11:19:33Z</time>
      </trkpt>
      <trkpt lat="62.608211" lon="12.3285">
        <ele>935.832</ele>
        <time>2011-07-05T11:19:38Z</time>
      </trkpt>
      <trkpt lat="62.60828" lon="12.328484">
        <ele>936.358</ele>
        <time>2011-07-05T11:19:41Z</time>
      </trkpt>
      <trkpt lat="62.608368" lon="12.328467">
        <ele>936.987</ele>
        <time>2011-07-05T11:19:47Z</time>
      </trkpt>
      <trkpt lat="62.608422" lon="12.328398">
        <ele>936.978</ele>
        <time>2011-07-05T11:19:51Z</time>
      </trkpt>
      <trkpt lat="62.608467" lon="12.328313">
        <ele>937.211</ele>
        <time>2011-07-05T11:19:55Z</time>
      </trkpt>
      <trkpt lat="62.608608" lon="12.32828">
        <ele>938.492</ele>
        <time>2011-07-05T11:20:03Z</time>
      </trkpt>
      <trkpt lat="62.608755" lon="12.32828">
        <ele>939.191</ele>
        <time>2011-07-05T11:20:09Z</time>
      </trkpt>
      <trkpt lat="62.60889" lon="12.328283">
        <ele>939.18</ele>
        <time>2011-07-05T11:20:14Z</time>
      </trkpt>
      <trkpt lat="62.609018" lon="12.328247">
        <ele>939.676</ele>
        <time>2011-07-05T11:20:19Z</time>
      </trkpt>
      <trkpt lat="62.609086" lon="12.328299">
        <ele>940.025</ele>
        <time>2011-07-05T11:20:22Z</time>
      </trkpt>
      <trkpt lat="62.609205" lon="12.328279">
        <ele>940.168</ele>
        <time>2011-07-05T11:20:27Z</time>
      </trkpt>
      <trkpt lat="62.609292" lon="12.328312">
        <ele>941.095</ele>
        <time>2011-07-05T11:20:31Z</time>
      </trkpt>
      <trkpt lat="62.609401" lon="12.328242">
        <ele>941.843</ele>
        <time>2011-07-05T11:20:37Z</time>
      </trkpt>
      <trkpt lat="62.609449" lon="12.328234">
        <ele>942.53</ele>
        <time>2011-07-05T11:20:41Z</time>
      </trkpt>
      <trkpt lat="62.60946" lon="12.328233">
        <ele>942.668</ele>
        <time>2011-07-05T11:20:42Z</time>
      </trkpt>
      <trkpt lat="62.609558" lon="12.328169">
        <ele>942.954</ele>
        <time>2011-07-05T11:20:50Z</time>
      </trkpt>
      <trkpt lat="62.609629" lon="12.328141">
        <ele>944.267</ele>
        <time>2011-07-05T11:20:56Z</time>
      </trkpt>
      <trkpt lat="62.609653" lon="12.328119">
        <ele>944.557</ele>
        <time>2011-07-05T11:20:58Z</time>
      </trkpt>
      <trkpt lat="62.609753" lon="12.32808">
        <ele>944.618</ele>
        <time>2011-07-05T11:21:05Z</time>
      </trkpt>
      <trkpt lat="62.609848" lon="12.328043">
        <ele>945.58</ele>
        <time>2011-07-05T11:21:12Z</time>
      </trkpt>
      <trkpt lat="62.609979" lon="12.32799">
        <ele>946.958</ele>
        <time>2011-07-05T11:21:21Z</time>
      </trkpt>
      <trkpt lat="62.610128" lon="12.327936">
        <ele>947.238</ele>
        <time>2011-07-05T11:21:28Z</time>
      </trkpt>
      <trkpt lat="62.610274" lon="12.327926">
        <ele>946.037</ele>
        <time>2011-07-05T11:21:33Z</time>
      </trkpt>
      <trkpt lat="62.610423" lon="12.327929">
        <ele>946.243</ele>
        <time>2011-07-05T11:21:39Z</time>
      </trkpt>
      <trkpt lat="62.610543" lon="12.327941">
        <ele>946.676</ele>
        <time>2011-07-05T11:21:44Z</time>
      </trkpt>
      <trkpt lat="62.610568" lon="12.327953">
        <ele>946.719</ele>
        <time>2011-07-05T11:21:45Z</time>
      </trkpt>
      <trkpt lat="62.610702" lon="12.32793">
        <ele>945.882</ele>
        <time>2011-07-05T11:21:51Z</time>
      </trkpt>
      <trkpt lat="62.610811" lon="12.32787">
        <ele>945.066</ele>
        <time>2011-07-05T11:21:56Z</time>
      </trkpt>
      <trkpt lat="62.610955" lon="12.327881">
        <ele>946.298</ele>
        <time>2011-07-05T11:22:03Z</time>
      </trkpt>
      <trkpt lat="62.61112" lon="12.327846">
        <ele>947.457</ele>
        <time>2011-07-05T11:22:10Z</time>
      </trkpt>
      <trkpt lat="62.611265" lon="12.327815">
        <ele>947.328</ele>
        <time>2011-07-05T11:22:16Z</time>
      </trkpt>
      <trkpt lat="62.611389" lon="12.327802">
        <ele>946.484</ele>
        <time>2011-07-05T11:22:21Z</time>
      </trkpt>
      <trkpt lat="62.611545" lon="12.327808">
        <ele>945.281</ele>
        <time>2011-07-05T11:22:27Z</time>
      </trkpt>
      <trkpt lat="62.611672" lon="12.327763">
        <ele>945.289</ele>
        <time>2011-07-05T11:22:32Z</time>
      </trkpt>
      <trkpt lat="62.611817" lon="12.327663">
        <ele>945.554</ele>
        <time>2011-07-05T11:22:38Z</time>
      </trkpt>
      <trkpt lat="62.611943" lon="12.32768">
        <ele>945.726</ele>
        <time>2011-07-05T11:22:43Z</time>
      </trkpt>
      <trkpt lat="62.61202" lon="12.32769">
        <ele>945.873</ele>
        <time>2011-07-05T11:22:46Z</time>
      </trkpt>
      <trkpt lat="62.612126" lon="12.327557">
        <ele>945.61</ele>
        <time>2011-07-05T11:22:51Z</time>
      </trkpt>
      <trkpt lat="62.612216" lon="12.327274">
        <ele>945.895</ele>
        <time>2011-07-05T11:22:57Z</time>
      </trkpt>
      <trkpt lat="62.612329" lon="12.32722">
        <ele>947.493</ele>
        <time>2011-07-05T11:23:02Z</time>
      </trkpt>
      <trkpt lat="62.612505" lon="12.327246">
        <ele>948.282</ele>
        <time>2011-07-05T11:23:09Z</time>
      </trkpt>
      <trkpt lat="62.612598" lon="12.327277">
        <ele>948.027</ele>
        <time>2011-07-05T11:23:13Z</time>
      </trkpt>
      <trkpt lat="62.612728" lon="12.327205">
        <ele>947.663</ele>
        <time>2011-07-05T11:23:19Z</time>
      </trkpt>
      <trkpt lat="62.612804" lon="12.327153">
        <ele>947.06</ele>
        <time>2011-07-05T11:23:25Z</time>
      </trkpt>
      <trkpt lat="62.612873" lon="12.327104">
        <ele>946.553</ele>
        <time>2011-07-05T11:23:31Z</time>
      </trkpt>
      <trkpt lat="62.612913" lon="12.327084">
        <ele>946.15</ele>
        <time>2011-07-05T11:23:34Z</time>
      </trkpt>
      <trkpt lat="62.613036" lon="12.327027">
        <ele>946.494</ele>
        <time>2011-07-05T11:23:44Z</time>
      </trkpt>
      <trkpt lat="62.613061" lon="12.326998">
        <ele>946.663</ele>
        <time>2011-07-05T11:23:48Z</time>
      </trkpt>
      <trkpt lat="62.613101" lon="12.326976">
        <ele>946.689</ele>
        <time>2011-07-05T11:23:52Z</time>
      </trkpt>
      <trkpt lat="62.613188" lon="12.326915">
        <ele>946.361</ele>
        <time>2011-07-05T11:23:58Z</time>
      </trkpt>
      <trkpt lat="62.613203" lon="12.326916">
        <ele>946.356</ele>
        <time>2011-07-05T11:23:59Z</time>
      </trkpt>
      <trkpt lat="62.613343" lon="12.326836">
        <ele>946.077</ele>
        <time>2011-07-05T11:24:09Z</time>
      </trkpt>
      <trkpt lat="62.61345" lon="12.326761">
        <ele>945.604</ele>
        <time>2011-07-05T11:24:17Z</time>
      </trkpt>
      <trkpt lat="62.613543" lon="12.326674">
        <ele>944.794</ele>
        <time>2011-07-05T11:24:21Z</time>
      </trkpt>
      <trkpt lat="62.613687" lon="12.326538">
        <ele>945.283</ele>
        <time>2011-07-05T11:24:28Z</time>
      </trkpt>
      <trkpt lat="62.613793" lon="12.326442">
        <ele>944.826</ele>
        <time>2011-07-05T11:24:37Z</time>
      </trkpt>
      <trkpt lat="62.613794" lon="12.32644">
        <ele>944.803</ele>
        <time>2011-07-05T11:24:38Z</time>
      </trkpt>
      <trkpt lat="62.613825" lon="12.326369">
        <ele>944.708</ele>
        <time>2011-07-05T11:24:53Z</time>
      </trkpt>
      <trkpt lat="62.613896" lon="12.326383">
        <ele>944.443</ele>
        <time>2011-07-05T11:24:58Z</time>
      </trkpt>
      <trkpt lat="62.613997" lon="12.326379">
        <ele>943.631</ele>
        <time>2011-07-05T11:25:04Z</time>
      </trkpt>
      <trkpt lat="62.614104" lon="12.326354">
        <ele>943.429</ele>
        <time>2011-07-05T11:25:12Z</time>
      </trkpt>
      <trkpt lat="62.614167" lon="12.326286">
        <ele>942.612</ele>
        <time>2011-07-05T11:25:18Z</time>
      </trkpt>
      <trkpt lat="62.614248" lon="12.32625">
        <ele>943.615</ele>
        <time>2011-07-05T11:25:26Z</time>
      </trkpt>
      <trkpt lat="62.614258" lon="12.326257">
        <ele>943.632</ele>
        <time>2011-07-05T11:25:27Z</time>
      </trkpt>
      <trkpt lat="62.614292" lon="12.326271">
        <ele>943.963</ele>
        <time>2011-07-05T11:25:32Z</time>
      </trkpt>
      <trkpt lat="62.614337" lon="12.326214">
        <ele>944.468</ele>
        <time>2011-07-05T11:25:53Z</time>
      </trkpt>
      <trkpt lat="62.614367" lon="12.326201">
        <ele>944.417</ele>
        <time>2011-07-05T11:26:08Z</time>
      </trkpt>
      <trkpt lat="62.614414" lon="12.326227">
        <ele>944.352</ele>
        <time>2011-07-05T11:27:34Z</time>
      </trkpt>
      <trkpt lat="62.614485" lon="12.32623">
        <ele>944.178</ele>
        <time>2011-07-05T11:27:41Z</time>
      </trkpt>
      <trkpt lat="62.614583" lon="12.326271">
        <ele>943.352</ele>
        <time>2011-07-05T11:27:49Z</time>
      </trkpt>
      <trkpt lat="62.614599" lon="12.326286">
        <ele>943.191</ele>
        <time>2011-07-05T11:27:50Z</time>
      </trkpt>
      <trkpt lat="62.61475" lon="12.32628">
        <ele>943.008</ele>
        <time>2011-07-05T11:27:56Z</time>
      </trkpt>
      <trkpt lat="62.614898" lon="12.326427">
        <ele>943.212</ele>
        <time>2011-07-05T11:28:02Z</time>
      </trkpt>
      <trkpt lat="62.615062" lon="12.32657">
        <ele>942.508</ele>
        <time>2011-07-05T11:28:08Z</time>
      </trkpt>
      <trkpt lat="62.615202" lon="12.326765">
        <ele>942.576</ele>
        <time>2011-07-05T11:28:14Z</time>
      </trkpt>
      <trkpt lat="62.615308" lon="12.326953">
        <ele>942.647</ele>
        <time>2011-07-05T11:28:19Z</time>
      </trkpt>
      <trkpt lat="62.615343" lon="12.327044">
        <ele>942.563</ele>
        <time>2011-07-05T11:28:21Z</time>
      </trkpt>
      <trkpt lat="62.615457" lon="12.327204">
        <ele>942.883</ele>
        <time>2011-07-05T11:28:27Z</time>
      </trkpt>
      <trkpt lat="62.615538" lon="12.327332">
        <ele>943.015</ele>
        <time>2011-07-05T11:28:31Z</time>
      </trkpt>
      <trkpt lat="62.615636" lon="12.3274">
        <ele>943.418</ele>
        <time>2011-07-05T11:28:40Z</time>
      </trkpt>
      <trkpt lat="62.615748" lon="12.327479">
        <ele>943.036</ele>
        <time>2011-07-05T11:28:49Z</time>
      </trkpt>
      <trkpt lat="62.615845" lon="12.327599">
        <ele>942.995</ele>
        <time>2011-07-05T11:28:56Z</time>
      </trkpt>
      <trkpt lat="62.615965" lon="12.32776">
        <ele>942.727</ele>
        <time>2011-07-05T11:29:01Z</time>
      </trkpt>
      <trkpt lat="62.616109" lon="12.327857">
        <ele>941.794</ele>
        <time>2011-07-05T11:29:06Z</time>
      </trkpt>
      <trkpt lat="62.616251" lon="12.327884">
        <ele>941.155</ele>
        <time>2011-07-05T11:29:11Z</time>
      </trkpt>
      <trkpt lat="62.616411" lon="12.327824">
        <ele>940.397</ele>
        <time>2011-07-05T11:29:17Z</time>
      </trkpt>
      <trkpt lat="62.616532" lon="12.327878">
        <ele>940.265</ele>
        <time>2011-07-05T11:29:22Z</time>
      </trkpt>
      <trkpt lat="62.616594" lon="12.327902">
        <ele>940.194</ele>
        <time>2011-07-05T11:29:25Z</time>
      </trkpt>
      <trkpt lat="62.616739" lon="12.327969">
        <ele>939.731</ele>
        <time>2011-07-05T11:29:31Z</time>
      </trkpt>
      <trkpt lat="62.616953" lon="12.327972">
        <ele>939.289</ele>
        <time>2011-07-05T11:29:39Z</time>
      </trkpt>
      <trkpt lat="62.617097" lon="12.327903">
        <ele>938.948</ele>
        <time>2011-07-05T11:29:45Z</time>
      </trkpt>
      <trkpt lat="62.617203" lon="12.327919">
        <ele>938.556</ele>
        <time>2011-07-05T11:29:49Z</time>
      </trkpt>
      <trkpt lat="62.617379" lon="12.328036">
        <ele>938.232</ele>
        <time>2011-07-05T11:29:56Z</time>
      </trkpt>
      <trkpt lat="62.617447" lon="12.328128">
        <ele>938.232</ele>
        <time>2011-07-05T11:29:59Z</time>
      </trkpt>
      <trkpt lat="62.617552" lon="12.328142">
        <ele>938.066</ele>
        <time>2011-07-05T11:30:03Z</time>
      </trkpt>
      <trkpt lat="62.617669" lon="12.328101">
        <ele>937.673</ele>
        <time>2011-07-05T11:30:07Z</time>
      </trkpt>
      <trkpt lat="62.617816" lon="12.328076">
        <ele>937.592</ele>
        <time>2011-07-05T11:30:13Z</time>
      </trkpt>
      <trkpt lat="62.617967" lon="12.328145">
        <ele>937.826</ele>
        <time>2011-07-05T11:30:20Z</time>
      </trkpt>
      <trkpt lat="62.618113" lon="12.32819">
        <ele>937.938</ele>
        <time>2011-07-05T11:30:26Z</time>
      </trkpt>
      <trkpt lat="62.618186" lon="12.328275">
        <ele>938.118</ele>
        <time>2011-07-05T11:30:31Z</time>
      </trkpt>
      <trkpt lat="62.618198" lon="12.328287">
        <ele>938.238</ele>
        <time>2011-07-05T11:30:32Z</time>
      </trkpt>
      <trkpt lat="62.618264" lon="12.328311">
        <ele>938.303</ele>
        <time>2011-07-05T11:30:36Z</time>
      </trkpt>
      <trkpt lat="62.618346" lon="12.3284">
        <ele>938.597</ele>
        <time>2011-07-05T11:30:42Z</time>
      </trkpt>
      <trkpt lat="62.618386" lon="12.328431">
        <ele>938.938</ele>
        <time>2011-07-05T11:30:45Z</time>
      </trkpt>
      <trkpt lat="62.618496" lon="12.328463">
        <ele>938.922</ele>
        <time>2011-07-05T11:30:53Z</time>
      </trkpt>
      <trkpt lat="62.618592" lon="12.328489">
        <ele>938.442</ele>
        <time>2011-07-05T11:31:00Z</time>
      </trkpt>
      <trkpt lat="62.618623" lon="12.328495">
        <ele>938.524</ele>
        <time>2011-07-05T11:31:05Z</time>
      </trkpt>
      <trkpt lat="62.618701" lon="12.328551">
        <ele>938.617</ele>
        <time>2011-07-05T11:31:11Z</time>
      </trkpt>
      <trkpt lat="62.618799" lon="12.328584">
        <ele>938.495</ele>
        <time>2011-07-05T11:31:16Z</time>
      </trkpt>
      <trkpt lat="62.618922" lon="12.328681">
        <ele>937.494</ele>
        <time>2011-07-05T11:31:22Z</time>
      </trkpt>
      <trkpt lat="62.619028" lon="12.32877">
        <ele>937.588</ele>
        <time>2011-07-05T11:31:27Z</time>
      </trkpt>
      <trkpt lat="62.619125" lon="12.328854">
        <ele>938.177</ele>
        <time>2011-07-05T11:31:32Z</time>
      </trkpt>
      <trkpt lat="62.619232" lon="12.328929">
        <ele>938.731</ele>
        <time>2011-07-05T11:31:40Z</time>
      </trkpt>
      <trkpt lat="62.619362" lon="12.328979">
        <ele>938.402</ele>
        <time>2011-07-05T11:31:49Z</time>
      </trkpt>
      <trkpt lat="62.619471" lon="12.329073">
        <ele>937.681</ele>
        <time>2011-07-05T11:31:57Z</time>
      </trkpt>
      <trkpt lat="62.619606" lon="12.329194">
        <ele>936.993</ele>
        <time>2011-07-05T11:32:05Z</time>
      </trkpt>
      <trkpt lat="62.619722" lon="12.329305">
        <ele>937.233</ele>
        <time>2011-07-05T11:32:10Z</time>
      </trkpt>
      <trkpt lat="62.619873" lon="12.329451">
        <ele>937.288</ele>
        <time>2011-07-05T11:32:17Z</time>
      </trkpt>
      <trkpt lat="62.619998" lon="12.329409">
        <ele>937.538</ele>
        <time>2011-07-05T11:32:22Z</time>
      </trkpt>
      <trkpt lat="62.620044" lon="12.329367">
        <ele>937.261</ele>
        <time>2011-07-05T11:32:24Z</time>
      </trkpt>
      <trkpt lat="62.620133" lon="12.329392">
        <ele>936.41</ele>
        <time>2011-07-05T11:32:31Z</time>
      </trkpt>
      <trkpt lat="62.620186" lon="12.329354">
        <ele>935.942</ele>
        <time>2011-07-05T11:32:38Z</time>
      </trkpt>
      <trkpt lat="62.620248" lon="12.329294">
        <ele>936.73</ele>
        <time>2011-07-05T11:32:45Z</time>
      </trkpt>
      <trkpt lat="62.620253" lon="12.329284">
        <ele>937.006</ele>
        <time>2011-07-05T11:32:47Z</time>
      </trkpt>
      <trkpt lat="62.620264" lon="12.329296">
        <ele>936.892</ele>
        <time>2011-07-05T11:32:57Z</time>
      </trkpt>
      <trkpt lat="62.620237" lon="12.329222">
        <ele>936.746</ele>
        <time>2011-07-05T11:33:08Z</time>
      </trkpt>
      <trkpt lat="62.620239" lon="12.329221">
        <ele>936.83</ele>
        <time>2011-07-05T11:33:10Z</time>
      </trkpt>
      <trkpt lat="62.620287" lon="12.329285">
        <ele>937.061</ele>
        <time>2011-07-05T11:33:17Z</time>
      </trkpt>
      <trkpt lat="62.620369" lon="12.329278">
        <ele>937.588</ele>
        <time>2011-07-05T11:33:25Z</time>
      </trkpt>
      <trkpt lat="62.62038" lon="12.329274">
        <ele>937.611</ele>
        <time>2011-07-05T11:33:26Z</time>
      </trkpt>
      <trkpt lat="62.620464" lon="12.329254">
        <ele>937.458</ele>
        <time>2011-07-05T11:33:33Z</time>
      </trkpt>
      <trkpt lat="62.620555" lon="12.329305">
        <ele>937.451</ele>
        <time>2011-07-05T11:33:39Z</time>
      </trkpt>
      <trkpt lat="62.620709" lon="12.329364">
        <ele>937.611</ele>
        <time>2011-07-05T11:33:46Z</time>
      </trkpt>
      <trkpt lat="62.620781" lon="12.329398">
        <ele>937.769</ele>
        <time>2011-07-05T11:33:49Z</time>
      </trkpt>
      <trkpt lat="62.620932" lon="12.32935">
        <ele>938.166</ele>
        <time>2011-07-05T11:33:55Z</time>
      </trkpt>
      <trkpt lat="62.621006" lon="12.329353">
        <ele>938.25</ele>
        <time>2011-07-05T11:33:59Z</time>
      </trkpt>
      <trkpt lat="62.621048" lon="12.329355">
        <ele>938.643</ele>
        <time>2011-07-05T11:34:02Z</time>
      </trkpt>
      <trkpt lat="62.621117" lon="12.329427">
        <ele>939.75</ele>
        <time>2011-07-05T11:34:09Z</time>
      </trkpt>
      <trkpt lat="62.621133" lon="12.329415">
        <ele>939.888</ele>
        <time>2011-07-05T11:34:10Z</time>
      </trkpt>
      <trkpt lat="62.621235" lon="12.329346">
        <ele>941.459</ele>
        <time>2011-07-05T11:34:18Z</time>
      </trkpt>
      <trkpt lat="62.621304" lon="12.329306">
        <ele>942.524</ele>
        <time>2011-07-05T11:34:24Z</time>
      </trkpt>
      <trkpt lat="62.621371" lon="12.329326">
        <ele>943.369</ele>
        <time>2011-07-05T11:34:30Z</time>
      </trkpt>
      <trkpt lat="62.621425" lon="12.32931">
        <ele>944.174</ele>
        <time>2011-07-05T11:34:35Z</time>
      </trkpt>
      <trkpt lat="62.621521" lon="12.329253">
        <ele>945.408</ele>
        <time>2011-07-05T11:34:44Z</time>
      </trkpt>
      <trkpt lat="62.621622" lon="12.329245">
        <ele>946.73</ele>
        <time>2011-07-05T11:34:54Z</time>
      </trkpt>
      <trkpt lat="62.621724" lon="12.329262">
        <ele>947.738</ele>
        <time>2011-07-05T11:35:03Z</time>
      </trkpt>
      <trkpt lat="62.621828" lon="12.32932">
        <ele>948.777</ele>
        <time>2011-07-05T11:35:11Z</time>
      </trkpt>
      <trkpt lat="62.621834" lon="12.329381">
        <ele>948.887</ele>
        <time>2011-07-05T11:35:14Z</time>
      </trkpt>
      <trkpt lat="62.621868" lon="12.329437">
        <ele>949.381</ele>
        <time>2011-07-05T11:35:18Z</time>
      </trkpt>
      <trkpt lat="62.62192" lon="12.3295">
        <ele>949.763</ele>
        <time>2011-07-05T11:35:22Z</time>
      </trkpt>
      <trkpt lat="62.621971" lon="12.329492">
        <ele>950.105</ele>
        <time>2011-07-05T11:35:26Z</time>
      </trkpt>
      <trkpt lat="62.622043" lon="12.329537">
        <ele>951.302</ele>
        <time>2011-07-05T11:35:32Z</time>
      </trkpt>
      <trkpt lat="62.6221" lon="12.329522">
        <ele>951.913</ele>
        <time>2011-07-05T11:35:37Z</time>
      </trkpt>
      <trkpt lat="62.622194" lon="12.329516">
        <ele>953.475</ele>
        <time>2011-07-05T11:35:45Z</time>
      </trkpt>
      <trkpt lat="62.622204" lon="12.329519">
        <ele>953.691</ele>
        <time>2011-07-05T11:35:46Z</time>
      </trkpt>
      <trkpt lat="62.622315" lon="12.329512">
        <ele>955.311</ele>
        <time>2011-07-05T11:35:55Z</time>
      </trkpt>
      <trkpt lat="62.622408" lon="12.329596">
        <ele>956.565</ele>
        <time>2011-07-05T11:36:02Z</time>
      </trkpt>
      <trkpt lat="62.622498" lon="12.329693">
        <ele>957.878</ele>
        <time>2011-07-05T11:36:09Z</time>
      </trkpt>
      <trkpt lat="62.622593" lon="12.329849">
        <ele>959.689</ele>
        <time>2011-07-05T11:36:17Z</time>
      </trkpt>
      <trkpt lat="62.622685" lon="12.329928">
        <ele>960.655</ele>
        <time>2011-07-05T11:36:25Z</time>
      </trkpt>
      <trkpt lat="62.622774" lon="12.329968">
        <ele>962.008</ele>
        <time>2011-07-05T11:36:33Z</time>
      </trkpt>
      <trkpt lat="62.622864" lon="12.330034">
        <ele>963</ele>
        <time>2011-07-05T11:36:38Z</time>
      </trkpt>
      <trkpt lat="62.622973" lon="12.330124">
        <ele>964.131</ele>
        <time>2011-07-05T11:36:43Z</time>
      </trkpt>
      <trkpt lat="62.623151" lon="12.330135">
        <ele>964.608</ele>
        <time>2011-07-05T11:36:50Z</time>
      </trkpt>
      <trkpt lat="62.623305" lon="12.330213">
        <ele>965.241</ele>
        <time>2011-07-05T11:36:56Z</time>
      </trkpt>
      <trkpt lat="62.623472" lon="12.330286">
        <ele>966.664</ele>
        <time>2011-07-05T11:37:03Z</time>
      </trkpt>
      <trkpt lat="62.623597" lon="12.330319">
        <ele>967.001</ele>
        <time>2011-07-05T11:37:08Z</time>
      </trkpt>
      <trkpt lat="62.623714" lon="12.330288">
        <ele>967.036</ele>
        <time>2011-07-05T11:37:13Z</time>
      </trkpt>
      <trkpt lat="62.623766" lon="12.33029">
        <ele>966.888</ele>
        <time>2011-07-05T11:37:15Z</time>
      </trkpt>
      <trkpt lat="62.623873" lon="12.33035">
        <ele>966.534</ele>
        <time>2011-07-05T11:37:20Z</time>
      </trkpt>
      <trkpt lat="62.623969" lon="12.330348">
        <ele>966.205</ele>
        <time>2011-07-05T11:37:24Z</time>
      </trkpt>
      <trkpt lat="62.624045" lon="12.330382">
        <ele>965.973</ele>
        <time>2011-07-05T11:37:29Z</time>
      </trkpt>
      <trkpt lat="62.624141" lon="12.330399">
        <ele>965.98</ele>
        <time>2011-07-05T11:37:33Z</time>
      </trkpt>
      <trkpt lat="62.624185" lon="12.330388">
        <ele>966.067</ele>
        <time>2011-07-05T11:37:35Z</time>
      </trkpt>
      <trkpt lat="62.62429" lon="12.330472">
        <ele>966.392</ele>
        <time>2011-07-05T11:37:40Z</time>
      </trkpt>
      <trkpt lat="62.62451" lon="12.330511">
        <ele>967.008</ele>
        <time>2011-07-05T11:37:49Z</time>
      </trkpt>
      <trkpt lat="62.624688" lon="12.330592">
        <ele>967.802</ele>
        <time>2011-07-05T11:37:56Z</time>
      </trkpt>
      <trkpt lat="62.62487" lon="12.330569">
        <ele>968.117</ele>
        <time>2011-07-05T11:38:03Z</time>
      </trkpt>
      <trkpt lat="62.625011" lon="12.330633">
        <ele>968.479</ele>
        <time>2011-07-05T11:38:09Z</time>
      </trkpt>
      <trkpt lat="62.625141" lon="12.330697">
        <ele>968.379</ele>
        <time>2011-07-05T11:38:14Z</time>
      </trkpt>
      <trkpt lat="62.625194" lon="12.330718">
        <ele>968.277</ele>
        <time>2011-07-05T11:38:16Z</time>
      </trkpt>
      <trkpt lat="62.62537" lon="12.330779">
        <ele>968.063</ele>
        <time>2011-07-05T11:38:23Z</time>
      </trkpt>
      <trkpt lat="62.625553" lon="12.330865">
        <ele>967.396</ele>
        <time>2011-07-05T11:38:30Z</time>
      </trkpt>
      <trkpt lat="62.625623" lon="12.330963">
        <ele>967.541</ele>
        <time>2011-07-05T11:38:34Z</time>
      </trkpt>
      <trkpt lat="62.62575" lon="12.331055">
        <ele>967.094</ele>
        <time>2011-07-05T11:38:41Z</time>
      </trkpt>
      <trkpt lat="62.625842" lon="12.331029">
        <ele>967.311</ele>
        <time>2011-07-05T11:38:46Z</time>
      </trkpt>
      <trkpt lat="62.62586" lon="12.331043">
        <ele>967.324</ele>
        <time>2011-07-05T11:38:47Z</time>
      </trkpt>
      <trkpt lat="62.62595" lon="12.331059">
        <ele>967.438</ele>
        <time>2011-07-05T11:38:51Z</time>
      </trkpt>
      <trkpt lat="62.626046" lon="12.33111">
        <ele>967.351</ele>
        <time>2011-07-05T11:38:57Z</time>
      </trkpt>
      <trkpt lat="62.626092" lon="12.331089">
        <ele>966.991</ele>
        <time>2011-07-05T11:39:02Z</time>
      </trkpt>
      <trkpt lat="62.62612" lon="12.331159">
        <ele>968.123</ele>
        <time>2011-07-05T11:39:07Z</time>
      </trkpt>
      <trkpt lat="62.626181" lon="12.331162">
        <ele>968.653</ele>
        <time>2011-07-05T11:39:13Z</time>
      </trkpt>
      <trkpt lat="62.626274" lon="12.33114">
        <ele>968.809</ele>
        <time>2011-07-05T11:39:19Z</time>
      </trkpt>
      <trkpt lat="62.6264" lon="12.331224">
        <ele>969.493</ele>
        <time>2011-07-05T11:39:25Z</time>
      </trkpt>
      <trkpt lat="62.626542" lon="12.331207">
        <ele>970.892</ele>
        <time>2011-07-05T11:39:31Z</time>
      </trkpt>
      <trkpt lat="62.626669" lon="12.331229">
        <ele>971.342</ele>
        <time>2011-07-05T11:39:36Z</time>
      </trkpt>
      <trkpt lat="62.626873" lon="12.331335">
        <ele>972.268</ele>
        <time>2011-07-05T11:39:44Z</time>
      </trkpt>
      <trkpt lat="62.626995" lon="12.331367">
        <ele>972.854</ele>
        <time>2011-07-05T11:39:49Z</time>
      </trkpt>
      <trkpt lat="62.627128" lon="12.331351">
        <ele>973.395</ele>
        <time>2011-07-05T11:39:55Z</time>
      </trkpt>
      <trkpt lat="62.62723" lon="12.331361">
        <ele>973.835</ele>
        <time>2011-07-05T11:40:03Z</time>
      </trkpt>
      <trkpt lat="62.627342" lon="12.331395">
        <ele>974.234</ele>
        <time>2011-07-05T11:40:11Z</time>
      </trkpt>
      <trkpt lat="62.627474" lon="12.331483">
        <ele>975.03</ele>
        <time>2011-07-05T11:40:17Z</time>
      </trkpt>
      <trkpt lat="62.62752" lon="12.331495">
        <ele>975.379</ele>
        <time>2011-07-05T11:40:19Z</time>
      </trkpt>
      <trkpt lat="62.627599" lon="12.331591">
        <ele>975.765</ele>
        <time>2011-07-05T11:40:23Z</time>
      </trkpt>
      <trkpt lat="62.627705" lon="12.331834">
        <ele>976.138</ele>
        <time>2011-07-05T11:40:30Z</time>
      </trkpt>
      <trkpt lat="62.627773" lon="12.332015">
        <ele>976.389</ele>
        <time>2011-07-05T11:40:35Z</time>
      </trkpt>
      <trkpt lat="62.62791" lon="12.332078">
        <ele>976.674</ele>
        <time>2011-07-05T11:40:41Z</time>
      </trkpt>
      <trkpt lat="62.62808" lon="12.332085">
        <ele>976.726</ele>
        <time>2011-07-05T11:40:48Z</time>
      </trkpt>
      <trkpt lat="62.628214" lon="12.332115">
        <ele>976.546</ele>
        <time>2011-07-05T11:40:55Z</time>
      </trkpt>
      <trkpt lat="62.628239" lon="12.332115">
        <ele>976.437</ele>
        <time>2011-07-05T11:40:57Z</time>
      </trkpt>
      <trkpt lat="62.628323" lon="12.332139">
        <ele>976.602</ele>
        <time>2011-07-05T11:41:04Z</time>
      </trkpt>
      <trkpt lat="62.628377" lon="12.332097">
        <ele>976.177</ele>
        <time>2011-07-05T11:41:09Z</time>
      </trkpt>
      <trkpt lat="62.628461" lon="12.332033">
        <ele>975.466</ele>
        <time>2011-07-05T11:41:15Z</time>
      </trkpt>
      <trkpt lat="62.628577" lon="12.332024">
        <ele>974.74</ele>
        <time>2011-07-05T11:41:21Z</time>
      </trkpt>
      <trkpt lat="62.628772" lon="12.332031">
        <ele>973.246</ele>
        <time>2011-07-05T11:41:28Z</time>
      </trkpt>
      <trkpt lat="62.628972" lon="12.332073">
        <ele>971.757</ele>
        <time>2011-07-05T11:41:35Z</time>
      </trkpt>
      <trkpt lat="62.62919" lon="12.332127">
        <ele>969.663</ele>
        <time>2011-07-05T11:41:43Z</time>
      </trkpt>
      <trkpt lat="62.629308" lon="12.332138">
        <ele>967.915</ele>
        <time>2011-07-05T11:41:47Z</time>
      </trkpt>
      <trkpt lat="62.629502" lon="12.332198">
        <ele>965.525</ele>
        <time>2011-07-05T11:41:54Z</time>
      </trkpt>
      <trkpt lat="62.629673" lon="12.332281">
        <ele>963.909</ele>
        <time>2011-07-05T11:42:00Z</time>
      </trkpt>
      <trkpt lat="62.62988" lon="12.332343">
        <ele>962.006</ele>
        <time>2011-07-05T11:42:07Z</time>
      </trkpt>
      <trkpt lat="62.630027" lon="12.332371">
        <ele>961.177</ele>
        <time>2011-07-05T11:42:12Z</time>
      </trkpt>
      <trkpt lat="62.630252" lon="12.332389">
        <ele>960.183</ele>
        <time>2011-07-05T11:42:20Z</time>
      </trkpt>
      <trkpt lat="62.630384" lon="12.332445">
        <ele>959.25</ele>
        <time>2011-07-05T11:42:26Z</time>
      </trkpt>
      <trkpt lat="62.630454" lon="12.332511">
        <ele>958.551</ele>
        <time>2011-07-05T11:42:33Z</time>
      </trkpt>
      <trkpt lat="62.630462" lon="12.332522">
        <ele>957.555</ele>
        <time>2011-07-05T11:42:36Z</time>
      </trkpt>
      <trkpt lat="62.630474" lon="12.332528">
        <ele>957.084</ele>
        <time>2011-07-05T11:42:46Z</time>
      </trkpt>
      <trkpt lat="62.630564" lon="12.332471">
        <ele>956.531</ele>
        <time>2011-07-05T11:42:59Z</time>
      </trkpt>
      <trkpt lat="62.630575" lon="12.332466">
        <ele>956.4</ele>
        <time>2011-07-05T11:43:00Z</time>
      </trkpt>
      <trkpt lat="62.630659" lon="12.332521">
        <ele>956.213</ele>
        <time>2011-07-05T11:43:07Z</time>
      </trkpt>
      <trkpt lat="62.630752" lon="12.332587">
        <ele>956.354</ele>
        <time>2011-07-05T11:43:15Z</time>
      </trkpt>
      <trkpt lat="62.630872" lon="12.332606">
        <ele>956.64</ele>
        <time>2011-07-05T11:43:25Z</time>
      </trkpt>
      <trkpt lat="62.630967" lon="12.332635">
        <ele>956.936</ele>
        <time>2011-07-05T11:43:33Z</time>
      </trkpt>
      <trkpt lat="62.631042" lon="12.332639">
        <ele>957.07</ele>
        <time>2011-07-05T11:43:39Z</time>
      </trkpt>
      <trkpt lat="62.631079" lon="12.33263">
        <ele>957.052</ele>
        <time>2011-07-05T11:43:42Z</time>
      </trkpt>
      <trkpt lat="62.631115" lon="12.332669">
        <ele>957.078</ele>
        <time>2011-07-05T11:43:45Z</time>
      </trkpt>
      <trkpt lat="62.63119" lon="12.332707">
        <ele>957.34</ele>
        <time>2011-07-05T11:43:51Z</time>
      </trkpt>
      <trkpt lat="62.631281" lon="12.332803">
        <ele>957.475</ele>
        <time>2011-07-05T11:44:00Z</time>
      </trkpt>
      <trkpt lat="62.631392" lon="12.332813">
        <ele>957.345</ele>
        <time>2011-07-05T11:44:08Z</time>
      </trkpt>
      <trkpt lat="62.631498" lon="12.332854">
        <ele>957.293</ele>
        <time>2011-07-05T11:44:17Z</time>
      </trkpt>
      <trkpt lat="62.631596" lon="12.332933">
        <ele>957.534</ele>
        <time>2011-07-05T11:44:25Z</time>
      </trkpt>
      <trkpt lat="62.631689" lon="12.332921">
        <ele>957.571</ele>
        <time>2011-07-05T11:44:32Z</time>
      </trkpt>
      <trkpt lat="62.631799" lon="12.332931">
        <ele>957.475</ele>
        <time>2011-07-05T11:44:40Z</time>
      </trkpt>
      <trkpt lat="62.63191" lon="12.33295">
        <ele>957.282</ele>
        <time>2011-07-05T11:44:48Z</time>
      </trkpt>
      <trkpt lat="62.63205" lon="12.33297">
        <ele>957.552</ele>
        <time>2011-07-05T11:44:58Z</time>
      </trkpt>
      <trkpt lat="62.632158" lon="12.333014">
        <ele>957.738</ele>
        <time>2011-07-05T11:45:07Z</time>
      </trkpt>
      <trkpt lat="62.632237" lon="12.333065">
        <ele>958.098</ele>
        <time>2011-07-05T11:45:14Z</time>
      </trkpt>
      <trkpt lat="62.632318" lon="12.333077">
        <ele>958.182</ele>
        <time>2011-07-05T11:45:20Z</time>
      </trkpt>
      <trkpt lat="62.632425" lon="12.333125">
        <ele>958.112</ele>
        <time>2011-07-05T11:45:28Z</time>
      </trkpt>
      <trkpt lat="62.632438" lon="12.33313">
        <ele>958.188</ele>
        <time>2011-07-05T11:45:29Z</time>
      </trkpt>
      <trkpt lat="62.632529" lon="12.3331">
        <ele>958.066</ele>
        <time>2011-07-05T11:45:36Z</time>
      </trkpt>
      <trkpt lat="62.632638" lon="12.333132">
        <ele>958.366</ele>
        <time>2011-07-05T11:45:43Z</time>
      </trkpt>
      <trkpt lat="62.632759" lon="12.333199">
        <ele>958.689</ele>
        <time>2011-07-05T11:45:48Z</time>
      </trkpt>
      <trkpt lat="62.63291" lon="12.333271">
        <ele>958.388</ele>
        <time>2011-07-05T11:45:55Z</time>
      </trkpt>
      <trkpt lat="62.633072" lon="12.333316">
        <ele>958.285</ele>
        <time>2011-07-05T11:46:02Z</time>
      </trkpt>
      <trkpt lat="62.633166" lon="12.333338">
        <ele>958.796</ele>
        <time>2011-07-05T11:46:08Z</time>
      </trkpt>
      <trkpt lat="62.63326" lon="12.333334">
        <ele>959.75</ele>
        <time>2011-07-05T11:46:15Z</time>
      </trkpt>
      <trkpt lat="62.633349" lon="12.333313">
        <ele>960.722</ele>
        <time>2011-07-05T11:46:21Z</time>
      </trkpt>
      <trkpt lat="62.633452" lon="12.333312">
        <ele>961.838</ele>
        <time>2011-07-05T11:46:26Z</time>
      </trkpt>
      <trkpt lat="62.633594" lon="12.333367">
        <ele>962.929</ele>
        <time>2011-07-05T11:46:32Z</time>
      </trkpt>
      <trkpt lat="62.633747" lon="12.333425">
        <ele>963.003</ele>
        <time>2011-07-05T11:46:39Z</time>
      </trkpt>
      <trkpt lat="62.633823" lon="12.3335">
        <ele>963.302</ele>
        <time>2011-07-05T11:46:45Z</time>
      </trkpt>
      <trkpt lat="62.633883" lon="12.333545">
        <ele>963.674</ele>
        <time>2011-07-05T11:46:50Z</time>
      </trkpt>
      <trkpt lat="62.633984" lon="12.333387">
        <ele>963.242</ele>
        <time>2011-07-05T11:46:56Z</time>
      </trkpt>
      <trkpt lat="62.634124" lon="12.333187">
        <ele>961.596</ele>
        <time>2011-07-05T11:47:02Z</time>
      </trkpt>
      <trkpt lat="62.634261" lon="12.333162">
        <ele>960.755</ele>
        <time>2011-07-05T11:47:07Z</time>
      </trkpt>
      <trkpt lat="62.634312" lon="12.333153">
        <ele>960.654</ele>
        <time>2011-07-05T11:47:09Z</time>
      </trkpt>
      <trkpt lat="62.634496" lon="12.333219">
        <ele>959.65</ele>
        <time>2011-07-05T11:47:16Z</time>
      </trkpt>
      <trkpt lat="62.634645" lon="12.333244">
        <ele>957.728</ele>
        <time>2011-07-05T11:47:22Z</time>
      </trkpt>
      <trkpt lat="62.634761" lon="12.333346">
        <ele>956.501</ele>
        <time>2011-07-05T11:47:27Z</time>
      </trkpt>
      <trkpt lat="62.634931" lon="12.333432">
        <ele>955.915</ele>
        <time>2011-07-05T11:47:34Z</time>
      </trkpt>
      <trkpt lat="62.635067" lon="12.333368">
        <ele>955.062</ele>
        <time>2011-07-05T11:47:39Z</time>
      </trkpt>
      <trkpt lat="62.63523" lon="12.333347">
        <ele>953.642</ele>
        <time>2011-07-05T11:47:45Z</time>
      </trkpt>
      <trkpt lat="62.635396" lon="12.333407">
        <ele>951.971</ele>
        <time>2011-07-05T11:47:51Z</time>
      </trkpt>
      <trkpt lat="62.635509" lon="12.333455">
        <ele>950.233</ele>
        <time>2011-07-05T11:47:55Z</time>
      </trkpt>
      <trkpt lat="62.635635" lon="12.333396">
        <ele>949.07</ele>
        <time>2011-07-05T11:48:00Z</time>
      </trkpt>
      <trkpt lat="62.635664" lon="12.333371">
        <ele>948.66</ele>
        <time>2011-07-05T11:48:01Z</time>
      </trkpt>
      <trkpt lat="62.635794" lon="12.33345">
        <ele>947.122</ele>
        <time>2011-07-05T11:48:06Z</time>
      </trkpt>
      <trkpt lat="62.635879" lon="12.333484">
        <ele>946.747</ele>
        <time>2011-07-05T11:48:09Z</time>
      </trkpt>
      <trkpt lat="62.636072" lon="12.333492">
        <ele>945.814</ele>
        <time>2011-07-05T11:48:16Z</time>
      </trkpt>
      <trkpt lat="62.636289" lon="12.333572">
        <ele>944.156</ele>
        <time>2011-07-05T11:48:24Z</time>
      </trkpt>
      <trkpt lat="62.636384" lon="12.333599">
        <ele>943.075</ele>
        <time>2011-07-05T11:48:28Z</time>
      </trkpt>
      <trkpt lat="62.636538" lon="12.333608">
        <ele>940.965</ele>
        <time>2011-07-05T11:48:33Z</time>
      </trkpt>
      <trkpt lat="62.636686" lon="12.333618">
        <ele>939.518</ele>
        <time>2011-07-05T11:48:38Z</time>
      </trkpt>
      <trkpt lat="62.636827" lon="12.333676">
        <ele>938.095</ele>
        <time>2011-07-05T11:48:43Z</time>
      </trkpt>
      <trkpt lat="62.636939" lon="12.333705">
        <ele>937.42</ele>
        <time>2011-07-05T11:48:47Z</time>
      </trkpt>
      <trkpt lat="62.637098" lon="12.333702">
        <ele>936.408</ele>
        <time>2011-07-05T11:48:53Z</time>
      </trkpt>
      <trkpt lat="62.637202" lon="12.333772">
        <ele>935.927</ele>
        <time>2011-07-05T11:48:57Z</time>
      </trkpt>
      <trkpt lat="62.63737" lon="12.333857">
        <ele>935.062</ele>
        <time>2011-07-05T11:49:03Z</time>
      </trkpt>
      <trkpt lat="62.637475" lon="12.333847">
        <ele>934.742</ele>
        <time>2011-07-05T11:49:07Z</time>
      </trkpt>
      <trkpt lat="62.637617" lon="12.333885">
        <ele>934.269</ele>
        <time>2011-07-05T11:49:12Z</time>
      </trkpt>
      <trkpt lat="62.637886" lon="12.33393">
        <ele>933.271</ele>
        <time>2011-07-05T11:49:21Z</time>
      </trkpt>
      <trkpt lat="62.638049" lon="12.33397">
        <ele>932.654</ele>
        <time>2011-07-05T11:49:27Z</time>
      </trkpt>
      <trkpt lat="62.638157" lon="12.334054">
        <ele>932.451</ele>
        <time>2011-07-05T11:49:32Z</time>
      </trkpt>
      <trkpt lat="62.638356" lon="12.334144">
        <ele>931.396</ele>
        <time>2011-07-05T11:49:40Z</time>
      </trkpt>
      <trkpt lat="62.638424" lon="12.334188">
        <ele>930.791</ele>
        <time>2011-07-05T11:49:45Z</time>
      </trkpt>
      <trkpt lat="62.638537" lon="12.33424">
        <ele>930.424</ele>
        <time>2011-07-05T11:49:53Z</time>
      </trkpt>
      <trkpt lat="62.638665" lon="12.334283">
        <ele>930.265</ele>
        <time>2011-07-05T11:49:58Z</time>
      </trkpt>
      <trkpt lat="62.638722" lon="12.334294">
        <ele>930.263</ele>
        <time>2011-07-05T11:50:00Z</time>
      </trkpt>
      <trkpt lat="62.638875" lon="12.334278">
        <ele>930.099</ele>
        <time>2011-07-05T11:50:05Z</time>
      </trkpt>
      <trkpt lat="62.638993" lon="12.33423">
        <ele>929.874</ele>
        <time>2011-07-05T11:50:10Z</time>
      </trkpt>
      <trkpt lat="62.639034" lon="12.334191">
        <ele>929.742</ele>
        <time>2011-07-05T11:50:12Z</time>
      </trkpt>
      <trkpt lat="62.639135" lon="12.334272">
        <ele>930.314</ele>
        <time>2011-07-05T11:50:18Z</time>
      </trkpt>
      <trkpt lat="62.639143" lon="12.334277">
        <ele>930.4</ele>
        <time>2011-07-05T11:50:19Z</time>
      </trkpt>
      <trkpt lat="62.639205" lon="12.334353">
        <ele>931.069</ele>
        <time>2011-07-05T11:50:27Z</time>
      </trkpt>
      <trkpt lat="62.639239" lon="12.334349">
        <ele>931.247</ele>
        <time>2011-07-05T11:50:30Z</time>
      </trkpt>
      <trkpt lat="62.639352" lon="12.3344">
        <ele>931.78</ele>
        <time>2011-07-05T11:50:39Z</time>
      </trkpt>
      <trkpt lat="62.639365" lon="12.334407">
        <ele>931.769</ele>
        <time>2011-07-05T11:50:40Z</time>
      </trkpt>
      <trkpt lat="62.639455" lon="12.334415">
        <ele>931.952</ele>
        <time>2011-07-05T11:50:47Z</time>
      </trkpt>
      <trkpt lat="62.639537" lon="12.33441">
        <ele>931.879</ele>
        <time>2011-07-05T11:50:53Z</time>
      </trkpt>
      <trkpt lat="62.639602" lon="12.33438">
        <ele>931.897</ele>
        <time>2011-07-05T11:50:58Z</time>
      </trkpt>
      <trkpt lat="62.63965" lon="12.334365">
        <ele>931.775</ele>
        <time>2011-07-05T11:51:02Z</time>
      </trkpt>
      <trkpt lat="62.639692" lon="12.334325">
        <ele>931.792</ele>
        <time>2011-07-05T11:51:06Z</time>
      </trkpt>
      <trkpt lat="62.639771" lon="12.334349">
        <ele>932.393</ele>
        <time>2011-07-05T11:51:12Z</time>
      </trkpt>
      <trkpt lat="62.639877" lon="12.334338">
        <ele>932.944</ele>
        <time>2011-07-05T11:51:21Z</time>
      </trkpt>
      <trkpt lat="62.639965" lon="12.334352">
        <ele>933.157</ele>
        <time>2011-07-05T11:51:28Z</time>
      </trkpt>
      <trkpt lat="62.640048" lon="12.334422">
        <ele>933.562</ele>
        <time>2011-07-05T11:51:35Z</time>
      </trkpt>
      <trkpt lat="62.640061" lon="12.334431">
        <ele>933.664</ele>
        <time>2011-07-05T11:51:36Z</time>
      </trkpt>
      <trkpt lat="62.640176" lon="12.334407">
        <ele>934.139</ele>
        <time>2011-07-05T11:51:44Z</time>
      </trkpt>
      <trkpt lat="62.640292" lon="12.334407">
        <ele>934.75</ele>
        <time>2011-07-05T11:51:53Z</time>
      </trkpt>
      <trkpt lat="62.640383" lon="12.334402">
        <ele>935.028</ele>
        <time>2011-07-05T11:52:00Z</time>
      </trkpt>
      <trkpt lat="62.640458" lon="12.334424">
        <ele>935.317</ele>
        <time>2011-07-05T11:52:06Z</time>
      </trkpt>
      <trkpt lat="62.640485" lon="12.33443">
        <ele>935.727</ele>
        <time>2011-07-05T11:52:08Z</time>
      </trkpt>
      <trkpt lat="62.640528" lon="12.334445">
        <ele>935.546</ele>
        <time>2011-07-05T11:52:11Z</time>
      </trkpt>
      <trkpt lat="62.640607" lon="12.334521">
        <ele>935.966</ele>
        <time>2011-07-05T11:52:18Z</time>
      </trkpt>
      <trkpt lat="62.640658" lon="12.334568">
        <ele>937.233</ele>
        <time>2011-07-05T11:52:23Z</time>
      </trkpt>
      <trkpt lat="62.640678" lon="12.334598">
        <ele>937.77</ele>
        <time>2011-07-05T11:52:25Z</time>
      </trkpt>
      <trkpt lat="62.640697" lon="12.334609">
        <ele>938.225</ele>
        <time>2011-07-05T11:52:27Z</time>
      </trkpt>
      <trkpt lat="62.640747" lon="12.33465">
        <ele>938.204</ele>
        <time>2011-07-05T11:52:32Z</time>
      </trkpt>
      <trkpt lat="62.640744" lon="12.334672">
        <ele>938.303</ele>
        <time>2011-07-05T11:52:36Z</time>
      </trkpt>
      <trkpt lat="62.640802" lon="12.334623">
        <ele>938.364</ele>
        <time>2011-07-05T11:52:41Z</time>
      </trkpt>
      <trkpt lat="62.640905" lon="12.334638">
        <ele>937.994</ele>
        <time>2011-07-05T11:52:49Z</time>
      </trkpt>
      <trkpt lat="62.640998" lon="12.334702">
        <ele>937.488</ele>
        <time>2011-07-05T11:52:57Z</time>
      </trkpt>
      <trkpt lat="62.641082" lon="12.334722">
        <ele>937.423</ele>
        <time>2011-07-05T11:53:04Z</time>
      </trkpt>
      <trkpt lat="62.641168" lon="12.334727">
        <ele>937.598</ele>
        <time>2011-07-05T11:53:11Z</time>
      </trkpt>
      <trkpt lat="62.641265" lon="12.33469">
        <ele>937.117</ele>
        <time>2011-07-05T11:53:18Z</time>
      </trkpt>
      <trkpt lat="62.641317" lon="12.334687">
        <ele>937.276</ele>
        <time>2011-07-05T11:53:22Z</time>
      </trkpt>
      <trkpt lat="62.641365" lon="12.334723">
        <ele>937.494</ele>
        <time>2011-07-05T11:53:26Z</time>
      </trkpt>
      <trkpt lat="62.641397" lon="12.334767">
        <ele>937.773</ele>
        <time>2011-07-05T11:53:29Z</time>
      </trkpt>
      <trkpt lat="62.641456" lon="12.334779">
        <ele>938.485</ele>
        <time>2011-07-05T11:53:34Z</time>
      </trkpt>
      <trkpt lat="62.641487" lon="12.33479">
        <ele>938.8</ele>
        <time>2011-07-05T11:53:39Z</time>
      </trkpt>
      <trkpt lat="62.641532" lon="12.334775">
        <ele>938.828</ele>
        <time>2011-07-05T11:53:47Z</time>
      </trkpt>
      <trkpt lat="62.641605" lon="12.334684">
        <ele>938.92</ele>
        <time>2011-07-05T11:53:55Z</time>
      </trkpt>
      <trkpt lat="62.641678" lon="12.334665">
        <ele>939.476</ele>
        <time>2011-07-05T11:54:01Z</time>
      </trkpt>
      <trkpt lat="62.641741" lon="12.33469">
        <ele>938.984</ele>
        <time>2011-07-05T11:54:06Z</time>
      </trkpt>
      <trkpt lat="62.641846" lon="12.334669">
        <ele>938.629</ele>
        <time>2011-07-05T11:54:14Z</time>
      </trkpt>
      <trkpt lat="62.641922" lon="12.334713">
        <ele>939.427</ele>
        <time>2011-07-05T11:54:20Z</time>
      </trkpt>
      <trkpt lat="62.642009" lon="12.334684">
        <ele>939.157</ele>
        <time>2011-07-05T11:54:26Z</time>
      </trkpt>
      <trkpt lat="62.642078" lon="12.334703">
        <ele>938.807</ele>
        <time>2011-07-05T11:54:33Z</time>
      </trkpt>
      <trkpt lat="62.642159" lon="12.334727">
        <ele>938.697</ele>
        <time>2011-07-05T11:54:39Z</time>
      </trkpt>
      <trkpt lat="62.642198" lon="12.334854">
        <ele>938.341</ele>
        <time>2011-07-05T11:54:44Z</time>
      </trkpt>
      <trkpt lat="62.642215" lon="12.334866">
        <ele>938.329</ele>
        <time>2011-07-05T11:54:45Z</time>
      </trkpt>
      <trkpt lat="62.642242" lon="12.33488">
        <ele>938.333</ele>
        <time>2011-07-05T11:54:47Z</time>
      </trkpt>
      <trkpt lat="62.642291" lon="12.335036">
        <ele>937.595</ele>
        <time>2011-07-05T11:54:54Z</time>
      </trkpt>
      <trkpt lat="62.64231" lon="12.335149">
        <ele>936.928</ele>
        <time>2011-07-05T11:54:58Z</time>
      </trkpt>
      <trkpt lat="62.642322" lon="12.335233">
        <ele>936.819</ele>
        <time>2011-07-05T11:55:01Z</time>
      </trkpt>
      <trkpt lat="62.642388" lon="12.335401">
        <ele>936.528</ele>
        <time>2011-07-05T11:55:08Z</time>
      </trkpt>
      <trkpt lat="62.642396" lon="12.335422">
        <ele>936.558</ele>
        <time>2011-07-05T11:55:09Z</time>
      </trkpt>
      <trkpt lat="62.642476" lon="12.335408">
        <ele>936.393</ele>
        <time>2011-07-05T11:55:16Z</time>
      </trkpt>
      <trkpt lat="62.642488" lon="12.335398">
        <ele>936.398</ele>
        <time>2011-07-05T11:55:17Z</time>
      </trkpt>
      <trkpt lat="62.642579" lon="12.335332">
        <ele>936.549</ele>
        <time>2011-07-05T11:55:24Z</time>
      </trkpt>
      <trkpt lat="62.642601" lon="12.335318">
        <ele>936.661</ele>
        <time>2011-07-05T11:55:26Z</time>
      </trkpt>
      <trkpt lat="62.642683" lon="12.335258">
        <ele>937.538</ele>
        <time>2011-07-05T11:55:33Z</time>
      </trkpt>
      <trkpt lat="62.642707" lon="12.335241">
        <ele>937.711</ele>
        <time>2011-07-05T11:55:35Z</time>
      </trkpt>
      <trkpt lat="62.642812" lon="12.335194">
        <ele>937.892</ele>
        <time>2011-07-05T11:55:42Z</time>
      </trkpt>
      <trkpt lat="62.642947" lon="12.335229">
        <ele>938.407</ele>
        <time>2011-07-05T11:55:48Z</time>
      </trkpt>
      <trkpt lat="62.642966" lon="12.335249">
        <ele>938.361</ele>
        <time>2011-07-05T11:55:50Z</time>
      </trkpt>
      <trkpt lat="62.643006" lon="12.335391">
        <ele>937.689</ele>
        <time>2011-07-05T11:55:55Z</time>
      </trkpt>
      <trkpt lat="62.643056" lon="12.33555">
        <ele>937.678</ele>
        <time>2011-07-05T11:56:01Z</time>
      </trkpt>
      <trkpt lat="62.643118" lon="12.335588">
        <ele>937.352</ele>
        <time>2011-07-05T11:56:07Z</time>
      </trkpt>
      <trkpt lat="62.643193" lon="12.335662">
        <ele>935.965</ele>
        <time>2011-07-05T11:56:12Z</time>
      </trkpt>
      <trkpt lat="62.643256" lon="12.335585">
        <ele>934.925</ele>
        <time>2011-07-05T11:56:18Z</time>
      </trkpt>
      <trkpt lat="62.643312" lon="12.335519">
        <ele>934.934</ele>
        <time>2011-07-05T11:56:23Z</time>
      </trkpt>
      <trkpt lat="62.643323" lon="12.335522">
        <ele>934.963</ele>
        <time>2011-07-05T11:56:24Z</time>
      </trkpt>
      <trkpt lat="62.643384" lon="12.335567">
        <ele>935.085</ele>
        <time>2011-07-05T11:56:29Z</time>
      </trkpt>
      <trkpt lat="62.643465" lon="12.335537">
        <ele>935.164</ele>
        <time>2011-07-05T11:56:34Z</time>
      </trkpt>
      <trkpt lat="62.643505" lon="12.335556">
        <ele>935.277</ele>
        <time>2011-07-05T11:56:37Z</time>
      </trkpt>
      <trkpt lat="62.643602" lon="12.33557">
        <ele>935.021</ele>
        <time>2011-07-05T11:56:43Z</time>
      </trkpt>
      <trkpt lat="62.64373" lon="12.335601">
        <ele>934.454</ele>
        <time>2011-07-05T11:56:49Z</time>
      </trkpt>
      <trkpt lat="62.643797" lon="12.335609">
        <ele>934.915</ele>
        <time>2011-07-05T11:56:53Z</time>
      </trkpt>
      <trkpt lat="62.643885" lon="12.335601">
        <ele>934.905</ele>
        <time>2011-07-05T11:56:58Z</time>
      </trkpt>
      <trkpt lat="62.643904" lon="12.335584">
        <ele>934.879</ele>
        <time>2011-07-05T11:56:59Z</time>
      </trkpt>
      <trkpt lat="62.643939" lon="12.335561">
        <ele>934.693</ele>
        <time>2011-07-05T11:57:01Z</time>
      </trkpt>
      <trkpt lat="62.644084" lon="12.335584">
        <ele>934.095</ele>
        <time>2011-07-05T11:57:07Z</time>
      </trkpt>
      <trkpt lat="62.644103" lon="12.335583">
        <ele>934.168</ele>
        <time>2011-07-05T11:57:08Z</time>
      </trkpt>
      <trkpt lat="62.644154" lon="12.335576">
        <ele>934.527</ele>
        <time>2011-07-05T11:57:12Z</time>
      </trkpt>
      <trkpt lat="62.644214" lon="12.335641">
        <ele>934.122</ele>
        <time>2011-07-05T11:57:18Z</time>
      </trkpt>
      <trkpt lat="62.644268" lon="12.335666">
        <ele>933.045</ele>
        <time>2011-07-05T11:57:22Z</time>
      </trkpt>
      <trkpt lat="62.644339" lon="12.335731">
        <ele>933.037</ele>
        <time>2011-07-05T11:57:28Z</time>
      </trkpt>
      <trkpt lat="62.644351" lon="12.33573">
        <ele>933.077</ele>
        <time>2011-07-05T11:57:29Z</time>
      </trkpt>
      <trkpt lat="62.644373" lon="12.33573">
        <ele>933.352</ele>
        <time>2011-07-05T11:57:31Z</time>
      </trkpt>
      <trkpt lat="62.64441" lon="12.335789">
        <ele>934.263</ele>
        <time>2011-07-05T11:57:35Z</time>
      </trkpt>
      <trkpt lat="62.64443" lon="12.335825">
        <ele>934.685</ele>
        <time>2011-07-05T11:57:37Z</time>
      </trkpt>
      <trkpt lat="62.644447" lon="12.33583">
        <ele>935.223</ele>
        <time>2011-07-05T11:57:39Z</time>
      </trkpt>
      <trkpt lat="62.644475" lon="12.335856">
        <ele>935.818</ele>
        <time>2011-07-05T11:57:42Z</time>
      </trkpt>
      <trkpt lat="62.644534" lon="12.335861">
        <ele>937.276</ele>
        <time>2011-07-05T11:57:48Z</time>
      </trkpt>
      <trkpt lat="62.644595" lon="12.335866">
        <ele>938.201</ele>
        <time>2011-07-05T11:57:53Z</time>
      </trkpt>
      <trkpt lat="62.644719" lon="12.335939">
        <ele>939.196</ele>
        <time>2011-07-05T11:58:01Z</time>
      </trkpt>
      <trkpt lat="62.644822" lon="12.335988">
        <ele>940.189</ele>
        <time>2011-07-05T11:58:06Z</time>
      </trkpt>
      <trkpt lat="62.644898" lon="12.335939">
        <ele>941.368</ele>
        <time>2011-07-05T11:58:12Z</time>
      </trkpt>
      <trkpt lat="62.645037" lon="12.335997">
        <ele>941.71</ele>
        <time>2011-07-05T11:58:22Z</time>
      </trkpt>
      <trkpt lat="62.645077" lon="12.336048">
        <ele>941.686</ele>
        <time>2011-07-05T11:58:24Z</time>
      </trkpt>
      <trkpt lat="62.645244" lon="12.336155">
        <ele>941.471</ele>
        <time>2011-07-05T11:58:31Z</time>
      </trkpt>
      <trkpt lat="62.645309" lon="12.33622">
        <ele>941.363</ele>
        <time>2011-07-05T11:58:34Z</time>
      </trkpt>
      <trkpt lat="62.645438" lon="12.33621">
        <ele>940.669</ele>
        <time>2011-07-05T11:58:40Z</time>
      </trkpt>
      <trkpt lat="62.645557" lon="12.336253">
        <ele>939.78</ele>
        <time>2011-07-05T11:58:46Z</time>
      </trkpt>
      <trkpt lat="62.645566" lon="12.336255">
        <ele>939.672</ele>
        <time>2011-07-05T11:58:47Z</time>
      </trkpt>
      <trkpt lat="62.645629" lon="12.336341">
        <ele>938.988</ele>
        <time>2011-07-05T11:58:52Z</time>
      </trkpt>
      <trkpt lat="62.645755" lon="12.336499">
        <ele>939.201</ele>
        <time>2011-07-05T11:58:58Z</time>
      </trkpt>
      <trkpt lat="62.645828" lon="12.33653">
        <ele>939.92</ele>
        <time>2011-07-05T11:59:03Z</time>
      </trkpt>
      <trkpt lat="62.64585" lon="12.336505">
        <ele>940.035</ele>
        <time>2011-07-05T11:59:05Z</time>
      </trkpt>
      <trkpt lat="62.645954" lon="12.336476">
        <ele>940.59</ele>
        <time>2011-07-05T11:59:13Z</time>
      </trkpt>
      <trkpt lat="62.645977" lon="12.336461">
        <ele>940.641</ele>
        <time>2011-07-05T11:59:15Z</time>
      </trkpt>
      <trkpt lat="62.646001" lon="12.336525">
        <ele>941.009</ele>
        <time>2011-07-05T11:59:20Z</time>
      </trkpt>
      <trkpt lat="62.646047" lon="12.336554">
        <ele>941.59</ele>
        <time>2011-07-05T11:59:24Z</time>
      </trkpt>
      <trkpt lat="62.646074" lon="12.336559">
        <ele>941.76</ele>
        <time>2011-07-05T11:59:26Z</time>
      </trkpt>
      <trkpt lat="62.646151" lon="12.336597">
        <ele>942.336</ele>
        <time>2011-07-05T11:59:32Z</time>
      </trkpt>
      <trkpt lat="62.646239" lon="12.336627">
        <ele>943.037</ele>
        <time>2011-07-05T11:59:39Z</time>
      </trkpt>
      <trkpt lat="62.646307" lon="12.336649">
        <ele>943.253</ele>
        <time>2011-07-05T11:59:44Z</time>
      </trkpt>
      <trkpt lat="62.64639" lon="12.336697">
        <ele>943.579</ele>
        <time>2011-07-05T11:59:51Z</time>
      </trkpt>
      <trkpt lat="62.646469" lon="12.336766">
        <ele>943.713</ele>
        <time>2011-07-05T11:59:57Z</time>
      </trkpt>
      <trkpt lat="62.646552" lon="12.336766">
        <ele>944.217</ele>
        <time>2011-07-05T12:00:02Z</time>
      </trkpt>
      <trkpt lat="62.646638" lon="12.336671">
        <ele>944.233</ele>
        <time>2011-07-05T12:00:09Z</time>
      </trkpt>
      <trkpt lat="62.646665" lon="12.336617">
        <ele>944.333</ele>
        <time>2011-07-05T12:00:12Z</time>
      </trkpt>
      <trkpt lat="62.646752" lon="12.336583">
        <ele>944.932</ele>
        <time>2011-07-05T12:00:19Z</time>
      </trkpt>
      <trkpt lat="62.646837" lon="12.336605">
        <ele>945.45</ele>
        <time>2011-07-05T12:00:25Z</time>
      </trkpt>
      <trkpt lat="62.646898" lon="12.336662">
        <ele>947.57</ele>
        <time>2011-07-05T12:00:32Z</time>
      </trkpt>
      <trkpt lat="62.646958" lon="12.336688">
        <ele>949.96</ele>
        <time>2011-07-05T12:00:37Z</time>
      </trkpt>
      <trkpt lat="62.647045" lon="12.336673">
        <ele>951.503</ele>
        <time>2011-07-05T12:00:44Z</time>
      </trkpt>
      <trkpt lat="62.647082" lon="12.336713">
        <ele>952.687</ele>
        <time>2011-07-05T12:00:49Z</time>
      </trkpt>
      <trkpt lat="62.647166" lon="12.3367">
        <ele>955.076</ele>
        <time>2011-07-05T12:00:56Z</time>
      </trkpt>
      <trkpt lat="62.647273" lon="12.33677">
        <ele>956.495</ele>
        <time>2011-07-05T12:01:04Z</time>
      </trkpt>
      <trkpt lat="62.64737" lon="12.336864">
        <ele>956.795</ele>
        <time>2011-07-05T12:01:12Z</time>
      </trkpt>
      <trkpt lat="62.64747" lon="12.336992">
        <ele>956.359</ele>
        <time>2011-07-05T12:01:17Z</time>
      </trkpt>
      <trkpt lat="62.647597" lon="12.337044">
        <ele>956.438</ele>
        <time>2011-07-05T12:01:22Z</time>
      </trkpt>
      <trkpt lat="62.647741" lon="12.337125">
        <ele>956.511</ele>
        <time>2011-07-05T12:01:28Z</time>
      </trkpt>
      <trkpt lat="62.647902" lon="12.337258">
        <ele>956.454</ele>
        <time>2011-07-05T12:01:35Z</time>
      </trkpt>
      <trkpt lat="62.647988" lon="12.337412">
        <ele>955.396</ele>
        <time>2011-07-05T12:01:39Z</time>
      </trkpt>
      <trkpt lat="62.648083" lon="12.337621">
        <ele>955.133</ele>
        <time>2011-07-05T12:01:44Z</time>
      </trkpt>
      <trkpt lat="62.648209" lon="12.337615">
        <ele>954.946</ele>
        <time>2011-07-05T12:01:49Z</time>
      </trkpt>
      <trkpt lat="62.64841" lon="12.3377">
        <ele>955.148</ele>
        <time>2011-07-05T12:01:56Z</time>
      </trkpt>
      <trkpt lat="62.64857" lon="12.337851">
        <ele>954.839</ele>
        <time>2011-07-05T12:02:02Z</time>
      </trkpt>
      <trkpt lat="62.648706" lon="12.337965">
        <ele>954.357</ele>
        <time>2011-07-05T12:02:07Z</time>
      </trkpt>
      <trkpt lat="62.64883" lon="12.338105">
        <ele>954.673</ele>
        <time>2011-07-05T12:02:12Z</time>
      </trkpt>
      <trkpt lat="62.648999" lon="12.338257">
        <ele>954.157</ele>
        <time>2011-07-05T12:02:19Z</time>
      </trkpt>
      <trkpt lat="62.649189" lon="12.338418">
        <ele>953.721</ele>
        <time>2011-07-05T12:02:27Z</time>
      </trkpt>
      <trkpt lat="62.649336" lon="12.338573">
        <ele>952.544</ele>
        <time>2011-07-05T12:02:33Z</time>
      </trkpt>
      <trkpt lat="62.649471" lon="12.338685">
        <ele>951.315</ele>
        <time>2011-07-05T12:02:38Z</time>
      </trkpt>
      <trkpt lat="62.649562" lon="12.338826">
        <ele>950.571</ele>
        <time>2011-07-05T12:02:42Z</time>
      </trkpt>
      <trkpt lat="62.649696" lon="12.338899">
        <ele>950.482</ele>
        <time>2011-07-05T12:02:47Z</time>
      </trkpt>
      <trkpt lat="62.649907" lon="12.339062">
        <ele>950.359</ele>
        <time>2011-07-05T12:02:55Z</time>
      </trkpt>
      <trkpt lat="62.650098" lon="12.339273">
        <ele>948.633</ele>
        <time>2011-07-05T12:03:03Z</time>
      </trkpt>
      <trkpt lat="62.650224" lon="12.339388">
        <ele>946.202</ele>
        <time>2011-07-05T12:03:08Z</time>
      </trkpt>
      <trkpt lat="62.650346" lon="12.339407">
        <ele>944.5</ele>
        <time>2011-07-05T12:03:13Z</time>
      </trkpt>
      <trkpt lat="62.65049" lon="12.33958">
        <ele>943.034</ele>
        <time>2011-07-05T12:03:19Z</time>
      </trkpt>
      <trkpt lat="62.650626" lon="12.339777">
        <ele>941.682</ele>
        <time>2011-07-05T12:03:25Z</time>
      </trkpt>
      <trkpt lat="62.650699" lon="12.339886">
        <ele>940.671</ele>
        <time>2011-07-05T12:03:29Z</time>
      </trkpt>
      <trkpt lat="62.650834" lon="12.340013">
        <ele>938.656</ele>
        <time>2011-07-05T12:03:35Z</time>
      </trkpt>
      <trkpt lat="62.650919" lon="12.340099">
        <ele>937.714</ele>
        <time>2011-07-05T12:03:39Z</time>
      </trkpt>
      <trkpt lat="62.650984" lon="12.340172">
        <ele>936.44</ele>
        <time>2011-07-05T12:03:42Z</time>
      </trkpt>
      <trkpt lat="62.651083" lon="12.3402">
        <ele>934.997</ele>
        <time>2011-07-05T12:03:46Z</time>
      </trkpt>
      <trkpt lat="62.651183" lon="12.340313">
        <ele>933.184</ele>
        <time>2011-07-05T12:03:51Z</time>
      </trkpt>
      <trkpt lat="62.651289" lon="12.340454">
        <ele>931.134</ele>
        <time>2011-07-05T12:03:56Z</time>
      </trkpt>
      <trkpt lat="62.651364" lon="12.340555">
        <ele>930.507</ele>
        <time>2011-07-05T12:04:00Z</time>
      </trkpt>
      <trkpt lat="62.651437" lon="12.340631">
        <ele>930.018</ele>
        <time>2011-07-05T12:04:08Z</time>
      </trkpt>
      <trkpt lat="62.651557" lon="12.340677">
        <ele>929.367</ele>
        <time>2011-07-05T12:04:42Z</time>
      </trkpt>
      <trkpt lat="62.651629" lon="12.340683">
        <ele>928.509</ele>
        <time>2011-07-05T12:04:51Z</time>
      </trkpt>
      <trkpt lat="62.651704" lon="12.340675">
        <ele>927.615</ele>
        <time>2011-07-05T12:04:56Z</time>
      </trkpt>
      <trkpt lat="62.651723" lon="12.34067">
        <ele>927.503</ele>
        <time>2011-07-05T12:04:57Z</time>
      </trkpt>
      <trkpt lat="62.651794" lon="12.340743">
        <ele>925.466</ele>
        <time>2011-07-05T12:05:03Z</time>
      </trkpt>
      <trkpt lat="62.651921" lon="12.340876">
        <ele>923.036</ele>
        <time>2011-07-05T12:05:09Z</time>
      </trkpt>
      <trkpt lat="62.652065" lon="12.341085">
        <ele>921.176</ele>
        <time>2011-07-05T12:05:15Z</time>
      </trkpt>
      <trkpt lat="62.652198" lon="12.34127">
        <ele>920.351</ele>
        <time>2011-07-05T12:05:21Z</time>
      </trkpt>
      <trkpt lat="62.652342" lon="12.341438">
        <ele>920.041</ele>
        <time>2011-07-05T12:05:27Z</time>
      </trkpt>
      <trkpt lat="62.652455" lon="12.341598">
        <ele>919.749</ele>
        <time>2011-07-05T12:05:32Z</time>
      </trkpt>
      <trkpt lat="62.652574" lon="12.341772">
        <ele>919.062</ele>
        <time>2011-07-05T12:05:38Z</time>
      </trkpt>
      <trkpt lat="62.652593" lon="12.341798">
        <ele>918.843</ele>
        <time>2011-07-05T12:05:39Z</time>
      </trkpt>
      <trkpt lat="62.65273" lon="12.341847">
        <ele>917.424</ele>
        <time>2011-07-05T12:05:45Z</time>
      </trkpt>
      <trkpt lat="62.652809" lon="12.341879">
        <ele>916.7</ele>
        <time>2011-07-05T12:05:50Z</time>
      </trkpt>
      <trkpt lat="62.652824" lon="12.341946">
        <ele>916.821</ele>
        <time>2011-07-05T12:05:52Z</time>
      </trkpt>
      <trkpt lat="62.652953" lon="12.342122">
        <ele>916.635</ele>
        <time>2011-07-05T12:05:58Z</time>
      </trkpt>
      <trkpt lat="62.653074" lon="12.342257">
        <ele>916.485</ele>
        <time>2011-07-05T12:06:03Z</time>
      </trkpt>
      <trkpt lat="62.653181" lon="12.342329">
        <ele>915.909</ele>
        <time>2011-07-05T12:06:07Z</time>
      </trkpt>
      <trkpt lat="62.653325" lon="12.342462">
        <ele>915.28</ele>
        <time>2011-07-05T12:06:13Z</time>
      </trkpt>
      <trkpt lat="62.653422" lon="12.342549">
        <ele>914.719</ele>
        <time>2011-07-05T12:06:17Z</time>
      </trkpt>
      <trkpt lat="62.653446" lon="12.342574">
        <ele>914.53</ele>
        <time>2011-07-05T12:06:18Z</time>
      </trkpt>
      <trkpt lat="62.653568" lon="12.342532">
        <ele>913.002</ele>
        <time>2011-07-05T12:06:24Z</time>
      </trkpt>
      <trkpt lat="62.653596" lon="12.342546">
        <ele>912.547</ele>
        <time>2011-07-05T12:06:26Z</time>
      </trkpt>
      <trkpt lat="62.653669" lon="12.342678">
        <ele>912.003</ele>
        <time>2011-07-05T12:06:30Z</time>
      </trkpt>
      <trkpt lat="62.653777" lon="12.34282">
        <ele>911.334</ele>
        <time>2011-07-05T12:06:35Z</time>
      </trkpt>
      <trkpt lat="62.65392" lon="12.342984">
        <ele>909.969</ele>
        <time>2011-07-05T12:06:41Z</time>
      </trkpt>
      <trkpt lat="62.653995" lon="12.34306">
        <ele>909.444</ele>
        <time>2011-07-05T12:06:44Z</time>
      </trkpt>
      <trkpt lat="62.654179" lon="12.343153">
        <ele>908.471</ele>
        <time>2011-07-05T12:06:51Z</time>
      </trkpt>
      <trkpt lat="62.654301" lon="12.343329">
        <ele>907.116</ele>
        <time>2011-07-05T12:06:56Z</time>
      </trkpt>
      <trkpt lat="62.654345" lon="12.343394">
        <ele>906.416</ele>
        <time>2011-07-05T12:06:58Z</time>
      </trkpt>
      <trkpt lat="62.65447" lon="12.343396">
        <ele>905.176</ele>
        <time>2011-07-05T12:07:03Z</time>
      </trkpt>
      <trkpt lat="62.654553" lon="12.343376">
        <ele>903.732</ele>
        <time>2011-07-05T12:07:06Z</time>
      </trkpt>
      <trkpt lat="62.654663" lon="12.34343">
        <ele>902.587</ele>
        <time>2011-07-05T12:07:11Z</time>
      </trkpt>
      <trkpt lat="62.654794" lon="12.343528">
        <ele>900.468</ele>
        <time>2011-07-05T12:07:17Z</time>
      </trkpt>
      <trkpt lat="62.654818" lon="12.343553">
        <ele>900.282</ele>
        <time>2011-07-05T12:07:18Z</time>
      </trkpt>
      <trkpt lat="62.654981" lon="12.343733">
        <ele>898.278</ele>
        <time>2011-07-05T12:07:25Z</time>
      </trkpt>
      <trkpt lat="62.655099" lon="12.34388">
        <ele>896.851</ele>
        <time>2011-07-05T12:07:30Z</time>
      </trkpt>
      <trkpt lat="62.655195" lon="12.343974">
        <ele>895.154</ele>
        <time>2011-07-05T12:07:34Z</time>
      </trkpt>
      <trkpt lat="62.655341" lon="12.344134">
        <ele>893.193</ele>
        <time>2011-07-05T12:07:40Z</time>
      </trkpt>
      <trkpt lat="62.655437" lon="12.344306">
        <ele>891.375</ele>
        <time>2011-07-05T12:07:45Z</time>
      </trkpt>
      <trkpt lat="62.655573" lon="12.344447">
        <ele>888.5</ele>
        <time>2011-07-05T12:07:51Z</time>
      </trkpt>
      <trkpt lat="62.65563" lon="12.344488">
        <ele>887.726</ele>
        <time>2011-07-05T12:07:53Z</time>
      </trkpt>
      <trkpt lat="62.655725" lon="12.344503">
        <ele>886.392</ele>
        <time>2011-07-05T12:07:58Z</time>
      </trkpt>
      <trkpt lat="62.655729" lon="12.344503">
        <ele>886.217</ele>
        <time>2011-07-05T12:07:59Z</time>
      </trkpt>
      <trkpt lat="62.655778" lon="12.344466">
        <ele>885.941</ele>
        <time>2011-07-05T12:08:03Z</time>
      </trkpt>
      <trkpt lat="62.655892" lon="12.344584">
        <ele>884.284</ele>
        <time>2011-07-05T12:08:08Z</time>
      </trkpt>
      <trkpt lat="62.655998" lon="12.344654">
        <ele>882.761</ele>
        <time>2011-07-05T12:08:13Z</time>
      </trkpt>
      <trkpt lat="62.656066" lon="12.344791">
        <ele>881.595</ele>
        <time>2011-07-05T12:08:17Z</time>
      </trkpt>
      <trkpt lat="62.656137" lon="12.345002">
        <ele>881.4</ele>
        <time>2011-07-05T12:08:22Z</time>
      </trkpt>
      <trkpt lat="62.656154" lon="12.345092">
        <ele>880.393</ele>
        <time>2011-07-05T12:08:26Z</time>
      </trkpt>
      <trkpt lat="62.656257" lon="12.34524">
        <ele>876.951</ele>
        <time>2011-07-05T12:08:32Z</time>
      </trkpt>
      <trkpt lat="62.65628" lon="12.345272">
        <ele>876.67</ele>
        <time>2011-07-05T12:08:33Z</time>
      </trkpt>
      <trkpt lat="62.656369" lon="12.345342">
        <ele>875.07</ele>
        <time>2011-07-05T12:08:37Z</time>
      </trkpt>
      <trkpt lat="62.656474" lon="12.345419">
        <ele>873.323</ele>
        <time>2011-07-05T12:08:43Z</time>
      </trkpt>
      <trkpt lat="62.656531" lon="12.345494">
        <ele>872.014</ele>
        <time>2011-07-05T12:08:48Z</time>
      </trkpt>
      <trkpt lat="62.656544" lon="12.345533">
        <ele>871.61</ele>
        <time>2011-07-05T12:08:50Z</time>
      </trkpt>
      <trkpt lat="62.656598" lon="12.345595">
        <ele>870.05</ele>
        <time>2011-07-05T12:08:55Z</time>
      </trkpt>
      <trkpt lat="62.656654" lon="12.345643">
        <ele>868.658</ele>
        <time>2011-07-05T12:09:01Z</time>
      </trkpt>
      <trkpt lat="62.656688" lon="12.34571">
        <ele>867.84</ele>
        <time>2011-07-05T12:09:05Z</time>
      </trkpt>
      <trkpt lat="62.656792" lon="12.345721">
        <ele>867.155</ele>
        <time>2011-07-05T12:09:13Z</time>
      </trkpt>
      <trkpt lat="62.656857" lon="12.345792">
        <ele>866.52</ele>
        <time>2011-07-05T12:09:19Z</time>
      </trkpt>
      <trkpt lat="62.656919" lon="12.345799">
        <ele>866.106</ele>
        <time>2011-07-05T12:09:24Z</time>
      </trkpt>
      <trkpt lat="62.657011" lon="12.345875">
        <ele>865.15</ele>
        <time>2011-07-05T12:09:31Z</time>
      </trkpt>
      <trkpt lat="62.657125" lon="12.345914">
        <ele>864.988</ele>
        <time>2011-07-05T12:09:39Z</time>
      </trkpt>
      <trkpt lat="62.657183" lon="12.345989">
        <ele>865.832</ele>
        <time>2011-07-05T12:09:45Z</time>
      </trkpt>
      <trkpt lat="62.657234" lon="12.346066">
        <ele>864.646</ele>
        <time>2011-07-05T12:09:52Z</time>
      </trkpt>
      <trkpt lat="62.657267" lon="12.346088">
        <ele>862.865</ele>
        <time>2011-07-05T12:09:57Z</time>
      </trkpt>
      <trkpt lat="62.657258" lon="12.346034">
        <ele>863.637</ele>
        <time>2011-07-05T12:10:20Z</time>
      </trkpt>
      <trkpt lat="62.657209" lon="12.345973">
        <ele>865.585</ele>
        <time>2011-07-05T12:10:28Z</time>
      </trkpt>
      <trkpt lat="62.657205" lon="12.345968">
        <ele>865.811</ele>
        <time>2011-07-05T12:10:29Z</time>
      </trkpt>
      <trkpt lat="62.657208" lon="12.34593">
        <ele>866.037</ele>
        <time>2011-07-05T12:10:43Z</time>
      </trkpt>
      <trkpt lat="62.657255" lon="12.345786">
        <ele>866.615</ele>
        <time>2011-07-05T12:10:52Z</time>
      </trkpt>
      <trkpt lat="62.657256" lon="12.345749">
        <ele>866.967</ele>
        <time>2011-07-05T12:10:56Z</time>
      </trkpt>
      <trkpt lat="62.6573" lon="12.345825">
        <ele>867.069</ele>
        <time>2011-07-05T12:12:01Z</time>
      </trkpt>
      <trkpt lat="62.657271" lon="12.345943">
        <ele>866.101</ele>
        <time>2011-07-05T12:12:09Z</time>
      </trkpt>
      <trkpt lat="62.657262" lon="12.345986">
        <ele>865.548</ele>
        <time>2011-07-05T12:12:13Z</time>
      </trkpt>
      <trkpt lat="62.657292" lon="12.346041">
        <ele>864.303</ele>
        <time>2011-07-05T12:12:18Z</time>
      </trkpt>
      <trkpt lat="62.657324" lon="12.346051">
        <ele>863.945</ele>
        <time>2011-07-05T12:12:21Z</time>
      </trkpt>
      <trkpt lat="62.65743" lon="12.346164">
        <ele>859.745</ele>
        <time>2011-07-05T12:12:29Z</time>
      </trkpt>
      <trkpt lat="62.657459" lon="12.346165">
        <ele>859.342</ele>
        <time>2011-07-05T12:12:30Z</time>
      </trkpt>
      <trkpt lat="62.657601" lon="12.346182">
        <ele>857.599</ele>
        <time>2011-07-05T12:12:36Z</time>
      </trkpt>
      <trkpt lat="62.657723" lon="12.346224">
        <ele>856.271</ele>
        <time>2011-07-05T12:12:41Z</time>
      </trkpt>
      <trkpt lat="62.657846" lon="12.346318">
        <ele>855.154</ele>
        <time>2011-07-05T12:12:45Z</time>
      </trkpt>
      <trkpt lat="62.657922" lon="12.346423">
        <ele>854.993</ele>
        <time>2011-07-05T12:12:50Z</time>
      </trkpt>
      <trkpt lat="62.657978" lon="12.346454">
        <ele>854.188</ele>
        <time>2011-07-05T12:12:55Z</time>
      </trkpt>
      <trkpt lat="62.658057" lon="12.346484">
        <ele>853.346</ele>
        <time>2011-07-05T12:13:00Z</time>
      </trkpt>
      <trkpt lat="62.65815" lon="12.346568">
        <ele>852.292</ele>
        <time>2011-07-05T12:13:05Z</time>
      </trkpt>
      <trkpt lat="62.658234" lon="12.346608">
        <ele>851.426</ele>
        <time>2011-07-05T12:13:12Z</time>
      </trkpt>
      <trkpt lat="62.658296" lon="12.346643">
        <ele>850.587</ele>
        <time>2011-07-05T12:13:17Z</time>
      </trkpt>
      <trkpt lat="62.658423" lon="12.346784">
        <ele>850.027</ele>
        <time>2011-07-05T12:13:23Z</time>
      </trkpt>
      <trkpt lat="62.658578" lon="12.346871">
        <ele>849.871</ele>
        <time>2011-07-05T12:13:29Z</time>
      </trkpt>
      <trkpt lat="62.658784" lon="12.346894">
        <ele>847.951</ele>
        <time>2011-07-05T12:13:36Z</time>
      </trkpt>
      <trkpt lat="62.658924" lon="12.346966">
        <ele>847.514</ele>
        <time>2011-07-05T12:13:41Z</time>
      </trkpt>
      <trkpt lat="62.659054" lon="12.347001">
        <ele>847.244</ele>
        <time>2011-07-05T12:13:46Z</time>
      </trkpt>
      <trkpt lat="62.659092" lon="12.347039">
        <ele>847.064</ele>
        <time>2011-07-05T12:13:48Z</time>
      </trkpt>
      <trkpt lat="62.65924" lon="12.347003">
        <ele>846.007</ele>
        <time>2011-07-05T12:13:54Z</time>
      </trkpt>
      <trkpt lat="62.659263" lon="12.34698">
        <ele>845.88</ele>
        <time>2011-07-05T12:13:55Z</time>
      </trkpt>
      <trkpt lat="62.659345" lon="12.346898">
        <ele>844.545</ele>
        <time>2011-07-05T12:14:01Z</time>
      </trkpt>
      <trkpt lat="62.659353" lon="12.346887">
        <ele>844.455</ele>
        <time>2011-07-05T12:14:02Z</time>
      </trkpt>
      <trkpt lat="62.659381" lon="12.346863">
        <ele>843.875</ele>
        <time>2011-07-05T12:14:06Z</time>
      </trkpt>
      <trkpt lat="62.659416" lon="12.346818">
        <ele>843.097</ele>
        <time>2011-07-05T12:14:14Z</time>
      </trkpt>
      <trkpt lat="62.659434" lon="12.346781">
        <ele>842.75</ele>
        <time>2011-07-05T12:14:17Z</time>
      </trkpt>
      <trkpt lat="62.659476" lon="12.346751">
        <ele>842.143</ele>
        <time>2011-07-05T12:14:22Z</time>
      </trkpt>
      <trkpt lat="62.659534" lon="12.346634">
        <ele>841.702</ele>
        <time>2011-07-05T12:14:55Z</time>
      </trkpt>
      <trkpt lat="62.659534" lon="12.346642">
        <ele>841.67</ele>
        <time>2011-07-05T12:14:57Z</time>
      </trkpt>
      <trkpt lat="62.659574" lon="12.346665">
        <ele>842.129</ele>
        <time>2011-07-05T12:15:11Z</time>
      </trkpt>
      <trkpt lat="62.659557" lon="12.346724">
        <ele>842.054</ele>
        <time>2011-07-05T12:15:16Z</time>
      </trkpt>
      <trkpt lat="62.659492" lon="12.34673">
        <ele>841.335</ele>
        <time>2011-07-05T12:15:25Z</time>
      </trkpt>
      <trkpt lat="62.659486" lon="12.346727">
        <ele>841.338</ele>
        <time>2011-07-05T12:15:27Z</time>
      </trkpt>
      <trkpt lat="62.659555" lon="12.346757">
        <ele>841.514</ele>
        <time>2011-07-05T12:15:36Z</time>
      </trkpt>
      <trkpt lat="62.659604" lon="12.346786">
        <ele>842.578</ele>
        <time>2011-07-05T12:15:42Z</time>
      </trkpt>
      <trkpt lat="62.65964" lon="12.34686">
        <ele>843.386</ele>
        <time>2011-07-05T12:15:46Z</time>
      </trkpt>
      <trkpt lat="62.659665" lon="12.347022">
        <ele>844.301</ele>
        <time>2011-07-05T12:15:52Z</time>
      </trkpt>
      <trkpt lat="62.659711" lon="12.347242">
        <ele>845.611</ele>
        <time>2011-07-05T12:16:00Z</time>
      </trkpt>
      <trkpt lat="62.659756" lon="12.347441">
        <ele>846.066</ele>
        <time>2011-07-05T12:16:08Z</time>
      </trkpt>
      <trkpt lat="62.659842" lon="12.347603">
        <ele>844.584</ele>
        <time>2011-07-05T12:16:16Z</time>
      </trkpt>
      <trkpt lat="62.659943" lon="12.347808">
        <ele>842.762</ele>
        <time>2011-07-05T12:16:22Z</time>
      </trkpt>
      <trkpt lat="62.659991" lon="12.347945">
        <ele>841.415</ele>
        <time>2011-07-05T12:16:28Z</time>
      </trkpt>
      <trkpt lat="62.660036" lon="12.348148">
        <ele>840.479</ele>
        <time>2011-07-05T12:16:36Z</time>
      </trkpt>
      <trkpt lat="62.66008" lon="12.34836">
        <ele>839.646</ele>
        <time>2011-07-05T12:16:44Z</time>
      </trkpt>
      <trkpt lat="62.660117" lon="12.348479">
        <ele>838.979</ele>
        <time>2011-07-05T12:16:52Z</time>
      </trkpt>
      <trkpt lat="62.660121" lon="12.34848">
        <ele>838.944</ele>
        <time>2011-07-05T12:16:53Z</time>
      </trkpt>
      <trkpt lat="62.660158" lon="12.348488">
        <ele>838.266</ele>
        <time>2011-07-05T12:17:04Z</time>
      </trkpt>
      <trkpt lat="62.660135" lon="12.348469">
        <ele>838.37</ele>
        <time>2011-07-05T12:17:08Z</time>
      </trkpt>
      <trkpt lat="62.660169" lon="12.348497">
        <ele>838.639</ele>
        <time>2011-07-05T12:17:20Z</time>
      </trkpt>
      <trkpt lat="62.660283" lon="12.348484">
        <ele>838.492</ele>
        <time>2011-07-05T12:17:27Z</time>
      </trkpt>
      <trkpt lat="62.660413" lon="12.348458">
        <ele>839.271</ele>
        <time>2011-07-05T12:17:33Z</time>
      </trkpt>
      <trkpt lat="62.660578" lon="12.348425">
        <ele>839.61</ele>
        <time>2011-07-05T12:17:40Z</time>
      </trkpt>
      <trkpt lat="62.660725" lon="12.348422">
        <ele>839.273</ele>
        <time>2011-07-05T12:17:46Z</time>
      </trkpt>
      <trkpt lat="62.660938" lon="12.348476">
        <ele>839.328</ele>
        <time>2011-07-05T12:17:54Z</time>
      </trkpt>
      <trkpt lat="62.661045" lon="12.348527">
        <ele>839.338</ele>
        <time>2011-07-05T12:17:59Z</time>
      </trkpt>
      <trkpt lat="62.661189" lon="12.348644">
        <ele>839.221</ele>
        <time>2011-07-05T12:18:05Z</time>
      </trkpt>
      <trkpt lat="62.661323" lon="12.348673">
        <ele>839.403</ele>
        <time>2011-07-05T12:18:10Z</time>
      </trkpt>
      <trkpt lat="62.661468" lon="12.348709">
        <ele>839.722</ele>
        <time>2011-07-05T12:18:16Z</time>
      </trkpt>
      <trkpt lat="62.661636" lon="12.3487">
        <ele>839.85</ele>
        <time>2011-07-05T12:18:23Z</time>
      </trkpt>
      <trkpt lat="62.661754" lon="12.348734">
        <ele>840.094</ele>
        <time>2011-07-05T12:18:28Z</time>
      </trkpt>
      <trkpt lat="62.661876" lon="12.348715">
        <ele>839.885</ele>
        <time>2011-07-05T12:18:33Z</time>
      </trkpt>
      <trkpt lat="62.662037" lon="12.348747">
        <ele>839.769</ele>
        <time>2011-07-05T12:18:39Z</time>
      </trkpt>
      <trkpt lat="62.662167" lon="12.34881">
        <ele>839.047</ele>
        <time>2011-07-05T12:18:44Z</time>
      </trkpt>
      <trkpt lat="62.66233" lon="12.348781">
        <ele>838.478</ele>
        <time>2011-07-05T12:18:50Z</time>
      </trkpt>
      <trkpt lat="62.662486" lon="12.348754">
        <ele>838.564</ele>
        <time>2011-07-05T12:18:56Z</time>
      </trkpt>
      <trkpt lat="62.662588" lon="12.348809">
        <ele>838.841</ele>
        <time>2011-07-05T12:19:00Z</time>
      </trkpt>
      <trkpt lat="62.662738" lon="12.348765">
        <ele>838.544</ele>
        <time>2011-07-05T12:19:06Z</time>
      </trkpt>
      <trkpt lat="62.66276" lon="12.348768">
        <ele>838.606</ele>
        <time>2011-07-05T12:19:07Z</time>
      </trkpt>
      <trkpt lat="62.662805" lon="12.348763">
        <ele>839.124</ele>
        <time>2011-07-05T12:19:09Z</time>
      </trkpt>
      <trkpt lat="62.662898" lon="12.34882">
        <ele>839.646</ele>
        <time>2011-07-05T12:19:13Z</time>
      </trkpt>
      <trkpt lat="62.66306" lon="12.348904">
        <ele>840.523</ele>
        <time>2011-07-05T12:19:20Z</time>
      </trkpt>
      <trkpt lat="62.663234" lon="12.348896">
        <ele>841.392</ele>
        <time>2011-07-05T12:19:27Z</time>
      </trkpt>
      <trkpt lat="62.663308" lon="12.348872">
        <ele>842.708</ele>
        <time>2011-07-05T12:19:33Z</time>
      </trkpt>
      <trkpt lat="62.6634" lon="12.348789">
        <ele>843.388</ele>
        <time>2011-07-05T12:19:41Z</time>
      </trkpt>
      <trkpt lat="62.663454" lon="12.348772">
        <ele>842.702</ele>
        <time>2011-07-05T12:19:46Z</time>
      </trkpt>
      <trkpt lat="62.663472" lon="12.348747">
        <ele>842.99</ele>
        <time>2011-07-05T12:19:56Z</time>
      </trkpt>
      <trkpt lat="62.663483" lon="12.348743">
        <ele>842.858</ele>
        <time>2011-07-05T12:20:04Z</time>
      </trkpt>
      <trkpt lat="62.663543" lon="12.348763">
        <ele>842.829</ele>
        <time>2011-07-05T12:20:10Z</time>
      </trkpt>
      <trkpt lat="62.663592" lon="12.348771">
        <ele>843.906</ele>
        <time>2011-07-05T12:20:19Z</time>
      </trkpt>
      <trkpt lat="62.663625" lon="12.348782">
        <ele>844.203</ele>
        <time>2011-07-05T12:20:24Z</time>
      </trkpt>
      <trkpt lat="62.66368" lon="12.34887">
        <ele>845.15</ele>
        <time>2011-07-05T12:20:31Z</time>
      </trkpt>
      <trkpt lat="62.663748" lon="12.348954">
        <ele>845.147</ele>
        <time>2011-07-05T12:20:37Z</time>
      </trkpt>
      <trkpt lat="62.663832" lon="12.349044">
        <ele>845.28</ele>
        <time>2011-07-05T12:20:44Z</time>
      </trkpt>
      <trkpt lat="62.663951" lon="12.349084">
        <ele>845.643</ele>
        <time>2011-07-05T12:20:50Z</time>
      </trkpt>
      <trkpt lat="62.664106" lon="12.349014">
        <ele>845.95</ele>
        <time>2011-07-05T12:20:56Z</time>
      </trkpt>
      <trkpt lat="62.664152" lon="12.348976">
        <ele>846.279</ele>
        <time>2011-07-05T12:20:58Z</time>
      </trkpt>
      <trkpt lat="62.664321" lon="12.349013">
        <ele>846.781</ele>
        <time>2011-07-05T12:21:05Z</time>
      </trkpt>
      <trkpt lat="62.664337" lon="12.349012">
        <ele>846.926</ele>
        <time>2011-07-05T12:21:06Z</time>
      </trkpt>
      <trkpt lat="62.664393" lon="12.349066">
        <ele>847.803</ele>
        <time>2011-07-05T12:21:11Z</time>
      </trkpt>
      <trkpt lat="62.664501" lon="12.34905">
        <ele>848.699</ele>
        <time>2011-07-05T12:21:19Z</time>
      </trkpt>
      <trkpt lat="62.664606" lon="12.349064">
        <ele>849.594</ele>
        <time>2011-07-05T12:21:25Z</time>
      </trkpt>
      <trkpt lat="62.664746" lon="12.349127">
        <ele>850.222</ele>
        <time>2011-07-05T12:21:31Z</time>
      </trkpt>
      <trkpt lat="62.664909" lon="12.349213">
        <ele>851.12</ele>
        <time>2011-07-05T12:21:38Z</time>
      </trkpt>
      <trkpt lat="62.66506" lon="12.349203">
        <ele>851.689</ele>
        <time>2011-07-05T12:21:44Z</time>
      </trkpt>
      <trkpt lat="62.665235" lon="12.349237">
        <ele>852.742</ele>
        <time>2011-07-05T12:21:51Z</time>
      </trkpt>
      <trkpt lat="62.665389" lon="12.349282">
        <ele>854.084</ele>
        <time>2011-07-05T12:21:58Z</time>
      </trkpt>
      <trkpt lat="62.665569" lon="12.349335">
        <ele>855.306</ele>
        <time>2011-07-05T12:22:06Z</time>
      </trkpt>
      <trkpt lat="62.665702" lon="12.349356">
        <ele>856.004</ele>
        <time>2011-07-05T12:22:12Z</time>
      </trkpt>
      <trkpt lat="62.66585" lon="12.34937">
        <ele>856.842</ele>
        <time>2011-07-05T12:22:19Z</time>
      </trkpt>
      <trkpt lat="62.665919" lon="12.349387">
        <ele>856.861</ele>
        <time>2011-07-05T12:22:25Z</time>
      </trkpt>
      <trkpt lat="62.665931" lon="12.349392">
        <ele>856.947</ele>
        <time>2011-07-05T12:22:26Z</time>
      </trkpt>
      <trkpt lat="62.665994" lon="12.349397">
        <ele>857.526</ele>
        <time>2011-07-05T12:22:31Z</time>
      </trkpt>
      <trkpt lat="62.666043" lon="12.349409">
        <ele>858.257</ele>
        <time>2011-07-05T12:22:35Z</time>
      </trkpt>
      <trkpt lat="62.666155" lon="12.349475">
        <ele>858.531</ele>
        <time>2011-07-05T12:22:44Z</time>
      </trkpt>
      <trkpt lat="62.666217" lon="12.349487">
        <ele>858.893</ele>
        <time>2011-07-05T12:22:49Z</time>
      </trkpt>
      <trkpt lat="62.666317" lon="12.349502">
        <ele>859.806</ele>
        <time>2011-07-05T12:22:57Z</time>
      </trkpt>
      <trkpt lat="62.666379" lon="12.349518">
        <ele>860.249</ele>
        <time>2011-07-05T12:23:02Z</time>
      </trkpt>
      <trkpt lat="62.66649" lon="12.349639">
        <ele>861.529</ele>
        <time>2011-07-05T12:23:10Z</time>
      </trkpt>
      <trkpt lat="62.666648" lon="12.349714">
        <ele>863.328</ele>
        <time>2011-07-05T12:23:18Z</time>
      </trkpt>
      <trkpt lat="62.666754" lon="12.349772">
        <ele>864.499</ele>
        <time>2011-07-05T12:23:23Z</time>
      </trkpt>
      <trkpt lat="62.666795" lon="12.349823">
        <ele>864.455</ele>
        <time>2011-07-05T12:23:25Z</time>
      </trkpt>
      <trkpt lat="62.666935" lon="12.349991">
        <ele>864.599</ele>
        <time>2011-07-05T12:23:32Z</time>
      </trkpt>
      <trkpt lat="62.666988" lon="12.350041">
        <ele>864.104</ele>
        <time>2011-07-05T12:23:36Z</time>
      </trkpt>
      <trkpt lat="62.667054" lon="12.350081">
        <ele>863.432</ele>
        <time>2011-07-05T12:23:42Z</time>
      </trkpt>
      <trkpt lat="62.667132" lon="12.350125">
        <ele>862.766</ele>
        <time>2011-07-05T12:23:48Z</time>
      </trkpt>
      <trkpt lat="62.667167" lon="12.350073">
        <ele>863.031</ele>
        <time>2011-07-05T12:23:52Z</time>
      </trkpt>
      <trkpt lat="62.667274" lon="12.350067">
        <ele>863.95</ele>
        <time>2011-07-05T12:24:00Z</time>
      </trkpt>
      <trkpt lat="62.667378" lon="12.350106">
        <ele>863.897</ele>
        <time>2011-07-05T12:24:06Z</time>
      </trkpt>
      <trkpt lat="62.667548" lon="12.350028">
        <ele>864.039</ele>
        <time>2011-07-05T12:24:13Z</time>
      </trkpt>
      <trkpt lat="62.667659" lon="12.350009">
        <ele>864.269</ele>
        <time>2011-07-05T12:24:18Z</time>
      </trkpt>
      <trkpt lat="62.667739" lon="12.350047">
        <ele>863.999</ele>
        <time>2011-07-05T12:24:23Z</time>
      </trkpt>
      <trkpt lat="62.667825" lon="12.350067">
        <ele>864.165</ele>
        <time>2011-07-05T12:24:30Z</time>
      </trkpt>
      <trkpt lat="62.667904" lon="12.350064">
        <ele>864.782</ele>
        <time>2011-07-05T12:24:37Z</time>
      </trkpt>
      <trkpt lat="62.667994" lon="12.350081">
        <ele>864.955</ele>
        <time>2011-07-05T12:24:45Z</time>
      </trkpt>
      <trkpt lat="62.668056" lon="12.350078">
        <ele>865.02</ele>
        <time>2011-07-05T12:24:51Z</time>
      </trkpt>
      <trkpt lat="62.668173" lon="12.349996">
        <ele>865.724</ele>
        <time>2011-07-05T12:25:01Z</time>
      </trkpt>
      <trkpt lat="62.66821" lon="12.349976">
        <ele>865.899</ele>
        <time>2011-07-05T12:25:04Z</time>
      </trkpt>
      <trkpt lat="62.668264" lon="12.350033">
        <ele>865.837</ele>
        <time>2011-07-05T12:25:09Z</time>
      </trkpt>
      <trkpt lat="62.668363" lon="12.350107">
        <ele>866.409</ele>
        <time>2011-07-05T12:25:18Z</time>
      </trkpt>
      <trkpt lat="62.668398" lon="12.350112">
        <ele>866.374</ele>
        <time>2011-07-05T12:25:21Z</time>
      </trkpt>
      <trkpt lat="62.668483" lon="12.350095">
        <ele>867.176</ele>
        <time>2011-07-05T12:25:29Z</time>
      </trkpt>
      <trkpt lat="62.668553" lon="12.350054">
        <ele>867.551</ele>
        <time>2011-07-05T12:25:35Z</time>
      </trkpt>
      <trkpt lat="62.668614" lon="12.350008">
        <ele>868.552</ele>
        <time>2011-07-05T12:25:41Z</time>
      </trkpt>
      <trkpt lat="62.668719" lon="12.34996">
        <ele>869.075</ele>
        <time>2011-07-05T12:25:49Z</time>
      </trkpt>
      <trkpt lat="62.668826" lon="12.349931">
        <ele>869.365</ele>
        <time>2011-07-05T12:25:57Z</time>
      </trkpt>
      <trkpt lat="62.668911" lon="12.349915">
        <ele>869.386</ele>
        <time>2011-07-05T12:26:03Z</time>
      </trkpt>
      <trkpt lat="62.669031" lon="12.349932">
        <ele>869.328</ele>
        <time>2011-07-05T12:26:11Z</time>
      </trkpt>
      <trkpt lat="62.66914" lon="12.349926">
        <ele>868.629</ele>
        <time>2011-07-05T12:26:19Z</time>
      </trkpt>
      <trkpt lat="62.66925" lon="12.349976">
        <ele>868.469</ele>
        <time>2011-07-05T12:26:27Z</time>
      </trkpt>
      <trkpt lat="62.669326" lon="12.349995">
        <ele>868.869</ele>
        <time>2011-07-05T12:26:33Z</time>
      </trkpt>
      <trkpt lat="62.669413" lon="12.349955">
        <ele>868.92</ele>
        <time>2011-07-05T12:26:40Z</time>
      </trkpt>
      <trkpt lat="62.669422" lon="12.349951">
        <ele>868.757</ele>
        <time>2011-07-05T12:26:42Z</time>
      </trkpt>
      <trkpt lat="62.669455" lon="12.349898">
        <ele>869.035</ele>
        <time>2011-07-05T12:27:02Z</time>
      </trkpt>
      <trkpt lat="62.669547" lon="12.349778">
        <ele>869.067</ele>
        <time>2011-07-05T12:27:08Z</time>
      </trkpt>
      <trkpt lat="62.6697" lon="12.349696">
        <ele>869.694</ele>
        <time>2011-07-05T12:27:14Z</time>
      </trkpt>
      <trkpt lat="62.669829" lon="12.349543">
        <ele>870.94</ele>
        <time>2011-07-05T12:27:20Z</time>
      </trkpt>
      <trkpt lat="62.670006" lon="12.349412">
        <ele>871.959</ele>
        <time>2011-07-05T12:27:27Z</time>
      </trkpt>
      <trkpt lat="62.670229" lon="12.349279">
        <ele>871.242</ele>
        <time>2011-07-05T12:27:35Z</time>
      </trkpt>
      <trkpt lat="62.670361" lon="12.349177">
        <ele>870.493</ele>
        <time>2011-07-05T12:27:40Z</time>
      </trkpt>
      <trkpt lat="62.670478" lon="12.349032">
        <ele>871.074</ele>
        <time>2011-07-05T12:27:45Z</time>
      </trkpt>
      <trkpt lat="62.670646" lon="12.348904">
        <ele>871.874</ele>
        <time>2011-07-05T12:27:52Z</time>
      </trkpt>
      <trkpt lat="62.670802" lon="12.348749">
        <ele>871.255</ele>
        <time>2011-07-05T12:27:58Z</time>
      </trkpt>
      <trkpt lat="62.670964" lon="12.34858">
        <ele>870.271</ele>
        <time>2011-07-05T12:28:04Z</time>
      </trkpt>
      <trkpt lat="62.671093" lon="12.348448">
        <ele>869.646</ele>
        <time>2011-07-05T12:28:09Z</time>
      </trkpt>
      <trkpt lat="62.671267" lon="12.348181">
        <ele>870.258</ele>
        <time>2011-07-05T12:28:17Z</time>
      </trkpt>
      <trkpt lat="62.67139" lon="12.347941">
        <ele>871.301</ele>
        <time>2011-07-05T12:28:23Z</time>
      </trkpt>
      <trkpt lat="62.67155" lon="12.347627">
        <ele>873.005</ele>
        <time>2011-07-05T12:28:31Z</time>
      </trkpt>
      <trkpt lat="62.671679" lon="12.347452">
        <ele>873.695</ele>
        <time>2011-07-05T12:28:37Z</time>
      </trkpt>
      <trkpt lat="62.671766" lon="12.347213">
        <ele>875.032</ele>
        <time>2011-07-05T12:28:43Z</time>
      </trkpt>
      <trkpt lat="62.671787" lon="12.347185">
        <ele>875.275</ele>
        <time>2011-07-05T12:28:44Z</time>
      </trkpt>
      <trkpt lat="62.671882" lon="12.347014">
        <ele>876.163</ele>
        <time>2011-07-05T12:28:49Z</time>
      </trkpt>
      <trkpt lat="62.672012" lon="12.346818">
        <ele>876.866</ele>
        <time>2011-07-05T12:28:55Z</time>
      </trkpt>
      <trkpt lat="62.672122" lon="12.346652">
        <ele>876.812</ele>
        <time>2011-07-05T12:29:00Z</time>
      </trkpt>
      <trkpt lat="62.672222" lon="12.346437">
        <ele>877.091</ele>
        <time>2011-07-05T12:29:05Z</time>
      </trkpt>
      <trkpt lat="62.672342" lon="12.346186">
        <ele>878.333</ele>
        <time>2011-07-05T12:29:12Z</time>
      </trkpt>
      <trkpt lat="62.672413" lon="12.346061">
        <ele>878.491</ele>
        <time>2011-07-05T12:29:19Z</time>
      </trkpt>
      <trkpt lat="62.672441" lon="12.346017">
        <ele>878.643</ele>
        <time>2011-07-05T12:29:22Z</time>
      </trkpt>
      <trkpt lat="62.672517" lon="12.345889">
        <ele>878.898</ele>
        <time>2011-07-05T12:29:30Z</time>
      </trkpt>
      <trkpt lat="62.672615" lon="12.345715">
        <ele>878.027</ele>
        <time>2011-07-05T12:29:38Z</time>
      </trkpt>
      <trkpt lat="62.672683" lon="12.345582">
        <ele>878.211</ele>
        <time>2011-07-05T12:29:45Z</time>
      </trkpt>
      <trkpt lat="62.672746" lon="12.345422">
        <ele>878.358</ele>
        <time>2011-07-05T12:29:51Z</time>
      </trkpt>
      <trkpt lat="62.672871" lon="12.345199">
        <ele>878.88</ele>
        <time>2011-07-05T12:29:59Z</time>
      </trkpt>
      <trkpt lat="62.672955" lon="12.34506">
        <ele>879.35</ele>
        <time>2011-07-05T12:30:04Z</time>
      </trkpt>
      <trkpt lat="62.673056" lon="12.344889">
        <ele>880</ele>
        <time>2011-07-05T12:30:10Z</time>
      </trkpt>
      <trkpt lat="62.673132" lon="12.344737">
        <ele>880.445</ele>
        <time>2011-07-05T12:30:15Z</time>
      </trkpt>
      <trkpt lat="62.673168" lon="12.344628">
        <ele>880.705</ele>
        <time>2011-07-05T12:30:18Z</time>
      </trkpt>
      <trkpt lat="62.673275" lon="12.344486">
        <ele>881.092</ele>
        <time>2011-07-05T12:30:27Z</time>
      </trkpt>
      <trkpt lat="62.673364" lon="12.344346">
        <ele>881.106</ele>
        <time>2011-07-05T12:30:35Z</time>
      </trkpt>
      <trkpt lat="62.673415" lon="12.344192">
        <ele>881.194</ele>
        <time>2011-07-05T12:30:40Z</time>
      </trkpt>
      <trkpt lat="62.673441" lon="12.344117">
        <ele>881.451</ele>
        <time>2011-07-05T12:30:42Z</time>
      </trkpt>
      <trkpt lat="62.673549" lon="12.34404">
        <ele>881.102</ele>
        <time>2011-07-05T12:30:50Z</time>
      </trkpt>
      <trkpt lat="62.673636" lon="12.343927">
        <ele>880.776</ele>
        <time>2011-07-05T12:30:57Z</time>
      </trkpt>
      <trkpt lat="62.673687" lon="12.343813">
        <ele>880.935</ele>
        <time>2011-07-05T12:31:03Z</time>
      </trkpt>
      <trkpt lat="62.673757" lon="12.343713">
        <ele>880.788</ele>
        <time>2011-07-05T12:31:10Z</time>
      </trkpt>
      <trkpt lat="62.673797" lon="12.343613">
        <ele>881.412</ele>
        <time>2011-07-05T12:31:16Z</time>
      </trkpt>
      <trkpt lat="62.673823" lon="12.34357">
        <ele>881.54</ele>
        <time>2011-07-05T12:31:21Z</time>
      </trkpt>
      <trkpt lat="62.673916" lon="12.343415">
        <ele>881.383</ele>
        <time>2011-07-05T12:31:30Z</time>
      </trkpt>
      <trkpt lat="62.67399" lon="12.343255">
        <ele>881.567</ele>
        <time>2011-07-05T12:31:35Z</time>
      </trkpt>
      <trkpt lat="62.674049" lon="12.3431">
        <ele>881.656</ele>
        <time>2011-07-05T12:31:41Z</time>
      </trkpt>
      <trkpt lat="62.674118" lon="12.342959">
        <ele>881.615</ele>
        <time>2011-07-05T12:31:46Z</time>
      </trkpt>
      <trkpt lat="62.674204" lon="12.342761">
        <ele>881.829</ele>
        <time>2011-07-05T12:31:51Z</time>
      </trkpt>
      <trkpt lat="62.674299" lon="12.342569">
        <ele>882.734</ele>
        <time>2011-07-05T12:31:56Z</time>
      </trkpt>
      <trkpt lat="62.6744" lon="12.342412">
        <ele>883.444</ele>
        <time>2011-07-05T12:32:01Z</time>
      </trkpt>
      <trkpt lat="62.67451" lon="12.342192">
        <ele>884.666</ele>
        <time>2011-07-05T12:32:07Z</time>
      </trkpt>
      <trkpt lat="62.674602" lon="12.342007">
        <ele>886.311</ele>
        <time>2011-07-05T12:32:13Z</time>
      </trkpt>
      <trkpt lat="62.674641" lon="12.341948">
        <ele>886.747</ele>
        <time>2011-07-05T12:32:16Z</time>
      </trkpt>
      <trkpt lat="62.674713" lon="12.341734">
        <ele>888.104</ele>
        <time>2011-07-05T12:32:26Z</time>
      </trkpt>
      <trkpt lat="62.674725" lon="12.341688">
        <ele>888.329</ele>
        <time>2011-07-05T12:32:28Z</time>
      </trkpt>
      <trkpt lat="62.674775" lon="12.341584">
        <ele>888.472</ele>
        <time>2011-07-05T12:32:33Z</time>
      </trkpt>
      <trkpt lat="62.674858" lon="12.341363">
        <ele>889.653</ele>
        <time>2011-07-05T12:32:43Z</time>
      </trkpt>
      <trkpt lat="62.674939" lon="12.341208">
        <ele>890.061</ele>
        <time>2011-07-05T12:32:51Z</time>
      </trkpt>
      <trkpt lat="62.674985" lon="12.34105">
        <ele>890.78</ele>
        <time>2011-07-05T12:32:57Z</time>
      </trkpt>
      <trkpt lat="62.675086" lon="12.340868">
        <ele>891.586</ele>
        <time>2011-07-05T12:33:03Z</time>
      </trkpt>
      <trkpt lat="62.675165" lon="12.340733">
        <ele>892.652</ele>
        <time>2011-07-05T12:33:08Z</time>
      </trkpt>
      <trkpt lat="62.675223" lon="12.340582">
        <ele>893.622</ele>
        <time>2011-07-05T12:33:13Z</time>
      </trkpt>
      <trkpt lat="62.675287" lon="12.340452">
        <ele>894.114</ele>
        <time>2011-07-05T12:33:19Z</time>
      </trkpt>
      <trkpt lat="62.675318" lon="12.340333">
        <ele>895.075</ele>
        <time>2011-07-05T12:33:24Z</time>
      </trkpt>
      <trkpt lat="62.67538" lon="12.340115">
        <ele>896.302</ele>
        <time>2011-07-05T12:33:33Z</time>
      </trkpt>
      <trkpt lat="62.675421" lon="12.339994">
        <ele>896.783</ele>
        <time>2011-07-05T12:33:38Z</time>
      </trkpt>
      <trkpt lat="62.675483" lon="12.339863">
        <ele>897.689</ele>
        <time>2011-07-05T12:33:45Z</time>
      </trkpt>
      <trkpt lat="62.675523" lon="12.33978">
        <ele>897.375</ele>
        <time>2011-07-05T12:33:50Z</time>
      </trkpt>
      <trkpt lat="62.675561" lon="12.339631">
        <ele>897.315</ele>
        <time>2011-07-05T12:33:55Z</time>
      </trkpt>
      <trkpt lat="62.675575" lon="12.339591">
        <ele>897.475</ele>
        <time>2011-07-05T12:33:57Z</time>
      </trkpt>
      <trkpt lat="62.675615" lon="12.339516">
        <ele>897.395</ele>
        <time>2011-07-05T12:34:04Z</time>
      </trkpt>
      <trkpt lat="62.675637" lon="12.33944">
        <ele>897.065</ele>
        <time>2011-07-05T12:34:11Z</time>
      </trkpt>
      <trkpt lat="62.675686" lon="12.339397">
        <ele>897.205</ele>
        <time>2011-07-05T12:34:16Z</time>
      </trkpt>
      <trkpt lat="62.675765" lon="12.339375">
        <ele>896.912</ele>
        <time>2011-07-05T12:34:23Z</time>
      </trkpt>
      <trkpt lat="62.675823" lon="12.339324">
        <ele>897.906</ele>
        <time>2011-07-05T12:34:30Z</time>
      </trkpt>
      <trkpt lat="62.675881" lon="12.339232">
        <ele>897.897</ele>
        <time>2011-07-05T12:34:36Z</time>
      </trkpt>
      <trkpt lat="62.675927" lon="12.339156">
        <ele>898.131</ele>
        <time>2011-07-05T12:34:40Z</time>
      </trkpt>
      <trkpt lat="62.676003" lon="12.338948">
        <ele>898.973</ele>
        <time>2011-07-05T12:34:49Z</time>
      </trkpt>
      <trkpt lat="62.676017" lon="12.338803">
        <ele>899.322</ele>
        <time>2011-07-05T12:34:54Z</time>
      </trkpt>
      <trkpt lat="62.676043" lon="12.338773">
        <ele>900.07</ele>
        <time>2011-07-05T12:34:58Z</time>
      </trkpt>
      <trkpt lat="62.67608" lon="12.338707">
        <ele>900.167</ele>
        <time>2011-07-05T12:35:16Z</time>
      </trkpt>
      <trkpt lat="62.676155" lon="12.338587">
        <ele>900.41</ele>
        <time>2011-07-05T12:35:22Z</time>
      </trkpt>
      <trkpt lat="62.67619" lon="12.338507">
        <ele>900.547</ele>
        <time>2011-07-05T12:35:24Z</time>
      </trkpt>
      <trkpt lat="62.676334" lon="12.338313">
        <ele>902.422</ele>
        <time>2011-07-05T12:35:32Z</time>
      </trkpt>
      <trkpt lat="62.676387" lon="12.3382">
        <ele>902.003</ele>
        <time>2011-07-05T12:35:38Z</time>
      </trkpt>
      <trkpt lat="62.676423" lon="12.33815">
        <ele>902.046</ele>
        <time>2011-07-05T12:35:42Z</time>
      </trkpt>
      <trkpt lat="62.67646" lon="12.338024">
        <ele>902.587</ele>
        <time>2011-07-05T12:35:48Z</time>
      </trkpt>
      <trkpt lat="62.676535" lon="12.337898">
        <ele>902.815</ele>
        <time>2011-07-05T12:35:53Z</time>
      </trkpt>
      <trkpt lat="62.676633" lon="12.337742">
        <ele>902.314</ele>
        <time>2011-07-05T12:35:59Z</time>
      </trkpt>
      <trkpt lat="62.676757" lon="12.337605">
        <ele>901.258</ele>
        <time>2011-07-05T12:36:05Z</time>
      </trkpt>
      <trkpt lat="62.676858" lon="12.337507">
        <ele>901.775</ele>
        <time>2011-07-05T12:36:10Z</time>
      </trkpt>
      <trkpt lat="62.677012" lon="12.337305">
        <ele>902.651</ele>
        <time>2011-07-05T12:36:17Z</time>
      </trkpt>
      <trkpt lat="62.677123" lon="12.337177">
        <ele>902.731</ele>
        <time>2011-07-05T12:36:22Z</time>
      </trkpt>
      <trkpt lat="62.677258" lon="12.337044">
        <ele>903.006</ele>
        <time>2011-07-05T12:36:28Z</time>
      </trkpt>
      <trkpt lat="62.67735" lon="12.33687">
        <ele>903.427</ele>
        <time>2011-07-05T12:36:33Z</time>
      </trkpt>
      <trkpt lat="62.677417" lon="12.336734">
        <ele>903.512</ele>
        <time>2011-07-05T12:36:40Z</time>
      </trkpt>
      <trkpt lat="62.677469" lon="12.336607">
        <ele>903.883</ele>
        <time>2011-07-05T12:36:46Z</time>
      </trkpt>
      <trkpt lat="62.677479" lon="12.33657">
        <ele>904.133</ele>
        <time>2011-07-05T12:36:48Z</time>
      </trkpt>
      <trkpt lat="62.67755" lon="12.336458">
        <ele>904.399</ele>
        <time>2011-07-05T12:36:55Z</time>
      </trkpt>
      <trkpt lat="62.677582" lon="12.336384">
        <ele>903.854</ele>
        <time>2011-07-05T12:36:59Z</time>
      </trkpt>
      <trkpt lat="62.677632" lon="12.33628">
        <ele>903.697</ele>
        <time>2011-07-05T12:37:06Z</time>
      </trkpt>
      <trkpt lat="62.677662" lon="12.336245">
        <ele>903.624</ele>
        <time>2011-07-05T12:37:09Z</time>
      </trkpt>
      <trkpt lat="62.677765" lon="12.336146">
        <ele>903.294</ele>
        <time>2011-07-05T12:37:18Z</time>
      </trkpt>
      <trkpt lat="62.677794" lon="12.336109">
        <ele>902.904</ele>
        <time>2011-07-05T12:37:21Z</time>
      </trkpt>
      <trkpt lat="62.677857" lon="12.335962">
        <ele>902.848</ele>
        <time>2011-07-05T12:37:28Z</time>
      </trkpt>
      <trkpt lat="62.677923" lon="12.335917">
        <ele>902.924</ele>
        <time>2011-07-05T12:37:33Z</time>
      </trkpt>
      <trkpt lat="62.677949" lon="12.335886">
        <ele>902.93</ele>
        <time>2011-07-05T12:37:35Z</time>
      </trkpt>
      <trkpt lat="62.678031" lon="12.33578">
        <ele>903.258</ele>
        <time>2011-07-05T12:37:42Z</time>
      </trkpt>
      <trkpt lat="62.678101" lon="12.335721">
        <ele>903.614</ele>
        <time>2011-07-05T12:37:47Z</time>
      </trkpt>
      <trkpt lat="62.67813" lon="12.335624">
        <ele>903.449</ele>
        <time>2011-07-05T12:37:51Z</time>
      </trkpt>
      <trkpt lat="62.678218" lon="12.335474">
        <ele>905.182</ele>
        <time>2011-07-05T12:37:59Z</time>
      </trkpt>
      <trkpt lat="62.678252" lon="12.335365">
        <ele>906.081</ele>
        <time>2011-07-05T12:38:04Z</time>
      </trkpt>
      <trkpt lat="62.678361" lon="12.335276">
        <ele>907.108</ele>
        <time>2011-07-05T12:38:13Z</time>
      </trkpt>
      <trkpt lat="62.678455" lon="12.335178">
        <ele>907.113</ele>
        <time>2011-07-05T12:38:20Z</time>
      </trkpt>
      <trkpt lat="62.67851" lon="12.335046">
        <ele>907.429</ele>
        <time>2011-07-05T12:38:26Z</time>
      </trkpt>
      <trkpt lat="62.678514" lon="12.335039">
        <ele>907.553</ele>
        <time>2011-07-05T12:38:27Z</time>
      </trkpt>
      <trkpt lat="62.678546" lon="12.334856">
        <ele>907.522</ele>
        <time>2011-07-05T12:38:56Z</time>
      </trkpt>
      <trkpt lat="62.67862" lon="12.334724">
        <ele>906.968</ele>
        <time>2011-07-05T12:39:02Z</time>
      </trkpt>
      <trkpt lat="62.67864" lon="12.33468">
        <ele>906.787</ele>
        <time>2011-07-05T12:39:03Z</time>
      </trkpt>
      <trkpt lat="62.678719" lon="12.334529">
        <ele>905.974</ele>
        <time>2011-07-05T12:39:07Z</time>
      </trkpt>
      <trkpt lat="62.678807" lon="12.334293">
        <ele>904.639</ele>
        <time>2011-07-05T12:39:13Z</time>
      </trkpt>
      <trkpt lat="62.678916" lon="12.334143">
        <ele>904.111</ele>
        <time>2011-07-05T12:39:19Z</time>
      </trkpt>
      <trkpt lat="62.678935" lon="12.334119">
        <ele>904.032</ele>
        <time>2011-07-05T12:39:20Z</time>
      </trkpt>
      <trkpt lat="62.679025" lon="12.333904">
        <ele>902.669</ele>
        <time>2011-07-05T12:39:26Z</time>
      </trkpt>
      <trkpt lat="62.679128" lon="12.33371">
        <ele>902.762</ele>
        <time>2011-07-05T12:39:32Z</time>
      </trkpt>
      <trkpt lat="62.679165" lon="12.333645">
        <ele>902.854</ele>
        <time>2011-07-05T12:39:34Z</time>
      </trkpt>
      <trkpt lat="62.679248" lon="12.333474">
        <ele>904.079</ele>
        <time>2011-07-05T12:39:40Z</time>
      </trkpt>
      <trkpt lat="62.679394" lon="12.333315">
        <ele>905.82</ele>
        <time>2011-07-05T12:39:47Z</time>
      </trkpt>
      <trkpt lat="62.679536" lon="12.333196">
        <ele>906.87</ele>
        <time>2011-07-05T12:39:53Z</time>
      </trkpt>
      <trkpt lat="62.679696" lon="12.333026">
        <ele>906.951</ele>
        <time>2011-07-05T12:40:00Z</time>
      </trkpt>
      <trkpt lat="62.679829" lon="12.332968">
        <ele>907.284</ele>
        <time>2011-07-05T12:40:05Z</time>
      </trkpt>
      <trkpt lat="62.679989" lon="12.332894">
        <ele>907.207</ele>
        <time>2011-07-05T12:40:11Z</time>
      </trkpt>
      <trkpt lat="62.68016" lon="12.332828">
        <ele>906.236</ele>
        <time>2011-07-05T12:40:17Z</time>
      </trkpt>
      <trkpt lat="62.68029" lon="12.332701">
        <ele>906.204</ele>
        <time>2011-07-05T12:40:23Z</time>
      </trkpt>
      <trkpt lat="62.680386" lon="12.33269">
        <ele>906.354</ele>
        <time>2011-07-05T12:40:26Z</time>
      </trkpt>
      <trkpt lat="62.680588" lon="12.332534">
        <ele>904.234</ele>
        <time>2011-07-05T12:40:33Z</time>
      </trkpt>
      <trkpt lat="62.680749" lon="12.332516">
        <ele>903.413</ele>
        <time>2011-07-05T12:40:38Z</time>
      </trkpt>
      <trkpt lat="62.680849" lon="12.332356">
        <ele>902.587</ele>
        <time>2011-07-05T12:40:43Z</time>
      </trkpt>
      <trkpt lat="62.680955" lon="12.332228">
        <ele>901.931</ele>
        <time>2011-07-05T12:40:48Z</time>
      </trkpt>
      <trkpt lat="62.681023" lon="12.332121">
        <ele>901.11</ele>
        <time>2011-07-05T12:40:52Z</time>
      </trkpt>
      <trkpt lat="62.681118" lon="12.331909">
        <ele>901.429</ele>
        <time>2011-07-05T12:40:57Z</time>
      </trkpt>
      <trkpt lat="62.681222" lon="12.331743">
        <ele>902.589</ele>
        <time>2011-07-05T12:41:02Z</time>
      </trkpt>
      <trkpt lat="62.681368" lon="12.331576">
        <ele>901.985</ele>
        <time>2011-07-05T12:41:08Z</time>
      </trkpt>
      <trkpt lat="62.681484" lon="12.33149">
        <ele>900.99</ele>
        <time>2011-07-05T12:41:13Z</time>
      </trkpt>
      <trkpt lat="62.681651" lon="12.331438">
        <ele>899.867</ele>
        <time>2011-07-05T12:41:19Z</time>
      </trkpt>
      <trkpt lat="62.6818" lon="12.331323">
        <ele>899.202</ele>
        <time>2011-07-05T12:41:25Z</time>
      </trkpt>
      <trkpt lat="62.681958" lon="12.331215">
        <ele>898.308</ele>
        <time>2011-07-05T12:41:32Z</time>
      </trkpt>
      <trkpt lat="62.682075" lon="12.331067">
        <ele>895.91</ele>
        <time>2011-07-05T12:41:38Z</time>
      </trkpt>
      <trkpt lat="62.682089" lon="12.331037">
        <ele>895.707</ele>
        <time>2011-07-05T12:41:39Z</time>
      </trkpt>
      <trkpt lat="62.682125" lon="12.331006">
        <ele>895.381</ele>
        <time>2011-07-05T12:41:42Z</time>
      </trkpt>
      <trkpt lat="62.682175" lon="12.331019">
        <ele>895.258</ele>
        <time>2011-07-05T12:41:46Z</time>
      </trkpt>
      <trkpt lat="62.682268" lon="12.330934">
        <ele>894.308</ele>
        <time>2011-07-05T12:41:55Z</time>
      </trkpt>
      <trkpt lat="62.682313" lon="12.330876">
        <ele>894.352</ele>
        <time>2011-07-05T12:42:00Z</time>
      </trkpt>
      <trkpt lat="62.682391" lon="12.330881">
        <ele>893.893</ele>
        <time>2011-07-05T12:42:07Z</time>
      </trkpt>
      <trkpt lat="62.68247" lon="12.330773">
        <ele>893.654</ele>
        <time>2011-07-05T12:42:13Z</time>
      </trkpt>
      <trkpt lat="62.682484" lon="12.330758">
        <ele>893.165</ele>
        <time>2011-07-05T12:42:14Z</time>
      </trkpt>
      <trkpt lat="62.682559" lon="12.330746">
        <ele>893.982</ele>
        <time>2011-07-05T12:42:19Z</time>
      </trkpt>
      <trkpt lat="62.682615" lon="12.330575">
        <ele>893.442</ele>
        <time>2011-07-05T12:42:24Z</time>
      </trkpt>
      <trkpt lat="62.6827" lon="12.330407">
        <ele>893.256</ele>
        <time>2011-07-05T12:42:29Z</time>
      </trkpt>
      <trkpt lat="62.682775" lon="12.330271">
        <ele>892.629</ele>
        <time>2011-07-05T12:42:34Z</time>
      </trkpt>
      <trkpt lat="62.68285" lon="12.330134">
        <ele>892.373</ele>
        <time>2011-07-05T12:42:39Z</time>
      </trkpt>
      <trkpt lat="62.682961" lon="12.330001">
        <ele>891.937</ele>
        <time>2011-07-05T12:42:45Z</time>
      </trkpt>
      <trkpt lat="62.683039" lon="12.329843">
        <ele>891.184</ele>
        <time>2011-07-05T12:42:49Z</time>
      </trkpt>
      <trkpt lat="62.683186" lon="12.329789">
        <ele>889.942</ele>
        <time>2011-07-05T12:42:56Z</time>
      </trkpt>
      <trkpt lat="62.683312" lon="12.329777">
        <ele>887.614</ele>
        <time>2011-07-05T12:43:03Z</time>
      </trkpt>
      <trkpt lat="62.683392" lon="12.329727">
        <ele>885.841</ele>
        <time>2011-07-05T12:43:10Z</time>
      </trkpt>
      <trkpt lat="62.683478" lon="12.329744">
        <ele>884.119</ele>
        <time>2011-07-05T12:43:17Z</time>
      </trkpt>
      <trkpt lat="62.683549" lon="12.329833">
        <ele>882.547</ele>
        <time>2011-07-05T12:43:22Z</time>
      </trkpt>
      <trkpt lat="62.683552" lon="12.329825">
        <ele>882.524</ele>
        <time>2011-07-05T12:43:23Z</time>
      </trkpt>
      <trkpt lat="62.683591" lon="12.329888">
        <ele>882.011</ele>
        <time>2011-07-05T12:43:27Z</time>
      </trkpt>
      <trkpt lat="62.683665" lon="12.330046">
        <ele>880.257</ele>
        <time>2011-07-05T12:43:34Z</time>
      </trkpt>
      <trkpt lat="62.683769" lon="12.330098">
        <ele>878.751</ele>
        <time>2011-07-05T12:43:41Z</time>
      </trkpt>
      <trkpt lat="62.683828" lon="12.330129">
        <ele>878.196</ele>
        <time>2011-07-05T12:43:46Z</time>
      </trkpt>
      <trkpt lat="62.683865" lon="12.330165">
        <ele>877.496</ele>
        <time>2011-07-05T12:43:49Z</time>
      </trkpt>
      <trkpt lat="62.683923" lon="12.330303">
        <ele>876.006</ele>
        <time>2011-07-05T12:43:56Z</time>
      </trkpt>
      <trkpt lat="62.683984" lon="12.330399">
        <ele>876.454</ele>
        <time>2011-07-05T12:44:02Z</time>
      </trkpt>
      <trkpt lat="62.684014" lon="12.33051">
        <ele>875.831</ele>
        <time>2011-07-05T12:44:07Z</time>
      </trkpt>
      <trkpt lat="62.684081" lon="12.330648">
        <ele>873.946</ele>
        <time>2011-07-05T12:44:15Z</time>
      </trkpt>
      <trkpt lat="62.684158" lon="12.330749">
        <ele>872.412</ele>
        <time>2011-07-05T12:44:21Z</time>
      </trkpt>
      <trkpt lat="62.684273" lon="12.330762">
        <ele>871.171</ele>
        <time>2011-07-05T12:44:28Z</time>
      </trkpt>
      <trkpt lat="62.684346" lon="12.330739">
        <ele>870.266</ele>
        <time>2011-07-05T12:44:34Z</time>
      </trkpt>
      <trkpt lat="62.684386" lon="12.330756">
        <ele>869.866</ele>
        <time>2011-07-05T12:44:38Z</time>
      </trkpt>
      <trkpt lat="62.684462" lon="12.330676">
        <ele>867.82</ele>
        <time>2011-07-05T12:44:45Z</time>
      </trkpt>
      <trkpt lat="62.684562" lon="12.330709">
        <ele>867.626</ele>
        <time>2011-07-05T12:44:53Z</time>
      </trkpt>
      <trkpt lat="62.684659" lon="12.330751">
        <ele>867.393</ele>
        <time>2011-07-05T12:45:01Z</time>
      </trkpt>
      <trkpt lat="62.684753" lon="12.330811">
        <ele>866.958</ele>
        <time>2011-07-05T12:45:08Z</time>
      </trkpt>
      <trkpt lat="62.68483" lon="12.330859">
        <ele>866.85</ele>
        <time>2011-07-05T12:45:15Z</time>
      </trkpt>
      <trkpt lat="62.684835" lon="12.330866">
        <ele>866.871</ele>
        <time>2011-07-05T12:45:16Z</time>
      </trkpt>
      <trkpt lat="62.684889" lon="12.330937">
        <ele>866.645</ele>
        <time>2011-07-05T12:45:22Z</time>
      </trkpt>
      <trkpt lat="62.684889" lon="12.330853">
        <ele>866.806</ele>
        <time>2011-07-05T12:45:41Z</time>
      </trkpt>
      <trkpt lat="62.684919" lon="12.330786">
        <ele>866.85</ele>
        <time>2011-07-05T12:45:46Z</time>
      </trkpt>
      <trkpt lat="62.684986" lon="12.330737">
        <ele>867.216</ele>
        <time>2011-07-05T12:45:54Z</time>
      </trkpt>
      <trkpt lat="62.684982" lon="12.330741">
        <ele>867.439</ele>
        <time>2011-07-05T12:45:56Z</time>
      </trkpt>
      <trkpt lat="62.685013" lon="12.33046">
        <ele>867.295</ele>
        <time>2011-07-05T12:46:08Z</time>
      </trkpt>
      <trkpt lat="62.68502" lon="12.33028">
        <ele>867.069</ele>
        <time>2011-07-05T12:46:15Z</time>
      </trkpt>
      <trkpt lat="62.685019" lon="12.330239">
        <ele>867.032</ele>
        <time>2011-07-05T12:46:17Z</time>
      </trkpt>
      <trkpt lat="62.685003" lon="12.330136">
        <ele>867.245</ele>
        <time>2011-07-05T12:46:22Z</time>
      </trkpt>
      <trkpt lat="62.684994" lon="12.330051">
        <ele>867.087</ele>
        <time>2011-07-05T12:46:28Z</time>
      </trkpt>
      <trkpt lat="62.685" lon="12.330027">
        <ele>867.083</ele>
        <time>2011-07-05T12:46:30Z</time>
      </trkpt>
      <trkpt lat="62.685032" lon="12.33">
        <ele>866.703</ele>
        <time>2011-07-05T12:46:35Z</time>
      </trkpt>
      <trkpt lat="62.685052" lon="12.329978">
        <ele>866.459</ele>
        <time>2011-07-05T12:53:09Z</time>
      </trkpt>
      <trkpt lat="62.685102" lon="12.32989">
        <ele>866.033</ele>
        <time>2011-07-05T12:53:16Z</time>
      </trkpt>
      <trkpt lat="62.685121" lon="12.329761">
        <ele>866.419</ele>
        <time>2011-07-05T12:53:21Z</time>
      </trkpt>
      <trkpt lat="62.685199" lon="12.329626">
        <ele>866.475</ele>
        <time>2011-07-05T12:53:29Z</time>
      </trkpt>
      <trkpt lat="62.685277" lon="12.329469">
        <ele>866.607</ele>
        <time>2011-07-05T12:53:38Z</time>
      </trkpt>
      <trkpt lat="62.685279" lon="12.329442">
        <ele>866.392</ele>
        <time>2011-07-05T12:53:39Z</time>
      </trkpt>
      <trkpt lat="62.685312" lon="12.329291">
        <ele>865.9</ele>
        <time>2011-07-05T12:53:44Z</time>
      </trkpt>
      <trkpt lat="62.685298" lon="12.329096">
        <ele>866.222</ele>
        <time>2011-07-05T12:53:51Z</time>
      </trkpt>
      <trkpt lat="62.685301" lon="12.328999">
        <ele>866.423</ele>
        <time>2011-07-05T12:53:55Z</time>
      </trkpt>
      <trkpt lat="62.685295" lon="12.328875">
        <ele>866.827</ele>
        <time>2011-07-05T12:54:00Z</time>
      </trkpt>
      <trkpt lat="62.685256" lon="12.328667">
        <ele>867.455</ele>
        <time>2011-07-05T12:54:07Z</time>
      </trkpt>
      <trkpt lat="62.685264" lon="12.328582">
        <ele>868.034</ele>
        <time>2011-07-05T12:54:11Z</time>
      </trkpt>
      <trkpt lat="62.685242" lon="12.328393">
        <ele>868.893</ele>
        <time>2011-07-05T12:54:19Z</time>
      </trkpt>
      <trkpt lat="62.6852" lon="12.328122">
        <ele>869.668</ele>
        <time>2011-07-05T12:54:27Z</time>
      </trkpt>
      <trkpt lat="62.685236" lon="12.328072">
        <ele>869.276</ele>
        <time>2011-07-05T12:54:31Z</time>
      </trkpt>
      <trkpt lat="62.685282" lon="12.328017">
        <ele>869.207</ele>
        <time>2011-07-05T12:54:41Z</time>
      </trkpt>
      <trkpt lat="62.685303" lon="12.327926">
        <ele>869.869</ele>
        <time>2011-07-05T12:54:45Z</time>
      </trkpt>
      <trkpt lat="62.68529" lon="12.327711">
        <ele>870.966</ele>
        <time>2011-07-05T12:54:52Z</time>
      </trkpt>
      <trkpt lat="62.68533" lon="12.327556">
        <ele>872.763</ele>
        <time>2011-07-05T12:54:58Z</time>
      </trkpt>
      <trkpt lat="62.685402" lon="12.327428">
        <ele>873.632</ele>
        <time>2011-07-05T12:55:05Z</time>
      </trkpt>
      <trkpt lat="62.685428" lon="12.327299">
        <ele>874.254</ele>
        <time>2011-07-05T12:55:12Z</time>
      </trkpt>
      <trkpt lat="62.685471" lon="12.32715">
        <ele>874.121</ele>
        <time>2011-07-05T12:55:20Z</time>
      </trkpt>
      <trkpt lat="62.685506" lon="12.327055">
        <ele>874.561</ele>
        <time>2011-07-05T12:55:25Z</time>
      </trkpt>
      <trkpt lat="62.685524" lon="12.326976">
        <ele>874.223</ele>
        <time>2011-07-05T12:55:31Z</time>
      </trkpt>
      <trkpt lat="62.685535" lon="12.326935">
        <ele>873.995</ele>
        <time>2011-07-05T12:55:33Z</time>
      </trkpt>
      <trkpt lat="62.685636" lon="12.326848">
        <ele>873.6</ele>
        <time>2011-07-05T12:55:40Z</time>
      </trkpt>
      <trkpt lat="62.685644" lon="12.326799">
        <ele>872.832</ele>
        <time>2011-07-05T12:55:44Z</time>
      </trkpt>
      <trkpt lat="62.685777" lon="12.326659">
        <ele>873.381</ele>
        <time>2011-07-05T12:55:52Z</time>
      </trkpt>
      <trkpt lat="62.685892" lon="12.32649">
        <ele>873.351</ele>
        <time>2011-07-05T12:56:00Z</time>
      </trkpt>
      <trkpt lat="62.685975" lon="12.326412">
        <ele>873.403</ele>
        <time>2011-07-05T12:56:07Z</time>
      </trkpt>
      <trkpt lat="62.686067" lon="12.326357">
        <ele>873.516</ele>
        <time>2011-07-05T12:56:14Z</time>
      </trkpt>
      <trkpt lat="62.686135" lon="12.326255">
        <ele>873.07</ele>
        <time>2011-07-05T12:56:21Z</time>
      </trkpt>
      <trkpt lat="62.68617" lon="12.326126">
        <ele>872.905</ele>
        <time>2011-07-05T12:56:29Z</time>
      </trkpt>
      <trkpt lat="62.686261" lon="12.325944">
        <ele>872.334</ele>
        <time>2011-07-05T12:56:39Z</time>
      </trkpt>
      <trkpt lat="62.686359" lon="12.325796">
        <ele>872.304</ele>
        <time>2011-07-05T12:56:48Z</time>
      </trkpt>
      <trkpt lat="62.686417" lon="12.325737">
        <ele>873.089</ele>
        <time>2011-07-05T12:56:53Z</time>
      </trkpt>
      <trkpt lat="62.68649" lon="12.325627">
        <ele>872.027</ele>
        <time>2011-07-05T12:56:59Z</time>
      </trkpt>
      <trkpt lat="62.686568" lon="12.325521">
        <ele>871.416</ele>
        <time>2011-07-05T12:57:05Z</time>
      </trkpt>
      <trkpt lat="62.686628" lon="12.325408">
        <ele>871.08</ele>
        <time>2011-07-05T12:57:11Z</time>
      </trkpt>
      <trkpt lat="62.686722" lon="12.325222">
        <ele>871.113</ele>
        <time>2011-07-05T12:57:21Z</time>
      </trkpt>
      <trkpt lat="62.686755" lon="12.325096">
        <ele>871.525</ele>
        <time>2011-07-05T12:57:27Z</time>
      </trkpt>
      <trkpt lat="62.686773" lon="12.325047">
        <ele>871.413</ele>
        <time>2011-07-05T12:57:30Z</time>
      </trkpt>
      <trkpt lat="62.686836" lon="12.324981">
        <ele>872.457</ele>
        <time>2011-07-05T12:57:36Z</time>
      </trkpt>
      <trkpt lat="62.686877" lon="12.324829">
        <ele>874.838</ele>
        <time>2011-07-05T12:57:44Z</time>
      </trkpt>
      <trkpt lat="62.686897" lon="12.324798">
        <ele>875.819</ele>
        <time>2011-07-05T12:57:47Z</time>
      </trkpt>
      <trkpt lat="62.686919" lon="12.324705">
        <ele>877.684</ele>
        <time>2011-07-05T12:57:53Z</time>
      </trkpt>
      <trkpt lat="62.686919" lon="12.324568">
        <ele>880.275</ele>
        <time>2011-07-05T12:58:01Z</time>
      </trkpt>
      <trkpt lat="62.686925" lon="12.324526">
        <ele>880.544</ele>
        <time>2011-07-05T12:58:03Z</time>
      </trkpt>
      <trkpt lat="62.686943" lon="12.324351">
        <ele>881.133</ele>
        <time>2011-07-05T12:58:11Z</time>
      </trkpt>
      <trkpt lat="62.686972" lon="12.324187">
        <ele>881.602</ele>
        <time>2011-07-05T12:58:19Z</time>
      </trkpt>
      <trkpt lat="62.687" lon="12.324">
        <ele>881.577</ele>
        <time>2011-07-05T12:58:27Z</time>
      </trkpt>
      <trkpt lat="62.687036" lon="12.323807">
        <ele>880.573</ele>
        <time>2011-07-05T12:58:35Z</time>
      </trkpt>
      <trkpt lat="62.687065" lon="12.323709">
        <ele>880.262</ele>
        <time>2011-07-05T12:58:39Z</time>
      </trkpt>
      <trkpt lat="62.687102" lon="12.323527">
        <ele>880.689</ele>
        <time>2011-07-05T12:58:45Z</time>
      </trkpt>
      <trkpt lat="62.687169" lon="12.323377">
        <ele>880.784</ele>
        <time>2011-07-05T12:58:53Z</time>
      </trkpt>
      <trkpt lat="62.687316" lon="12.323361">
        <ele>880.759</ele>
        <time>2011-07-05T12:59:01Z</time>
      </trkpt>
      <trkpt lat="62.687391" lon="12.323481">
        <ele>880.407</ele>
        <time>2011-07-05T12:59:07Z</time>
      </trkpt>
      <trkpt lat="62.687462" lon="12.323512">
        <ele>880.112</ele>
        <time>2011-07-05T12:59:13Z</time>
      </trkpt>
      <trkpt lat="62.687519" lon="12.323511">
        <ele>880.064</ele>
        <time>2011-07-05T12:59:19Z</time>
      </trkpt>
      <trkpt lat="62.687581" lon="12.323496">
        <ele>879.861</ele>
        <time>2011-07-05T12:59:24Z</time>
      </trkpt>
      <trkpt lat="62.687617" lon="12.323531">
        <ele>879.972</ele>
        <time>2011-07-05T12:59:27Z</time>
      </trkpt>
      <trkpt lat="62.687709" lon="12.323437">
        <ele>881.154</ele>
        <time>2011-07-05T12:59:36Z</time>
      </trkpt>
      <trkpt lat="62.687779" lon="12.323281">
        <ele>880.143</ele>
        <time>2011-07-05T12:59:43Z</time>
      </trkpt>
      <trkpt lat="62.687909" lon="12.323202">
        <ele>880.74</ele>
        <time>2011-07-05T12:59:49Z</time>
      </trkpt>
      <trkpt lat="62.688028" lon="12.323148">
        <ele>879.913</ele>
        <time>2011-07-05T12:59:54Z</time>
      </trkpt>
      <trkpt lat="62.688085" lon="12.322994">
        <ele>878.99</ele>
        <time>2011-07-05T12:59:58Z</time>
      </trkpt>
      <trkpt lat="62.688147" lon="12.322839">
        <ele>878.126</ele>
        <time>2011-07-05T13:00:04Z</time>
      </trkpt>
      <trkpt lat="62.688172" lon="12.322644">
        <ele>877.252</ele>
        <time>2011-07-05T13:00:09Z</time>
      </trkpt>
      <trkpt lat="62.688212" lon="12.322317">
        <ele>877.608</ele>
        <time>2011-07-05T13:00:16Z</time>
      </trkpt>
      <trkpt lat="62.688296" lon="12.322226">
        <ele>877.729</ele>
        <time>2011-07-05T13:00:21Z</time>
      </trkpt>
      <trkpt lat="62.688374" lon="12.322056">
        <ele>877.53</ele>
        <time>2011-07-05T13:00:27Z</time>
      </trkpt>
      <trkpt lat="62.688414" lon="12.321949">
        <ele>877.711</ele>
        <time>2011-07-05T13:00:33Z</time>
      </trkpt>
      <trkpt lat="62.688486" lon="12.321896">
        <ele>877.985</ele>
        <time>2011-07-05T13:00:38Z</time>
      </trkpt>
      <trkpt lat="62.688508" lon="12.321853">
        <ele>878.228</ele>
        <time>2011-07-05T13:00:40Z</time>
      </trkpt>
      <trkpt lat="62.688609" lon="12.321701">
        <ele>877.31</ele>
        <time>2011-07-05T13:00:49Z</time>
      </trkpt>
      <trkpt lat="62.688626" lon="12.321604">
        <ele>876.81</ele>
        <time>2011-07-05T13:00:53Z</time>
      </trkpt>
      <trkpt lat="62.688656" lon="12.321395">
        <ele>876.574</ele>
        <time>2011-07-05T13:01:00Z</time>
      </trkpt>
      <trkpt lat="62.688734" lon="12.32131">
        <ele>876.482</ele>
        <time>2011-07-05T13:01:04Z</time>
      </trkpt>
      <trkpt lat="62.688806" lon="12.321157">
        <ele>875.775</ele>
        <time>2011-07-05T13:01:09Z</time>
      </trkpt>
      <trkpt lat="62.688821" lon="12.32112">
        <ele>875.49</ele>
        <time>2011-07-05T13:01:10Z</time>
      </trkpt>
      <trkpt lat="62.688977" lon="12.320991">
        <ele>874.391</ele>
        <time>2011-07-05T13:01:17Z</time>
      </trkpt>
      <trkpt lat="62.689109" lon="12.320812">
        <ele>873.247</ele>
        <time>2011-07-05T13:01:24Z</time>
      </trkpt>
      <trkpt lat="62.689152" lon="12.320728">
        <ele>872.818</ele>
        <time>2011-07-05T13:01:27Z</time>
      </trkpt>
      <trkpt lat="62.689195" lon="12.32072">
        <ele>872.749</ele>
        <time>2011-07-05T13:01:29Z</time>
      </trkpt>
      <trkpt lat="62.689306" lon="12.320578">
        <ele>872.534</ele>
        <time>2011-07-05T13:01:35Z</time>
      </trkpt>
      <trkpt lat="62.689346" lon="12.320452">
        <ele>872.503</ele>
        <time>2011-07-05T13:01:38Z</time>
      </trkpt>
      <trkpt lat="62.689395" lon="12.32036">
        <ele>872.735</ele>
        <time>2011-07-05T13:01:41Z</time>
      </trkpt>
      <trkpt lat="62.689533" lon="12.320267">
        <ele>872.6</ele>
        <time>2011-07-05T13:01:47Z</time>
      </trkpt>
      <trkpt lat="62.689582" lon="12.320135">
        <ele>872.231</ele>
        <time>2011-07-05T13:01:51Z</time>
      </trkpt>
      <trkpt lat="62.689696" lon="12.319969">
        <ele>871.784</ele>
        <time>2011-07-05T13:01:57Z</time>
      </trkpt>
      <trkpt lat="62.689795" lon="12.319858">
        <ele>871.302</ele>
        <time>2011-07-05T13:02:02Z</time>
      </trkpt>
      <trkpt lat="62.689856" lon="12.319796">
        <ele>871.131</ele>
        <time>2011-07-05T13:02:05Z</time>
      </trkpt>
      <trkpt lat="62.689897" lon="12.319751">
        <ele>871.036</ele>
        <time>2011-07-05T13:02:07Z</time>
      </trkpt>
      <trkpt lat="62.69004" lon="12.319578">
        <ele>870.846</ele>
        <time>2011-07-05T13:02:14Z</time>
      </trkpt>
      <trkpt lat="62.690091" lon="12.31943">
        <ele>870.325</ele>
        <time>2011-07-05T13:02:19Z</time>
      </trkpt>
      <trkpt lat="62.690099" lon="12.31941">
        <ele>870.291</ele>
        <time>2011-07-05T13:02:20Z</time>
      </trkpt>
      <trkpt lat="62.690151" lon="12.319362">
        <ele>869.951</ele>
        <time>2011-07-05T13:02:24Z</time>
      </trkpt>
      <trkpt lat="62.69023" lon="12.319276">
        <ele>869.257</ele>
        <time>2011-07-05T13:02:31Z</time>
      </trkpt>
      <trkpt lat="62.690297" lon="12.319244">
        <ele>869.019</ele>
        <time>2011-07-05T13:02:36Z</time>
      </trkpt>
      <trkpt lat="62.690459" lon="12.319282">
        <ele>869.027</ele>
        <time>2011-07-05T13:02:43Z</time>
      </trkpt>
      <trkpt lat="62.69054" lon="12.31919">
        <ele>869.105</ele>
        <time>2011-07-05T13:02:50Z</time>
      </trkpt>
      <trkpt lat="62.690555" lon="12.319144">
        <ele>869.101</ele>
        <time>2011-07-05T13:02:53Z</time>
      </trkpt>
      <trkpt lat="62.690609" lon="12.319086">
        <ele>868.84</ele>
        <time>2011-07-05T13:02:59Z</time>
      </trkpt>
      <trkpt lat="62.690646" lon="12.318925">
        <ele>869.119</ele>
        <time>2011-07-05T13:03:05Z</time>
      </trkpt>
      <trkpt lat="62.690739" lon="12.318751">
        <ele>868.915</ele>
        <time>2011-07-05T13:03:11Z</time>
      </trkpt>
      <trkpt lat="62.690775" lon="12.318692">
        <ele>868.515</ele>
        <time>2011-07-05T13:03:13Z</time>
      </trkpt>
      <trkpt lat="62.690898" lon="12.318637">
        <ele>868.87</ele>
        <time>2011-07-05T13:03:19Z</time>
      </trkpt>
      <trkpt lat="62.690952" lon="12.318622">
        <ele>869.032</ele>
        <time>2011-07-05T13:03:21Z</time>
      </trkpt>
      <trkpt lat="62.691076" lon="12.318553">
        <ele>868.972</ele>
        <time>2011-07-05T13:03:27Z</time>
      </trkpt>
      <trkpt lat="62.691105" lon="12.318507">
        <ele>868.628</ele>
        <time>2011-07-05T13:03:29Z</time>
      </trkpt>
      <trkpt lat="62.691118" lon="12.318456">
        <ele>868.77</ele>
        <time>2011-07-05T13:03:31Z</time>
      </trkpt>
      <trkpt lat="62.691224" lon="12.318413">
        <ele>869</ele>
        <time>2011-07-05T13:03:35Z</time>
      </trkpt>
      <trkpt lat="62.691319" lon="12.318332">
        <ele>869.448</ele>
        <time>2011-07-05T13:03:41Z</time>
      </trkpt>
      <trkpt lat="62.691391" lon="12.318281">
        <ele>868.811</ele>
        <time>2011-07-05T13:03:44Z</time>
      </trkpt>
      <trkpt lat="62.691508" lon="12.318164">
        <ele>868.351</ele>
        <time>2011-07-05T13:03:50Z</time>
      </trkpt>
      <trkpt lat="62.691572" lon="12.318078">
        <ele>868.046</ele>
        <time>2011-07-05T13:03:54Z</time>
      </trkpt>
      <trkpt lat="62.691656" lon="12.318033">
        <ele>868.477</ele>
        <time>2011-07-05T13:03:58Z</time>
      </trkpt>
      <trkpt lat="62.691696" lon="12.317999">
        <ele>868.165</ele>
        <time>2011-07-05T13:04:00Z</time>
      </trkpt>
      <trkpt lat="62.691752" lon="12.317925">
        <ele>868.909</ele>
        <time>2011-07-05T13:04:05Z</time>
      </trkpt>
      <trkpt lat="62.691839" lon="12.317813">
        <ele>868.971</ele>
        <time>2011-07-05T13:04:11Z</time>
      </trkpt>
      <trkpt lat="62.692078" lon="12.31769">
        <ele>868.901</ele>
        <time>2011-07-05T13:04:38Z</time>
      </trkpt>
      <trkpt lat="62.692126" lon="12.317608">
        <ele>868.755</ele>
        <time>2011-07-05T13:04:42Z</time>
      </trkpt>
      <trkpt lat="62.692244" lon="12.317555">
        <ele>869.818</ele>
        <time>2011-07-05T13:04:48Z</time>
      </trkpt>
      <trkpt lat="62.692262" lon="12.31752">
        <ele>870.05</ele>
        <time>2011-07-05T13:04:51Z</time>
      </trkpt>
      <trkpt lat="62.692269" lon="12.317434">
        <ele>869.972</ele>
        <time>2011-07-05T13:04:55Z</time>
      </trkpt>
      <trkpt lat="62.692286" lon="12.317385">
        <ele>869.896</ele>
        <time>2011-07-05T13:04:59Z</time>
      </trkpt>
      <trkpt lat="62.692323" lon="12.31732">
        <ele>869.619</ele>
        <time>2011-07-05T13:05:04Z</time>
      </trkpt>
      <trkpt lat="62.692367" lon="12.317318">
        <ele>869.758</ele>
        <time>2011-07-05T13:05:07Z</time>
      </trkpt>
      <trkpt lat="62.692447" lon="12.317345">
        <ele>869.212</ele>
        <time>2011-07-05T13:05:12Z</time>
      </trkpt>
      <trkpt lat="62.692591" lon="12.317352">
        <ele>869.381</ele>
        <time>2011-07-05T13:05:18Z</time>
      </trkpt>
      <trkpt lat="62.69263" lon="12.317359">
        <ele>869.806</ele>
        <time>2011-07-05T13:05:20Z</time>
      </trkpt>
      <trkpt lat="62.692699" lon="12.317217">
        <ele>870.344</ele>
        <time>2011-07-05T13:05:28Z</time>
      </trkpt>
      <trkpt lat="62.692725" lon="12.317145">
        <ele>870.094</ele>
        <time>2011-07-05T13:05:30Z</time>
      </trkpt>
      <trkpt lat="62.69275" lon="12.317077">
        <ele>869.737</ele>
        <time>2011-07-05T13:05:32Z</time>
      </trkpt>
      <trkpt lat="62.692856" lon="12.316946">
        <ele>869.576</ele>
        <time>2011-07-05T13:05:38Z</time>
      </trkpt>
      <trkpt lat="62.692872" lon="12.31691">
        <ele>869.61</ele>
        <time>2011-07-05T13:05:39Z</time>
      </trkpt>
      <trkpt lat="62.692957" lon="12.316646">
        <ele>870.302</ele>
        <time>2011-07-05T13:05:46Z</time>
      </trkpt>
      <trkpt lat="62.693023" lon="12.31642">
        <ele>870.606</ele>
        <time>2011-07-05T13:05:52Z</time>
      </trkpt>
      <trkpt lat="62.693087" lon="12.316155">
        <ele>870.542</ele>
        <time>2011-07-05T13:05:58Z</time>
      </trkpt>
      <trkpt lat="62.69323" lon="12.316011">
        <ele>871.099</ele>
        <time>2011-07-05T13:06:04Z</time>
      </trkpt>
      <trkpt lat="62.693249" lon="12.315979">
        <ele>871.063</ele>
        <time>2011-07-05T13:06:05Z</time>
      </trkpt>
      <trkpt lat="62.693281" lon="12.315918">
        <ele>871.219</ele>
        <time>2011-07-05T13:06:07Z</time>
      </trkpt>
      <trkpt lat="62.693399" lon="12.315808">
        <ele>870.627</ele>
        <time>2011-07-05T13:06:12Z</time>
      </trkpt>
      <trkpt lat="62.693482" lon="12.31574">
        <ele>870.479</ele>
        <time>2011-07-05T13:06:15Z</time>
      </trkpt>
      <trkpt lat="62.693608" lon="12.315665">
        <ele>870.232</ele>
        <time>2011-07-05T13:06:20Z</time>
      </trkpt>
      <trkpt lat="62.693658" lon="12.315605">
        <ele>869.847</ele>
        <time>2011-07-05T13:06:24Z</time>
      </trkpt>
      <trkpt lat="62.693797" lon="12.315526">
        <ele>869.487</ele>
        <time>2011-07-05T13:06:34Z</time>
      </trkpt>
      <trkpt lat="62.693867" lon="12.315417">
        <ele>869.549</ele>
        <time>2011-07-05T13:06:41Z</time>
      </trkpt>
      <trkpt lat="62.693887" lon="12.315374">
        <ele>869.678</ele>
        <time>2011-07-05T13:06:43Z</time>
      </trkpt>
      <trkpt lat="62.694001" lon="12.315264">
        <ele>870.597</ele>
        <time>2011-07-05T13:06:51Z</time>
      </trkpt>
      <trkpt lat="62.694109" lon="12.315074">
        <ele>870.241</ele>
        <time>2011-07-05T13:06:59Z</time>
      </trkpt>
      <trkpt lat="62.69415" lon="12.314976">
        <ele>869.76</ele>
        <time>2011-07-05T13:07:03Z</time>
      </trkpt>
      <trkpt lat="62.694203" lon="12.314963">
        <ele>869.822</ele>
        <time>2011-07-05T13:07:06Z</time>
      </trkpt>
      <trkpt lat="62.694328" lon="12.314942">
        <ele>870.407</ele>
        <time>2011-07-05T13:07:12Z</time>
      </trkpt>
      <trkpt lat="62.69443" lon="12.314835">
        <ele>870.208</ele>
        <time>2011-07-05T13:07:17Z</time>
      </trkpt>
      <trkpt lat="62.694467" lon="12.314692">
        <ele>870.331</ele>
        <time>2011-07-05T13:07:21Z</time>
      </trkpt>
      <trkpt lat="62.6945" lon="12.314637">
        <ele>870.536</ele>
        <time>2011-07-05T13:07:23Z</time>
      </trkpt>
      <trkpt lat="62.694589" lon="12.314573">
        <ele>871.256</ele>
        <time>2011-07-05T13:07:27Z</time>
      </trkpt>
      <trkpt lat="62.694714" lon="12.314491">
        <ele>872.172</ele>
        <time>2011-07-05T13:07:33Z</time>
      </trkpt>
      <trkpt lat="62.694743" lon="12.314487">
        <ele>872.192</ele>
        <time>2011-07-05T13:07:34Z</time>
      </trkpt>
      <trkpt lat="62.694944" lon="12.314426">
        <ele>871.86</ele>
        <time>2011-07-05T13:07:42Z</time>
      </trkpt>
      <trkpt lat="62.695016" lon="12.314397">
        <ele>871.144</ele>
        <time>2011-07-05T13:07:45Z</time>
      </trkpt>
      <trkpt lat="62.695146" lon="12.314255">
        <ele>871.194</ele>
        <time>2011-07-05T13:07:51Z</time>
      </trkpt>
      <trkpt lat="62.695232" lon="12.314232">
        <ele>870.855</ele>
        <time>2011-07-05T13:07:54Z</time>
      </trkpt>
      <trkpt lat="62.695451" lon="12.314281">
        <ele>870.398</ele>
        <time>2011-07-05T13:08:01Z</time>
      </trkpt>
      <trkpt lat="62.695563" lon="12.314169">
        <ele>870.413</ele>
        <time>2011-07-05T13:08:07Z</time>
      </trkpt>
      <trkpt lat="62.695644" lon="12.314156">
        <ele>870.437</ele>
        <time>2011-07-05T13:08:12Z</time>
      </trkpt>
      <trkpt lat="62.695748" lon="12.314152">
        <ele>870.536</ele>
        <time>2011-07-05T13:08:18Z</time>
      </trkpt>
      <trkpt lat="62.695771" lon="12.314134">
        <ele>870.534</ele>
        <time>2011-07-05T13:08:20Z</time>
      </trkpt>
      <trkpt lat="62.695851" lon="12.314154">
        <ele>870.657</ele>
        <time>2011-07-05T13:08:27Z</time>
      </trkpt>
      <trkpt lat="62.695864" lon="12.314152">
        <ele>870.639</ele>
        <time>2011-07-05T13:08:28Z</time>
      </trkpt>
      <trkpt lat="62.695957" lon="12.314159">
        <ele>870.819</ele>
        <time>2011-07-05T13:08:35Z</time>
      </trkpt>
      <trkpt lat="62.696073" lon="12.314153">
        <ele>871.222</ele>
        <time>2011-07-05T13:08:43Z</time>
      </trkpt>
      <trkpt lat="62.696139" lon="12.314081">
        <ele>871.216</ele>
        <time>2011-07-05T13:08:50Z</time>
      </trkpt>
      <trkpt lat="62.696215" lon="12.31403">
        <ele>870.833</ele>
        <time>2011-07-05T13:08:56Z</time>
      </trkpt>
      <trkpt lat="62.69623" lon="12.314013">
        <ele>870.733</ele>
        <time>2011-07-05T13:08:57Z</time>
      </trkpt>
      <trkpt lat="62.696398" lon="12.313989">
        <ele>871.339</ele>
        <time>2011-07-05T13:09:05Z</time>
      </trkpt>
      <trkpt lat="62.696543" lon="12.313954">
        <ele>870.429</ele>
        <time>2011-07-05T13:09:11Z</time>
      </trkpt>
      <trkpt lat="62.696594" lon="12.31397">
        <ele>869.747</ele>
        <time>2011-07-05T13:09:13Z</time>
      </trkpt>
      <trkpt lat="62.696694" lon="12.314088">
        <ele>867.837</ele>
        <time>2011-07-05T13:09:18Z</time>
      </trkpt>
      <trkpt lat="62.696799" lon="12.313982">
        <ele>867.648</ele>
        <time>2011-07-05T13:09:23Z</time>
      </trkpt>
      <trkpt lat="62.696848" lon="12.313939">
        <ele>867.684</ele>
        <time>2011-07-05T13:09:25Z</time>
      </trkpt>
      <trkpt lat="62.69698" lon="12.31378">
        <ele>867.49</ele>
        <time>2011-07-05T13:09:32Z</time>
      </trkpt>
      <trkpt lat="62.697068" lon="12.313722">
        <ele>867.78</ele>
        <time>2011-07-05T13:09:38Z</time>
      </trkpt>
      <trkpt lat="62.697167" lon="12.31371">
        <ele>868.755</ele>
        <time>2011-07-05T13:09:47Z</time>
      </trkpt>
      <trkpt lat="62.697325" lon="12.313771">
        <ele>868.095</ele>
        <time>2011-07-05T13:09:56Z</time>
      </trkpt>
      <trkpt lat="62.697358" lon="12.313775">
        <ele>868.375</ele>
        <time>2011-07-05T13:09:59Z</time>
      </trkpt>
      <trkpt lat="62.697434" lon="12.313661">
        <ele>869.263</ele>
        <time>2011-07-05T13:10:07Z</time>
      </trkpt>
      <trkpt lat="62.697513" lon="12.31362">
        <ele>870.017</ele>
        <time>2011-07-05T13:10:14Z</time>
      </trkpt>
      <trkpt lat="62.697557" lon="12.31358">
        <ele>870.086</ele>
        <time>2011-07-05T13:10:18Z</time>
      </trkpt>
      <trkpt lat="62.697667" lon="12.313556">
        <ele>870.195</ele>
        <time>2011-07-05T13:10:27Z</time>
      </trkpt>
      <trkpt lat="62.697759" lon="12.313357">
        <ele>869.575</ele>
        <time>2011-07-05T13:10:32Z</time>
      </trkpt>
      <trkpt lat="62.69786" lon="12.313105">
        <ele>869.958</ele>
        <time>2011-07-05T13:10:38Z</time>
      </trkpt>
      <trkpt lat="62.69793" lon="12.312844">
        <ele>870.28</ele>
        <time>2011-07-05T13:10:43Z</time>
      </trkpt>
      <trkpt lat="62.697959" lon="12.312727">
        <ele>870.51</ele>
        <time>2011-07-05T13:10:45Z</time>
      </trkpt>
      <trkpt lat="62.698022" lon="12.312638">
        <ele>870.995</ele>
        <time>2011-07-05T13:10:49Z</time>
      </trkpt>
      <trkpt lat="62.698164" lon="12.312524">
        <ele>870.909</ele>
        <time>2011-07-05T13:10:56Z</time>
      </trkpt>
      <trkpt lat="62.698208" lon="12.312498">
        <ele>871.102</ele>
        <time>2011-07-05T13:10:58Z</time>
      </trkpt>
      <trkpt lat="62.698326" lon="12.312326">
        <ele>871.631</ele>
        <time>2011-07-05T13:11:04Z</time>
      </trkpt>
      <trkpt lat="62.698427" lon="12.312198">
        <ele>871.906</ele>
        <time>2011-07-05T13:11:09Z</time>
      </trkpt>
      <trkpt lat="62.698509" lon="12.312092">
        <ele>872.112</ele>
        <time>2011-07-05T13:11:13Z</time>
      </trkpt>
      <trkpt lat="62.698617" lon="12.311829">
        <ele>873.199</ele>
        <time>2011-07-05T13:11:20Z</time>
      </trkpt>
      <trkpt lat="62.698704" lon="12.311701">
        <ele>873.488</ele>
        <time>2011-07-05T13:11:25Z</time>
      </trkpt>
      <trkpt lat="62.698731" lon="12.311651">
        <ele>873.583</ele>
        <time>2011-07-05T13:11:27Z</time>
      </trkpt>
      <trkpt lat="62.698764" lon="12.311549">
        <ele>873.625</ele>
        <time>2011-07-05T13:11:31Z</time>
      </trkpt>
      <trkpt lat="62.698876" lon="12.311427">
        <ele>873.784</ele>
        <time>2011-07-05T13:11:40Z</time>
      </trkpt>
      <trkpt lat="62.698932" lon="12.311338">
        <ele>873.848</ele>
        <time>2011-07-05T13:11:46Z</time>
      </trkpt>
      <trkpt lat="62.699016" lon="12.311267">
        <ele>874.017</ele>
        <time>2011-07-05T13:11:53Z</time>
      </trkpt>
      <trkpt lat="62.699116" lon="12.311189">
        <ele>874.441</ele>
        <time>2011-07-05T13:11:59Z</time>
      </trkpt>
      <trkpt lat="62.699244" lon="12.311042">
        <ele>874.816</ele>
        <time>2011-07-05T13:12:05Z</time>
      </trkpt>
      <trkpt lat="62.699409" lon="12.310829">
        <ele>875.422</ele>
        <time>2011-07-05T13:12:13Z</time>
      </trkpt>
      <trkpt lat="62.699512" lon="12.310691">
        <ele>875.394</ele>
        <time>2011-07-05T13:12:18Z</time>
      </trkpt>
      <trkpt lat="62.699673" lon="12.31046">
        <ele>875.872</ele>
        <time>2011-07-05T13:12:26Z</time>
      </trkpt>
      <trkpt lat="62.699808" lon="12.310304">
        <ele>876.103</ele>
        <time>2011-07-05T13:12:32Z</time>
      </trkpt>
      <trkpt lat="62.699849" lon="12.310244">
        <ele>876.22</ele>
        <time>2011-07-05T13:12:34Z</time>
      </trkpt>
      <trkpt lat="62.699935" lon="12.309985">
        <ele>877.254</ele>
        <time>2011-07-05T13:12:40Z</time>
      </trkpt>
      <trkpt lat="62.699954" lon="12.309955">
        <ele>877.491</ele>
        <time>2011-07-05T13:12:41Z</time>
      </trkpt>
      <trkpt lat="62.700065" lon="12.309771">
        <ele>878.034</ele>
        <time>2011-07-05T13:12:47Z</time>
      </trkpt>
      <trkpt lat="62.70018" lon="12.309555">
        <ele>878.385</ele>
        <time>2011-07-05T13:12:53Z</time>
      </trkpt>
      <trkpt lat="62.700308" lon="12.309403">
        <ele>878.506</ele>
        <time>2011-07-05T13:12:59Z</time>
      </trkpt>
      <trkpt lat="62.700434" lon="12.309373">
        <ele>878.523</ele>
        <time>2011-07-05T13:13:04Z</time>
      </trkpt>
      <trkpt lat="62.700542" lon="12.309265">
        <ele>878.837</ele>
        <time>2011-07-05T13:13:09Z</time>
      </trkpt>
      <trkpt lat="62.700652" lon="12.309156">
        <ele>879.882</ele>
        <time>2011-07-05T13:13:16Z</time>
      </trkpt>
      <trkpt lat="62.700701" lon="12.309105">
        <ele>880.127</ele>
        <time>2011-07-05T13:13:21Z</time>
      </trkpt>
      <trkpt lat="62.70079" lon="12.309035">
        <ele>880.108</ele>
        <time>2011-07-05T13:13:30Z</time>
      </trkpt>
      <trkpt lat="62.700887" lon="12.309017">
        <ele>879.818</ele>
        <time>2011-07-05T13:13:36Z</time>
      </trkpt>
      <trkpt lat="62.700952" lon="12.308976">
        <ele>879.912</ele>
        <time>2011-07-05T13:14:15Z</time>
      </trkpt>
      <trkpt lat="62.700971" lon="12.308948">
        <ele>879.74</ele>
        <time>2011-07-05T13:14:17Z</time>
      </trkpt>
      <trkpt lat="62.701029" lon="12.308824">
        <ele>878.418</ele>
        <time>2011-07-05T13:14:24Z</time>
      </trkpt>
      <trkpt lat="62.701122" lon="12.308735">
        <ele>877.846</ele>
        <time>2011-07-05T13:14:33Z</time>
      </trkpt>
      <trkpt lat="62.701218" lon="12.308675">
        <ele>876.729</ele>
        <time>2011-07-05T13:14:41Z</time>
      </trkpt>
      <trkpt lat="62.701301" lon="12.308587">
        <ele>876.248</ele>
        <time>2011-07-05T13:14:48Z</time>
      </trkpt>
      <trkpt lat="62.701377" lon="12.308474">
        <ele>876.064</ele>
        <time>2011-07-05T13:14:55Z</time>
      </trkpt>
      <trkpt lat="62.701451" lon="12.308357">
        <ele>875.698</ele>
        <time>2011-07-05T13:15:02Z</time>
      </trkpt>
      <trkpt lat="62.701511" lon="12.308254">
        <ele>875.318</ele>
        <time>2011-07-05T13:15:08Z</time>
      </trkpt>
      <trkpt lat="62.701579" lon="12.308156">
        <ele>874.728</ele>
        <time>2011-07-05T13:15:14Z</time>
      </trkpt>
      <trkpt lat="62.701692" lon="12.308011">
        <ele>874.124</ele>
        <time>2011-07-05T13:15:20Z</time>
      </trkpt>
      <trkpt lat="62.701711" lon="12.307994">
        <ele>874.064</ele>
        <time>2011-07-05T13:15:21Z</time>
      </trkpt>
      <trkpt lat="62.701792" lon="12.307775">
        <ele>874.253</ele>
        <time>2011-07-05T13:15:26Z</time>
      </trkpt>
      <trkpt lat="62.701832" lon="12.307606">
        <ele>875.173</ele>
        <time>2011-07-05T13:15:30Z</time>
      </trkpt>
      <trkpt lat="62.701873" lon="12.307444">
        <ele>876.13</ele>
        <time>2011-07-05T13:15:35Z</time>
      </trkpt>
      <trkpt lat="62.701917" lon="12.307396">
        <ele>876.481</ele>
        <time>2011-07-05T13:15:39Z</time>
      </trkpt>
      <trkpt lat="62.701951" lon="12.307355">
        <ele>876.764</ele>
        <time>2011-07-05T13:15:42Z</time>
      </trkpt>
      <trkpt lat="62.702039" lon="12.307212">
        <ele>876.924</ele>
        <time>2011-07-05T13:15:51Z</time>
      </trkpt>
      <trkpt lat="62.702079" lon="12.307095">
        <ele>877.166</ele>
        <time>2011-07-05T13:15:58Z</time>
      </trkpt>
      <trkpt lat="62.702103" lon="12.307051">
        <ele>877.526</ele>
        <time>2011-07-05T13:16:02Z</time>
      </trkpt>
      <trkpt lat="62.702166" lon="12.307017">
        <ele>877.808</ele>
        <time>2011-07-05T13:16:22Z</time>
      </trkpt>
      <trkpt lat="62.702163" lon="12.306924">
        <ele>878.475</ele>
        <time>2011-07-05T13:17:01Z</time>
      </trkpt>
      <trkpt lat="62.702279" lon="12.307008">
        <ele>877.534</ele>
        <time>2011-07-05T13:17:15Z</time>
      </trkpt>
      <trkpt lat="62.702364" lon="12.30706">
        <ele>875.808</ele>
        <time>2011-07-05T13:17:24Z</time>
      </trkpt>
      <trkpt lat="62.702399" lon="12.307121">
        <ele>874.405</ele>
        <time>2011-07-05T13:17:30Z</time>
      </trkpt>
      <trkpt lat="62.702425" lon="12.307132">
        <ele>873.428</ele>
        <time>2011-07-05T13:17:40Z</time>
      </trkpt>
      <trkpt lat="62.702461" lon="12.307167">
        <ele>872.803</ele>
        <time>2011-07-05T13:17:46Z</time>
      </trkpt>
      <trkpt lat="62.702538" lon="12.307255">
        <ele>872.035</ele>
        <time>2011-07-05T13:17:51Z</time>
      </trkpt>
      <trkpt lat="62.702634" lon="12.307344">
        <ele>870.555</ele>
        <time>2011-07-05T13:17:57Z</time>
      </trkpt>
      <trkpt lat="62.702796" lon="12.307506">
        <ele>868.738</ele>
        <time>2011-07-05T13:18:04Z</time>
      </trkpt>
      <trkpt lat="62.702927" lon="12.307632">
        <ele>867.812</ele>
        <time>2011-07-05T13:18:10Z</time>
      </trkpt>
      <trkpt lat="62.702994" lon="12.307694">
        <ele>866.492</ele>
        <time>2011-07-05T13:18:13Z</time>
      </trkpt>
      <trkpt lat="62.703134" lon="12.307872">
        <ele>863.795</ele>
        <time>2011-07-05T13:18:19Z</time>
      </trkpt>
      <trkpt lat="62.703154" lon="12.307897">
        <ele>863.698</ele>
        <time>2011-07-05T13:18:20Z</time>
      </trkpt>
      <trkpt lat="62.703305" lon="12.307976">
        <ele>862.669</ele>
        <time>2011-07-05T13:18:26Z</time>
      </trkpt>
      <trkpt lat="62.703392" lon="12.308046">
        <ele>861.473</ele>
        <time>2011-07-05T13:18:31Z</time>
      </trkpt>
      <trkpt lat="62.703417" lon="12.308073">
        <ele>860.821</ele>
        <time>2011-07-05T13:18:33Z</time>
      </trkpt>
      <trkpt lat="62.703434" lon="12.308132">
        <ele>859.788</ele>
        <time>2011-07-05T13:18:35Z</time>
      </trkpt>
      <trkpt lat="62.703525" lon="12.308174">
        <ele>858.589</ele>
        <time>2011-07-05T13:18:40Z</time>
      </trkpt>
      <trkpt lat="62.703595" lon="12.308182">
        <ele>858.256</ele>
        <time>2011-07-05T13:18:43Z</time>
      </trkpt>
      <trkpt lat="62.703752" lon="12.308364">
        <ele>855.822</ele>
        <time>2011-07-05T13:18:50Z</time>
      </trkpt>
      <trkpt lat="62.703842" lon="12.308525">
        <ele>854.712</ele>
        <time>2011-07-05T13:18:55Z</time>
      </trkpt>
      <trkpt lat="62.703974" lon="12.308669">
        <ele>852.24</ele>
        <time>2011-07-05T13:19:01Z</time>
      </trkpt>
      <trkpt lat="62.704091" lon="12.308741">
        <ele>850.883</ele>
        <time>2011-07-05T13:19:06Z</time>
      </trkpt>
      <trkpt lat="62.704159" lon="12.308778">
        <ele>849.666</ele>
        <time>2011-07-05T13:19:11Z</time>
      </trkpt>
      <trkpt lat="62.704238" lon="12.308842">
        <ele>848.055</ele>
        <time>2011-07-05T13:19:19Z</time>
      </trkpt>
      <trkpt lat="62.704259" lon="12.308852">
        <ele>847.466</ele>
        <time>2011-07-05T13:19:21Z</time>
      </trkpt>
      <trkpt lat="62.704364" lon="12.308872">
        <ele>845.44</ele>
        <time>2011-07-05T13:19:27Z</time>
      </trkpt>
      <trkpt lat="62.704409" lon="12.30886">
        <ele>844.553</ele>
        <time>2011-07-05T13:19:29Z</time>
      </trkpt>
      <trkpt lat="62.704459" lon="12.308836">
        <ele>843.39</ele>
        <time>2011-07-05T13:19:32Z</time>
      </trkpt>
      <trkpt lat="62.704585" lon="12.308948">
        <ele>841.957</ele>
        <time>2011-07-05T13:19:38Z</time>
      </trkpt>
      <trkpt lat="62.704663" lon="12.308973">
        <ele>840.225</ele>
        <time>2011-07-05T13:19:44Z</time>
      </trkpt>
      <trkpt lat="62.704786" lon="12.308996">
        <ele>837.923</ele>
        <time>2011-07-05T13:19:53Z</time>
      </trkpt>
      <trkpt lat="62.704867" lon="12.308967">
        <ele>836.762</ele>
        <time>2011-07-05T13:20:00Z</time>
      </trkpt>
      <trkpt lat="62.7049" lon="12.308951">
        <ele>836.451</ele>
        <time>2011-07-05T13:20:02Z</time>
      </trkpt>
      <trkpt lat="62.704965" lon="12.308961">
        <ele>834.679</ele>
        <time>2011-07-05T13:20:08Z</time>
      </trkpt>
      <trkpt lat="62.705023" lon="12.308851">
        <ele>833.777</ele>
        <time>2011-07-05T13:20:13Z</time>
      </trkpt>
      <trkpt lat="62.705037" lon="12.308805">
        <ele>833.668</ele>
        <time>2011-07-05T13:20:14Z</time>
      </trkpt>
      <trkpt lat="62.70512" lon="12.308723">
        <ele>833.012</ele>
        <time>2011-07-05T13:20:21Z</time>
      </trkpt>
      <trkpt lat="62.705143" lon="12.308723">
        <ele>832.55</ele>
        <time>2011-07-05T13:20:23Z</time>
      </trkpt>
      <trkpt lat="62.70521" lon="12.308763">
        <ele>831.748</ele>
        <time>2011-07-05T13:20:27Z</time>
      </trkpt>
      <trkpt lat="62.705289" lon="12.308758">
        <ele>830.398</ele>
        <time>2011-07-05T13:20:34Z</time>
      </trkpt>
      <trkpt lat="62.705304" lon="12.30876">
        <ele>830.091</ele>
        <time>2011-07-05T13:20:36Z</time>
      </trkpt>
      <trkpt lat="62.705345" lon="12.308736">
        <ele>829.182</ele>
        <time>2011-07-05T13:20:40Z</time>
      </trkpt>
      <trkpt lat="62.705377" lon="12.308655">
        <ele>828.793</ele>
        <time>2011-07-05T13:20:44Z</time>
      </trkpt>
      <trkpt lat="62.705471" lon="12.308596">
        <ele>827.155</ele>
        <time>2011-07-05T13:20:49Z</time>
      </trkpt>
      <trkpt lat="62.705546" lon="12.308465">
        <ele>826.366</ele>
        <time>2011-07-05T13:20:53Z</time>
      </trkpt>
      <trkpt lat="62.705625" lon="12.308391">
        <ele>825.718</ele>
        <time>2011-07-05T13:20:58Z</time>
      </trkpt>
      <trkpt lat="62.705686" lon="12.308374">
        <ele>825.367</ele>
        <time>2011-07-05T13:21:04Z</time>
      </trkpt>
      <trkpt lat="62.705715" lon="12.30837">
        <ele>825.243</ele>
        <time>2011-07-05T13:21:07Z</time>
      </trkpt>
      <trkpt lat="62.705781" lon="12.308354">
        <ele>824.578</ele>
        <time>2011-07-05T13:21:14Z</time>
      </trkpt>
      <trkpt lat="62.705836" lon="12.30827">
        <ele>823.999</ele>
        <time>2011-07-05T13:21:22Z</time>
      </trkpt>
      <trkpt lat="62.705937" lon="12.308185">
        <ele>823.679</ele>
        <time>2011-07-05T13:21:29Z</time>
      </trkpt>
      <trkpt lat="62.706039" lon="12.308147">
        <ele>822.997</ele>
        <time>2011-07-05T13:21:36Z</time>
      </trkpt>
      <trkpt lat="62.706135" lon="12.308081">
        <ele>822.405</ele>
        <time>2011-07-05T13:21:45Z</time>
      </trkpt>
      <trkpt lat="62.706231" lon="12.307941">
        <ele>821.675</ele>
        <time>2011-07-05T13:21:53Z</time>
      </trkpt>
      <trkpt lat="62.70631" lon="12.307741">
        <ele>821.803</ele>
        <time>2011-07-05T13:21:58Z</time>
      </trkpt>
      <trkpt lat="62.706345" lon="12.30758">
        <ele>821.621</ele>
        <time>2011-07-05T13:22:03Z</time>
      </trkpt>
      <trkpt lat="62.706344" lon="12.307494">
        <ele>821.359</ele>
        <time>2011-07-05T13:22:05Z</time>
      </trkpt>
      <trkpt lat="62.706382" lon="12.307374">
        <ele>821.283</ele>
        <time>2011-07-05T13:22:10Z</time>
      </trkpt>
      <trkpt lat="62.706392" lon="12.307337">
        <ele>821.405</ele>
        <time>2011-07-05T13:22:11Z</time>
      </trkpt>
      <trkpt lat="62.706482" lon="12.307105">
        <ele>821.339</ele>
        <time>2011-07-05T13:22:16Z</time>
      </trkpt>
      <trkpt lat="62.70652" lon="12.306943">
        <ele>821.194</ele>
        <time>2011-07-05T13:22:19Z</time>
      </trkpt>
      <trkpt lat="62.706575" lon="12.306714">
        <ele>821.259</ele>
        <time>2011-07-05T13:22:25Z</time>
      </trkpt>
      <trkpt lat="62.706626" lon="12.306604">
        <ele>821.111</ele>
        <time>2011-07-05T13:22:30Z</time>
      </trkpt>
      <trkpt lat="62.706646" lon="12.306571">
        <ele>820.881</ele>
        <time>2011-07-05T13:22:32Z</time>
      </trkpt>
      <trkpt lat="62.706687" lon="12.306505">
        <ele>821.079</ele>
        <time>2011-07-05T13:22:36Z</time>
      </trkpt>
      <trkpt lat="62.706799" lon="12.306412">
        <ele>820.643</ele>
        <time>2011-07-05T13:22:46Z</time>
      </trkpt>
      <trkpt lat="62.706872" lon="12.306295">
        <ele>819.88</ele>
        <time>2011-07-05T13:22:54Z</time>
      </trkpt>
      <trkpt lat="62.706958" lon="12.306188">
        <ele>820.033</ele>
        <time>2011-07-05T13:23:02Z</time>
      </trkpt>
      <trkpt lat="62.707059" lon="12.306021">
        <ele>819.961</ele>
        <time>2011-07-05T13:23:10Z</time>
      </trkpt>
      <trkpt lat="62.70711" lon="12.305933">
        <ele>820.031</ele>
        <time>2011-07-05T13:23:12Z</time>
      </trkpt>
      <trkpt lat="62.70717" lon="12.305763">
        <ele>819.547</ele>
        <time>2011-07-05T13:23:16Z</time>
      </trkpt>
      <trkpt lat="62.707243" lon="12.305524">
        <ele>819.383</ele>
        <time>2011-07-05T13:23:22Z</time>
      </trkpt>
      <trkpt lat="62.707304" lon="12.305322">
        <ele>819.211</ele>
        <time>2011-07-05T13:23:31Z</time>
      </trkpt>
      <trkpt lat="62.707367" lon="12.305154">
        <ele>818.808</ele>
        <time>2011-07-05T13:23:38Z</time>
      </trkpt>
      <trkpt lat="62.707431" lon="12.304872">
        <ele>817.939</ele>
        <time>2011-07-05T13:23:43Z</time>
      </trkpt>
      <trkpt lat="62.707477" lon="12.304666">
        <ele>817.424</ele>
        <time>2011-07-05T13:23:47Z</time>
      </trkpt>
      <trkpt lat="62.707515" lon="12.304561">
        <ele>817.38</ele>
        <time>2011-07-05T13:23:49Z</time>
      </trkpt>
      <trkpt lat="62.707582" lon="12.304413">
        <ele>817.561</ele>
        <time>2011-07-05T13:23:53Z</time>
      </trkpt>
      <trkpt lat="62.707695" lon="12.304068">
        <ele>816.847</ele>
        <time>2011-07-05T13:24:01Z</time>
      </trkpt>
      <trkpt lat="62.707759" lon="12.303812">
        <ele>816.682</ele>
        <time>2011-07-05T13:24:06Z</time>
      </trkpt>
      <trkpt lat="62.707834" lon="12.303635">
        <ele>816.277</ele>
        <time>2011-07-05T13:24:11Z</time>
      </trkpt>
      <trkpt lat="62.707868" lon="12.303567">
        <ele>816.532</ele>
        <time>2011-07-05T13:24:15Z</time>
      </trkpt>
      <trkpt lat="62.707918" lon="12.303401">
        <ele>815.822</ele>
        <time>2011-07-05T13:24:22Z</time>
      </trkpt>
      <trkpt lat="62.707999" lon="12.303243">
        <ele>815.277</ele>
        <time>2011-07-05T13:24:27Z</time>
      </trkpt>
      <trkpt lat="62.708053" lon="12.303159">
        <ele>814.667</ele>
        <time>2011-07-05T13:24:33Z</time>
      </trkpt>
      <trkpt lat="62.708055" lon="12.303149">
        <ele>814.612</ele>
        <time>2011-07-05T13:24:34Z</time>
      </trkpt>
      <trkpt lat="62.708065" lon="12.302977">
        <ele>814.255</ele>
        <time>2011-07-05T13:24:40Z</time>
      </trkpt>
      <trkpt lat="62.708092" lon="12.302859">
        <ele>814.959</ele>
        <time>2011-07-05T13:24:45Z</time>
      </trkpt>
      <trkpt lat="62.708128" lon="12.302743">
        <ele>814.536</ele>
        <time>2011-07-05T13:24:52Z</time>
      </trkpt>
      <trkpt lat="62.708193" lon="12.302543">
        <ele>814.005</ele>
        <time>2011-07-05T13:25:16Z</time>
      </trkpt>
      <trkpt lat="62.708208" lon="12.302347">
        <ele>814.454</ele>
        <time>2011-07-05T13:25:21Z</time>
      </trkpt>
      <trkpt lat="62.708221" lon="12.302156">
        <ele>815.347</ele>
        <time>2011-07-05T13:25:26Z</time>
      </trkpt>
      <trkpt lat="62.708222" lon="12.302129">
        <ele>815.512</ele>
        <time>2011-07-05T13:25:27Z</time>
      </trkpt>
      <trkpt lat="62.708226" lon="12.30203">
        <ele>816.06</ele>
        <time>2011-07-05T13:25:33Z</time>
      </trkpt>
      <trkpt lat="62.7082" lon="12.301842">
        <ele>816.631</ele>
        <time>2011-07-05T13:25:43Z</time>
      </trkpt>
      <trkpt lat="62.708181" lon="12.301693">
        <ele>818.177</ele>
        <time>2011-07-05T13:25:47Z</time>
      </trkpt>
      <trkpt lat="62.708199" lon="12.301313">
        <ele>819.186</ele>
        <time>2011-07-05T13:25:54Z</time>
      </trkpt>
      <trkpt lat="62.708247" lon="12.300937">
        <ele>820.655</ele>
        <time>2011-07-05T13:26:01Z</time>
      </trkpt>
      <trkpt lat="62.708265" lon="12.300707">
        <ele>820.954</ele>
        <time>2011-07-05T13:26:05Z</time>
      </trkpt>
      <trkpt lat="62.708274" lon="12.30044">
        <ele>821.899</ele>
        <time>2011-07-05T13:26:11Z</time>
      </trkpt>
      <trkpt lat="62.70828" lon="12.300263">
        <ele>822.301</ele>
        <time>2011-07-05T13:26:18Z</time>
      </trkpt>
      <trkpt lat="62.70829" lon="12.300105">
        <ele>822.907</ele>
        <time>2011-07-05T13:26:25Z</time>
      </trkpt>
      <trkpt lat="62.708298" lon="12.2999">
        <ele>823.313</ele>
        <time>2011-07-05T13:26:33Z</time>
      </trkpt>
      <trkpt lat="62.708295" lon="12.299727">
        <ele>824.119</ele>
        <time>2011-07-05T13:26:39Z</time>
      </trkpt>
      <trkpt lat="62.708335" lon="12.299504">
        <ele>825.84</ele>
        <time>2011-07-05T13:26:49Z</time>
      </trkpt>
      <trkpt lat="62.708349" lon="12.299481">
        <ele>826.353</ele>
        <time>2011-07-05T13:26:52Z</time>
      </trkpt>
      <trkpt lat="62.708415" lon="12.299434">
        <ele>826.838</ele>
        <time>2011-07-05T13:26:58Z</time>
      </trkpt>
      <trkpt lat="62.708477" lon="12.299325">
        <ele>826.043</ele>
        <time>2011-07-05T13:27:06Z</time>
      </trkpt>
      <trkpt lat="62.7085" lon="12.299302">
        <ele>826.191</ele>
        <time>2011-07-05T13:27:10Z</time>
      </trkpt>
      <trkpt lat="62.708564" lon="12.299229">
        <ele>825.834</ele>
        <time>2011-07-05T13:27:17Z</time>
      </trkpt>
      <trkpt lat="62.708571" lon="12.299149">
        <ele>825.632</ele>
        <time>2011-07-05T13:27:23Z</time>
      </trkpt>
      <trkpt lat="62.708588" lon="12.29909">
        <ele>825.381</ele>
        <time>2011-07-05T13:27:27Z</time>
      </trkpt>
      <trkpt lat="62.708594" lon="12.298994">
        <ele>825.112</ele>
        <time>2011-07-05T13:27:33Z</time>
      </trkpt>
      <trkpt lat="62.708619" lon="12.29881">
        <ele>825.05</ele>
        <time>2011-07-05T13:27:41Z</time>
      </trkpt>
      <trkpt lat="62.708642" lon="12.298633">
        <ele>825.108</ele>
        <time>2011-07-05T13:27:48Z</time>
      </trkpt>
      <trkpt lat="62.708645" lon="12.29843">
        <ele>825.248</ele>
        <time>2011-07-05T13:27:53Z</time>
      </trkpt>
      <trkpt lat="62.708639" lon="12.298237">
        <ele>825.997</ele>
        <time>2011-07-05T13:28:01Z</time>
      </trkpt>
      <trkpt lat="62.708642" lon="12.298213">
        <ele>826.1</ele>
        <time>2011-07-05T13:28:02Z</time>
      </trkpt>
      <trkpt lat="62.708638" lon="12.298021">
        <ele>826.39</ele>
        <time>2011-07-05T13:28:09Z</time>
      </trkpt>
      <trkpt lat="62.70869" lon="12.297956">
        <ele>826.323</ele>
        <time>2011-07-05T13:28:14Z</time>
      </trkpt>
      <trkpt lat="62.708733" lon="12.297839">
        <ele>825.734</ele>
        <time>2011-07-05T13:28:20Z</time>
      </trkpt>
      <trkpt lat="62.708741" lon="12.297768">
        <ele>825.779</ele>
        <time>2011-07-05T13:28:23Z</time>
      </trkpt>
      <trkpt lat="62.708749" lon="12.297582">
        <ele>825.407</ele>
        <time>2011-07-05T13:28:30Z</time>
      </trkpt>
      <trkpt lat="62.708748" lon="12.297541">
        <ele>825.437</ele>
        <time>2011-07-05T13:28:31Z</time>
      </trkpt>
      <trkpt lat="62.708772" lon="12.297421">
        <ele>825.724</ele>
        <time>2011-07-05T13:28:35Z</time>
      </trkpt>
      <trkpt lat="62.708757" lon="12.29722">
        <ele>826.377</ele>
        <time>2011-07-05T13:28:41Z</time>
      </trkpt>
      <trkpt lat="62.708716" lon="12.297008">
        <ele>827.347</ele>
        <time>2011-07-05T13:28:46Z</time>
      </trkpt>
      <trkpt lat="62.708639" lon="12.296835">
        <ele>829.073</ele>
        <time>2011-07-05T13:28:52Z</time>
      </trkpt>
      <trkpt lat="62.708566" lon="12.296712">
        <ele>830.556</ele>
        <time>2011-07-05T13:28:58Z</time>
      </trkpt>
      <trkpt lat="62.708531" lon="12.296598">
        <ele>831.935</ele>
        <time>2011-07-05T13:29:03Z</time>
      </trkpt>
      <trkpt lat="62.708465" lon="12.296522">
        <ele>833.008</ele>
        <time>2011-07-05T13:29:10Z</time>
      </trkpt>
      <trkpt lat="62.708436" lon="12.29642">
        <ele>834.758</ele>
        <time>2011-07-05T13:29:16Z</time>
      </trkpt>
      <trkpt lat="62.708421" lon="12.296366">
        <ele>835.204</ele>
        <time>2011-07-05T13:29:19Z</time>
      </trkpt>
      <trkpt lat="62.708411" lon="12.296227">
        <ele>835.681</ele>
        <time>2011-07-05T13:29:24Z</time>
      </trkpt>
      <trkpt lat="62.708409" lon="12.296198">
        <ele>835.773</ele>
        <time>2011-07-05T13:29:25Z</time>
      </trkpt>
      <trkpt lat="62.708379" lon="12.296018">
        <ele>836.537</ele>
        <time>2011-07-05T13:29:33Z</time>
      </trkpt>
      <trkpt lat="62.708377" lon="12.295995">
        <ele>836.753</ele>
        <time>2011-07-05T13:29:34Z</time>
      </trkpt>
      <trkpt lat="62.708375" lon="12.295864">
        <ele>837.266</ele>
        <time>2011-07-05T13:29:39Z</time>
      </trkpt>
      <trkpt lat="62.70837" lon="12.295646">
        <ele>838.294</ele>
        <time>2011-07-05T13:29:47Z</time>
      </trkpt>
      <trkpt lat="62.708353" lon="12.295511">
        <ele>839.087</ele>
        <time>2011-07-05T13:29:53Z</time>
      </trkpt>
      <trkpt lat="62.708326" lon="12.295409">
        <ele>839.957</ele>
        <time>2011-07-05T13:29:58Z</time>
      </trkpt>
      <trkpt lat="62.70832" lon="12.295362">
        <ele>840.018</ele>
        <time>2011-07-05T13:30:00Z</time>
      </trkpt>
      <trkpt lat="62.70832" lon="12.295185">
        <ele>840.984</ele>
        <time>2011-07-05T13:30:07Z</time>
      </trkpt>
      <trkpt lat="62.708316" lon="12.295079">
        <ele>842.654</ele>
        <time>2011-07-05T13:30:13Z</time>
      </trkpt>
      <trkpt lat="62.708331" lon="12.294949">
        <ele>843.541</ele>
        <time>2011-07-05T13:30:19Z</time>
      </trkpt>
      <trkpt lat="62.708331" lon="12.294881">
        <ele>843.758</ele>
        <time>2011-07-05T13:30:21Z</time>
      </trkpt>
      <trkpt lat="62.708334" lon="12.294711">
        <ele>844.268</ele>
        <time>2011-07-05T13:30:28Z</time>
      </trkpt>
      <trkpt lat="62.708335" lon="12.29469">
        <ele>844.392</ele>
        <time>2011-07-05T13:30:29Z</time>
      </trkpt>
      <trkpt lat="62.708338" lon="12.294596">
        <ele>844.986</ele>
        <time>2011-07-05T13:30:33Z</time>
      </trkpt>
      <trkpt lat="62.708353" lon="12.294467">
        <ele>845.644</ele>
        <time>2011-07-05T13:30:38Z</time>
      </trkpt>
      <trkpt lat="62.708382" lon="12.294289">
        <ele>846.273</ele>
        <time>2011-07-05T13:30:46Z</time>
      </trkpt>
      <trkpt lat="62.708393" lon="12.294123">
        <ele>846.821</ele>
        <time>2011-07-05T13:30:52Z</time>
      </trkpt>
      <trkpt lat="62.708425" lon="12.293855">
        <ele>847.844</ele>
        <time>2011-07-05T13:31:01Z</time>
      </trkpt>
      <trkpt lat="62.708439" lon="12.29374">
        <ele>848.244</ele>
        <time>2011-07-05T13:31:05Z</time>
      </trkpt>
      <trkpt lat="62.70846" lon="12.293679">
        <ele>848.361</ele>
        <time>2011-07-05T13:31:08Z</time>
      </trkpt>
      <trkpt lat="62.708528" lon="12.293622">
        <ele>847.025</ele>
        <time>2011-07-05T13:31:15Z</time>
      </trkpt>
      <trkpt lat="62.708578" lon="12.293615">
        <ele>846.734</ele>
        <time>2011-07-05T13:31:18Z</time>
      </trkpt>
      <trkpt lat="62.708634" lon="12.293449">
        <ele>846.741</ele>
        <time>2011-07-05T13:31:26Z</time>
      </trkpt>
      <trkpt lat="62.70864" lon="12.293444">
        <ele>846.816</ele>
        <time>2011-07-05T13:31:27Z</time>
      </trkpt>
      <trkpt lat="62.708699" lon="12.293431">
        <ele>846.577</ele>
        <time>2011-07-05T13:31:32Z</time>
      </trkpt>
      <trkpt lat="62.708804" lon="12.293523">
        <ele>848.072</ele>
        <time>2011-07-05T13:31:40Z</time>
      </trkpt>
      <trkpt lat="62.708878" lon="12.293655">
        <ele>848.488</ele>
        <time>2011-07-05T13:31:47Z</time>
      </trkpt>
      <trkpt lat="62.708948" lon="12.293743">
        <ele>848.325</ele>
        <time>2011-07-05T13:31:53Z</time>
      </trkpt>
      <trkpt lat="62.708976" lon="12.293837">
        <ele>847.986</ele>
        <time>2011-07-05T13:31:59Z</time>
      </trkpt>
      <trkpt lat="62.708989" lon="12.293874">
        <ele>847.745</ele>
        <time>2011-07-05T13:32:05Z</time>
      </trkpt>
      <trkpt lat="62.709003" lon="12.294163">
        <ele>844.988</ele>
        <time>2011-07-05T13:32:11Z</time>
      </trkpt>
      <trkpt lat="62.70902" lon="12.294272">
        <ele>844.056</ele>
        <time>2011-07-05T13:32:13Z</time>
      </trkpt>
      <trkpt lat="62.709045" lon="12.294406">
        <ele>842.299</ele>
        <time>2011-07-05T13:32:18Z</time>
      </trkpt>
      <trkpt lat="62.709103" lon="12.294555">
        <ele>840.943</ele>
        <time>2011-07-05T13:32:22Z</time>
      </trkpt>
      <trkpt lat="62.709144" lon="12.294633">
        <ele>840.017</ele>
        <time>2011-07-05T13:32:24Z</time>
      </trkpt>
      <trkpt lat="62.709259" lon="12.294866">
        <ele>837.107</ele>
        <time>2011-07-05T13:32:30Z</time>
      </trkpt>
      <trkpt lat="62.709344" lon="12.29508">
        <ele>834.51</ele>
        <time>2011-07-05T13:32:35Z</time>
      </trkpt>
      <trkpt lat="62.709389" lon="12.295365">
        <ele>832.791</ele>
        <time>2011-07-05T13:32:41Z</time>
      </trkpt>
      <trkpt lat="62.7094" lon="12.29546">
        <ele>831.723</ele>
        <time>2011-07-05T13:32:43Z</time>
      </trkpt>
      <trkpt lat="62.709418" lon="12.295613">
        <ele>829.822</ele>
        <time>2011-07-05T13:32:47Z</time>
      </trkpt>
      <trkpt lat="62.709446" lon="12.295838">
        <ele>827.784</ele>
        <time>2011-07-05T13:32:52Z</time>
      </trkpt>
      <trkpt lat="62.709505" lon="12.296072">
        <ele>825.922</ele>
        <time>2011-07-05T13:32:57Z</time>
      </trkpt>
      <trkpt lat="62.709617" lon="12.296212">
        <ele>824.176</ele>
        <time>2011-07-05T13:33:02Z</time>
      </trkpt>
      <trkpt lat="62.709735" lon="12.296388">
        <ele>823.315</ele>
        <time>2011-07-05T13:33:08Z</time>
      </trkpt>
      <trkpt lat="62.709767" lon="12.29645">
        <ele>823.288</ele>
        <time>2011-07-05T13:33:10Z</time>
      </trkpt>
      <trkpt lat="62.709853" lon="12.296662">
        <ele>823.091</ele>
        <time>2011-07-05T13:33:15Z</time>
      </trkpt>
      <trkpt lat="62.709937" lon="12.296629">
        <ele>823.779</ele>
        <time>2011-07-05T13:33:19Z</time>
      </trkpt>
      <trkpt lat="62.70997" lon="12.296605">
        <ele>824.118</ele>
        <time>2011-07-05T13:33:20Z</time>
      </trkpt>
      <trkpt lat="62.710109" lon="12.296547">
        <ele>824.697</ele>
        <time>2011-07-05T13:33:26Z</time>
      </trkpt>
      <trkpt lat="62.710311" lon="12.296679">
        <ele>823.562</ele>
        <time>2011-07-05T13:33:33Z</time>
      </trkpt>
      <trkpt lat="62.71041" lon="12.296793">
        <ele>822.686</ele>
        <time>2011-07-05T13:33:39Z</time>
      </trkpt>
      <trkpt lat="62.710496" lon="12.296902">
        <ele>821.143</ele>
        <time>2011-07-05T13:33:44Z</time>
      </trkpt>
      <trkpt lat="62.710539" lon="12.296974">
        <ele>820.332</ele>
        <time>2011-07-05T13:33:47Z</time>
      </trkpt>
      <trkpt lat="62.710649" lon="12.297094">
        <ele>818.613</ele>
        <time>2011-07-05T13:33:53Z</time>
      </trkpt>
      <trkpt lat="62.710682" lon="12.297143">
        <ele>818.148</ele>
        <time>2011-07-05T13:33:55Z</time>
      </trkpt>
      <trkpt lat="62.710828" lon="12.297278">
        <ele>815.803</ele>
        <time>2011-07-05T13:34:01Z</time>
      </trkpt>
      <trkpt lat="62.710857" lon="12.297301">
        <ele>815.343</ele>
        <time>2011-07-05T13:34:02Z</time>
      </trkpt>
      <trkpt lat="62.711057" lon="12.297402">
        <ele>813.062</ele>
        <time>2011-07-05T13:34:09Z</time>
      </trkpt>
      <trkpt lat="62.711218" lon="12.297467">
        <ele>810.678</ele>
        <time>2011-07-05T13:34:15Z</time>
      </trkpt>
      <trkpt lat="62.711286" lon="12.297481">
        <ele>809.902</ele>
        <time>2011-07-05T13:34:17Z</time>
      </trkpt>
      <trkpt lat="62.711464" lon="12.297526">
        <ele>809.02</ele>
        <time>2011-07-05T13:34:23Z</time>
      </trkpt>
      <trkpt lat="62.711656" lon="12.297601">
        <ele>808.296</ele>
        <time>2011-07-05T13:34:29Z</time>
      </trkpt>
      <trkpt lat="62.711776" lon="12.297596">
        <ele>808.069</ele>
        <time>2011-07-05T13:34:34Z</time>
      </trkpt>
      <trkpt lat="62.7119" lon="12.297616">
        <ele>807.41</ele>
        <time>2011-07-05T13:34:39Z</time>
      </trkpt>
      <trkpt lat="62.711924" lon="12.297631">
        <ele>807.289</ele>
        <time>2011-07-05T13:34:40Z</time>
      </trkpt>
      <trkpt lat="62.712083" lon="12.297722">
        <ele>807.294</ele>
        <time>2011-07-05T13:34:46Z</time>
      </trkpt>
      <trkpt lat="62.712235" lon="12.297777">
        <ele>806.886</ele>
        <time>2011-07-05T13:34:51Z</time>
      </trkpt>
      <trkpt lat="62.712423" lon="12.297912">
        <ele>804.99</ele>
        <time>2011-07-05T13:34:57Z</time>
      </trkpt>
      <trkpt lat="62.712555" lon="12.298056">
        <ele>804.507</ele>
        <time>2011-07-05T13:35:02Z</time>
      </trkpt>
      <trkpt lat="62.712647" lon="12.298204">
        <ele>803.776</ele>
        <time>2011-07-05T13:35:07Z</time>
      </trkpt>
      <trkpt lat="62.712662" lon="12.298227">
        <ele>803.36</ele>
        <time>2011-07-05T13:35:08Z</time>
      </trkpt>
      <trkpt lat="62.712829" lon="12.298377">
        <ele>800.864</ele>
        <time>2011-07-05T13:35:15Z</time>
      </trkpt>
      <trkpt lat="62.712886" lon="12.298463">
        <ele>799.95</ele>
        <time>2011-07-05T13:35:17Z</time>
      </trkpt>
      <trkpt lat="62.713086" lon="12.298652">
        <ele>799.012</ele>
        <time>2011-07-05T13:35:25Z</time>
      </trkpt>
      <trkpt lat="62.713196" lon="12.298807">
        <ele>798.805</ele>
        <time>2011-07-05T13:35:30Z</time>
      </trkpt>
      <trkpt lat="62.713287" lon="12.298933">
        <ele>797.908</ele>
        <time>2011-07-05T13:35:35Z</time>
      </trkpt>
      <trkpt lat="62.713405" lon="12.299037">
        <ele>796.609</ele>
        <time>2011-07-05T13:35:41Z</time>
      </trkpt>
      <trkpt lat="62.713435" lon="12.299083">
        <ele>795.971</ele>
        <time>2011-07-05T13:35:43Z</time>
      </trkpt>
      <trkpt lat="62.713516" lon="12.29919">
        <ele>793.387</ele>
        <time>2011-07-05T13:35:48Z</time>
      </trkpt>
      <trkpt lat="62.713554" lon="12.299216">
        <ele>792.46</ele>
        <time>2011-07-05T13:35:50Z</time>
      </trkpt>
      <trkpt lat="62.71364" lon="12.299269">
        <ele>790.404</ele>
        <time>2011-07-05T13:35:54Z</time>
      </trkpt>
      <trkpt lat="62.713741" lon="12.299356">
        <ele>787.34</ele>
        <time>2011-07-05T13:35:58Z</time>
      </trkpt>
      <trkpt lat="62.713795" lon="12.299406">
        <ele>786.062</ele>
        <time>2011-07-05T13:36:00Z</time>
      </trkpt>
      <trkpt lat="62.71395" lon="12.29962">
        <ele>783.123</ele>
        <time>2011-07-05T13:36:06Z</time>
      </trkpt>
      <trkpt lat="62.714109" lon="12.299693">
        <ele>782.128</ele>
        <time>2011-07-05T13:36:11Z</time>
      </trkpt>
      <trkpt lat="62.714283" lon="12.299711">
        <ele>781.249</ele>
        <time>2011-07-05T13:36:16Z</time>
      </trkpt>
      <trkpt lat="62.714459" lon="12.299706">
        <ele>780.395</ele>
        <time>2011-07-05T13:36:21Z</time>
      </trkpt>
      <trkpt lat="62.714629" lon="12.299653">
        <ele>779.603</ele>
        <time>2011-07-05T13:36:27Z</time>
      </trkpt>
      <trkpt lat="62.714709" lon="12.299575">
        <ele>778.103</ele>
        <time>2011-07-05T13:36:32Z</time>
      </trkpt>
      <trkpt lat="62.7148" lon="12.299583">
        <ele>777.079</ele>
        <time>2011-07-05T13:36:36Z</time>
      </trkpt>
      <trkpt lat="62.714976" lon="12.299683">
        <ele>776.351</ele>
        <time>2011-07-05T13:36:58Z</time>
      </trkpt>
      <trkpt lat="62.715066" lon="12.299734">
        <ele>774.002</ele>
        <time>2011-07-05T13:37:03Z</time>
      </trkpt>
      <trkpt lat="62.715156" lon="12.299756">
        <ele>771.294</ele>
        <time>2011-07-05T13:37:08Z</time>
      </trkpt>
      <trkpt lat="62.71526" lon="12.299832">
        <ele>767.905</ele>
        <time>2011-07-05T13:37:13Z</time>
      </trkpt>
      <trkpt lat="62.715339" lon="12.299956">
        <ele>766.062</ele>
        <time>2011-07-05T13:37:18Z</time>
      </trkpt>
      <trkpt lat="62.715383" lon="12.300048">
        <ele>764.95</ele>
        <time>2011-07-05T13:37:20Z</time>
      </trkpt>
      <trkpt lat="62.715492" lon="12.300228">
        <ele>761.062</ele>
        <time>2011-07-05T13:37:26Z</time>
      </trkpt>
      <trkpt lat="62.71562" lon="12.300454">
        <ele>758.139</ele>
        <time>2011-07-05T13:37:33Z</time>
      </trkpt>
      <trkpt lat="62.715646" lon="12.300533">
        <ele>757.347</ele>
        <time>2011-07-05T13:37:35Z</time>
      </trkpt>
      <trkpt lat="62.715737" lon="12.300663">
        <ele>755.397</ele>
        <time>2011-07-05T13:37:40Z</time>
      </trkpt>
      <trkpt lat="62.71576" lon="12.300688">
        <ele>754.848</ele>
        <time>2011-07-05T13:37:41Z</time>
      </trkpt>
      <trkpt lat="62.715856" lon="12.30084">
        <ele>752.855</ele>
        <time>2011-07-05T13:37:47Z</time>
      </trkpt>
      <trkpt lat="62.715998" lon="12.300792">
        <ele>750.159</ele>
        <time>2011-07-05T13:37:54Z</time>
      </trkpt>
      <trkpt lat="62.716062" lon="12.300699">
        <ele>747.992</ele>
        <time>2011-07-05T13:37:58Z</time>
      </trkpt>
      <trkpt lat="62.716085" lon="12.300685">
        <ele>747.787</ele>
        <time>2011-07-05T13:37:59Z</time>
      </trkpt>
      <trkpt lat="62.716178" lon="12.300585">
        <ele>745.803</ele>
        <time>2011-07-05T13:38:04Z</time>
      </trkpt>
      <trkpt lat="62.716252" lon="12.300374">
        <ele>744.166</ele>
        <time>2011-07-05T13:38:09Z</time>
      </trkpt>
      <trkpt lat="62.716329" lon="12.300165">
        <ele>742.498</ele>
        <time>2011-07-05T13:38:14Z</time>
      </trkpt>
      <trkpt lat="62.716493" lon="12.300087">
        <ele>741.36</ele>
        <time>2011-07-05T13:38:19Z</time>
      </trkpt>
      <trkpt lat="62.716543" lon="12.30006">
        <ele>740.751</ele>
        <time>2011-07-05T13:38:22Z</time>
      </trkpt>
      <trkpt lat="62.716656" lon="12.300005">
        <ele>738.944</ele>
        <time>2011-07-05T13:38:28Z</time>
      </trkpt>
      <trkpt lat="62.716722" lon="12.299982">
        <ele>737.457</ele>
        <time>2011-07-05T13:38:32Z</time>
      </trkpt>
      <trkpt lat="62.716793" lon="12.300031">
        <ele>737.33</ele>
        <time>2011-07-05T13:38:37Z</time>
      </trkpt>
      <trkpt lat="62.716716" lon="12.300216">
        <ele>738.506</ele>
        <time>2011-07-05T13:38:45Z</time>
      </trkpt>
      <trkpt lat="62.716708" lon="12.300264">
        <ele>739.218</ele>
        <time>2011-07-05T13:38:48Z</time>
      </trkpt>
      <trkpt lat="62.716709" lon="12.300322">
        <ele>739.016</ele>
        <time>2011-07-05T13:38:52Z</time>
      </trkpt>
      <trkpt lat="62.716711" lon="12.300339">
        <ele>738.689</ele>
        <time>2011-07-05T13:38:53Z</time>
      </trkpt>
      <trkpt lat="62.716714" lon="12.300474">
        <ele>737.76</ele>
        <time>2011-07-05T13:38:59Z</time>
      </trkpt>
      <trkpt lat="62.716764" lon="12.300514">
        <ele>737.068</ele>
        <time>2011-07-05T13:39:06Z</time>
      </trkpt>
      <trkpt lat="62.716812" lon="12.300514">
        <ele>736.382</ele>
        <time>2011-07-05T13:39:13Z</time>
      </trkpt>
      <trkpt lat="62.716859" lon="12.300462">
        <ele>734.822</ele>
        <time>2011-07-05T13:39:20Z</time>
      </trkpt>
      <trkpt lat="62.716946" lon="12.300504">
        <ele>733.118</ele>
        <time>2011-07-05T13:39:28Z</time>
      </trkpt>
      <trkpt lat="62.717008" lon="12.300627">
        <ele>732.66</ele>
        <time>2011-07-05T13:39:35Z</time>
      </trkpt>
      <trkpt lat="62.717022" lon="12.300631">
        <ele>732.44</ele>
        <time>2011-07-05T13:39:36Z</time>
      </trkpt>
      <trkpt lat="62.717141" lon="12.300684">
        <ele>730.137</ele>
        <time>2011-07-05T13:39:45Z</time>
      </trkpt>
      <trkpt lat="62.717172" lon="12.300689">
        <ele>729.216</ele>
        <time>2011-07-05T13:39:47Z</time>
      </trkpt>
      <trkpt lat="62.717187" lon="12.300696">
        <ele>728.51</ele>
        <time>2011-07-05T13:39:48Z</time>
      </trkpt>
      <trkpt lat="62.717233" lon="12.300648">
        <ele>726.894</ele>
        <time>2011-07-05T13:39:52Z</time>
      </trkpt>
      <trkpt lat="62.717342" lon="12.300521">
        <ele>724.36</ele>
        <time>2011-07-05T13:39:59Z</time>
      </trkpt>
      <trkpt lat="62.717377" lon="12.300516">
        <ele>723.822</ele>
        <time>2011-07-05T13:40:01Z</time>
      </trkpt>
      <trkpt lat="62.717435" lon="12.300461">
        <ele>722.906</ele>
        <time>2011-07-05T13:40:06Z</time>
      </trkpt>
      <trkpt lat="62.717474" lon="12.300454">
        <ele>723.113</ele>
        <time>2011-07-05T13:40:09Z</time>
      </trkpt>
      <trkpt lat="62.71761" lon="12.300499">
        <ele>722.513</ele>
        <time>2011-07-05T13:40:16Z</time>
      </trkpt>
      <trkpt lat="62.717715" lon="12.300481">
        <ele>721.441</ele>
        <time>2011-07-05T13:40:21Z</time>
      </trkpt>
      <trkpt lat="62.717752" lon="12.300459">
        <ele>720.883</ele>
        <time>2011-07-05T13:40:24Z</time>
      </trkpt>
      <trkpt lat="62.717881" lon="12.300451">
        <ele>718.73</ele>
        <time>2011-07-05T13:40:32Z</time>
      </trkpt>
      <trkpt lat="62.717941" lon="12.300512">
        <ele>717.108</ele>
        <time>2011-07-05T13:40:36Z</time>
      </trkpt>
      <trkpt lat="62.718078" lon="12.300597">
        <ele>713.016</ele>
        <time>2011-07-05T13:40:42Z</time>
      </trkpt>
      <trkpt lat="62.718098" lon="12.300599">
        <ele>712.218</ele>
        <time>2011-07-05T13:40:44Z</time>
      </trkpt>
      <trkpt lat="62.718193" lon="12.300669">
        <ele>709.672</ele>
        <time>2011-07-05T13:40:49Z</time>
      </trkpt>
      <trkpt lat="62.71821" lon="12.300684">
        <ele>708.994</ele>
        <time>2011-07-05T13:40:50Z</time>
      </trkpt>
      <trkpt lat="62.718267" lon="12.300686">
        <ele>705.863</ele>
        <time>2011-07-05T13:40:55Z</time>
      </trkpt>
      <trkpt lat="62.718308" lon="12.300609">
        <ele>703.098</ele>
        <time>2011-07-05T13:41:00Z</time>
      </trkpt>
      <trkpt lat="62.718331" lon="12.300603">
        <ele>702.48</ele>
        <time>2011-07-05T13:41:02Z</time>
      </trkpt>
      <trkpt lat="62.718352" lon="12.300628">
        <ele>701.553</ele>
        <time>2011-07-05T13:41:04Z</time>
      </trkpt>
      <trkpt lat="62.718511" lon="12.300738">
        <ele>698.613</ele>
        <time>2011-07-05T13:41:09Z</time>
      </trkpt>
      <trkpt lat="62.718605" lon="12.300839">
        <ele>697.107</ele>
        <time>2011-07-05T13:41:12Z</time>
      </trkpt>
      <trkpt lat="62.718759" lon="12.301053">
        <ele>694.9</ele>
        <time>2011-07-05T13:41:17Z</time>
      </trkpt>
      <trkpt lat="62.71892" lon="12.301307">
        <ele>692.905</ele>
        <time>2011-07-05T13:41:23Z</time>
      </trkpt>
      <trkpt lat="62.719042" lon="12.301564">
        <ele>692.423</ele>
        <time>2011-07-05T13:41:28Z</time>
      </trkpt>
      <trkpt lat="62.719132" lon="12.30186">
        <ele>692.394</ele>
        <time>2011-07-05T13:41:33Z</time>
      </trkpt>
      <trkpt lat="62.71921" lon="12.30222">
        <ele>692.57</ele>
        <time>2011-07-05T13:41:39Z</time>
      </trkpt>
      <trkpt lat="62.719304" lon="12.302548">
        <ele>692.285</ele>
        <time>2011-07-05T13:41:44Z</time>
      </trkpt>
      <trkpt lat="62.719359" lon="12.302862">
        <ele>692.292</ele>
        <time>2011-07-05T13:41:49Z</time>
      </trkpt>
      <trkpt lat="62.719341" lon="12.303148">
        <ele>692.615</ele>
        <time>2011-07-05T13:41:54Z</time>
      </trkpt>
      <trkpt lat="62.719307" lon="12.30346">
        <ele>692.705</ele>
        <time>2011-07-05T13:42:00Z</time>
      </trkpt>
      <trkpt lat="62.719276" lon="12.303641">
        <ele>692.953</ele>
        <time>2011-07-05T13:42:05Z</time>
      </trkpt>
      <trkpt lat="62.719249" lon="12.303883">
        <ele>693.119</ele>
        <time>2011-07-05T13:42:10Z</time>
      </trkpt>
      <trkpt lat="62.719222" lon="12.304092">
        <ele>692.629</ele>
        <time>2011-07-05T13:42:16Z</time>
      </trkpt>
      <trkpt lat="62.719177" lon="12.304309">
        <ele>692.722</ele>
        <time>2011-07-05T13:42:23Z</time>
      </trkpt>
      <trkpt lat="62.71913" lon="12.304539">
        <ele>689.061</ele>
        <time>2011-07-05T13:42:28Z</time>
      </trkpt>
      <trkpt lat="62.719103" lon="12.304828">
        <ele>693.809</ele>
        <time>2011-07-05T13:42:33Z</time>
      </trkpt>
      <trkpt lat="62.7191" lon="12.305248">
        <ele>692.16</ele>
        <time>2011-07-05T13:42:39Z</time>
      </trkpt>
      <trkpt lat="62.719112" lon="12.305951">
        <ele>691.381</ele>
        <time>2011-07-05T13:42:48Z</time>
      </trkpt>
      <trkpt lat="62.719165" lon="12.306265">
        <ele>690.637</ele>
        <time>2011-07-05T13:42:53Z</time>
      </trkpt>
      <trkpt lat="62.719228" lon="12.306595">
        <ele>689.943</ele>
        <time>2011-07-05T13:42:58Z</time>
      </trkpt>
      <trkpt lat="62.719292" lon="12.306866">
        <ele>689.408</ele>
        <time>2011-07-05T13:43:03Z</time>
      </trkpt>
      <trkpt lat="62.719375" lon="12.307216">
        <ele>688.481</ele>
        <time>2011-07-05T13:43:10Z</time>
      </trkpt>
      <trkpt lat="62.71946" lon="12.307432">
        <ele>687.012</ele>
        <time>2011-07-05T13:43:14Z</time>
      </trkpt>
      <trkpt lat="62.719596" lon="12.307695">
        <ele>685.997</ele>
        <time>2011-07-05T13:43:20Z</time>
      </trkpt>
      <trkpt lat="62.71974" lon="12.308014">
        <ele>684.32</ele>
        <time>2011-07-05T13:43:27Z</time>
      </trkpt>
      <trkpt lat="62.719853" lon="12.308326">
        <ele>683.419</ele>
        <time>2011-07-05T13:43:33Z</time>
      </trkpt>
      <trkpt lat="62.719917" lon="12.308579">
        <ele>682.676</ele>
        <time>2011-07-05T13:43:39Z</time>
      </trkpt>
      <trkpt lat="62.719937" lon="12.308699">
        <ele>683.115</ele>
        <time>2011-07-05T13:43:45Z</time>
      </trkpt>
      <trkpt lat="62.719926" lon="12.308794">
        <ele>683.097</ele>
        <time>2011-07-05T13:43:52Z</time>
      </trkpt>
      <trkpt lat="62.719901" lon="12.308966">
        <ele>684.03</ele>
        <time>2011-07-05T13:44:00Z</time>
      </trkpt>
      <trkpt lat="62.719905" lon="12.309044">
        <ele>683.888</ele>
        <time>2011-07-05T13:44:04Z</time>
      </trkpt>
      <trkpt lat="62.719984" lon="12.309138">
        <ele>683.413</ele>
        <time>2011-07-05T13:44:13Z</time>
      </trkpt>
      <trkpt lat="62.720079" lon="12.309123">
        <ele>683.197</ele>
        <time>2011-07-05T13:44:21Z</time>
      </trkpt>
      <trkpt lat="62.720179" lon="12.309087">
        <ele>682.881</ele>
        <time>2011-07-05T13:44:29Z</time>
      </trkpt>
      <trkpt lat="62.720279" lon="12.30912">
        <ele>682.634</ele>
        <time>2011-07-05T13:44:37Z</time>
      </trkpt>
      <trkpt lat="62.72037" lon="12.309199">
        <ele>682.756</ele>
        <time>2011-07-05T13:44:44Z</time>
      </trkpt>
      <trkpt lat="62.720429" lon="12.309281">
        <ele>682.921</ele>
        <time>2011-07-05T13:44:51Z</time>
      </trkpt>
      <trkpt lat="62.720474" lon="12.309295">
        <ele>682.881</ele>
        <time>2011-07-05T13:45:03Z</time>
      </trkpt>
      <trkpt lat="62.720498" lon="12.309372">
        <ele>682.743</ele>
        <time>2011-07-05T13:45:07Z</time>
      </trkpt>
      <trkpt lat="62.720573" lon="12.309558">
        <ele>683.265</ele>
        <time>2011-07-05T13:45:13Z</time>
      </trkpt>
      <trkpt lat="62.720585" lon="12.3096">
        <ele>683.469</ele>
        <time>2011-07-05T13:45:14Z</time>
      </trkpt>
      <trkpt lat="62.72067" lon="12.309832">
        <ele>684.253</ele>
        <time>2011-07-05T13:45:20Z</time>
      </trkpt>
      <trkpt lat="62.720721" lon="12.310031">
        <ele>685.714</ele>
        <time>2011-07-05T13:45:28Z</time>
      </trkpt>
      <trkpt lat="62.7208" lon="12.310224">
        <ele>685.396</ele>
        <time>2011-07-05T13:45:36Z</time>
      </trkpt>
      <trkpt lat="62.720839" lon="12.310333">
        <ele>685.736</ele>
        <time>2011-07-05T13:45:41Z</time>
      </trkpt>
      <trkpt lat="62.72086" lon="12.310538">
        <ele>687.516</ele>
        <time>2011-07-05T13:45:49Z</time>
      </trkpt>
      <trkpt lat="62.720858" lon="12.31063">
        <ele>687.169</ele>
        <time>2011-07-05T13:45:54Z</time>
      </trkpt>
      <trkpt lat="62.720864" lon="12.311019">
        <ele>684.113</ele>
        <time>2011-07-05T13:46:29Z</time>
      </trkpt>
      <trkpt lat="62.720864" lon="12.311306">
        <ele>683.429</ele>
        <time>2011-07-05T13:46:36Z</time>
      </trkpt>
      <trkpt lat="62.720862" lon="12.311317">
        <ele>683.677</ele>
        <time>2011-07-05T13:46:37Z</time>
      </trkpt>
      <trkpt lat="62.720889" lon="12.311056">
        <ele>683.289</ele>
        <time>2011-07-05T13:46:46Z</time>
      </trkpt>
      <trkpt lat="62.720891" lon="12.310986">
        <ele>683.443</ele>
        <time>2011-07-05T13:46:47Z</time>
      </trkpt>
      <trkpt lat="62.72089" lon="12.310698">
        <ele>686.398</ele>
        <time>2011-07-05T13:46:53Z</time>
      </trkpt>
      <trkpt lat="62.720793" lon="12.310327">
        <ele>685.935</ele>
        <time>2011-07-05T13:46:59Z</time>
      </trkpt>
      <trkpt lat="62.720756" lon="12.310216">
        <ele>685.162</ele>
        <time>2011-07-05T13:47:01Z</time>
      </trkpt>
      <trkpt lat="62.720658" lon="12.309915">
        <ele>685.059</ele>
        <time>2011-07-05T13:47:06Z</time>
      </trkpt>
      <trkpt lat="62.720562" lon="12.309618">
        <ele>683.362</ele>
        <time>2011-07-05T13:47:12Z</time>
      </trkpt>
      <trkpt lat="62.720494" lon="12.309334">
        <ele>682.785</ele>
        <time>2011-07-05T13:47:17Z</time>
      </trkpt>
      <trkpt lat="62.720505" lon="12.309021">
        <ele>682.164</ele>
        <time>2011-07-05T13:47:22Z</time>
      </trkpt>
      <trkpt lat="62.720463" lon="12.308732">
        <ele>682.311</ele>
        <time>2011-07-05T13:47:27Z</time>
      </trkpt>
      <trkpt lat="62.720371" lon="12.30859">
        <ele>682.367</ele>
        <time>2011-07-05T13:47:32Z</time>
      </trkpt>
      <trkpt lat="62.720255" lon="12.308507">
        <ele>681.717</ele>
        <time>2011-07-05T13:47:37Z</time>
      </trkpt>
      <trkpt lat="62.720187" lon="12.308488">
        <ele>681.918</ele>
        <time>2011-07-05T13:47:42Z</time>
      </trkpt>
      <trkpt lat="62.720184" lon="12.308478">
        <ele>681.96</ele>
        <time>2011-07-05T13:47:44Z</time>
      </trkpt>
      <trkpt lat="62.720299" lon="12.308492">
        <ele>682.047</ele>
        <time>2011-07-05T13:48:02Z</time>
      </trkpt>
      <trkpt lat="62.720399" lon="12.308554">
        <ele>682.056</ele>
        <time>2011-07-05T13:48:09Z</time>
      </trkpt>
      <trkpt lat="62.720487" lon="12.308646">
        <ele>682.372</ele>
        <time>2011-07-05T13:48:13Z</time>
      </trkpt>
      <trkpt lat="62.720541" lon="12.308545">
        <ele>682.322</ele>
        <time>2011-07-05T13:48:18Z</time>
      </trkpt>
      <trkpt lat="62.720616" lon="12.308433">
        <ele>682.005</ele>
        <time>2011-07-05T13:48:24Z</time>
      </trkpt>
      <trkpt lat="62.720632" lon="12.308196">
        <ele>681.835</ele>
        <time>2011-07-05T13:48:29Z</time>
      </trkpt>
      <trkpt lat="62.72063" lon="12.307775">
        <ele>680.961</ele>
        <time>2011-07-05T13:48:35Z</time>
      </trkpt>
      <trkpt lat="62.720655" lon="12.307432">
        <ele>680.537</ele>
        <time>2011-07-05T13:48:40Z</time>
      </trkpt>
      <trkpt lat="62.720641" lon="12.307138">
        <ele>679.637</ele>
        <time>2011-07-05T13:48:45Z</time>
      </trkpt>
      <trkpt lat="62.720665" lon="12.306952">
        <ele>679.462</ele>
        <time>2011-07-05T13:48:51Z</time>
      </trkpt>
      <trkpt lat="62.720702" lon="12.306689">
        <ele>679.253</ele>
        <time>2011-07-05T13:48:58Z</time>
      </trkpt>
      <trkpt lat="62.720719" lon="12.306406">
        <ele>679.236</ele>
        <time>2011-07-05T13:49:04Z</time>
      </trkpt>
      <trkpt lat="62.720709" lon="12.306279">
        <ele>679.805</ele>
        <time>2011-07-05T13:49:09Z</time>
      </trkpt>
      <trkpt lat="62.720681" lon="12.306059">
        <ele>681.618</ele>
        <time>2011-07-05T13:49:18Z</time>
      </trkpt>
      <trkpt lat="62.720691" lon="12.305983">
        <ele>682.398</ele>
        <time>2011-07-05T13:49:22Z</time>
      </trkpt>
      <trkpt lat="62.720708" lon="12.305728">
        <ele>685.044</ele>
        <time>2011-07-05T13:49:30Z</time>
      </trkpt>
      <trkpt lat="62.720714" lon="12.30551">
        <ele>685.52</ele>
        <time>2011-07-05T13:49:36Z</time>
      </trkpt>
      <trkpt lat="62.720686" lon="12.305204">
        <ele>686.311</ele>
        <time>2011-07-05T13:49:45Z</time>
      </trkpt>
      <trkpt lat="62.720704" lon="12.304973">
        <ele>686.414</ele>
        <time>2011-07-05T13:49:53Z</time>
      </trkpt>
      <trkpt lat="62.720724" lon="12.304676">
        <ele>686.326</ele>
        <time>2011-07-05T13:50:02Z</time>
      </trkpt>
      <trkpt lat="62.720741" lon="12.304373">
        <ele>686.99</ele>
        <time>2011-07-05T13:50:11Z</time>
      </trkpt>
      <trkpt lat="62.720751" lon="12.3043">
        <ele>686.898</ele>
        <time>2011-07-05T13:50:14Z</time>
      </trkpt>
      <trkpt lat="62.720801" lon="12.304161">
        <ele>687.192</ele>
        <time>2011-07-05T13:50:20Z</time>
      </trkpt>
      <trkpt lat="62.720829" lon="12.303958">
        <ele>687.826</ele>
        <time>2011-07-05T13:50:27Z</time>
      </trkpt>
      <trkpt lat="62.720838" lon="12.303803">
        <ele>689.424</ele>
        <time>2011-07-05T13:50:31Z</time>
      </trkpt>
      <trkpt lat="62.720873" lon="12.303566">
        <ele>690.193</ele>
        <time>2011-07-05T13:50:37Z</time>
      </trkpt>
      <trkpt lat="62.720877" lon="12.303428">
        <ele>690.105</ele>
        <time>2011-07-05T13:50:40Z</time>
      </trkpt>
      <trkpt lat="62.720863" lon="12.303195">
        <ele>690.7</ele>
        <time>2011-07-05T13:50:45Z</time>
      </trkpt>
      <trkpt lat="62.720858" lon="12.303012">
        <ele>690.677</ele>
        <time>2011-07-05T13:50:49Z</time>
      </trkpt>
      <trkpt lat="62.720877" lon="12.30296">
        <ele>690.194</ele>
        <time>2011-07-05T13:50:52Z</time>
      </trkpt>
      <trkpt lat="62.720922" lon="12.302856">
        <ele>688.265</ele>
        <time>2011-07-05T13:50:59Z</time>
      </trkpt>
      <trkpt lat="62.720924" lon="12.302847">
        <ele>687.927</ele>
        <time>2011-07-05T13:51:00Z</time>
      </trkpt>
      <trkpt lat="62.720906" lon="12.302778">
        <ele>688.265</ele>
        <time>2011-07-05T13:51:14Z</time>
      </trkpt>
      <trkpt lat="62.720888" lon="12.302866">
        <ele>690.144</ele>
        <time>2011-07-05T13:51:18Z</time>
      </trkpt>
      <trkpt lat="62.720896" lon="12.303073">
        <ele>691.059</ele>
        <time>2011-07-05T13:51:26Z</time>
      </trkpt>
      <trkpt lat="62.720901" lon="12.303177">
        <ele>690.863</ele>
        <time>2011-07-05T13:51:30Z</time>
      </trkpt>
      <trkpt lat="62.720897" lon="12.303321">
        <ele>690.609</ele>
        <time>2011-07-05T13:51:35Z</time>
      </trkpt>
      <trkpt lat="62.720861" lon="12.303514">
        <ele>690.439</ele>
        <time>2011-07-05T13:51:41Z</time>
      </trkpt>
      <trkpt lat="62.720868" lon="12.303592">
        <ele>689.997</ele>
        <time>2011-07-05T13:51:45Z</time>
      </trkpt>
      <trkpt lat="62.720887" lon="12.303738">
        <ele>689.999</ele>
        <time>2011-07-05T13:52:01Z</time>
      </trkpt>
      <trkpt lat="62.720884" lon="12.303757">
        <ele>689.743</ele>
        <time>2011-07-05T13:52:03Z</time>
      </trkpt>
      <trkpt lat="62.720882" lon="12.303854">
        <ele>688.373</ele>
        <time>2011-07-05T13:52:09Z</time>
      </trkpt>
      <trkpt lat="62.720878" lon="12.303957">
        <ele>687.69</ele>
        <time>2011-07-05T13:52:15Z</time>
      </trkpt>
      <trkpt lat="62.720805" lon="12.304152">
        <ele>688.65</ele>
        <time>2011-07-05T13:54:43Z</time>
      </trkpt>
      <trkpt lat="62.720793" lon="12.304398">
        <ele>688.883</ele>
        <time>2011-07-05T13:54:50Z</time>
      </trkpt>
      <trkpt lat="62.720797" lon="12.304633">
        <ele>688.784</ele>
        <time>2011-07-05T13:54:57Z</time>
      </trkpt>
      <trkpt lat="62.720782" lon="12.304843">
        <ele>688.574</ele>
        <time>2011-07-05T13:55:04Z</time>
      </trkpt>
      <trkpt lat="62.720776" lon="12.305132">
        <ele>688.547</ele>
        <time>2011-07-05T13:55:13Z</time>
      </trkpt>
      <trkpt lat="62.720794" lon="12.305431">
        <ele>687.756</ele>
        <time>2011-07-05T13:55:20Z</time>
      </trkpt>
      <trkpt lat="62.720801" lon="12.305606">
        <ele>686.544</ele>
        <time>2011-07-05T13:55:25Z</time>
      </trkpt>
      <trkpt lat="62.720793" lon="12.305726">
        <ele>684.992</ele>
        <time>2011-07-05T13:55:28Z</time>
      </trkpt>
      <trkpt lat="62.720798" lon="12.305928">
        <ele>683.508</ele>
        <time>2011-07-05T13:55:32Z</time>
      </trkpt>
      <trkpt lat="62.720799" lon="12.306221">
        <ele>681.645</ele>
        <time>2011-07-05T13:55:37Z</time>
      </trkpt>
      <trkpt lat="62.720784" lon="12.30657">
        <ele>681.443</ele>
        <time>2011-07-05T13:55:43Z</time>
      </trkpt>
      <trkpt lat="62.720789" lon="12.306791">
        <ele>681.17</ele>
        <time>2011-07-05T13:55:49Z</time>
      </trkpt>
      <trkpt lat="62.720785" lon="12.30684">
        <ele>681.102</ele>
        <time>2011-07-05T13:55:50Z</time>
      </trkpt>
      <trkpt lat="62.720805" lon="12.307165">
        <ele>681.892</ele>
        <time>2011-07-05T13:55:56Z</time>
      </trkpt>
      <trkpt lat="62.720803" lon="12.307451">
        <ele>682.63</ele>
        <time>2011-07-05T13:56:01Z</time>
      </trkpt>
      <trkpt lat="62.720806" lon="12.307799">
        <ele>682.984</ele>
        <time>2011-07-05T13:56:07Z</time>
      </trkpt>
      <trkpt lat="62.720791" lon="12.308079">
        <ele>683.704</ele>
        <time>2011-07-05T13:56:12Z</time>
      </trkpt>
      <trkpt lat="62.720765" lon="12.308426">
        <ele>683.756</ele>
        <time>2011-07-05T13:56:18Z</time>
      </trkpt>
      <trkpt lat="62.720735" lon="12.308741">
        <ele>684.063</ele>
        <time>2011-07-05T13:56:23Z</time>
      </trkpt>
      <trkpt lat="62.720667" lon="12.308984">
        <ele>684.172</ele>
        <time>2011-07-05T13:56:28Z</time>
      </trkpt>
      <trkpt lat="62.720649" lon="12.309027">
        <ele>684.276</ele>
        <time>2011-07-05T13:56:29Z</time>
      </trkpt>
      <trkpt lat="62.720526" lon="12.309108">
        <ele>684.55</ele>
        <time>2011-07-05T13:56:34Z</time>
      </trkpt>
      <trkpt lat="62.720526" lon="12.309118">
        <ele>684.543</ele>
        <time>2011-07-05T13:56:35Z</time>
      </trkpt>
      <trkpt lat="62.720584" lon="12.309332">
        <ele>684.425</ele>
        <time>2011-07-05T13:56:44Z</time>
      </trkpt>
      <trkpt lat="62.720631" lon="12.309613">
        <ele>685.224</ele>
        <time>2011-07-05T13:56:50Z</time>
      </trkpt>
      <trkpt lat="62.720713" lon="12.309844">
        <ele>686.118</ele>
        <time>2011-07-05T13:56:55Z</time>
      </trkpt>
      <trkpt lat="62.720777" lon="12.310128">
        <ele>686.984</ele>
        <time>2011-07-05T13:57:00Z</time>
      </trkpt>
      <trkpt lat="62.720864" lon="12.310372">
        <ele>687.215</ele>
        <time>2011-07-05T13:57:05Z</time>
      </trkpt>
      <trkpt lat="62.720895" lon="12.310544">
        <ele>688.831</ele>
        <time>2011-07-05T13:57:10Z</time>
      </trkpt>
      <trkpt lat="62.720885" lon="12.310731">
        <ele>687.374</ele>
        <time>2011-07-05T13:57:14Z</time>
      </trkpt>
      <trkpt lat="62.720909" lon="12.311068">
        <ele>685.18</ele>
        <time>2011-07-05T13:57:19Z</time>
      </trkpt>
      <trkpt lat="62.720919" lon="12.31154">
        <ele>685.016</ele>
        <time>2011-07-05T13:57:26Z</time>
      </trkpt>
      <trkpt lat="62.720894" lon="12.311943">
        <ele>684.797</ele>
        <time>2011-07-05T13:57:32Z</time>
      </trkpt>
      <trkpt lat="62.720872" lon="12.312354">
        <ele>685.023</ele>
        <time>2011-07-05T13:57:38Z</time>
      </trkpt>
      <trkpt lat="62.720831" lon="12.312737">
        <ele>685.051</ele>
        <time>2011-07-05T13:57:45Z</time>
      </trkpt>
      <trkpt lat="62.720784" lon="12.31296">
        <ele>684.203</ele>
        <time>2011-07-05T13:57:52Z</time>
      </trkpt>
      <trkpt lat="62.72072" lon="12.313248">
        <ele>684.984</ele>
        <time>2011-07-05T13:58:00Z</time>
      </trkpt>
      <trkpt lat="62.720679" lon="12.313416">
        <ele>685.989</ele>
        <time>2011-07-05T13:58:06Z</time>
      </trkpt>
      <trkpt lat="62.720654" lon="12.313485">
        <ele>686.223</ele>
        <time>2011-07-05T13:58:09Z</time>
      </trkpt>
      <trkpt lat="62.720622" lon="12.313733">
        <ele>685.528</ele>
        <time>2011-07-05T13:58:17Z</time>
      </trkpt>
      <trkpt lat="62.720593" lon="12.314044">
        <ele>684.507</ele>
        <time>2011-07-05T13:58:22Z</time>
      </trkpt>
      <trkpt lat="62.720576" lon="12.314387">
        <ele>684.27</ele>
        <time>2011-07-05T13:58:27Z</time>
      </trkpt>
      <trkpt lat="62.720577" lon="12.314694">
        <ele>685.237</ele>
        <time>2011-07-05T13:58:32Z</time>
      </trkpt>
      <trkpt lat="62.720576" lon="12.314989">
        <ele>684.674</ele>
        <time>2011-07-05T13:58:37Z</time>
      </trkpt>
      <trkpt lat="62.720581" lon="12.315345">
        <ele>684.454</ele>
        <time>2011-07-05T13:58:42Z</time>
      </trkpt>
      <trkpt lat="62.720593" lon="12.315781">
        <ele>683.885</ele>
        <time>2011-07-05T13:58:48Z</time>
      </trkpt>
      <trkpt lat="62.720612" lon="12.316194">
        <ele>683.749</ele>
        <time>2011-07-05T13:58:54Z</time>
      </trkpt>
      <trkpt lat="62.720603" lon="12.316536">
        <ele>685.07</ele>
        <time>2011-07-05T13:59:00Z</time>
      </trkpt>
      <trkpt lat="62.720578" lon="12.316843">
        <ele>684.956</ele>
        <time>2011-07-05T13:59:07Z</time>
      </trkpt>
      <trkpt lat="62.720582" lon="12.316942">
        <ele>684.752</ele>
        <time>2011-07-05T13:59:11Z</time>
      </trkpt>
      <trkpt lat="62.720614" lon="12.317198">
        <ele>683.07</ele>
        <time>2011-07-05T13:59:16Z</time>
      </trkpt>
      <trkpt lat="62.720628" lon="12.317562">
        <ele>682.231</ele>
        <time>2011-07-05T13:59:21Z</time>
      </trkpt>
      <trkpt lat="62.720625" lon="12.317948">
        <ele>681.783</ele>
        <time>2011-07-05T13:59:26Z</time>
      </trkpt>
      <trkpt lat="62.720637" lon="12.31831">
        <ele>681.926</ele>
        <time>2011-07-05T13:59:31Z</time>
      </trkpt>
      <trkpt lat="62.720657" lon="12.318648">
        <ele>681.712</ele>
        <time>2011-07-05T13:59:36Z</time>
      </trkpt>
      <trkpt lat="62.720668" lon="12.318979">
        <ele>681.404</ele>
        <time>2011-07-05T13:59:41Z</time>
      </trkpt>
      <trkpt lat="62.720663" lon="12.31929">
        <ele>681.269</ele>
        <time>2011-07-05T13:59:46Z</time>
      </trkpt>
      <trkpt lat="62.720654" lon="12.319696">
        <ele>680.367</ele>
        <time>2011-07-05T13:59:52Z</time>
      </trkpt>
      <trkpt lat="62.720628" lon="12.320071">
        <ele>679.544</ele>
        <time>2011-07-05T13:59:57Z</time>
      </trkpt>
      <trkpt lat="62.720614" lon="12.320395">
        <ele>679.838</ele>
        <time>2011-07-05T14:00:02Z</time>
      </trkpt>
      <trkpt lat="62.720596" lon="12.320629">
        <ele>679.608</ele>
        <time>2011-07-05T14:00:07Z</time>
      </trkpt>
      <trkpt lat="62.720586" lon="12.320883">
        <ele>678.904</ele>
        <time>2011-07-05T14:00:14Z</time>
      </trkpt>
      <trkpt lat="62.720557" lon="12.321267">
        <ele>678.217</ele>
        <time>2011-07-05T14:00:20Z</time>
      </trkpt>
      <trkpt lat="62.720542" lon="12.321456">
        <ele>678.037</ele>
        <time>2011-07-05T14:00:25Z</time>
      </trkpt>
      <trkpt lat="62.720535" lon="12.321599">
        <ele>678.01</ele>
        <time>2011-07-05T14:00:30Z</time>
      </trkpt>
      <trkpt lat="62.720574" lon="12.321692">
        <ele>678.282</ele>
        <time>2011-07-05T14:00:36Z</time>
      </trkpt>
      <trkpt lat="62.720606" lon="12.321771">
        <ele>677.913</ele>
        <time>2011-07-05T14:00:42Z</time>
      </trkpt>
      <trkpt lat="62.720667" lon="12.32183">
        <ele>677.704</ele>
        <time>2011-07-05T14:00:51Z</time>
      </trkpt>
      <trkpt lat="62.720749" lon="12.321927">
        <ele>677.765</ele>
        <time>2011-07-05T14:01:03Z</time>
      </trkpt>
      <trkpt lat="62.720879" lon="12.321921">
        <ele>677.869</ele>
        <time>2011-07-05T14:01:08Z</time>
      </trkpt>
      <trkpt lat="62.720978" lon="12.321981">
        <ele>678.582</ele>
        <time>2011-07-05T14:01:13Z</time>
      </trkpt>
      <trkpt lat="62.721011" lon="12.321939">
        <ele>679.012</ele>
        <time>2011-07-05T14:01:20Z</time>
      </trkpt>
      <trkpt lat="62.721016" lon="12.32191">
        <ele>678.966</ele>
        <time>2011-07-05T14:01:22Z</time>
      </trkpt>
      <trkpt lat="62.721037" lon="12.321754">
        <ele>678.75</ele>
        <time>2011-07-05T14:01:29Z</time>
      </trkpt>
      <trkpt lat="62.72111" lon="12.321576">
        <ele>678.381</ele>
        <time>2011-07-05T14:01:39Z</time>
      </trkpt>
      <trkpt lat="62.72117" lon="12.321409">
        <ele>677.445</ele>
        <time>2011-07-05T14:01:43Z</time>
      </trkpt>
      <trkpt lat="62.721236" lon="12.321188">
        <ele>675.083</ele>
        <time>2011-07-05T14:01:47Z</time>
      </trkpt>
      <trkpt lat="62.721258" lon="12.321085">
        <ele>674.857</ele>
        <time>2011-07-05T14:01:51Z</time>
      </trkpt>
      <trkpt lat="62.721279" lon="12.321032">
        <ele>675.119</ele>
        <time>2011-07-05T14:01:56Z</time>
      </trkpt>
      <trkpt lat="62.721282" lon="12.320939">
        <ele>675.365</ele>
        <time>2011-07-05T14:02:01Z</time>
      </trkpt>
      <trkpt lat="62.721269" lon="12.320818">
        <ele>675.256</ele>
        <time>2011-07-05T14:02:07Z</time>
      </trkpt>
      <trkpt lat="62.721256" lon="12.32071">
        <ele>675.253</ele>
        <time>2011-07-05T14:02:15Z</time>
      </trkpt>
      <trkpt lat="62.72125" lon="12.320489">
        <ele>675.732</ele>
        <time>2011-07-05T14:02:21Z</time>
      </trkpt>
      <trkpt lat="62.721255" lon="12.320421">
        <ele>675.565</ele>
        <time>2011-07-05T14:02:23Z</time>
      </trkpt>
      <trkpt lat="62.721289" lon="12.320295">
        <ele>673.825</ele>
        <time>2011-07-05T14:02:28Z</time>
      </trkpt>
      <trkpt lat="62.721334" lon="12.320093">
        <ele>672.922</ele>
        <time>2011-07-05T14:02:33Z</time>
      </trkpt>
      <trkpt lat="62.72143" lon="12.31989">
        <ele>673.244</ele>
        <time>2011-07-05T14:02:38Z</time>
      </trkpt>
      <trkpt lat="62.721461" lon="12.319771">
        <ele>673.393</ele>
        <time>2011-07-05T14:02:42Z</time>
      </trkpt>
      <trkpt lat="62.72148" lon="12.319796">
        <ele>673.315</ele>
        <time>2011-07-05T14:02:46Z</time>
      </trkpt>
      <trkpt lat="62.721531" lon="12.319861">
        <ele>672.341</ele>
        <time>2011-07-05T14:02:53Z</time>
      </trkpt>
      <trkpt lat="62.721567" lon="12.319909">
        <ele>672.093</ele>
        <time>2011-07-05T14:03:01Z</time>
      </trkpt>
      <trkpt lat="62.721574" lon="12.319913">
        <ele>672.074</ele>
        <time>2011-07-05T14:03:02Z</time>
      </trkpt>
      <trkpt lat="62.7216" lon="12.320036">
        <ele>672.204</ele>
        <time>2011-07-05T14:03:19Z</time>
      </trkpt>
      <trkpt lat="62.721599" lon="12.320042">
        <ele>671.979</ele>
        <time>2011-07-05T14:03:20Z</time>
      </trkpt>
      <trkpt lat="62.721624" lon="12.320116">
        <ele>672.081</ele>
        <time>2011-07-05T14:03:28Z</time>
      </trkpt>
      <trkpt lat="62.721642" lon="12.320146">
        <ele>672.135</ele>
        <time>2011-07-05T14:03:30Z</time>
      </trkpt>
      <trkpt lat="62.721729" lon="12.320116">
        <ele>673.198</ele>
        <time>2011-07-05T14:03:38Z</time>
      </trkpt>
      <trkpt lat="62.721756" lon="12.320145">
        <ele>673.089</ele>
        <time>2011-07-05T14:03:41Z</time>
      </trkpt>
      <trkpt lat="62.721796" lon="12.320157">
        <ele>672.856</ele>
        <time>2011-07-05T14:03:46Z</time>
      </trkpt>
      <trkpt lat="62.721809" lon="12.320146">
        <ele>672.838</ele>
        <time>2011-07-05T14:03:47Z</time>
      </trkpt>
      <trkpt lat="62.721901" lon="12.320129">
        <ele>672.711</ele>
        <time>2011-07-05T14:03:54Z</time>
      </trkpt>
      <trkpt lat="62.722021" lon="12.320127">
        <ele>673.441</ele>
        <time>2011-07-05T14:04:04Z</time>
      </trkpt>
      <trkpt lat="62.72207" lon="12.320054">
        <ele>673.573</ele>
        <time>2011-07-05T14:04:07Z</time>
      </trkpt>
      <trkpt lat="62.722146" lon="12.320084">
        <ele>673.091</ele>
        <time>2011-07-05T14:04:14Z</time>
      </trkpt>
      <trkpt lat="62.722206" lon="12.319983">
        <ele>673.206</ele>
        <time>2011-07-05T14:04:18Z</time>
      </trkpt>
      <trkpt lat="62.722344" lon="12.319576">
        <ele>673.129</ele>
        <time>2011-07-05T14:04:26Z</time>
      </trkpt>
      <trkpt lat="62.722435" lon="12.319169">
        <ele>672.865</ele>
        <time>2011-07-05T14:04:33Z</time>
      </trkpt>
      <trkpt lat="62.722484" lon="12.318837">
        <ele>673.193</ele>
        <time>2011-07-05T14:04:39Z</time>
      </trkpt>
      <trkpt lat="62.722534" lon="12.318487">
        <ele>673.465</ele>
        <time>2011-07-05T14:04:45Z</time>
      </trkpt>
      <trkpt lat="62.722568" lon="12.318077">
        <ele>673.386</ele>
        <time>2011-07-05T14:04:52Z</time>
      </trkpt>
      <trkpt lat="62.72257" lon="12.317719">
        <ele>673.256</ele>
        <time>2011-07-05T14:04:58Z</time>
      </trkpt>
      <trkpt lat="62.72258" lon="12.317382">
        <ele>673.239</ele>
        <time>2011-07-05T14:05:04Z</time>
      </trkpt>
      <trkpt lat="62.722545" lon="12.31707">
        <ele>673.97</ele>
        <time>2011-07-05T14:05:10Z</time>
      </trkpt>
      <trkpt lat="62.722533" lon="12.31671">
        <ele>674.152</ele>
        <time>2011-07-05T14:05:16Z</time>
      </trkpt>
      <trkpt lat="62.722517" lon="12.316384">
        <ele>673.53</ele>
        <time>2011-07-05T14:05:21Z</time>
      </trkpt>
      <trkpt lat="62.72251" lon="12.315964">
        <ele>674.098</ele>
        <time>2011-07-05T14:05:28Z</time>
      </trkpt>
      <trkpt lat="62.722469" lon="12.315594">
        <ele>673.791</ele>
        <time>2011-07-05T14:05:34Z</time>
      </trkpt>
      <trkpt lat="62.72244" lon="12.315311">
        <ele>673.805</ele>
        <time>2011-07-05T14:05:39Z</time>
      </trkpt>
      <trkpt lat="62.72243" lon="12.31497">
        <ele>674.035</ele>
        <time>2011-07-05T14:05:46Z</time>
      </trkpt>
      <trkpt lat="62.722435" lon="12.314795">
        <ele>674.169</ele>
        <time>2011-07-05T14:05:50Z</time>
      </trkpt>
      <trkpt lat="62.722433" lon="12.314688">
        <ele>673.915</ele>
        <time>2011-07-05T14:05:54Z</time>
      </trkpt>
      <trkpt lat="62.722432" lon="12.314583">
        <ele>674.47</ele>
        <time>2011-07-05T14:06:00Z</time>
      </trkpt>
      <trkpt lat="62.722464" lon="12.31439">
        <ele>674.486</ele>
        <time>2011-07-05T14:06:53Z</time>
      </trkpt>
      <trkpt lat="62.722488" lon="12.314012">
        <ele>674.851</ele>
        <time>2011-07-05T14:06:59Z</time>
      </trkpt>
      <trkpt lat="62.722532" lon="12.31356">
        <ele>674.989</ele>
        <time>2011-07-05T14:07:06Z</time>
      </trkpt>
      <trkpt lat="62.722561" lon="12.313114">
        <ele>675.168</ele>
        <time>2011-07-05T14:07:13Z</time>
      </trkpt>
      <trkpt lat="62.722568" lon="12.312777">
        <ele>675.563</ele>
        <time>2011-07-05T14:07:19Z</time>
      </trkpt>
      <trkpt lat="62.72257" lon="12.3125">
        <ele>675.325</ele>
        <time>2011-07-05T14:07:24Z</time>
      </trkpt>
      <trkpt lat="62.7226" lon="12.312236">
        <ele>675.723</ele>
        <time>2011-07-05T14:07:29Z</time>
      </trkpt>
      <trkpt lat="62.72263" lon="12.311867">
        <ele>676.171</ele>
        <time>2011-07-05T14:07:35Z</time>
      </trkpt>
      <trkpt lat="62.722689" lon="12.31166">
        <ele>676.167</ele>
        <time>2011-07-05T14:07:40Z</time>
      </trkpt>
      <trkpt lat="62.722718" lon="12.311545">
        <ele>676.686</ele>
        <time>2011-07-05T14:07:46Z</time>
      </trkpt>
      <trkpt lat="62.7227" lon="12.3115">
        <ele>676.831</ele>
        <time>2011-07-05T14:07:49Z</time>
      </trkpt>
      <trkpt lat="62.722686" lon="12.311291">
        <ele>676.786</ele>
        <time>2011-07-05T14:07:55Z</time>
      </trkpt>
      <trkpt lat="62.722697" lon="12.310973">
        <ele>677.012</ele>
        <time>2011-07-05T14:08:01Z</time>
      </trkpt>
      <trkpt lat="62.722669" lon="12.310649">
        <ele>677.115</ele>
        <time>2011-07-05T14:08:07Z</time>
      </trkpt>
      <trkpt lat="62.722661" lon="12.310556">
        <ele>677.002</ele>
        <time>2011-07-05T14:08:09Z</time>
      </trkpt>
      <trkpt lat="62.722604" lon="12.310061">
        <ele>676.499</ele>
        <time>2011-07-05T14:08:18Z</time>
      </trkpt>
      <trkpt lat="62.722595" lon="12.309756">
        <ele>676.427</ele>
        <time>2011-07-05T14:08:23Z</time>
      </trkpt>
      <trkpt lat="62.722564" lon="12.309653">
        <ele>676.644</ele>
        <time>2011-07-05T14:08:25Z</time>
      </trkpt>
      <trkpt lat="62.722465" lon="12.30917">
        <ele>676.844</ele>
        <time>2011-07-05T14:08:33Z</time>
      </trkpt>
      <trkpt lat="62.722386" lon="12.308699">
        <ele>677.117</ele>
        <time>2011-07-05T14:08:41Z</time>
      </trkpt>
      <trkpt lat="62.722331" lon="12.30845">
        <ele>677.243</ele>
        <time>2011-07-05T14:08:46Z</time>
      </trkpt>
      <trkpt lat="62.722294" lon="12.308134">
        <ele>677.292</ele>
        <time>2011-07-05T14:08:51Z</time>
      </trkpt>
      <trkpt lat="62.722282" lon="12.307862">
        <ele>677.042</ele>
        <time>2011-07-05T14:08:56Z</time>
      </trkpt>
      <trkpt lat="62.722304" lon="12.30753">
        <ele>677.663</ele>
        <time>2011-07-05T14:09:02Z</time>
      </trkpt>
      <trkpt lat="62.722298" lon="12.30718">
        <ele>677.493</ele>
        <time>2011-07-05T14:09:08Z</time>
      </trkpt>
      <trkpt lat="62.722297" lon="12.306816">
        <ele>677.777</ele>
        <time>2011-07-05T14:09:14Z</time>
      </trkpt>
      <trkpt lat="62.722322" lon="12.306569">
        <ele>677.54</ele>
        <time>2011-07-05T14:09:19Z</time>
      </trkpt>
      <trkpt lat="62.722359" lon="12.306328">
        <ele>678.032</ele>
        <time>2011-07-05T14:09:24Z</time>
      </trkpt>
      <trkpt lat="62.722375" lon="12.306015">
        <ele>677.721</ele>
        <time>2011-07-05T14:09:30Z</time>
      </trkpt>
      <trkpt lat="62.7224" lon="12.30582">
        <ele>678.789</ele>
        <time>2011-07-05T14:09:36Z</time>
      </trkpt>
      <trkpt lat="62.722464" lon="12.305512">
        <ele>679.22</ele>
        <time>2011-07-05T14:09:44Z</time>
      </trkpt>
      <trkpt lat="62.722488" lon="12.305144">
        <ele>679.404</ele>
        <time>2011-07-05T14:09:50Z</time>
      </trkpt>
      <trkpt lat="62.7225" lon="12.304648">
        <ele>679.428</ele>
        <time>2011-07-05T14:09:58Z</time>
      </trkpt>
      <trkpt lat="62.722484" lon="12.304232">
        <ele>679.859</ele>
        <time>2011-07-05T14:10:05Z</time>
      </trkpt>
      <trkpt lat="62.722443" lon="12.303916">
        <ele>679.961</ele>
        <time>2011-07-05T14:10:11Z</time>
      </trkpt>
      <trkpt lat="62.722378" lon="12.303704">
        <ele>679.952</ele>
        <time>2011-07-05T14:10:16Z</time>
      </trkpt>
      <trkpt lat="62.722317" lon="12.303521">
        <ele>679.687</ele>
        <time>2011-07-05T14:10:20Z</time>
      </trkpt>
      <trkpt lat="62.722233" lon="12.303323">
        <ele>680.164</ele>
        <time>2011-07-05T14:10:25Z</time>
      </trkpt>
      <trkpt lat="62.722216" lon="12.303277">
        <ele>680.214</ele>
        <time>2011-07-05T14:10:26Z</time>
      </trkpt>
      <trkpt lat="62.722122" lon="12.30295">
        <ele>680.661</ele>
        <time>2011-07-05T14:10:33Z</time>
      </trkpt>
      <trkpt lat="62.722088" lon="12.302753">
        <ele>680.871</ele>
        <time>2011-07-05T14:10:37Z</time>
      </trkpt>
      <trkpt lat="62.722099" lon="12.302426">
        <ele>681.469</ele>
        <time>2011-07-05T14:10:44Z</time>
      </trkpt>
      <trkpt lat="62.722132" lon="12.302191">
        <ele>680.552</ele>
        <time>2011-07-05T14:10:50Z</time>
      </trkpt>
      <trkpt lat="62.722187" lon="12.301919">
        <ele>680.948</ele>
        <time>2011-07-05T14:10:56Z</time>
      </trkpt>
      <trkpt lat="62.72228" lon="12.301575">
        <ele>679.983</ele>
        <time>2011-07-05T14:11:02Z</time>
      </trkpt>
      <trkpt lat="62.722369" lon="12.301293">
        <ele>680.293</ele>
        <time>2011-07-05T14:11:08Z</time>
      </trkpt>
      <trkpt lat="62.722459" lon="12.301046">
        <ele>680.401</ele>
        <time>2011-07-05T14:11:15Z</time>
      </trkpt>
      <trkpt lat="62.722521" lon="12.300867">
        <ele>680.257</ele>
        <time>2011-07-05T14:11:24Z</time>
      </trkpt>
      <trkpt lat="62.722569" lon="12.300845">
        <ele>680.769</ele>
        <time>2011-07-05T14:11:29Z</time>
      </trkpt>
      <trkpt lat="62.722593" lon="12.300841">
        <ele>680.722</ele>
        <time>2011-07-05T14:11:31Z</time>
      </trkpt>
      <trkpt lat="62.722635" lon="12.300843">
        <ele>680.811</ele>
        <time>2011-07-05T14:11:35Z</time>
      </trkpt>
      <trkpt lat="62.72265" lon="12.300833">
        <ele>680.972</ele>
        <time>2011-07-05T14:11:38Z</time>
      </trkpt>
      <trkpt lat="62.722635" lon="12.300796">
        <ele>681</ele>
        <time>2011-07-05T14:11:44Z</time>
      </trkpt>
      <trkpt lat="62.722645" lon="12.300796">
        <ele>680.993</ele>
        <time>2011-07-05T14:11:48Z</time>
      </trkpt>
      <trkpt lat="62.722621" lon="12.300801">
        <ele>680.939</ele>
        <time>2011-07-05T14:11:53Z</time>
      </trkpt>
      <trkpt lat="62.72266" lon="12.300895">
        <ele>681.076</ele>
        <time>2011-07-05T14:12:27Z</time>
      </trkpt>
      <trkpt lat="62.722801" lon="12.300951">
        <ele>681.531</ele>
        <time>2011-07-05T14:12:34Z</time>
      </trkpt>
      <trkpt lat="62.722914" lon="12.301035">
        <ele>681.114</ele>
        <time>2011-07-05T14:12:39Z</time>
      </trkpt>
      <trkpt lat="62.723023" lon="12.301101">
        <ele>681.479</ele>
        <time>2011-07-05T14:12:45Z</time>
      </trkpt>
      <trkpt lat="62.723094" lon="12.301151">
        <ele>683.721</ele>
        <time>2011-07-05T14:12:52Z</time>
      </trkpt>
      <trkpt lat="62.723141" lon="12.301166">
        <ele>684.597</ele>
        <time>2011-07-05T14:12:56Z</time>
      </trkpt>
      <trkpt lat="62.723205" lon="12.301089">
        <ele>685.396</ele>
        <time>2011-07-05T14:13:04Z</time>
      </trkpt>
      <trkpt lat="62.723211" lon="12.301075">
        <ele>685.653</ele>
        <time>2011-07-05T14:13:05Z</time>
      </trkpt>
      <trkpt lat="62.723282" lon="12.300966">
        <ele>686.253</ele>
        <time>2011-07-05T14:13:12Z</time>
      </trkpt>
      <trkpt lat="62.723399" lon="12.30089">
        <ele>686.16</ele>
        <time>2011-07-05T14:13:19Z</time>
      </trkpt>
      <trkpt lat="62.723495" lon="12.300793">
        <ele>685.984</ele>
        <time>2011-07-05T14:13:26Z</time>
      </trkpt>
      <trkpt lat="62.723531" lon="12.300751">
        <ele>685.926</ele>
        <time>2011-07-05T14:13:30Z</time>
      </trkpt>
      <trkpt lat="62.723645" lon="12.300703">
        <ele>686.611</ele>
        <time>2011-07-05T14:13:37Z</time>
      </trkpt>
      <trkpt lat="62.723798" lon="12.300748">
        <ele>687.712</ele>
        <time>2011-07-05T14:13:47Z</time>
      </trkpt>
      <trkpt lat="62.723892" lon="12.30084">
        <ele>689.54</ele>
        <time>2011-07-05T14:13:55Z</time>
      </trkpt>
      <trkpt lat="62.723943" lon="12.300893">
        <ele>690.856</ele>
        <time>2011-07-05T14:14:00Z</time>
      </trkpt>
      <trkpt lat="62.723999" lon="12.300942">
        <ele>691.679</ele>
        <time>2011-07-05T14:14:05Z</time>
      </trkpt>
      <trkpt lat="62.724092" lon="12.300951">
        <ele>693.8</ele>
        <time>2011-07-05T14:14:13Z</time>
      </trkpt>
      <trkpt lat="62.724155" lon="12.301034">
        <ele>695.313</ele>
        <time>2011-07-05T14:14:19Z</time>
      </trkpt>
      <trkpt lat="62.724247" lon="12.301128">
        <ele>695.696</ele>
        <time>2011-07-05T14:14:24Z</time>
      </trkpt>
      <trkpt lat="62.72435" lon="12.301171">
        <ele>695.725</ele>
        <time>2011-07-05T14:14:31Z</time>
      </trkpt>
      <trkpt lat="62.724408" lon="12.301137">
        <ele>695.947</ele>
        <time>2011-07-05T14:14:37Z</time>
      </trkpt>
      <trkpt lat="62.724445" lon="12.301107">
        <ele>696.438</ele>
        <time>2011-07-05T14:14:41Z</time>
      </trkpt>
      <trkpt lat="62.724556" lon="12.301036">
        <ele>697.85</ele>
        <time>2011-07-05T14:14:49Z</time>
      </trkpt>
      <trkpt lat="62.724567" lon="12.301056">
        <ele>697.97</ele>
        <time>2011-07-05T14:14:50Z</time>
      </trkpt>
      <trkpt lat="62.724685" lon="12.301157">
        <ele>698.17</ele>
        <time>2011-07-05T14:15:01Z</time>
      </trkpt>
      <trkpt lat="62.724726" lon="12.301192">
        <ele>698.532</ele>
        <time>2011-07-05T14:15:07Z</time>
      </trkpt>
      <trkpt lat="62.724804" lon="12.301302">
        <ele>698.9</ele>
        <time>2011-07-05T14:15:15Z</time>
      </trkpt>
      <trkpt lat="62.724897" lon="12.301412">
        <ele>699.172</ele>
        <time>2011-07-05T14:15:22Z</time>
      </trkpt>
      <trkpt lat="62.724991" lon="12.301384">
        <ele>699.271</ele>
        <time>2011-07-05T14:15:26Z</time>
      </trkpt>
      <trkpt lat="62.725116" lon="12.301399">
        <ele>700.364</ele>
        <time>2011-07-05T14:15:33Z</time>
      </trkpt>
      <trkpt lat="62.725215" lon="12.301444">
        <ele>702.446</ele>
        <time>2011-07-05T14:15:41Z</time>
      </trkpt>
      <trkpt lat="62.725312" lon="12.30136">
        <ele>703.85</ele>
        <time>2011-07-05T14:15:47Z</time>
      </trkpt>
      <trkpt lat="62.7254" lon="12.301332">
        <ele>705.12</ele>
        <time>2011-07-05T14:15:53Z</time>
      </trkpt>
      <trkpt lat="62.725485" lon="12.301416">
        <ele>706.823</ele>
        <time>2011-07-05T14:16:00Z</time>
      </trkpt>
      <trkpt lat="62.725551" lon="12.30158">
        <ele>709.234</ele>
        <time>2011-07-05T14:16:07Z</time>
      </trkpt>
      <trkpt lat="62.725561" lon="12.301627">
        <ele>709.909</ele>
        <time>2011-07-05T14:16:09Z</time>
      </trkpt>
      <trkpt lat="62.725598" lon="12.301795">
        <ele>710.638</ele>
        <time>2011-07-05T14:16:16Z</time>
      </trkpt>
      <trkpt lat="62.725633" lon="12.302004">
        <ele>712.599</ele>
        <time>2011-07-05T14:16:24Z</time>
      </trkpt>
      <trkpt lat="62.725703" lon="12.302141">
        <ele>713.191</ele>
        <time>2011-07-05T14:16:31Z</time>
      </trkpt>
      <trkpt lat="62.725785" lon="12.3023">
        <ele>713.457</ele>
        <time>2011-07-05T14:16:38Z</time>
      </trkpt>
      <trkpt lat="62.725895" lon="12.302416">
        <ele>713.944</ele>
        <time>2011-07-05T14:16:43Z</time>
      </trkpt>
      <trkpt lat="62.726046" lon="12.302596">
        <ele>713.418</ele>
        <time>2011-07-05T14:16:49Z</time>
      </trkpt>
      <trkpt lat="62.726208" lon="12.302709">
        <ele>713.131</ele>
        <time>2011-07-05T14:16:54Z</time>
      </trkpt>
      <trkpt lat="62.726373" lon="12.302834">
        <ele>714.156</ele>
        <time>2011-07-05T14:17:00Z</time>
      </trkpt>
      <trkpt lat="62.726468" lon="12.303034">
        <ele>714.878</ele>
        <time>2011-07-05T14:17:06Z</time>
      </trkpt>
      <trkpt lat="62.726556" lon="12.303332">
        <ele>715.922</ele>
        <time>2011-07-05T14:17:13Z</time>
      </trkpt>
      <trkpt lat="62.726698" lon="12.303696">
        <ele>716.274</ele>
        <time>2011-07-05T14:17:21Z</time>
      </trkpt>
      <trkpt lat="62.726856" lon="12.304118">
        <ele>717.125</ele>
        <time>2011-07-05T14:17:30Z</time>
      </trkpt>
      <trkpt lat="62.726941" lon="12.304358">
        <ele>718.281</ele>
        <time>2011-07-05T14:17:36Z</time>
      </trkpt>
      <trkpt lat="62.726976" lon="12.304455">
        <ele>719.093</ele>
        <time>2011-07-05T14:17:39Z</time>
      </trkpt>
      <trkpt lat="62.727037" lon="12.304716">
        <ele>721.553</ele>
        <time>2011-07-05T14:17:48Z</time>
      </trkpt>
      <trkpt lat="62.727045" lon="12.304767">
        <ele>722.19</ele>
        <time>2011-07-05T14:17:50Z</time>
      </trkpt>
      <trkpt lat="62.72708" lon="12.304923">
        <ele>723.831</ele>
        <time>2011-07-05T14:17:56Z</time>
      </trkpt>
      <trkpt lat="62.727103" lon="12.305035">
        <ele>724.656</ele>
        <time>2011-07-05T14:18:00Z</time>
      </trkpt>
      <trkpt lat="62.727143" lon="12.305258">
        <ele>725.147</ele>
        <time>2011-07-05T14:18:06Z</time>
      </trkpt>
      <trkpt lat="62.727186" lon="12.305554">
        <ele>725.289</ele>
        <time>2011-07-05T14:18:12Z</time>
      </trkpt>
      <trkpt lat="62.727287" lon="12.306043">
        <ele>725.807</ele>
        <time>2011-07-05T14:18:21Z</time>
      </trkpt>
      <trkpt lat="62.727385" lon="12.306531">
        <ele>726.565</ele>
        <time>2011-07-05T14:18:30Z</time>
      </trkpt>
      <trkpt lat="62.727477" lon="12.306958">
        <ele>726.2</ele>
        <time>2011-07-05T14:18:38Z</time>
      </trkpt>
      <trkpt lat="62.727535" lon="12.307316">
        <ele>726.466</ele>
        <time>2011-07-05T14:18:45Z</time>
      </trkpt>
      <trkpt lat="62.727597" lon="12.30758">
        <ele>727.395</ele>
        <time>2011-07-05T14:18:51Z</time>
      </trkpt>
      <trkpt lat="62.727686" lon="12.307781">
        <ele>729.108</ele>
        <time>2011-07-05T14:18:58Z</time>
      </trkpt>
      <trkpt lat="62.727739" lon="12.307931">
        <ele>729.67</ele>
        <time>2011-07-05T14:19:04Z</time>
      </trkpt>
      <trkpt lat="62.727788" lon="12.308069">
        <ele>730.274</ele>
        <time>2011-07-05T14:19:10Z</time>
      </trkpt>
      <trkpt lat="62.7278" lon="12.30809">
        <ele>730.349</ele>
        <time>2011-07-05T14:19:11Z</time>
      </trkpt>
      <trkpt lat="62.727867" lon="12.308233">
        <ele>731.276</ele>
        <time>2011-07-05T14:19:18Z</time>
      </trkpt>
      <trkpt lat="62.727932" lon="12.308416">
        <ele>732.734</ele>
        <time>2011-07-05T14:19:26Z</time>
      </trkpt>
      <trkpt lat="62.727986" lon="12.308524">
        <ele>734.09</ele>
        <time>2011-07-05T14:19:32Z</time>
      </trkpt>
      <trkpt lat="62.72813" lon="12.308672">
        <ele>735.801</ele>
        <time>2011-07-05T14:19:40Z</time>
      </trkpt>
      <trkpt lat="62.728232" lon="12.30882">
        <ele>737.112</ele>
        <time>2011-07-05T14:19:47Z</time>
      </trkpt>
      <trkpt lat="62.728282" lon="12.308899">
        <ele>737.655</ele>
        <time>2011-07-05T14:19:51Z</time>
      </trkpt>
      <trkpt lat="62.728329" lon="12.308922">
        <ele>737.751</ele>
        <time>2011-07-05T14:19:54Z</time>
      </trkpt>
      <trkpt lat="62.728413" lon="12.309035">
        <ele>738.158</ele>
        <time>2011-07-05T14:20:01Z</time>
      </trkpt>
      <trkpt lat="62.728546" lon="12.309201">
        <ele>739.24</ele>
        <time>2011-07-05T14:20:11Z</time>
      </trkpt>
      <trkpt lat="62.728616" lon="12.3093">
        <ele>739.883</ele>
        <time>2011-07-05T14:20:17Z</time>
      </trkpt>
      <trkpt lat="62.728735" lon="12.309462">
        <ele>741.036</ele>
        <time>2011-07-05T14:20:24Z</time>
      </trkpt>
      <trkpt lat="62.728852" lon="12.309646">
        <ele>741.447</ele>
        <time>2011-07-05T14:20:30Z</time>
      </trkpt>
      <trkpt lat="62.728941" lon="12.309803">
        <ele>741.771</ele>
        <time>2011-07-05T14:20:35Z</time>
      </trkpt>
      <trkpt lat="62.729012" lon="12.3099">
        <ele>742.119</ele>
        <time>2011-07-05T14:20:40Z</time>
      </trkpt>
      <trkpt lat="62.729203" lon="12.310162">
        <ele>742.471</ele>
        <time>2011-07-05T14:20:52Z</time>
      </trkpt>
      <trkpt lat="62.729325" lon="12.310356">
        <ele>743.603</ele>
        <time>2011-07-05T14:21:01Z</time>
      </trkpt>
      <trkpt lat="62.729396" lon="12.31045">
        <ele>745.13</ele>
        <time>2011-07-05T14:21:07Z</time>
      </trkpt>
      <trkpt lat="62.729531" lon="12.310486">
        <ele>747.323</ele>
        <time>2011-07-05T14:21:15Z</time>
      </trkpt>
      <trkpt lat="62.729614" lon="12.310554">
        <ele>749.174</ele>
        <time>2011-07-05T14:21:22Z</time>
      </trkpt>
      <trkpt lat="62.729648" lon="12.310583">
        <ele>750.305</ele>
        <time>2011-07-05T14:21:26Z</time>
      </trkpt>
      <trkpt lat="62.72967" lon="12.31061">
        <ele>750.936</ele>
        <time>2011-07-05T14:21:29Z</time>
      </trkpt>
      <trkpt lat="62.729751" lon="12.310726">
        <ele>753.125</ele>
        <time>2011-07-05T14:21:38Z</time>
      </trkpt>
      <trkpt lat="62.729813" lon="12.310767">
        <ele>754.641</ele>
        <time>2011-07-05T14:21:43Z</time>
      </trkpt>
      <trkpt lat="62.729869" lon="12.31077">
        <ele>755.517</ele>
        <time>2011-07-05T14:21:48Z</time>
      </trkpt>
      <trkpt lat="62.729927" lon="12.310847">
        <ele>756.537</ele>
        <time>2011-07-05T14:21:53Z</time>
      </trkpt>
      <trkpt lat="62.729943" lon="12.310863">
        <ele>756.955</ele>
        <time>2011-07-05T14:21:55Z</time>
      </trkpt>
      <trkpt lat="62.729988" lon="12.310955">
        <ele>758.596</ele>
        <time>2011-07-05T14:22:02Z</time>
      </trkpt>
      <trkpt lat="62.730057" lon="12.310976">
        <ele>760.782</ele>
        <time>2011-07-05T14:22:09Z</time>
      </trkpt>
      <trkpt lat="62.730132" lon="12.311064">
        <ele>762.849</ele>
        <time>2011-07-05T14:22:17Z</time>
      </trkpt>
      <trkpt lat="62.730158" lon="12.311084">
        <ele>763.07</ele>
        <time>2011-07-05T14:22:19Z</time>
      </trkpt>
      <trkpt lat="62.730207" lon="12.311159">
        <ele>763.512</ele>
        <time>2011-07-05T14:22:23Z</time>
      </trkpt>
      <trkpt lat="62.730282" lon="12.31129">
        <ele>763.828</ele>
        <time>2011-07-05T14:22:30Z</time>
      </trkpt>
      <trkpt lat="62.730342" lon="12.311387">
        <ele>764.708</ele>
        <time>2011-07-05T14:22:37Z</time>
      </trkpt>
      <trkpt lat="62.73037" lon="12.311423">
        <ele>765.247</ele>
        <time>2011-07-05T14:22:40Z</time>
      </trkpt>
      <trkpt lat="62.730424" lon="12.311477">
        <ele>767.351</ele>
        <time>2011-07-05T14:22:47Z</time>
      </trkpt>
      <trkpt lat="62.730459" lon="12.311506">
        <ele>768.539</ele>
        <time>2011-07-05T14:22:51Z</time>
      </trkpt>
      <trkpt lat="62.730529" lon="12.311613">
        <ele>770.22</ele>
        <time>2011-07-05T14:22:59Z</time>
      </trkpt>
      <trkpt lat="62.730591" lon="12.311703">
        <ele>771.359</ele>
        <time>2011-07-05T14:23:05Z</time>
      </trkpt>
      <trkpt lat="62.730628" lon="12.311788">
        <ele>772.518</ele>
        <time>2011-07-05T14:23:11Z</time>
      </trkpt>
      <trkpt lat="62.730632" lon="12.311801">
        <ele>772.736</ele>
        <time>2011-07-05T14:23:12Z</time>
      </trkpt>
      <trkpt lat="62.730647" lon="12.31186">
        <ele>773.207</ele>
        <time>2011-07-05T14:23:15Z</time>
      </trkpt>
      <trkpt lat="62.730709" lon="12.311976">
        <ele>774.046</ele>
        <time>2011-07-05T14:23:22Z</time>
      </trkpt>
      <trkpt lat="62.730747" lon="12.312078">
        <ele>775.764</ele>
        <time>2011-07-05T14:23:29Z</time>
      </trkpt>
      <trkpt lat="62.730795" lon="12.312155">
        <ele>776.932</ele>
        <time>2011-07-05T14:23:34Z</time>
      </trkpt>
      <trkpt lat="62.730835" lon="12.312265">
        <ele>778.546</ele>
        <time>2011-07-05T14:23:41Z</time>
      </trkpt>
      <trkpt lat="62.730881" lon="12.312384">
        <ele>779.994</ele>
        <time>2011-07-05T14:23:48Z</time>
      </trkpt>
      <trkpt lat="62.731001" lon="12.312509">
        <ele>781.701</ele>
        <time>2011-07-05T14:23:57Z</time>
      </trkpt>
      <trkpt lat="62.731107" lon="12.312571">
        <ele>783.329</ele>
        <time>2011-07-05T14:24:05Z</time>
      </trkpt>
      <trkpt lat="62.731155" lon="12.312608">
        <ele>784.104</ele>
        <time>2011-07-05T14:24:09Z</time>
      </trkpt>
      <trkpt lat="62.731256" lon="12.312588">
        <ele>786.106</ele>
        <time>2011-07-05T14:24:18Z</time>
      </trkpt>
      <trkpt lat="62.731317" lon="12.312647">
        <ele>787.986</ele>
        <time>2011-07-05T14:24:25Z</time>
      </trkpt>
      <trkpt lat="62.731324" lon="12.312651">
        <ele>788.232</ele>
        <time>2011-07-05T14:24:26Z</time>
      </trkpt>
      <trkpt lat="62.731424" lon="12.312677">
        <ele>790.232</ele>
        <time>2011-07-05T14:24:35Z</time>
      </trkpt>
      <trkpt lat="62.731506" lon="12.312724">
        <ele>791.67</ele>
        <time>2011-07-05T14:24:42Z</time>
      </trkpt>
      <trkpt lat="62.731533" lon="12.312765">
        <ele>792.366</ele>
        <time>2011-07-05T14:24:45Z</time>
      </trkpt>
      <trkpt lat="62.731568" lon="12.312773">
        <ele>793.074</ele>
        <time>2011-07-05T14:24:48Z</time>
      </trkpt>
      <trkpt lat="62.731681" lon="12.312797">
        <ele>795.002</ele>
        <time>2011-07-05T14:24:57Z</time>
      </trkpt>
      <trkpt lat="62.731758" lon="12.312799">
        <ele>796.921</ele>
        <time>2011-07-05T14:25:04Z</time>
      </trkpt>
      <trkpt lat="62.731838" lon="12.312828">
        <ele>798.768</ele>
        <time>2011-07-05T14:25:12Z</time>
      </trkpt>
      <trkpt lat="62.73189" lon="12.312867">
        <ele>800.311</ele>
        <time>2011-07-05T14:25:18Z</time>
      </trkpt>
      <trkpt lat="62.73189" lon="12.312912">
        <ele>800.487</ele>
        <time>2011-07-05T14:25:20Z</time>
      </trkpt>
      <trkpt lat="62.731937" lon="12.312988">
        <ele>801.59</ele>
        <time>2011-07-05T14:25:26Z</time>
      </trkpt>
      <trkpt lat="62.732017" lon="12.313054">
        <ele>803.267</ele>
        <time>2011-07-05T14:25:33Z</time>
      </trkpt>
      <trkpt lat="62.732095" lon="12.313082">
        <ele>804.177</ele>
        <time>2011-07-05T14:25:39Z</time>
      </trkpt>
      <trkpt lat="62.732145" lon="12.313111">
        <ele>805.016</ele>
        <time>2011-07-05T14:25:43Z</time>
      </trkpt>
      <trkpt lat="62.732224" lon="12.313248">
        <ele>805.884</ele>
        <time>2011-07-05T14:25:51Z</time>
      </trkpt>
      <trkpt lat="62.732281" lon="12.313272">
        <ele>806.396</ele>
        <time>2011-07-05T14:25:56Z</time>
      </trkpt>
      <trkpt lat="62.732378" lon="12.313314">
        <ele>808.401</ele>
        <time>2011-07-05T14:26:05Z</time>
      </trkpt>
      <trkpt lat="62.732449" lon="12.313331">
        <ele>809.841</ele>
        <time>2011-07-05T14:26:11Z</time>
      </trkpt>
      <trkpt lat="62.732544" lon="12.313395">
        <ele>810.9</ele>
        <time>2011-07-05T14:26:19Z</time>
      </trkpt>
      <trkpt lat="62.732594" lon="12.313424">
        <ele>811.208</ele>
        <time>2011-07-05T14:26:23Z</time>
      </trkpt>
      <trkpt lat="62.732659" lon="12.313477">
        <ele>812.002</ele>
        <time>2011-07-05T14:26:29Z</time>
      </trkpt>
      <trkpt lat="62.732685" lon="12.313488">
        <ele>812.188</ele>
        <time>2011-07-05T14:26:31Z</time>
      </trkpt>
      <trkpt lat="62.732783" lon="12.313542">
        <ele>813.084</ele>
        <time>2011-07-05T14:26:39Z</time>
      </trkpt>
      <trkpt lat="62.732857" lon="12.313623">
        <ele>813.606</ele>
        <time>2011-07-05T14:26:46Z</time>
      </trkpt>
      <trkpt lat="62.732875" lon="12.313655">
        <ele>814.121</ele>
        <time>2011-07-05T14:26:48Z</time>
      </trkpt>
      <trkpt lat="62.732948" lon="12.313717">
        <ele>816.572</ele>
        <time>2011-07-05T14:26:56Z</time>
      </trkpt>
      <trkpt lat="62.733044" lon="12.313797">
        <ele>818.534</ele>
        <time>2011-07-05T14:27:04Z</time>
      </trkpt>
      <trkpt lat="62.733148" lon="12.313929">
        <ele>819.43</ele>
        <time>2011-07-05T14:27:14Z</time>
      </trkpt>
      <trkpt lat="62.733238" lon="12.314002">
        <ele>819.859</ele>
        <time>2011-07-05T14:27:21Z</time>
      </trkpt>
      <trkpt lat="62.73331" lon="12.314081">
        <ele>820.144</ele>
        <time>2011-07-05T14:27:28Z</time>
      </trkpt>
      <trkpt lat="62.733322" lon="12.31413">
        <ele>820.218</ele>
        <time>2011-07-05T14:27:30Z</time>
      </trkpt>
      <trkpt lat="62.733345" lon="12.314237">
        <ele>821.012</ele>
        <time>2011-07-05T14:27:35Z</time>
      </trkpt>
      <trkpt lat="62.733335" lon="12.314328">
        <ele>821.579</ele>
        <time>2011-07-05T14:27:41Z</time>
      </trkpt>
      <trkpt lat="62.733399" lon="12.314341">
        <ele>821.68</ele>
        <time>2011-07-05T14:28:02Z</time>
      </trkpt>
      <trkpt lat="62.733464" lon="12.314359">
        <ele>822.539</ele>
        <time>2011-07-05T14:28:09Z</time>
      </trkpt>
      <trkpt lat="62.733471" lon="12.314377">
        <ele>822.647</ele>
        <time>2011-07-05T14:28:12Z</time>
      </trkpt>
      <trkpt lat="62.733553" lon="12.314315">
        <ele>822.752</ele>
        <time>2011-07-05T14:28:30Z</time>
      </trkpt>
      <trkpt lat="62.733634" lon="12.31429">
        <ele>824.236</ele>
        <time>2011-07-05T14:28:37Z</time>
      </trkpt>
      <trkpt lat="62.733683" lon="12.314261">
        <ele>826.076</ele>
        <time>2011-07-05T14:28:44Z</time>
      </trkpt>
      <trkpt lat="62.733704" lon="12.314278">
        <ele>826.85</ele>
        <time>2011-07-05T14:28:47Z</time>
      </trkpt>
      <trkpt lat="62.733724" lon="12.314312">
        <ele>827.522</ele>
        <time>2011-07-05T14:28:50Z</time>
      </trkpt>
      <trkpt lat="62.733798" lon="12.314386">
        <ele>829.805</ele>
        <time>2011-07-05T14:28:58Z</time>
      </trkpt>
      <trkpt lat="62.733853" lon="12.31446">
        <ele>830.132</ele>
        <time>2011-07-05T14:29:03Z</time>
      </trkpt>
      <trkpt lat="62.733956" lon="12.314602">
        <ele>830.622</ele>
        <time>2011-07-05T14:29:12Z</time>
      </trkpt>
      <trkpt lat="62.734045" lon="12.314725">
        <ele>831.577</ele>
        <time>2011-07-05T14:29:20Z</time>
      </trkpt>
      <trkpt lat="62.734163" lon="12.314835">
        <ele>832.494</ele>
        <time>2011-07-05T14:29:29Z</time>
      </trkpt>
      <trkpt lat="62.73423" lon="12.314916">
        <ele>833.22</ele>
        <time>2011-07-05T14:29:34Z</time>
      </trkpt>
      <trkpt lat="62.734291" lon="12.315048">
        <ele>834.813</ele>
        <time>2011-07-05T14:29:42Z</time>
      </trkpt>
      <trkpt lat="62.734302" lon="12.31506">
        <ele>834.746</ele>
        <time>2011-07-05T14:29:44Z</time>
      </trkpt>
      <trkpt lat="62.734346" lon="12.315089">
        <ele>834.373</ele>
        <time>2011-07-05T14:29:50Z</time>
      </trkpt>
      <trkpt lat="62.734402" lon="12.3151">
        <ele>834.284</ele>
        <time>2011-07-05T14:30:05Z</time>
      </trkpt>
      <trkpt lat="62.734472" lon="12.315142">
        <ele>834.41</ele>
        <time>2011-07-05T14:30:11Z</time>
      </trkpt>
      <trkpt lat="62.734579" lon="12.315202">
        <ele>833.979</ele>
        <time>2011-07-05T14:30:20Z</time>
      </trkpt>
      <trkpt lat="62.734592" lon="12.315249">
        <ele>833.296</ele>
        <time>2011-07-05T14:30:24Z</time>
      </trkpt>
      <trkpt lat="62.734599" lon="12.315279">
        <ele>833.033</ele>
        <time>2011-07-05T14:30:32Z</time>
      </trkpt>
      <trkpt lat="62.734597" lon="12.315308">
        <ele>833.116</ele>
        <time>2011-07-05T14:30:35Z</time>
      </trkpt>
      <trkpt lat="62.734613" lon="12.315227">
        <ele>833.425</ele>
        <time>2011-07-05T14:31:01Z</time>
      </trkpt>
      <trkpt lat="62.734614" lon="12.315218">
        <ele>833.555</ele>
        <time>2011-07-05T14:31:02Z</time>
      </trkpt>
      <trkpt lat="62.734625" lon="12.315296">
        <ele>833.821</ele>
        <time>2011-07-05T14:31:12Z</time>
      </trkpt>
      <trkpt lat="62.734565" lon="12.315425">
        <ele>833.918</ele>
        <time>2011-07-05T14:31:23Z</time>
      </trkpt>
      <trkpt lat="62.734545" lon="12.315484">
        <ele>833.717</ele>
        <time>2011-07-05T14:31:28Z</time>
      </trkpt>
      <trkpt lat="62.734535" lon="12.315559">
        <ele>833.705</ele>
        <time>2011-07-05T14:31:37Z</time>
      </trkpt>
      <trkpt lat="62.734585" lon="12.315644">
        <ele>833.906</ele>
        <time>2011-07-05T14:31:42Z</time>
      </trkpt>
      <trkpt lat="62.73459" lon="12.315664">
        <ele>834.093</ele>
        <time>2011-07-05T14:31:43Z</time>
      </trkpt>
      <trkpt lat="62.734614" lon="12.315754">
        <ele>835.645</ele>
        <time>2011-07-05T14:31:48Z</time>
      </trkpt>
      <trkpt lat="62.734666" lon="12.315859">
        <ele>837.687</ele>
        <time>2011-07-05T14:31:56Z</time>
      </trkpt>
      <trkpt lat="62.734698" lon="12.316008">
        <ele>839.518</ele>
        <time>2011-07-05T14:32:03Z</time>
      </trkpt>
      <trkpt lat="62.73471" lon="12.316145">
        <ele>840.58</ele>
        <time>2011-07-05T14:32:10Z</time>
      </trkpt>
      <trkpt lat="62.734711" lon="12.316243">
        <ele>840.897</ele>
        <time>2011-07-05T14:32:14Z</time>
      </trkpt>
      <trkpt lat="62.734739" lon="12.316451">
        <ele>841.932</ele>
        <time>2011-07-05T14:32:22Z</time>
      </trkpt>
      <trkpt lat="62.734746" lon="12.3166">
        <ele>842.084</ele>
        <time>2011-07-05T14:32:27Z</time>
      </trkpt>
      <trkpt lat="62.734762" lon="12.316913">
        <ele>842.464</ele>
        <time>2011-07-05T14:32:34Z</time>
      </trkpt>
      <trkpt lat="62.734759" lon="12.317311">
        <ele>842.966</ele>
        <time>2011-07-05T14:32:41Z</time>
      </trkpt>
      <trkpt lat="62.734806" lon="12.317591">
        <ele>843.031</ele>
        <time>2011-07-05T14:32:47Z</time>
      </trkpt>
      <trkpt lat="62.734896" lon="12.317815">
        <ele>842.188</ele>
        <time>2011-07-05T14:32:52Z</time>
      </trkpt>
      <trkpt lat="62.734977" lon="12.317952">
        <ele>842.414</ele>
        <time>2011-07-05T14:32:56Z</time>
      </trkpt>
      <trkpt lat="62.735103" lon="12.318001">
        <ele>843.153</ele>
        <time>2011-07-05T14:33:01Z</time>
      </trkpt>
      <trkpt lat="62.73525" lon="12.318109">
        <ele>844.255</ele>
        <time>2011-07-05T14:33:07Z</time>
      </trkpt>
      <trkpt lat="62.735366" lon="12.318216">
        <ele>845.013</ele>
        <time>2011-07-05T14:33:12Z</time>
      </trkpt>
      <trkpt lat="62.735423" lon="12.318302">
        <ele>845.421</ele>
        <time>2011-07-05T14:33:15Z</time>
      </trkpt>
      <trkpt lat="62.735554" lon="12.318339">
        <ele>846.197</ele>
        <time>2011-07-05T14:33:21Z</time>
      </trkpt>
      <trkpt lat="62.735679" lon="12.318309">
        <ele>846.408</ele>
        <time>2011-07-05T14:33:28Z</time>
      </trkpt>
      <trkpt lat="62.735793" lon="12.318292">
        <ele>847.486</ele>
        <time>2011-07-05T14:33:36Z</time>
      </trkpt>
      <trkpt lat="62.735859" lon="12.318325">
        <ele>847.446</ele>
        <time>2011-07-05T14:33:39Z</time>
      </trkpt>
      <trkpt lat="62.735885" lon="12.318391">
        <ele>847.765</ele>
        <time>2011-07-05T14:33:41Z</time>
      </trkpt>
      <trkpt lat="62.735935" lon="12.318472">
        <ele>848.414</ele>
        <time>2011-07-05T14:33:44Z</time>
      </trkpt>
      <trkpt lat="62.736064" lon="12.318436">
        <ele>848.703</ele>
        <time>2011-07-05T14:33:50Z</time>
      </trkpt>
      <trkpt lat="62.736134" lon="12.318267">
        <ele>849.176</ele>
        <time>2011-07-05T14:33:54Z</time>
      </trkpt>
      <trkpt lat="62.736252" lon="12.318148">
        <ele>850.709</ele>
        <time>2011-07-05T14:34:00Z</time>
      </trkpt>
      <trkpt lat="62.736387" lon="12.318195">
        <ele>851.864</ele>
        <time>2011-07-05T14:34:06Z</time>
      </trkpt>
      <trkpt lat="62.73654" lon="12.318335">
        <ele>853.363</ele>
        <time>2011-07-05T14:34:13Z</time>
      </trkpt>
      <trkpt lat="62.736658" lon="12.318477">
        <ele>854.087</ele>
        <time>2011-07-05T14:34:19Z</time>
      </trkpt>
      <trkpt lat="62.736772" lon="12.318643">
        <ele>853.476</ele>
        <time>2011-07-05T14:34:24Z</time>
      </trkpt>
      <trkpt lat="62.736868" lon="12.318874">
        <ele>853.536</ele>
        <time>2011-07-05T14:34:30Z</time>
      </trkpt>
      <trkpt lat="62.736945" lon="12.319107">
        <ele>854.49</ele>
        <time>2011-07-05T14:34:36Z</time>
      </trkpt>
      <trkpt lat="62.737045" lon="12.319413">
        <ele>855.772</ele>
        <time>2011-07-05T14:34:43Z</time>
      </trkpt>
      <trkpt lat="62.737148" lon="12.319584">
        <ele>855.551</ele>
        <time>2011-07-05T14:34:48Z</time>
      </trkpt>
      <trkpt lat="62.737305" lon="12.319741">
        <ele>856.116</ele>
        <time>2011-07-05T14:34:55Z</time>
      </trkpt>
      <trkpt lat="62.737374" lon="12.319784">
        <ele>857.51</ele>
        <time>2011-07-05T14:35:00Z</time>
      </trkpt>
      <trkpt lat="62.737484" lon="12.31986">
        <ele>859.136</ele>
        <time>2011-07-05T14:35:08Z</time>
      </trkpt>
      <trkpt lat="62.737574" lon="12.319933">
        <ele>860.591</ele>
        <time>2011-07-05T14:35:15Z</time>
      </trkpt>
      <trkpt lat="62.737598" lon="12.319957">
        <ele>860.897</ele>
        <time>2011-07-05T14:35:17Z</time>
      </trkpt>
      <trkpt lat="62.737695" lon="12.320114">
        <ele>861.828</ele>
        <time>2011-07-05T14:35:25Z</time>
      </trkpt>
      <trkpt lat="62.737816" lon="12.320239">
        <ele>863.57</ele>
        <time>2011-07-05T14:35:34Z</time>
      </trkpt>
      <trkpt lat="62.73792" lon="12.32043">
        <ele>864.5</ele>
        <time>2011-07-05T14:35:43Z</time>
      </trkpt>
      <trkpt lat="62.738029" lon="12.320588">
        <ele>865.725</ele>
        <time>2011-07-05T14:35:52Z</time>
      </trkpt>
      <trkpt lat="62.738107" lon="12.320665">
        <ele>866.581</ele>
        <time>2011-07-05T14:35:58Z</time>
      </trkpt>
      <trkpt lat="62.738167" lon="12.320718">
        <ele>867.516</ele>
        <time>2011-07-05T14:36:04Z</time>
      </trkpt>
      <trkpt lat="62.738244" lon="12.32081">
        <ele>868.914</ele>
        <time>2011-07-05T14:36:11Z</time>
      </trkpt>
      <trkpt lat="62.738343" lon="12.320954">
        <ele>869.329</ele>
        <time>2011-07-05T14:36:17Z</time>
      </trkpt>
      <trkpt lat="62.738438" lon="12.321095">
        <ele>869.35</ele>
        <time>2011-07-05T14:36:22Z</time>
      </trkpt>
      <trkpt lat="62.738568" lon="12.32124">
        <ele>870.682</ele>
        <time>2011-07-05T14:36:29Z</time>
      </trkpt>
      <trkpt lat="62.73862" lon="12.321375">
        <ele>870.981</ele>
        <time>2011-07-05T14:36:33Z</time>
      </trkpt>
      <trkpt lat="62.738734" lon="12.321444">
        <ele>871.487</ele>
        <time>2011-07-05T14:36:39Z</time>
      </trkpt>
      <trkpt lat="62.738837" lon="12.321573">
        <ele>872.684</ele>
        <time>2011-07-05T14:36:46Z</time>
      </trkpt>
      <trkpt lat="62.738849" lon="12.32159">
        <ele>872.927</ele>
        <time>2011-07-05T14:36:47Z</time>
      </trkpt>
      <trkpt lat="62.738955" lon="12.321682">
        <ele>873.874</ele>
        <time>2011-07-05T14:36:55Z</time>
      </trkpt>
      <trkpt lat="62.739027" lon="12.321748">
        <ele>874.474</ele>
        <time>2011-07-05T14:37:01Z</time>
      </trkpt>
      <trkpt lat="62.739119" lon="12.321807">
        <ele>874.111</ele>
        <time>2011-07-05T14:37:08Z</time>
      </trkpt>
      <trkpt lat="62.739184" lon="12.321928">
        <ele>873.854</ele>
        <time>2011-07-05T14:37:15Z</time>
      </trkpt>
      <trkpt lat="62.739249" lon="12.32208">
        <ele>875.491</ele>
        <time>2011-07-05T14:37:23Z</time>
      </trkpt>
      <trkpt lat="62.739351" lon="12.322207">
        <ele>877.521</ele>
        <time>2011-07-05T14:37:32Z</time>
      </trkpt>
      <trkpt lat="62.739461" lon="12.322298">
        <ele>877.954</ele>
        <time>2011-07-05T14:37:38Z</time>
      </trkpt>
      <trkpt lat="62.739604" lon="12.322451">
        <ele>878.308</ele>
        <time>2011-07-05T14:37:44Z</time>
      </trkpt>
      <trkpt lat="62.73972" lon="12.322545">
        <ele>880.234</ele>
        <time>2011-07-05T14:37:50Z</time>
      </trkpt>
      <trkpt lat="62.739836" lon="12.322632">
        <ele>881.717</ele>
        <time>2011-07-05T14:37:56Z</time>
      </trkpt>
      <trkpt lat="62.739974" lon="12.322625">
        <ele>882.705</ele>
        <time>2011-07-05T14:38:02Z</time>
      </trkpt>
      <trkpt lat="62.740149" lon="12.322659">
        <ele>883.642</ele>
        <time>2011-07-05T14:38:10Z</time>
      </trkpt>
      <trkpt lat="62.740221" lon="12.322663">
        <ele>884.696</ele>
        <time>2011-07-05T14:38:15Z</time>
      </trkpt>
      <trkpt lat="62.740315" lon="12.322688">
        <ele>885.639</ele>
        <time>2011-07-05T14:38:22Z</time>
      </trkpt>
      <trkpt lat="62.740387" lon="12.322736">
        <ele>887.143</ele>
        <time>2011-07-05T14:38:29Z</time>
      </trkpt>
      <trkpt lat="62.740466" lon="12.32286">
        <ele>887.577</ele>
        <time>2011-07-05T14:38:33Z</time>
      </trkpt>
      <trkpt lat="62.740607" lon="12.323057">
        <ele>888.966</ele>
        <time>2011-07-05T14:38:40Z</time>
      </trkpt>
      <trkpt lat="62.740767" lon="12.323209">
        <ele>890.342</ele>
        <time>2011-07-05T14:38:47Z</time>
      </trkpt>
      <trkpt lat="62.740905" lon="12.323342">
        <ele>890.994</ele>
        <time>2011-07-05T14:38:53Z</time>
      </trkpt>
      <trkpt lat="62.741035" lon="12.323502">
        <ele>891.875</ele>
        <time>2011-07-05T14:38:59Z</time>
      </trkpt>
      <trkpt lat="62.741116" lon="12.323614">
        <ele>892.355</ele>
        <time>2011-07-05T14:39:03Z</time>
      </trkpt>
      <trkpt lat="62.741202" lon="12.323674">
        <ele>893.123</ele>
        <time>2011-07-05T14:39:07Z</time>
      </trkpt>
      <trkpt lat="62.741355" lon="12.323778">
        <ele>894.219</ele>
        <time>2011-07-05T14:39:14Z</time>
      </trkpt>
      <trkpt lat="62.741513" lon="12.323939">
        <ele>895.75</ele>
        <time>2011-07-05T14:39:22Z</time>
      </trkpt>
      <trkpt lat="62.741609" lon="12.32402">
        <ele>896.48</ele>
        <time>2011-07-05T14:39:27Z</time>
      </trkpt>
      <trkpt lat="62.741737" lon="12.324124">
        <ele>897.661</ele>
        <time>2011-07-05T14:39:33Z</time>
      </trkpt>
      <trkpt lat="62.741803" lon="12.324247">
        <ele>898.284</ele>
        <time>2011-07-05T14:39:38Z</time>
      </trkpt>
      <trkpt lat="62.741811" lon="12.324273">
        <ele>898.357</ele>
        <time>2011-07-05T14:39:39Z</time>
      </trkpt>
      <trkpt lat="62.741879" lon="12.324351">
        <ele>898.239</ele>
        <time>2011-07-05T14:39:45Z</time>
      </trkpt>
      <trkpt lat="62.741919" lon="12.324364">
        <ele>898.384</ele>
        <time>2011-07-05T14:39:48Z</time>
      </trkpt>
      <trkpt lat="62.742047" lon="12.324408">
        <ele>899.076</ele>
        <time>2011-07-05T14:39:58Z</time>
      </trkpt>
      <trkpt lat="62.742108" lon="12.324414">
        <ele>900.742</ele>
        <time>2011-07-05T14:40:04Z</time>
      </trkpt>
      <trkpt lat="62.742201" lon="12.324477">
        <ele>902.461</ele>
        <time>2011-07-05T14:40:12Z</time>
      </trkpt>
      <trkpt lat="62.742332" lon="12.324564">
        <ele>903.481</ele>
        <time>2011-07-05T14:40:19Z</time>
      </trkpt>
      <trkpt lat="62.742544" lon="12.324696">
        <ele>904.978</ele>
        <time>2011-07-05T14:40:28Z</time>
      </trkpt>
      <trkpt lat="62.742702" lon="12.324755">
        <ele>904.824</ele>
        <time>2011-07-05T14:40:35Z</time>
      </trkpt>
      <trkpt lat="62.742744" lon="12.324737">
        <ele>904.379</ele>
        <time>2011-07-05T14:40:38Z</time>
      </trkpt>
      <trkpt lat="62.742838" lon="12.32481">
        <ele>904.569</ele>
        <time>2011-07-05T14:40:44Z</time>
      </trkpt>
      <trkpt lat="62.74297" lon="12.324935">
        <ele>905.132</ele>
        <time>2011-07-05T14:40:50Z</time>
      </trkpt>
      <trkpt lat="62.743118" lon="12.325054">
        <ele>905.817</ele>
        <time>2011-07-05T14:40:57Z</time>
      </trkpt>
      <trkpt lat="62.743273" lon="12.325155">
        <ele>906.279</ele>
        <time>2011-07-05T14:41:04Z</time>
      </trkpt>
      <trkpt lat="62.743422" lon="12.325288">
        <ele>906.751</ele>
        <time>2011-07-05T14:41:11Z</time>
      </trkpt>
      <trkpt lat="62.743571" lon="12.325348">
        <ele>907.401</ele>
        <time>2011-07-05T14:41:18Z</time>
      </trkpt>
      <trkpt lat="62.74367" lon="12.325331">
        <ele>907.927</ele>
        <time>2011-07-05T14:41:23Z</time>
      </trkpt>
      <trkpt lat="62.743771" lon="12.325439">
        <ele>908.905</ele>
        <time>2011-07-05T14:41:28Z</time>
      </trkpt>
      <trkpt lat="62.74392" lon="12.325636">
        <ele>909.485</ele>
        <time>2011-07-05T14:41:35Z</time>
      </trkpt>
      <trkpt lat="62.743947" lon="12.325695">
        <ele>910.14</ele>
        <time>2011-07-05T14:41:38Z</time>
      </trkpt>
      <trkpt lat="62.744024" lon="12.325724">
        <ele>911.297</ele>
        <time>2011-07-05T14:41:45Z</time>
      </trkpt>
      <trkpt lat="62.74404" lon="12.325768">
        <ele>911.516</ele>
        <time>2011-07-05T14:41:47Z</time>
      </trkpt>
      <trkpt lat="62.7441" lon="12.325876">
        <ele>912.166</ele>
        <time>2011-07-05T14:41:53Z</time>
      </trkpt>
      <trkpt lat="62.744185" lon="12.325968">
        <ele>912.998</ele>
        <time>2011-07-05T14:42:00Z</time>
      </trkpt>
      <trkpt lat="62.744298" lon="12.325984">
        <ele>913.667</ele>
        <time>2011-07-05T14:42:08Z</time>
      </trkpt>
      <trkpt lat="62.744418" lon="12.326038">
        <ele>914.715</ele>
        <time>2011-07-05T14:42:14Z</time>
      </trkpt>
      <trkpt lat="62.744488" lon="12.326137">
        <ele>915.696</ele>
        <time>2011-07-05T14:42:18Z</time>
      </trkpt>
      <trkpt lat="62.74466" lon="12.326244">
        <ele>916.709</ele>
        <time>2011-07-05T14:42:26Z</time>
      </trkpt>
      <trkpt lat="62.744803" lon="12.326398">
        <ele>917.467</ele>
        <time>2011-07-05T14:42:33Z</time>
      </trkpt>
      <trkpt lat="62.744902" lon="12.32653">
        <ele>917.836</ele>
        <time>2011-07-05T14:42:39Z</time>
      </trkpt>
      <trkpt lat="62.74494" lon="12.326548">
        <ele>917.049</ele>
        <time>2011-07-05T14:42:44Z</time>
      </trkpt>
      <trkpt lat="62.744955" lon="12.326573">
        <ele>917.136</ele>
        <time>2011-07-05T14:42:47Z</time>
      </trkpt>
      <trkpt lat="62.745034" lon="12.326571">
        <ele>917.705</ele>
        <time>2011-07-05T14:42:54Z</time>
      </trkpt>
      <trkpt lat="62.745103" lon="12.32659">
        <ele>918.2</ele>
        <time>2011-07-05T14:43:00Z</time>
      </trkpt>
      <trkpt lat="62.745124" lon="12.326588">
        <ele>918.402</ele>
        <time>2011-07-05T14:43:02Z</time>
      </trkpt>
      <trkpt lat="62.745238" lon="12.326708">
        <ele>919.648</ele>
        <time>2011-07-05T14:43:12Z</time>
      </trkpt>
      <trkpt lat="62.745322" lon="12.326786">
        <ele>920.396</ele>
        <time>2011-07-05T14:43:19Z</time>
      </trkpt>
      <trkpt lat="62.745375" lon="12.326858">
        <ele>921.069</ele>
        <time>2011-07-05T14:43:24Z</time>
      </trkpt>
      <trkpt lat="62.745501" lon="12.326904">
        <ele>922.537</ele>
        <time>2011-07-05T14:43:32Z</time>
      </trkpt>
      <trkpt lat="62.745646" lon="12.327043">
        <ele>924.065</ele>
        <time>2011-07-05T14:43:39Z</time>
      </trkpt>
      <trkpt lat="62.745756" lon="12.327132">
        <ele>924.864</ele>
        <time>2011-07-05T14:43:44Z</time>
      </trkpt>
      <trkpt lat="62.745871" lon="12.327124">
        <ele>926.476</ele>
        <time>2011-07-05T14:43:53Z</time>
      </trkpt>
      <trkpt lat="62.746011" lon="12.32719">
        <ele>926.256</ele>
        <time>2011-07-05T14:44:03Z</time>
      </trkpt>
      <trkpt lat="62.746061" lon="12.327247">
        <ele>926.313</ele>
        <time>2011-07-05T14:44:07Z</time>
      </trkpt>
      <trkpt lat="62.746202" lon="12.327207">
        <ele>926.09</ele>
        <time>2011-07-05T14:44:14Z</time>
      </trkpt>
      <trkpt lat="62.746301" lon="12.327233">
        <ele>927.248</ele>
        <time>2011-07-05T14:44:19Z</time>
      </trkpt>
      <trkpt lat="62.746381" lon="12.327254">
        <ele>928.421</ele>
        <time>2011-07-05T14:44:23Z</time>
      </trkpt>
      <trkpt lat="62.74649" lon="12.327524">
        <ele>929.113</ele>
        <time>2011-07-05T14:44:30Z</time>
      </trkpt>
      <trkpt lat="62.746569" lon="12.327624">
        <ele>929.177</ele>
        <time>2011-07-05T14:44:34Z</time>
      </trkpt>
      <trkpt lat="62.746618" lon="12.327734">
        <ele>929.71</ele>
        <time>2011-07-05T14:44:37Z</time>
      </trkpt>
      <trkpt lat="62.74674" lon="12.328045">
        <ele>930.04</ele>
        <time>2011-07-05T14:44:45Z</time>
      </trkpt>
      <trkpt lat="62.746843" lon="12.328189">
        <ele>930.35</ele>
        <time>2011-07-05T14:44:50Z</time>
      </trkpt>
      <trkpt lat="62.746922" lon="12.328345">
        <ele>930.546</ele>
        <time>2011-07-05T14:44:54Z</time>
      </trkpt>
      <trkpt lat="62.747086" lon="12.328604">
        <ele>931.622</ele>
        <time>2011-07-05T14:45:02Z</time>
      </trkpt>
      <trkpt lat="62.74722" lon="12.328716">
        <ele>932.476</ele>
        <time>2011-07-05T14:45:08Z</time>
      </trkpt>
      <trkpt lat="62.747386" lon="12.328826">
        <ele>932.82</ele>
        <time>2011-07-05T14:45:15Z</time>
      </trkpt>
      <trkpt lat="62.747566" lon="12.329034">
        <ele>934.621</ele>
        <time>2011-07-05T14:45:23Z</time>
      </trkpt>
      <trkpt lat="62.747693" lon="12.329178">
        <ele>935.544</ele>
        <time>2011-07-05T14:45:29Z</time>
      </trkpt>
      <trkpt lat="62.747791" lon="12.329328">
        <ele>936.675</ele>
        <time>2011-07-05T14:45:35Z</time>
      </trkpt>
      <trkpt lat="62.747921" lon="12.329516">
        <ele>937.973</ele>
        <time>2011-07-05T14:45:42Z</time>
      </trkpt>
      <trkpt lat="62.747998" lon="12.32957">
        <ele>938.469</ele>
        <time>2011-07-05T14:45:48Z</time>
      </trkpt>
      <trkpt lat="62.748054" lon="12.329691">
        <ele>939.026</ele>
        <time>2011-07-05T14:45:55Z</time>
      </trkpt>
      <trkpt lat="62.74813" lon="12.329813">
        <ele>939.126</ele>
        <time>2011-07-05T14:46:02Z</time>
      </trkpt>
      <trkpt lat="62.748208" lon="12.329879">
        <ele>939.197</ele>
        <time>2011-07-05T14:46:08Z</time>
      </trkpt>
      <trkpt lat="62.748279" lon="12.329894">
        <ele>939.958</ele>
        <time>2011-07-05T14:46:14Z</time>
      </trkpt>
      <trkpt lat="62.748374" lon="12.329977">
        <ele>940.651</ele>
        <time>2011-07-05T14:46:22Z</time>
      </trkpt>
      <trkpt lat="62.748456" lon="12.330011">
        <ele>941.788</ele>
        <time>2011-07-05T14:46:29Z</time>
      </trkpt>
      <trkpt lat="62.748547" lon="12.330104">
        <ele>942.963</ele>
        <time>2011-07-05T14:46:35Z</time>
      </trkpt>
      <trkpt lat="62.74869" lon="12.330238">
        <ele>943.529</ele>
        <time>2011-07-05T14:46:41Z</time>
      </trkpt>
      <trkpt lat="62.748805" lon="12.33036">
        <ele>944.035</ele>
        <time>2011-07-05T14:46:46Z</time>
      </trkpt>
      <trkpt lat="62.748955" lon="12.330504">
        <ele>944.263</ele>
        <time>2011-07-05T14:46:52Z</time>
      </trkpt>
      <trkpt lat="62.749099" lon="12.330707">
        <ele>944.347</ele>
        <time>2011-07-05T14:46:58Z</time>
      </trkpt>
      <trkpt lat="62.749241" lon="12.330806">
        <ele>945.27</ele>
        <time>2011-07-05T14:47:04Z</time>
      </trkpt>
      <trkpt lat="62.7494" lon="12.330887">
        <ele>945.536</ele>
        <time>2011-07-05T14:47:11Z</time>
      </trkpt>
      <trkpt lat="62.749531" lon="12.331072">
        <ele>946.048</ele>
        <time>2011-07-05T14:47:17Z</time>
      </trkpt>
      <trkpt lat="62.749639" lon="12.331261">
        <ele>946.88</ele>
        <time>2011-07-05T14:47:23Z</time>
      </trkpt>
      <trkpt lat="62.749766" lon="12.331366">
        <ele>948.543</ele>
        <time>2011-07-05T14:47:29Z</time>
      </trkpt>
      <trkpt lat="62.749939" lon="12.331519">
        <ele>950.376</ele>
        <time>2011-07-05T14:47:37Z</time>
      </trkpt>
      <trkpt lat="62.750095" lon="12.331679">
        <ele>951.513</ele>
        <time>2011-07-05T14:47:44Z</time>
      </trkpt>
      <trkpt lat="62.75021" lon="12.331766">
        <ele>953.096</ele>
        <time>2011-07-05T14:47:50Z</time>
      </trkpt>
      <trkpt lat="62.750363" lon="12.331903">
        <ele>954.184</ele>
        <time>2011-07-05T14:47:57Z</time>
      </trkpt>
      <trkpt lat="62.750463" lon="12.332021">
        <ele>954.041</ele>
        <time>2011-07-05T14:48:03Z</time>
      </trkpt>
      <trkpt lat="62.750603" lon="12.332197">
        <ele>952.429</ele>
        <time>2011-07-05T14:48:09Z</time>
      </trkpt>
      <trkpt lat="62.750701" lon="12.332267">
        <ele>952.841</ele>
        <time>2011-07-05T14:48:13Z</time>
      </trkpt>
      <trkpt lat="62.750767" lon="12.332325">
        <ele>953.321</ele>
        <time>2011-07-05T14:48:17Z</time>
      </trkpt>
      <trkpt lat="62.750867" lon="12.332384">
        <ele>954.039</ele>
        <time>2011-07-05T14:48:23Z</time>
      </trkpt>
      <trkpt lat="62.751008" lon="12.332524">
        <ele>954.579</ele>
        <time>2011-07-05T14:48:29Z</time>
      </trkpt>
      <trkpt lat="62.751147" lon="12.332646">
        <ele>955.076</ele>
        <time>2011-07-05T14:48:35Z</time>
      </trkpt>
      <trkpt lat="62.751323" lon="12.33282">
        <ele>955.679</ele>
        <time>2011-07-05T14:48:43Z</time>
      </trkpt>
      <trkpt lat="62.751421" lon="12.332959">
        <ele>956.672</ele>
        <time>2011-07-05T14:48:48Z</time>
      </trkpt>
      <trkpt lat="62.751581" lon="12.333071">
        <ele>957.642</ele>
        <time>2011-07-05T14:48:55Z</time>
      </trkpt>
      <trkpt lat="62.751734" lon="12.33325">
        <ele>958.642</ele>
        <time>2011-07-05T14:49:02Z</time>
      </trkpt>
      <trkpt lat="62.751871" lon="12.333389">
        <ele>958.347</ele>
        <time>2011-07-05T14:49:08Z</time>
      </trkpt>
      <trkpt lat="62.751979" lon="12.333516">
        <ele>958.476</ele>
        <time>2011-07-05T14:49:13Z</time>
      </trkpt>
      <trkpt lat="62.752059" lon="12.333607">
        <ele>959.271</ele>
        <time>2011-07-05T14:49:17Z</time>
      </trkpt>
      <trkpt lat="62.752133" lon="12.333652">
        <ele>959.949</ele>
        <time>2011-07-05T14:49:21Z</time>
      </trkpt>
      <trkpt lat="62.752216" lon="12.333748">
        <ele>961.977</ele>
        <time>2011-07-05T14:49:30Z</time>
      </trkpt>
      <trkpt lat="62.752272" lon="12.333839">
        <ele>964.236</ele>
        <time>2011-07-05T14:49:37Z</time>
      </trkpt>
      <trkpt lat="62.752355" lon="12.333915">
        <ele>966.134</ele>
        <time>2011-07-05T14:49:45Z</time>
      </trkpt>
      <trkpt lat="62.752448" lon="12.333981">
        <ele>967.16</ele>
        <time>2011-07-05T14:49:54Z</time>
      </trkpt>
      <trkpt lat="62.752539" lon="12.334064">
        <ele>968.164</ele>
        <time>2011-07-05T14:50:02Z</time>
      </trkpt>
      <trkpt lat="62.752643" lon="12.3342">
        <ele>968.523</ele>
        <time>2011-07-05T14:50:09Z</time>
      </trkpt>
      <trkpt lat="62.752803" lon="12.334367">
        <ele>968.481</ele>
        <time>2011-07-05T14:50:17Z</time>
      </trkpt>
      <trkpt lat="62.752947" lon="12.334466">
        <ele>966.548</ele>
        <time>2011-07-05T14:50:23Z</time>
      </trkpt>
      <trkpt lat="62.753103" lon="12.334608">
        <ele>965.07</ele>
        <time>2011-07-05T14:50:29Z</time>
      </trkpt>
      <trkpt lat="62.753249" lon="12.33473">
        <ele>965.313</ele>
        <time>2011-07-05T14:50:35Z</time>
      </trkpt>
      <trkpt lat="62.753362" lon="12.334849">
        <ele>966.021</ele>
        <time>2011-07-05T14:50:40Z</time>
      </trkpt>
      <trkpt lat="62.753527" lon="12.335016">
        <ele>967.249</ele>
        <time>2011-07-05T14:50:47Z</time>
      </trkpt>
      <trkpt lat="62.753676" lon="12.335165">
        <ele>967.366</ele>
        <time>2011-07-05T14:50:53Z</time>
      </trkpt>
      <trkpt lat="62.75384" lon="12.335336">
        <ele>968.326</ele>
        <time>2011-07-05T14:51:00Z</time>
      </trkpt>
      <trkpt lat="62.753979" lon="12.335501">
        <ele>968.68</ele>
        <time>2011-07-05T14:51:06Z</time>
      </trkpt>
      <trkpt lat="62.754161" lon="12.335693">
        <ele>969.23</ele>
        <time>2011-07-05T14:51:14Z</time>
      </trkpt>
      <trkpt lat="62.754304" lon="12.335831">
        <ele>970.18</ele>
        <time>2011-07-05T14:51:21Z</time>
      </trkpt>
      <trkpt lat="62.754482" lon="12.335971">
        <ele>971.678</ele>
        <time>2011-07-05T14:51:29Z</time>
      </trkpt>
      <trkpt lat="62.754647" lon="12.336125">
        <ele>972.755</ele>
        <time>2011-07-05T14:51:36Z</time>
      </trkpt>
      <trkpt lat="62.75482" lon="12.336276">
        <ele>973.481</ele>
        <time>2011-07-05T14:51:43Z</time>
      </trkpt>
      <trkpt lat="62.755016" lon="12.33642">
        <ele>974.733</ele>
        <time>2011-07-05T14:51:51Z</time>
      </trkpt>
      <trkpt lat="62.755176" lon="12.336561">
        <ele>974.954</ele>
        <time>2011-07-05T14:51:58Z</time>
      </trkpt>
      <trkpt lat="62.755345" lon="12.336717">
        <ele>974.239</ele>
        <time>2011-07-05T14:52:05Z</time>
      </trkpt>
      <trkpt lat="62.755433" lon="12.336825">
        <ele>974.361</ele>
        <time>2011-07-05T14:52:09Z</time>
      </trkpt>
      <trkpt lat="62.755544" lon="12.336903">
        <ele>974.631</ele>
        <time>2011-07-05T14:52:15Z</time>
      </trkpt>
      <trkpt lat="62.755649" lon="12.337016">
        <ele>975.073</ele>
        <time>2011-07-05T14:52:24Z</time>
      </trkpt>
      <trkpt lat="62.755738" lon="12.337118">
        <ele>975.447</ele>
        <time>2011-07-05T14:52:32Z</time>
      </trkpt>
      <trkpt lat="62.755806" lon="12.337154">
        <ele>975.784</ele>
        <time>2011-07-05T14:52:38Z</time>
      </trkpt>
      <trkpt lat="62.755819" lon="12.337167">
        <ele>975.768</ele>
        <time>2011-07-05T14:52:39Z</time>
      </trkpt>
      <trkpt lat="62.755881" lon="12.337311">
        <ele>975.912</ele>
        <time>2011-07-05T14:52:47Z</time>
      </trkpt>
      <trkpt lat="62.755887" lon="12.337327">
        <ele>975.708</ele>
        <time>2011-07-05T14:52:50Z</time>
      </trkpt>
      <trkpt lat="62.755896" lon="12.337377">
        <ele>975.924</ele>
        <time>2011-07-05T14:52:54Z</time>
      </trkpt>
      <trkpt lat="62.755907" lon="12.337419">
        <ele>976.532</ele>
        <time>2011-07-05T14:52:58Z</time>
      </trkpt>
      <trkpt lat="62.755952" lon="12.337444">
        <ele>977.171</ele>
        <time>2011-07-05T14:53:02Z</time>
      </trkpt>
      <trkpt lat="62.756055" lon="12.337503">
        <ele>978.279</ele>
        <time>2011-07-05T14:53:10Z</time>
      </trkpt>
      <trkpt lat="62.756169" lon="12.337603">
        <ele>979.435</ele>
        <time>2011-07-05T14:53:19Z</time>
      </trkpt>
      <trkpt lat="62.756282" lon="12.337706">
        <ele>979.697</ele>
        <time>2011-07-05T14:53:25Z</time>
      </trkpt>
      <trkpt lat="62.756358" lon="12.337891">
        <ele>979.441</ele>
        <time>2011-07-05T14:53:30Z</time>
      </trkpt>
      <trkpt lat="62.756508" lon="12.338">
        <ele>980.31</ele>
        <time>2011-07-05T14:53:37Z</time>
      </trkpt>
      <trkpt lat="62.756627" lon="12.338163">
        <ele>981.082</ele>
        <time>2011-07-05T14:53:42Z</time>
      </trkpt>
      <trkpt lat="62.756765" lon="12.338336">
        <ele>981.802</ele>
        <time>2011-07-05T14:53:48Z</time>
      </trkpt>
      <trkpt lat="62.756864" lon="12.338473">
        <ele>983.347</ele>
        <time>2011-07-05T14:53:53Z</time>
      </trkpt>
      <trkpt lat="62.756982" lon="12.33862">
        <ele>984.678</ele>
        <time>2011-07-05T14:53:59Z</time>
      </trkpt>
      <trkpt lat="62.757084" lon="12.338742">
        <ele>985.374</ele>
        <time>2011-07-05T14:54:05Z</time>
      </trkpt>
      <trkpt lat="62.757253" lon="12.338963">
        <ele>986.888</ele>
        <time>2011-07-05T14:54:13Z</time>
      </trkpt>
      <trkpt lat="62.757376" lon="12.339105">
        <ele>987.401</ele>
        <time>2011-07-05T14:54:19Z</time>
      </trkpt>
      <trkpt lat="62.757543" lon="12.339354">
        <ele>987.573</ele>
        <time>2011-07-05T14:54:27Z</time>
      </trkpt>
      <trkpt lat="62.757681" lon="12.339467">
        <ele>987.835</ele>
        <time>2011-07-05T14:54:33Z</time>
      </trkpt>
      <trkpt lat="62.757862" lon="12.33962">
        <ele>988.524</ele>
        <time>2011-07-05T14:54:41Z</time>
      </trkpt>
      <trkpt lat="62.757919" lon="12.339735">
        <ele>988.698</ele>
        <time>2011-07-05T14:54:45Z</time>
      </trkpt>
      <trkpt lat="62.757946" lon="12.33977">
        <ele>987.941</ele>
        <time>2011-07-05T14:54:49Z</time>
      </trkpt>
      <trkpt lat="62.757964" lon="12.339792">
        <ele>988.077</ele>
        <time>2011-07-05T14:54:51Z</time>
      </trkpt>
      <trkpt lat="62.758051" lon="12.339852">
        <ele>988.908</ele>
        <time>2011-07-05T14:54:58Z</time>
      </trkpt>
      <trkpt lat="62.758141" lon="12.340014">
        <ele>989.724</ele>
        <time>2011-07-05T14:55:03Z</time>
      </trkpt>
      <trkpt lat="62.758182" lon="12.340071">
        <ele>989.818</ele>
        <time>2011-07-05T14:55:05Z</time>
      </trkpt>
      <trkpt lat="62.758359" lon="12.340342">
        <ele>990.994</ele>
        <time>2011-07-05T14:55:13Z</time>
      </trkpt>
      <trkpt lat="62.758473" lon="12.340458">
        <ele>990.968</ele>
        <time>2011-07-05T14:55:18Z</time>
      </trkpt>
      <trkpt lat="62.758593" lon="12.340615">
        <ele>991.755</ele>
        <time>2011-07-05T14:55:24Z</time>
      </trkpt>
      <trkpt lat="62.7587" lon="12.340739">
        <ele>992.314</ele>
        <time>2011-07-05T14:55:29Z</time>
      </trkpt>
      <trkpt lat="62.758832" lon="12.340889">
        <ele>993.017</ele>
        <time>2011-07-05T14:55:35Z</time>
      </trkpt>
      <trkpt lat="62.758969" lon="12.341039">
        <ele>993.329</ele>
        <time>2011-07-05T14:55:41Z</time>
      </trkpt>
      <trkpt lat="62.759094" lon="12.341182">
        <ele>993.729</ele>
        <time>2011-07-05T14:55:47Z</time>
      </trkpt>
      <trkpt lat="62.759195" lon="12.341353">
        <ele>993.719</ele>
        <time>2011-07-05T14:55:52Z</time>
      </trkpt>
      <trkpt lat="62.759302" lon="12.341484">
        <ele>994.296</ele>
        <time>2011-07-05T14:55:57Z</time>
      </trkpt>
      <trkpt lat="62.759408" lon="12.34162">
        <ele>995.027</ele>
        <time>2011-07-05T14:56:02Z</time>
      </trkpt>
      <trkpt lat="62.759574" lon="12.341861">
        <ele>996.483</ele>
        <time>2011-07-05T14:56:10Z</time>
      </trkpt>
      <trkpt lat="62.759639" lon="12.341897">
        <ele>996.833</ele>
        <time>2011-07-05T14:56:13Z</time>
      </trkpt>
      <trkpt lat="62.759722" lon="12.341984">
        <ele>997.412</ele>
        <time>2011-07-05T14:56:17Z</time>
      </trkpt>
      <trkpt lat="62.759849" lon="12.342166">
        <ele>998.876</ele>
        <time>2011-07-05T14:56:24Z</time>
      </trkpt>
      <trkpt lat="62.759983" lon="12.342296">
        <ele>999.253</ele>
        <time>2011-07-05T14:56:30Z</time>
      </trkpt>
      <trkpt lat="62.760149" lon="12.342487">
        <ele>999.299</ele>
        <time>2011-07-05T14:56:37Z</time>
      </trkpt>
      <trkpt lat="62.760328" lon="12.342811">
        <ele>1000</ele>
        <time>2011-07-05T14:56:46Z</time>
      </trkpt>
      <trkpt lat="62.760489" lon="12.343002">
        <ele>1000.44</ele>
        <time>2011-07-05T14:56:53Z</time>
      </trkpt>
      <trkpt lat="62.760672" lon="12.343215">
        <ele>1000.84</ele>
        <time>2011-07-05T14:57:01Z</time>
      </trkpt>
      <trkpt lat="62.760852" lon="12.343447">
        <ele>1000.83</ele>
        <time>2011-07-05T14:57:09Z</time>
      </trkpt>
      <trkpt lat="62.76104" lon="12.343679">
        <ele>1001.65</ele>
        <time>2011-07-05T14:57:17Z</time>
      </trkpt>
      <trkpt lat="62.761193" lon="12.343873">
        <ele>1002.67</ele>
        <time>2011-07-05T14:57:24Z</time>
      </trkpt>
      <trkpt lat="62.761331" lon="12.344014">
        <ele>1003.92</ele>
        <time>2011-07-05T14:57:31Z</time>
      </trkpt>
      <trkpt lat="62.761477" lon="12.344196">
        <ele>1004.94</ele>
        <time>2011-07-05T14:57:38Z</time>
      </trkpt>
      <trkpt lat="62.761582" lon="12.344358">
        <ele>1005.11</ele>
        <time>2011-07-05T14:57:44Z</time>
      </trkpt>
      <trkpt lat="62.761628" lon="12.344425">
        <ele>1004.77</ele>
        <time>2011-07-05T14:57:50Z</time>
      </trkpt>
      <trkpt lat="62.7617" lon="12.344517">
        <ele>1005.49</ele>
        <time>2011-07-05T14:57:57Z</time>
      </trkpt>
      <trkpt lat="62.761706" lon="12.344538">
        <ele>1005.7</ele>
        <time>2011-07-05T14:58:00Z</time>
      </trkpt>
      <trkpt lat="62.761715" lon="12.344546">
        <ele>1005.98</ele>
        <time>2011-07-05T14:58:19Z</time>
      </trkpt>
      <trkpt lat="62.761821" lon="12.344629">
        <ele>1006.25</ele>
        <time>2011-07-05T14:58:30Z</time>
      </trkpt>
      <trkpt lat="62.761906" lon="12.344716">
        <ele>1006.39</ele>
        <time>2011-07-05T14:58:38Z</time>
      </trkpt>
      <trkpt lat="62.761929" lon="12.344744">
        <ele>1005.79</ele>
        <time>2011-07-05T14:58:42Z</time>
      </trkpt>
      <trkpt lat="62.761995" lon="12.344827">
        <ele>1006.9</ele>
        <time>2011-07-05T14:59:23Z</time>
      </trkpt>
      <trkpt lat="62.762015" lon="12.344857">
        <ele>1007.08</ele>
        <time>2011-07-05T14:59:25Z</time>
      </trkpt>
      <trkpt lat="62.762103" lon="12.344962">
        <ele>1006.76</ele>
        <time>2011-07-05T14:59:33Z</time>
      </trkpt>
      <trkpt lat="62.762188" lon="12.345051">
        <ele>1007.4</ele>
        <time>2011-07-05T14:59:40Z</time>
      </trkpt>
      <trkpt lat="62.762271" lon="12.345146">
        <ele>1006.7</ele>
        <time>2011-07-05T14:59:47Z</time>
      </trkpt>
      <trkpt lat="62.762356" lon="12.345254">
        <ele>1005.55</ele>
        <time>2011-07-05T14:59:55Z</time>
      </trkpt>
      <trkpt lat="62.762451" lon="12.345351">
        <ele>1005.24</ele>
        <time>2011-07-05T15:00:03Z</time>
      </trkpt>
      <trkpt lat="62.762462" lon="12.345353">
        <ele>1005.21</ele>
        <time>2011-07-05T15:00:04Z</time>
      </trkpt>
      <trkpt lat="62.762513" lon="12.345415">
        <ele>1005.05</ele>
        <time>2011-07-05T15:00:09Z</time>
      </trkpt>
      <trkpt lat="62.762585" lon="12.345526">
        <ele>1005.37</ele>
        <time>2011-07-05T15:00:16Z</time>
      </trkpt>
      <trkpt lat="62.762656" lon="12.345641">
        <ele>1006.16</ele>
        <time>2011-07-05T15:00:23Z</time>
      </trkpt>
      <trkpt lat="62.76274" lon="12.345789">
        <ele>1007.17</ele>
        <time>2011-07-05T15:00:29Z</time>
      </trkpt>
      <trkpt lat="62.762842" lon="12.345923">
        <ele>1008.77</ele>
        <time>2011-07-05T15:00:35Z</time>
      </trkpt>
      <trkpt lat="62.762895" lon="12.345993">
        <ele>1009.29</ele>
        <time>2011-07-05T15:00:38Z</time>
      </trkpt>
      <trkpt lat="62.763007" lon="12.346136">
        <ele>1010.3</ele>
        <time>2011-07-05T15:00:44Z</time>
      </trkpt>
      <trkpt lat="62.76312" lon="12.346278">
        <ele>1011.1</ele>
        <time>2011-07-05T15:00:50Z</time>
      </trkpt>
      <trkpt lat="62.763282" lon="12.346458">
        <ele>1012.3</ele>
        <time>2011-07-05T15:00:58Z</time>
      </trkpt>
      <trkpt lat="62.763385" lon="12.346559">
        <ele>1012.75</ele>
        <time>2011-07-05T15:01:03Z</time>
      </trkpt>
      <trkpt lat="62.763482" lon="12.346695">
        <ele>1013.63</ele>
        <time>2011-07-05T15:01:09Z</time>
      </trkpt>
      <trkpt lat="62.763582" lon="12.346845">
        <ele>1013.49</ele>
        <time>2011-07-05T15:01:15Z</time>
      </trkpt>
      <trkpt lat="62.763719" lon="12.347065">
        <ele>1012.65</ele>
        <time>2011-07-05T15:01:21Z</time>
      </trkpt>
      <trkpt lat="62.763908" lon="12.347305">
        <ele>1011.66</ele>
        <time>2011-07-05T15:01:29Z</time>
      </trkpt>
      <trkpt lat="62.764047" lon="12.347519">
        <ele>1011.06</ele>
        <time>2011-07-05T15:01:35Z</time>
      </trkpt>
      <trkpt lat="62.764189" lon="12.347665">
        <ele>1011.41</ele>
        <time>2011-07-05T15:01:41Z</time>
      </trkpt>
      <trkpt lat="62.76432" lon="12.347887">
        <ele>1011.31</ele>
        <time>2011-07-05T15:01:47Z</time>
      </trkpt>
      <trkpt lat="62.764472" lon="12.348113">
        <ele>1010.09</ele>
        <time>2011-07-05T15:01:54Z</time>
      </trkpt>
      <trkpt lat="62.764618" lon="12.348358">
        <ele>1009.27</ele>
        <time>2011-07-05T15:02:01Z</time>
      </trkpt>
      <trkpt lat="62.764697" lon="12.348485">
        <ele>1008.72</ele>
        <time>2011-07-05T15:02:06Z</time>
      </trkpt>
      <trkpt lat="62.764802" lon="12.348573">
        <ele>1008.96</ele>
        <time>2011-07-05T15:02:11Z</time>
      </trkpt>
      <trkpt lat="62.76496" lon="12.348746">
        <ele>1010.1</ele>
        <time>2011-07-05T15:02:18Z</time>
      </trkpt>
      <trkpt lat="62.765097" lon="12.348958">
        <ele>1009.89</ele>
        <time>2011-07-05T15:02:24Z</time>
      </trkpt>
      <trkpt lat="62.765255" lon="12.349207">
        <ele>1010.16</ele>
        <time>2011-07-05T15:02:31Z</time>
      </trkpt>
      <trkpt lat="62.765381" lon="12.349305">
        <ele>1009.91</ele>
        <time>2011-07-05T15:02:36Z</time>
      </trkpt>
      <trkpt lat="62.765477" lon="12.349455">
        <ele>1010</ele>
        <time>2011-07-05T15:02:41Z</time>
      </trkpt>
      <trkpt lat="62.765605" lon="12.349672">
        <ele>1010.62</ele>
        <time>2011-07-05T15:02:48Z</time>
      </trkpt>
      <trkpt lat="62.765719" lon="12.34983">
        <ele>1011.23</ele>
        <time>2011-07-05T15:02:54Z</time>
      </trkpt>
      <trkpt lat="62.765801" lon="12.349978">
        <ele>1011.89</ele>
        <time>2011-07-05T15:03:00Z</time>
      </trkpt>
      <trkpt lat="62.765854" lon="12.350067">
        <ele>1012.29</ele>
        <time>2011-07-05T15:03:07Z</time>
      </trkpt>
      <trkpt lat="62.765865" lon="12.350069">
        <ele>1012.39</ele>
        <time>2011-07-05T15:03:12Z</time>
      </trkpt>
      <trkpt lat="62.765921" lon="12.350143">
        <ele>1012.5</ele>
        <time>2011-07-05T15:03:23Z</time>
      </trkpt>
      <trkpt lat="62.766026" lon="12.350323">
        <ele>1013.46</ele>
        <time>2011-07-05T15:03:34Z</time>
      </trkpt>
      <trkpt lat="62.766127" lon="12.350439">
        <ele>1014.07</ele>
        <time>2011-07-05T15:03:43Z</time>
      </trkpt>
      <trkpt lat="62.766218" lon="12.350586">
        <ele>1015.43</ele>
        <time>2011-07-05T15:03:51Z</time>
      </trkpt>
      <trkpt lat="62.766287" lon="12.350742">
        <ele>1017.02</ele>
        <time>2011-07-05T15:03:58Z</time>
      </trkpt>
      <trkpt lat="62.766397" lon="12.351024">
        <ele>1017.53</ele>
        <time>2011-07-05T15:04:09Z</time>
      </trkpt>
      <trkpt lat="62.766477" lon="12.351309">
        <ele>1018.38</ele>
        <time>2011-07-05T15:04:19Z</time>
      </trkpt>
      <trkpt lat="62.766536" lon="12.351517">
        <ele>1019.43</ele>
        <time>2011-07-05T15:04:28Z</time>
      </trkpt>
      <trkpt lat="62.766626" lon="12.351611">
        <ele>1020.7</ele>
        <time>2011-07-05T15:04:35Z</time>
      </trkpt>
      <trkpt lat="62.766728" lon="12.351667">
        <ele>1020.3</ele>
        <time>2011-07-05T15:04:43Z</time>
      </trkpt>
      <trkpt lat="62.76687" lon="12.351719">
        <ele>1020.3</ele>
        <time>2011-07-05T15:04:53Z</time>
      </trkpt>
      <trkpt lat="62.767" lon="12.351763">
        <ele>1020.35</ele>
        <time>2011-07-05T15:05:01Z</time>
      </trkpt>
      <trkpt lat="62.767078" lon="12.35179">
        <ele>1020.01</ele>
        <time>2011-07-05T15:05:06Z</time>
      </trkpt>
      <trkpt lat="62.767199" lon="12.351989">
        <ele>1021.31</ele>
        <time>2011-07-05T15:05:16Z</time>
      </trkpt>
      <trkpt lat="62.767314" lon="12.35215">
        <ele>1021.83</ele>
        <time>2011-07-05T15:05:23Z</time>
      </trkpt>
      <trkpt lat="62.767518" lon="12.352437">
        <ele>1023.72</ele>
        <time>2011-07-05T15:05:32Z</time>
      </trkpt>
      <trkpt lat="62.767644" lon="12.352629">
        <ele>1024.06</ele>
        <time>2011-07-05T15:05:38Z</time>
      </trkpt>
      <trkpt lat="62.767771" lon="12.352797">
        <ele>1023.48</ele>
        <time>2011-07-05T15:05:43Z</time>
      </trkpt>
      <trkpt lat="62.767929" lon="12.353059">
        <ele>1023.34</ele>
        <time>2011-07-05T15:05:50Z</time>
      </trkpt>
      <trkpt lat="62.768036" lon="12.353212">
        <ele>1024.03</ele>
        <time>2011-07-05T15:05:55Z</time>
      </trkpt>
      <trkpt lat="62.768154" lon="12.353406">
        <ele>1023.71</ele>
        <time>2011-07-05T15:06:01Z</time>
      </trkpt>
      <trkpt lat="62.76825" lon="12.35354">
        <ele>1022.19</ele>
        <time>2011-07-05T15:06:06Z</time>
      </trkpt>
      <trkpt lat="62.768349" lon="12.353792">
        <ele>1021.95</ele>
        <time>2011-07-05T15:06:12Z</time>
      </trkpt>
      <trkpt lat="62.768495" lon="12.354014">
        <ele>1022.2</ele>
        <time>2011-07-05T15:06:19Z</time>
      </trkpt>
      <trkpt lat="62.768593" lon="12.354171">
        <ele>1022.87</ele>
        <time>2011-07-05T15:06:24Z</time>
      </trkpt>
      <trkpt lat="62.768632" lon="12.354318">
        <ele>1023.35</ele>
        <time>2011-07-05T15:06:28Z</time>
      </trkpt>
      <trkpt lat="62.768663" lon="12.354455">
        <ele>1023.3</ele>
        <time>2011-07-05T15:06:33Z</time>
      </trkpt>
      <trkpt lat="62.768738" lon="12.354599">
        <ele>1023.84</ele>
        <time>2011-07-05T15:06:40Z</time>
      </trkpt>
      <trkpt lat="62.768815" lon="12.354707">
        <ele>1024.25</ele>
        <time>2011-07-05T15:06:45Z</time>
      </trkpt>
      <trkpt lat="62.768829" lon="12.354732">
        <ele>1024.33</ele>
        <time>2011-07-05T15:06:46Z</time>
      </trkpt>
      <trkpt lat="62.768904" lon="12.354801">
        <ele>1024.91</ele>
        <time>2011-07-05T15:06:53Z</time>
      </trkpt>
      <trkpt lat="62.768973" lon="12.35481">
        <ele>1026.95</ele>
        <time>2011-07-05T15:06:59Z</time>
      </trkpt>
      <trkpt lat="62.76909" lon="12.35499">
        <ele>1028.58</ele>
        <time>2011-07-05T15:07:09Z</time>
      </trkpt>
      <trkpt lat="62.769177" lon="12.355097">
        <ele>1029.72</ele>
        <time>2011-07-05T15:07:16Z</time>
      </trkpt>
      <trkpt lat="62.769274" lon="12.355237">
        <ele>1030.49</ele>
        <time>2011-07-05T15:07:24Z</time>
      </trkpt>
      <trkpt lat="62.769298" lon="12.35527">
        <ele>1030.71</ele>
        <time>2011-07-05T15:07:26Z</time>
      </trkpt>
      <trkpt lat="62.76934" lon="12.35535">
        <ele>1031.2</ele>
        <time>2011-07-05T15:07:30Z</time>
      </trkpt>
      <trkpt lat="62.769427" lon="12.355499">
        <ele>1031.87</ele>
        <time>2011-07-05T15:07:38Z</time>
      </trkpt>
      <trkpt lat="62.769503" lon="12.355641">
        <ele>1032.57</ele>
        <time>2011-07-05T15:07:45Z</time>
      </trkpt>
      <trkpt lat="62.769606" lon="12.355779">
        <ele>1033.27</ele>
        <time>2011-07-05T15:07:53Z</time>
      </trkpt>
      <trkpt lat="62.769718" lon="12.355983">
        <ele>1033.87</ele>
        <time>2011-07-05T15:08:03Z</time>
      </trkpt>
      <trkpt lat="62.769792" lon="12.356119">
        <ele>1034.54</ele>
        <time>2011-07-05T15:08:10Z</time>
      </trkpt>
      <trkpt lat="62.769875" lon="12.356281">
        <ele>1034.91</ele>
        <time>2011-07-05T15:08:18Z</time>
      </trkpt>
      <trkpt lat="62.769966" lon="12.356471">
        <ele>1036.11</ele>
        <time>2011-07-05T15:08:27Z</time>
      </trkpt>
      <trkpt lat="62.770044" lon="12.356616">
        <ele>1036.87</ele>
        <time>2011-07-05T15:08:34Z</time>
      </trkpt>
      <trkpt lat="62.770138" lon="12.356774">
        <ele>1037.65</ele>
        <time>2011-07-05T15:08:42Z</time>
      </trkpt>
      <trkpt lat="62.77022" lon="12.356919">
        <ele>1038.2</ele>
        <time>2011-07-05T15:08:49Z</time>
      </trkpt>
      <trkpt lat="62.770308" lon="12.357052">
        <ele>1038.69</ele>
        <time>2011-07-05T15:08:56Z</time>
      </trkpt>
      <trkpt lat="62.770393" lon="12.357194">
        <ele>1039.34</ele>
        <time>2011-07-05T15:09:04Z</time>
      </trkpt>
      <trkpt lat="62.770475" lon="12.357371">
        <ele>1039.29</ele>
        <time>2011-07-05T15:09:11Z</time>
      </trkpt>
      <trkpt lat="62.770587" lon="12.3576">
        <ele>1039.15</ele>
        <time>2011-07-05T15:09:17Z</time>
      </trkpt>
      <trkpt lat="62.770697" lon="12.357828">
        <ele>1038.78</ele>
        <time>2011-07-05T15:09:23Z</time>
      </trkpt>
      <trkpt lat="62.770842" lon="12.358096">
        <ele>1038.24</ele>
        <time>2011-07-05T15:09:30Z</time>
      </trkpt>
      <trkpt lat="62.770966" lon="12.358301">
        <ele>1037.45</ele>
        <time>2011-07-05T15:09:36Z</time>
      </trkpt>
      <trkpt lat="62.771118" lon="12.358546">
        <ele>1035.96</ele>
        <time>2011-07-05T15:09:43Z</time>
      </trkpt>
      <trkpt lat="62.771203" lon="12.35876">
        <ele>1035.37</ele>
        <time>2011-07-05T15:09:49Z</time>
      </trkpt>
      <trkpt lat="62.771288" lon="12.358993">
        <ele>1034.07</ele>
        <time>2011-07-05T15:09:55Z</time>
      </trkpt>
      <trkpt lat="62.771298" lon="12.35904">
        <ele>1033.71</ele>
        <time>2011-07-05T15:09:56Z</time>
      </trkpt>
      <trkpt lat="62.771392" lon="12.359124">
        <ele>1033.39</ele>
        <time>2011-07-05T15:10:01Z</time>
      </trkpt>
      <trkpt lat="62.771534" lon="12.359241">
        <ele>1033.36</ele>
        <time>2011-07-05T15:10:07Z</time>
      </trkpt>
      <trkpt lat="62.771637" lon="12.359415">
        <ele>1033.39</ele>
        <time>2011-07-05T15:10:12Z</time>
      </trkpt>
      <trkpt lat="62.771772" lon="12.359592">
        <ele>1032.84</ele>
        <time>2011-07-05T15:10:18Z</time>
      </trkpt>
      <trkpt lat="62.77186" lon="12.359734">
        <ele>1032.2</ele>
        <time>2011-07-05T15:10:23Z</time>
      </trkpt>
      <trkpt lat="62.77203" lon="12.359889">
        <ele>1031.38</ele>
        <time>2011-07-05T15:10:30Z</time>
      </trkpt>
      <trkpt lat="62.772108" lon="12.359995">
        <ele>1031</ele>
        <time>2011-07-05T15:10:34Z</time>
      </trkpt>
      <trkpt lat="62.772156" lon="12.360151">
        <ele>1030.98</ele>
        <time>2011-07-05T15:10:39Z</time>
      </trkpt>
      <trkpt lat="62.772165" lon="12.360161">
        <ele>1030.9</ele>
        <time>2011-07-05T15:10:40Z</time>
      </trkpt>
      <trkpt lat="62.772218" lon="12.360303">
        <ele>1030.7</ele>
        <time>2011-07-05T15:10:48Z</time>
      </trkpt>
      <trkpt lat="62.772297" lon="12.360363">
        <ele>1030.71</ele>
        <time>2011-07-05T15:10:55Z</time>
      </trkpt>
      <trkpt lat="62.772373" lon="12.360445">
        <ele>1030.51</ele>
        <time>2011-07-05T15:11:01Z</time>
      </trkpt>
      <trkpt lat="62.772444" lon="12.360433">
        <ele>1030.43</ele>
        <time>2011-07-05T15:11:06Z</time>
      </trkpt>
      <trkpt lat="62.772514" lon="12.360457">
        <ele>1031.59</ele>
        <time>2011-07-05T15:11:12Z</time>
      </trkpt>
      <trkpt lat="62.772593" lon="12.360498">
        <ele>1032.25</ele>
        <time>2011-07-05T15:11:16Z</time>
      </trkpt>
      <trkpt lat="62.772668" lon="12.36055">
        <ele>1032.76</ele>
        <time>2011-07-05T15:11:20Z</time>
      </trkpt>
      <trkpt lat="62.772833" lon="12.360674">
        <ele>1034.88</ele>
        <time>2011-07-05T15:11:29Z</time>
      </trkpt>
      <trkpt lat="62.772915" lon="12.360707">
        <ele>1035.63</ele>
        <time>2011-07-05T15:11:35Z</time>
      </trkpt>
      <trkpt lat="62.773021" lon="12.360856">
        <ele>1036.6</ele>
        <time>2011-07-05T15:11:44Z</time>
      </trkpt>
      <trkpt lat="62.773112" lon="12.360967">
        <ele>1038.04</ele>
        <time>2011-07-05T15:11:52Z</time>
      </trkpt>
      <trkpt lat="62.773219" lon="12.361094">
        <ele>1039.13</ele>
        <time>2011-07-05T15:12:01Z</time>
      </trkpt>
      <trkpt lat="62.773331" lon="12.361207">
        <ele>1039.95</ele>
        <time>2011-07-05T15:12:10Z</time>
      </trkpt>
      <trkpt lat="62.773445" lon="12.361339">
        <ele>1040.44</ele>
        <time>2011-07-05T15:12:19Z</time>
      </trkpt>
      <trkpt lat="62.773531" lon="12.361467">
        <ele>1041.01</ele>
        <time>2011-07-05T15:12:27Z</time>
      </trkpt>
      <trkpt lat="62.773564" lon="12.361518">
        <ele>1041.01</ele>
        <time>2011-07-05T15:12:30Z</time>
      </trkpt>
      <trkpt lat="62.77368" lon="12.361572">
        <ele>1042.04</ele>
        <time>2011-07-05T15:12:39Z</time>
      </trkpt>
      <trkpt lat="62.773693" lon="12.361575">
        <ele>1042.2</ele>
        <time>2011-07-05T15:12:40Z</time>
      </trkpt>
      <trkpt lat="62.773741" lon="12.361613">
        <ele>1042.49</ele>
        <time>2011-07-05T15:12:44Z</time>
      </trkpt>
      <trkpt lat="62.773777" lon="12.361642">
        <ele>1042.91</ele>
        <time>2011-07-05T15:12:47Z</time>
      </trkpt>
      <trkpt lat="62.773875" lon="12.361772">
        <ele>1043.93</ele>
        <time>2011-07-05T15:12:56Z</time>
      </trkpt>
      <trkpt lat="62.773984" lon="12.361875">
        <ele>1044.22</ele>
        <time>2011-07-05T15:13:05Z</time>
      </trkpt>
      <trkpt lat="62.774098" lon="12.361968">
        <ele>1043.46</ele>
        <time>2011-07-05T15:13:14Z</time>
      </trkpt>
      <trkpt lat="62.774121" lon="12.362006">
        <ele>1043.41</ele>
        <time>2011-07-05T15:13:18Z</time>
      </trkpt>
      <trkpt lat="62.774162" lon="12.362027">
        <ele>1043.45</ele>
        <time>2011-07-05T15:13:25Z</time>
      </trkpt>
      <trkpt lat="62.774262" lon="12.362078">
        <ele>1042.5</ele>
        <time>2011-07-05T15:13:32Z</time>
      </trkpt>
      <trkpt lat="62.774327" lon="12.362137">
        <ele>1042.22</ele>
        <time>2011-07-05T15:13:35Z</time>
      </trkpt>
      <trkpt lat="62.774467" lon="12.362412">
        <ele>1040.12</ele>
        <time>2011-07-05T15:13:42Z</time>
      </trkpt>
      <trkpt lat="62.774608" lon="12.362635">
        <ele>1039.51</ele>
        <time>2011-07-05T15:13:49Z</time>
      </trkpt>
      <trkpt lat="62.774727" lon="12.362752">
        <ele>1038.97</ele>
        <time>2011-07-05T15:13:54Z</time>
      </trkpt>
      <trkpt lat="62.774865" lon="12.362942">
        <ele>1038.01</ele>
        <time>2011-07-05T15:14:00Z</time>
      </trkpt>
      <trkpt lat="62.775024" lon="12.363157">
        <ele>1037.05</ele>
        <time>2011-07-05T15:14:07Z</time>
      </trkpt>
      <trkpt lat="62.775159" lon="12.36337">
        <ele>1035.8</ele>
        <time>2011-07-05T15:14:13Z</time>
      </trkpt>
      <trkpt lat="62.775276" lon="12.363514">
        <ele>1034.45</ele>
        <time>2011-07-05T15:14:18Z</time>
      </trkpt>
      <trkpt lat="62.775375" lon="12.363585">
        <ele>1033.29</ele>
        <time>2011-07-05T15:14:23Z</time>
      </trkpt>
      <trkpt lat="62.775496" lon="12.363674">
        <ele>1030.95</ele>
        <time>2011-07-05T15:14:28Z</time>
      </trkpt>
      <trkpt lat="62.775624" lon="12.363834">
        <ele>1029.55</ele>
        <time>2011-07-05T15:14:33Z</time>
      </trkpt>
      <trkpt lat="62.775723" lon="12.36395">
        <ele>1028.5</ele>
        <time>2011-07-05T15:14:37Z</time>
      </trkpt>
      <trkpt lat="62.775774" lon="12.363985">
        <ele>1028.22</ele>
        <time>2011-07-05T15:14:39Z</time>
      </trkpt>
      <trkpt lat="62.775852" lon="12.363995">
        <ele>1027.5</ele>
        <time>2011-07-05T15:14:43Z</time>
      </trkpt>
      <trkpt lat="62.776147" lon="12.364331">
        <ele>1026.89</ele>
        <time>2011-07-05T15:14:54Z</time>
      </trkpt>
      <trkpt lat="62.776244" lon="12.364537">
        <ele>1029.15</ele>
        <time>2011-07-05T15:15:00Z</time>
      </trkpt>
      <trkpt lat="62.77632" lon="12.364741">
        <ele>1028.87</ele>
        <time>2011-07-05T15:15:09Z</time>
      </trkpt>
      <trkpt lat="62.776367" lon="12.364833">
        <ele>1027.49</ele>
        <time>2011-07-05T15:15:17Z</time>
      </trkpt>
      <trkpt lat="62.776437" lon="12.364897">
        <ele>1026.69</ele>
        <time>2011-07-05T15:15:30Z</time>
      </trkpt>
      <trkpt lat="62.77652" lon="12.364969">
        <ele>1025.24</ele>
        <time>2011-07-05T15:15:37Z</time>
      </trkpt>
      <trkpt lat="62.776615" lon="12.365031">
        <ele>1023.5</ele>
        <time>2011-07-05T15:15:44Z</time>
      </trkpt>
      <trkpt lat="62.77675" lon="12.365195">
        <ele>1021.34</ele>
        <time>2011-07-05T15:15:50Z</time>
      </trkpt>
      <trkpt lat="62.77691" lon="12.365425">
        <ele>1021.23</ele>
        <time>2011-07-05T15:15:57Z</time>
      </trkpt>
      <trkpt lat="62.777087" lon="12.365646">
        <ele>1020.55</ele>
        <time>2011-07-05T15:16:04Z</time>
      </trkpt>
      <trkpt lat="62.777289" lon="12.365931">
        <ele>1018.62</ele>
        <time>2011-07-05T15:16:12Z</time>
      </trkpt>
      <trkpt lat="62.777425" lon="12.366145">
        <ele>1018.11</ele>
        <time>2011-07-05T15:16:18Z</time>
      </trkpt>
      <trkpt lat="62.777558" lon="12.366288">
        <ele>1017.32</ele>
        <time>2011-07-05T15:16:24Z</time>
      </trkpt>
      <trkpt lat="62.777631" lon="12.366408">
        <ele>1016.65</ele>
        <time>2011-07-05T15:16:28Z</time>
      </trkpt>
      <trkpt lat="62.777715" lon="12.366513">
        <ele>1016.08</ele>
        <time>2011-07-05T15:16:33Z</time>
      </trkpt>
      <trkpt lat="62.777831" lon="12.366582">
        <ele>1016.06</ele>
        <time>2011-07-05T15:16:38Z</time>
      </trkpt>
      <trkpt lat="62.777854" lon="12.366596">
        <ele>1016.03</ele>
        <time>2011-07-05T15:16:39Z</time>
      </trkpt>
      <trkpt lat="62.777986" lon="12.366652">
        <ele>1015.35</ele>
        <time>2011-07-05T15:16:45Z</time>
      </trkpt>
      <trkpt lat="62.77804" lon="12.366466">
        <ele>1013.72</ele>
        <time>2011-07-05T15:16:51Z</time>
      </trkpt>
      <trkpt lat="62.778051" lon="12.366397">
        <ele>1013.51</ele>
        <time>2011-07-05T15:16:53Z</time>
      </trkpt>
      <trkpt lat="62.778117" lon="12.366402">
        <ele>1013.6</ele>
        <time>2011-07-05T15:16:59Z</time>
      </trkpt>
      <trkpt lat="62.778163" lon="12.366591">
        <ele>1013.8</ele>
        <time>2011-07-05T15:17:06Z</time>
      </trkpt>
      <trkpt lat="62.778219" lon="12.366751">
        <ele>1013.6</ele>
        <time>2011-07-05T15:17:13Z</time>
      </trkpt>
      <trkpt lat="62.778256" lon="12.366875">
        <ele>1013.94</ele>
        <time>2011-07-05T15:17:19Z</time>
      </trkpt>
      <trkpt lat="62.778295" lon="12.366991">
        <ele>1014.15</ele>
        <time>2011-07-05T15:17:25Z</time>
      </trkpt>
      <trkpt lat="62.778356" lon="12.367145">
        <ele>1014.38</ele>
        <time>2011-07-05T15:17:33Z</time>
      </trkpt>
      <trkpt lat="62.778422" lon="12.367234">
        <ele>1015.63</ele>
        <time>2011-07-05T15:17:40Z</time>
      </trkpt>
      <trkpt lat="62.77849" lon="12.36733">
        <ele>1016.12</ele>
        <time>2011-07-05T15:17:47Z</time>
      </trkpt>
      <trkpt lat="62.778576" lon="12.367418">
        <ele>1015.61</ele>
        <time>2011-07-05T15:17:55Z</time>
      </trkpt>
      <trkpt lat="62.77867" lon="12.367508">
        <ele>1014.41</ele>
        <time>2011-07-05T15:18:04Z</time>
      </trkpt>
      <trkpt lat="62.778761" lon="12.367666">
        <ele>1013.05</ele>
        <time>2011-07-05T15:18:14Z</time>
      </trkpt>
      <trkpt lat="62.778831" lon="12.367763">
        <ele>1011.94</ele>
        <time>2011-07-05T15:18:22Z</time>
      </trkpt>
      <trkpt lat="62.77892" lon="12.367897">
        <ele>1010.1</ele>
        <time>2011-07-05T15:18:31Z</time>
      </trkpt>
      <trkpt lat="62.778939" lon="12.367942">
        <ele>1009.47</ele>
        <time>2011-07-05T15:18:33Z</time>
      </trkpt>
      <trkpt lat="62.77903" lon="12.367969">
        <ele>1007.78</ele>
        <time>2011-07-05T15:18:40Z</time>
      </trkpt>
      <trkpt lat="62.779068" lon="12.368116">
        <ele>1007.25</ele>
        <time>2011-07-05T15:18:46Z</time>
      </trkpt>
      <trkpt lat="62.779081" lon="12.368231">
        <ele>1007.22</ele>
        <time>2011-07-05T15:18:50Z</time>
      </trkpt>
      <trkpt lat="62.779174" lon="12.368349">
        <ele>1007.5</ele>
        <time>2011-07-05T15:18:58Z</time>
      </trkpt>
      <trkpt lat="62.779282" lon="12.368426">
        <ele>1008.23</ele>
        <time>2011-07-05T15:19:04Z</time>
      </trkpt>
      <trkpt lat="62.779395" lon="12.368574">
        <ele>1008.53</ele>
        <time>2011-07-05T15:19:11Z</time>
      </trkpt>
      <trkpt lat="62.779574" lon="12.368791">
        <ele>1009.57</ele>
        <time>2011-07-05T15:19:18Z</time>
      </trkpt>
      <trkpt lat="62.779699" lon="12.368948">
        <ele>1010.45</ele>
        <time>2011-07-05T15:19:23Z</time>
      </trkpt>
      <trkpt lat="62.779889" lon="12.369166">
        <ele>1011.51</ele>
        <time>2011-07-05T15:19:31Z</time>
      </trkpt>
      <trkpt lat="62.780071" lon="12.369393">
        <ele>1011.17</ele>
        <time>2011-07-05T15:19:39Z</time>
      </trkpt>
      <trkpt lat="62.780246" lon="12.369614">
        <ele>1010.46</ele>
        <time>2011-07-05T15:19:47Z</time>
      </trkpt>
      <trkpt lat="62.780334" lon="12.369728">
        <ele>1009.98</ele>
        <time>2011-07-05T15:19:54Z</time>
      </trkpt>
      <trkpt lat="62.780378" lon="12.369783">
        <ele>1009.72</ele>
        <time>2011-07-05T15:20:01Z</time>
      </trkpt>
      <trkpt lat="62.780346" lon="12.369722">
        <ele>1009.73</ele>
        <time>2011-07-05T15:20:44Z</time>
      </trkpt>
      <trkpt lat="62.78038" lon="12.369755">
        <ele>1010.03</ele>
        <time>2011-07-05T15:20:47Z</time>
      </trkpt>
      <trkpt lat="62.780492" lon="12.369924">
        <ele>1009.6</ele>
        <time>2011-07-05T15:20:52Z</time>
      </trkpt>
      <trkpt lat="62.780494" lon="12.369936">
        <ele>1009.39</ele>
        <time>2011-07-05T15:20:53Z</time>
      </trkpt>
      <trkpt lat="62.780379" lon="12.36976">
        <ele>1008.92</ele>
        <time>2011-07-05T15:21:00Z</time>
      </trkpt>
      <trkpt lat="62.780409" lon="12.369785">
        <ele>1010.11</ele>
        <time>2011-07-05T15:21:06Z</time>
      </trkpt>
      <trkpt lat="62.780429" lon="12.369801">
        <ele>1009.84</ele>
        <time>2011-07-05T15:21:11Z</time>
      </trkpt>
      <trkpt lat="62.780505" lon="12.36989">
        <ele>1009.59</ele>
        <time>2011-07-05T15:21:17Z</time>
      </trkpt>
      <trkpt lat="62.780532" lon="12.369913">
        <ele>1009.31</ele>
        <time>2011-07-05T15:21:19Z</time>
      </trkpt>
      <trkpt lat="62.780572" lon="12.369978">
        <ele>1009.21</ele>
        <time>2011-07-05T15:21:23Z</time>
      </trkpt>
      <trkpt lat="62.780592" lon="12.370012">
        <ele>1009.03</ele>
        <time>2011-07-05T15:21:27Z</time>
      </trkpt>
      <trkpt lat="62.78056" lon="12.36999">
        <ele>1009.17</ele>
        <time>2011-07-05T15:21:45Z</time>
      </trkpt>
      <trkpt lat="62.780636" lon="12.370131">
        <ele>1008.65</ele>
        <time>2011-07-05T15:21:49Z</time>
      </trkpt>
      <trkpt lat="62.780627" lon="12.370143">
        <ele>1006.59</ele>
        <time>2011-07-05T15:21:54Z</time>
      </trkpt>
      <trkpt lat="62.780582" lon="12.370056">
        <ele>1007.77</ele>
        <time>2011-07-05T15:21:58Z</time>
      </trkpt>
      <trkpt lat="62.780632" lon="12.370137">
        <ele>1008.15</ele>
        <time>2011-07-05T15:22:04Z</time>
      </trkpt>
      <trkpt lat="62.780664" lon="12.370177">
        <ele>1007.49</ele>
        <time>2011-07-05T15:22:07Z</time>
      </trkpt>
      <trkpt lat="62.780756" lon="12.370299">
        <ele>1006.25</ele>
        <time>2011-07-05T15:22:14Z</time>
      </trkpt>
      <trkpt lat="62.780838" lon="12.370405">
        <ele>1005.28</ele>
        <time>2011-07-05T15:22:22Z</time>
      </trkpt>
      <trkpt lat="62.780885" lon="12.370491">
        <ele>1004.55</ele>
        <time>2011-07-05T15:22:28Z</time>
      </trkpt>
      <trkpt lat="62.780886" lon="12.370493">
        <ele>1004.34</ele>
        <time>2011-07-05T15:22:29Z</time>
      </trkpt>
      <trkpt lat="62.780953" lon="12.370602">
        <ele>1003.38</ele>
        <time>2011-07-05T15:22:37Z</time>
      </trkpt>
      <trkpt lat="62.781015" lon="12.370772">
        <ele>1002.74</ele>
        <time>2011-07-05T15:22:42Z</time>
      </trkpt>
      <trkpt lat="62.781128" lon="12.370967">
        <ele>1001.18</ele>
        <time>2011-07-05T15:22:47Z</time>
      </trkpt>
      <trkpt lat="62.781228" lon="12.371127">
        <ele>1000.38</ele>
        <time>2011-07-05T15:22:52Z</time>
      </trkpt>
      <trkpt lat="62.781329" lon="12.371284">
        <ele>999.413</ele>
        <time>2011-07-05T15:22:58Z</time>
      </trkpt>
      <trkpt lat="62.781361" lon="12.371366">
        <ele>998.899</ele>
        <time>2011-07-05T15:23:00Z</time>
      </trkpt>
      <trkpt lat="62.781471" lon="12.371525">
        <ele>997.549</ele>
        <time>2011-07-05T15:23:06Z</time>
      </trkpt>
      <trkpt lat="62.781559" lon="12.371715">
        <ele>996.586</ele>
        <time>2011-07-05T15:23:11Z</time>
      </trkpt>
      <trkpt lat="62.781617" lon="12.371938">
        <ele>995.548</ele>
        <time>2011-07-05T15:23:16Z</time>
      </trkpt>
      <trkpt lat="62.781644" lon="12.372101">
        <ele>993.989</ele>
        <time>2011-07-05T15:23:20Z</time>
      </trkpt>
      <trkpt lat="62.781765" lon="12.372288">
        <ele>991.627</ele>
        <time>2011-07-05T15:23:26Z</time>
      </trkpt>
      <trkpt lat="62.781873" lon="12.372445">
        <ele>990.131</ele>
        <time>2011-07-05T15:23:31Z</time>
      </trkpt>
      <trkpt lat="62.781988" lon="12.372645">
        <ele>989.605</ele>
        <time>2011-07-05T15:23:37Z</time>
      </trkpt>
      <trkpt lat="62.782137" lon="12.372681">
        <ele>988.592</ele>
        <time>2011-07-05T15:23:43Z</time>
      </trkpt>
      <trkpt lat="62.78228" lon="12.372918">
        <ele>987.032</ele>
        <time>2011-07-05T15:23:50Z</time>
      </trkpt>
      <trkpt lat="62.782416" lon="12.373125">
        <ele>985.28</ele>
        <time>2011-07-05T15:23:57Z</time>
      </trkpt>
      <trkpt lat="62.782469" lon="12.373261">
        <ele>983.735</ele>
        <time>2011-07-05T15:24:02Z</time>
      </trkpt>
      <trkpt lat="62.782498" lon="12.373321">
        <ele>982.965</ele>
        <time>2011-07-05T15:24:04Z</time>
      </trkpt>
      <trkpt lat="62.78261" lon="12.373499">
        <ele>980.466</ele>
        <time>2011-07-05T15:24:10Z</time>
      </trkpt>
      <trkpt lat="62.782651" lon="12.373576">
        <ele>979.25</ele>
        <time>2011-07-05T15:24:12Z</time>
      </trkpt>
      <trkpt lat="62.782747" lon="12.373836">
        <ele>976.858</ele>
        <time>2011-07-05T15:24:18Z</time>
      </trkpt>
      <trkpt lat="62.782802" lon="12.373994">
        <ele>975.882</ele>
        <time>2011-07-05T15:24:22Z</time>
      </trkpt>
      <trkpt lat="62.782827" lon="12.374078">
        <ele>975.958</ele>
        <time>2011-07-05T15:24:24Z</time>
      </trkpt>
      <trkpt lat="62.782922" lon="12.374365">
        <ele>976.006</ele>
        <time>2011-07-05T15:24:30Z</time>
      </trkpt>
      <trkpt lat="62.783022" lon="12.374641">
        <ele>975.465</ele>
        <time>2011-07-05T15:24:36Z</time>
      </trkpt>
      <trkpt lat="62.783131" lon="12.374862">
        <ele>974.744</ele>
        <time>2011-07-05T15:24:42Z</time>
      </trkpt>
      <trkpt lat="62.783183" lon="12.374971">
        <ele>973.992</ele>
        <time>2011-07-05T15:24:47Z</time>
      </trkpt>
      <trkpt lat="62.783242" lon="12.375082">
        <ele>972.929</ele>
        <time>2011-07-05T15:24:53Z</time>
      </trkpt>
      <trkpt lat="62.783289" lon="12.375178">
        <ele>971.99</ele>
        <time>2011-07-05T15:24:58Z</time>
      </trkpt>
      <trkpt lat="62.783364" lon="12.375332">
        <ele>971.048</ele>
        <time>2011-07-05T15:25:06Z</time>
      </trkpt>
      <trkpt lat="62.783433" lon="12.375435">
        <ele>970.16</ele>
        <time>2011-07-05T15:25:13Z</time>
      </trkpt>
      <trkpt lat="62.783456" lon="12.375462">
        <ele>969.392</ele>
        <time>2011-07-05T15:25:18Z</time>
      </trkpt>
      <trkpt lat="62.783467" lon="12.375493">
        <ele>969.021</ele>
        <time>2011-07-05T15:25:28Z</time>
      </trkpt>
      <trkpt lat="62.783497" lon="12.375453">
        <ele>967.836</ele>
        <time>2011-07-05T15:25:32Z</time>
      </trkpt>
      <trkpt lat="62.783574" lon="12.375312">
        <ele>966.78</ele>
        <time>2011-07-05T15:25:40Z</time>
      </trkpt>
      <trkpt lat="62.783587" lon="12.375311">
        <ele>966.653</ele>
        <time>2011-07-05T15:25:41Z</time>
      </trkpt>
      <trkpt lat="62.78366" lon="12.375504">
        <ele>964.777</ele>
        <time>2011-07-05T15:25:48Z</time>
      </trkpt>
      <trkpt lat="62.783756" lon="12.375717">
        <ele>962.856</ele>
        <time>2011-07-05T15:25:54Z</time>
      </trkpt>
      <trkpt lat="62.783773" lon="12.375743">
        <ele>962.602</ele>
        <time>2011-07-05T15:25:55Z</time>
      </trkpt>
      <trkpt lat="62.78384" lon="12.375926">
        <ele>961.438</ele>
        <time>2011-07-05T15:26:00Z</time>
      </trkpt>
      <trkpt lat="62.783969" lon="12.37613">
        <ele>959.633</ele>
        <time>2011-07-05T15:26:06Z</time>
      </trkpt>
      <trkpt lat="62.78406" lon="12.376268">
        <ele>959.272</ele>
        <time>2011-07-05T15:26:11Z</time>
      </trkpt>
      <trkpt lat="62.784157" lon="12.37649">
        <ele>958.157</ele>
        <time>2011-07-05T15:26:17Z</time>
      </trkpt>
      <trkpt lat="62.784235" lon="12.376643">
        <ele>957.423</ele>
        <time>2011-07-05T15:26:21Z</time>
      </trkpt>
      <trkpt lat="62.784289" lon="12.376786">
        <ele>957.128</ele>
        <time>2011-07-05T15:26:25Z</time>
      </trkpt>
      <trkpt lat="62.78433" lon="12.376812">
        <ele>956.755</ele>
        <time>2011-07-05T15:26:27Z</time>
      </trkpt>
      <trkpt lat="62.784388" lon="12.377008">
        <ele>956.225</ele>
        <time>2011-07-05T15:26:31Z</time>
      </trkpt>
      <trkpt lat="62.784477" lon="12.377323">
        <ele>955.822</ele>
        <time>2011-07-05T15:26:38Z</time>
      </trkpt>
      <trkpt lat="62.784565" lon="12.377609">
        <ele>954.21</ele>
        <time>2011-07-05T15:26:44Z</time>
      </trkpt>
      <trkpt lat="62.784638" lon="12.377772">
        <ele>952.685</ele>
        <time>2011-07-05T15:26:48Z</time>
      </trkpt>
      <trkpt lat="62.784678" lon="12.377893">
        <ele>951.888</ele>
        <time>2011-07-05T15:26:52Z</time>
      </trkpt>
      <trkpt lat="62.784683" lon="12.377904">
        <ele>951.684</ele>
        <time>2011-07-05T15:26:53Z</time>
      </trkpt>
      <trkpt lat="62.784744" lon="12.378027">
        <ele>950.607</ele>
        <time>2011-07-05T15:26:58Z</time>
      </trkpt>
      <trkpt lat="62.784831" lon="12.378247">
        <ele>949.041</ele>
        <time>2011-07-05T15:27:03Z</time>
      </trkpt>
      <trkpt lat="62.784916" lon="12.378446">
        <ele>947.665</ele>
        <time>2011-07-05T15:27:08Z</time>
      </trkpt>
      <trkpt lat="62.785072" lon="12.378762">
        <ele>946.302</ele>
        <time>2011-07-05T15:27:16Z</time>
      </trkpt>
      <trkpt lat="62.785156" lon="12.378936">
        <ele>945.527</ele>
        <time>2011-07-05T15:27:21Z</time>
      </trkpt>
      <trkpt lat="62.785244" lon="12.379118">
        <ele>943.961</ele>
        <time>2011-07-05T15:27:26Z</time>
      </trkpt>
      <trkpt lat="62.785407" lon="12.379462">
        <ele>941.546</ele>
        <time>2011-07-05T15:27:35Z</time>
      </trkpt>
      <trkpt lat="62.785455" lon="12.379605">
        <ele>940.321</ele>
        <time>2011-07-05T15:27:39Z</time>
      </trkpt>
      <trkpt lat="62.785595" lon="12.3799">
        <ele>937.777</ele>
        <time>2011-07-05T15:27:47Z</time>
      </trkpt>
      <trkpt lat="62.785679" lon="12.380105">
        <ele>935.712</ele>
        <time>2011-07-05T15:27:53Z</time>
      </trkpt>
      <trkpt lat="62.785703" lon="12.380163">
        <ele>934.988</ele>
        <time>2011-07-05T15:27:55Z</time>
      </trkpt>
      <trkpt lat="62.785806" lon="12.380331">
        <ele>934.28</ele>
        <time>2011-07-05T15:28:01Z</time>
      </trkpt>
      <trkpt lat="62.785997" lon="12.38061">
        <ele>932.975</ele>
        <time>2011-07-05T15:28:09Z</time>
      </trkpt>
      <trkpt lat="62.786144" lon="12.380915">
        <ele>931.592</ele>
        <time>2011-07-05T15:28:16Z</time>
      </trkpt>
      <trkpt lat="62.786249" lon="12.381093">
        <ele>929.951</ele>
        <time>2011-07-05T15:28:21Z</time>
      </trkpt>
      <trkpt lat="62.786278" lon="12.381155">
        <ele>929.396</ele>
        <time>2011-07-05T15:28:23Z</time>
      </trkpt>
      <trkpt lat="62.786337" lon="12.381073">
        <ele>928.74</ele>
        <time>2011-07-05T15:28:27Z</time>
      </trkpt>
      <trkpt lat="62.786363" lon="12.381078">
        <ele>928.766</ele>
        <time>2011-07-05T15:28:28Z</time>
      </trkpt>
      <trkpt lat="62.786428" lon="12.381118">
        <ele>928.456</ele>
        <time>2011-07-05T15:28:31Z</time>
      </trkpt>
      <trkpt lat="62.786516" lon="12.381116">
        <ele>927.289</ele>
        <time>2011-07-05T15:28:35Z</time>
      </trkpt>
      <trkpt lat="62.78666" lon="12.381263">
        <ele>928.336</ele>
        <time>2011-07-05T15:28:43Z</time>
      </trkpt>
      <trkpt lat="62.786767" lon="12.381322">
        <ele>927.768</ele>
        <time>2011-07-05T15:28:50Z</time>
      </trkpt>
      <trkpt lat="62.78688" lon="12.381477">
        <ele>926.255</ele>
        <time>2011-07-05T15:28:55Z</time>
      </trkpt>
      <trkpt lat="62.786964" lon="12.381656">
        <ele>925.887</ele>
        <time>2011-07-05T15:29:00Z</time>
      </trkpt>
      <trkpt lat="62.787062" lon="12.381869">
        <ele>924.435</ele>
        <time>2011-07-05T15:29:05Z</time>
      </trkpt>
      <trkpt lat="62.787119" lon="12.381948">
        <ele>924.051</ele>
        <time>2011-07-05T15:29:10Z</time>
      </trkpt>
      <trkpt lat="62.787164" lon="12.382078">
        <ele>922.728</ele>
        <time>2011-07-05T15:29:14Z</time>
      </trkpt>
      <trkpt lat="62.78726" lon="12.382279">
        <ele>920.347</ele>
        <time>2011-07-05T15:29:20Z</time>
      </trkpt>
      <trkpt lat="62.78734" lon="12.382448">
        <ele>919.768</ele>
        <time>2011-07-05T15:29:25Z</time>
      </trkpt>
      <trkpt lat="62.787373" lon="12.382526">
        <ele>919.565</ele>
        <time>2011-07-05T15:29:27Z</time>
      </trkpt>
      <trkpt lat="62.787458" lon="12.382716">
        <ele>918.982</ele>
        <time>2011-07-05T15:29:35Z</time>
      </trkpt>
      <trkpt lat="62.787543" lon="12.382904">
        <ele>917.543</ele>
        <time>2011-07-05T15:29:41Z</time>
      </trkpt>
      <trkpt lat="62.787583" lon="12.382947">
        <ele>917.084</ele>
        <time>2011-07-05T15:29:43Z</time>
      </trkpt>
      <trkpt lat="62.78766" lon="12.383105">
        <ele>916.163</ele>
        <time>2011-07-05T15:29:50Z</time>
      </trkpt>
      <trkpt lat="62.787756" lon="12.383248">
        <ele>915.122</ele>
        <time>2011-07-05T15:29:55Z</time>
      </trkpt>
      <trkpt lat="62.787897" lon="12.383413">
        <ele>912.646</ele>
        <time>2011-07-05T15:30:01Z</time>
      </trkpt>
      <trkpt lat="62.787969" lon="12.38361">
        <ele>911.786</ele>
        <time>2011-07-05T15:30:06Z</time>
      </trkpt>
      <trkpt lat="62.788049" lon="12.383741">
        <ele>911.037</ele>
        <time>2011-07-05T15:30:14Z</time>
      </trkpt>
      <trkpt lat="62.788119" lon="12.383888">
        <ele>909.854</ele>
        <time>2011-07-05T15:30:22Z</time>
      </trkpt>
      <trkpt lat="62.788197" lon="12.384017">
        <ele>908.464</ele>
        <time>2011-07-05T15:30:29Z</time>
      </trkpt>
      <trkpt lat="62.788337" lon="12.384097">
        <ele>905.826</ele>
        <time>2011-07-05T15:30:35Z</time>
      </trkpt>
      <trkpt lat="62.788485" lon="12.384196">
        <ele>903.449</ele>
        <time>2011-07-05T15:30:41Z</time>
      </trkpt>
      <trkpt lat="62.78859" lon="12.384354">
        <ele>902.105</ele>
        <time>2011-07-05T15:30:46Z</time>
      </trkpt>
      <trkpt lat="62.788713" lon="12.38456">
        <ele>900.579</ele>
        <time>2011-07-05T15:30:52Z</time>
      </trkpt>
      <trkpt lat="62.788753" lon="12.384633">
        <ele>900.023</ele>
        <time>2011-07-05T15:30:54Z</time>
      </trkpt>
      <trkpt lat="62.788861" lon="12.384787">
        <ele>898.083</ele>
        <time>2011-07-05T15:31:00Z</time>
      </trkpt>
      <trkpt lat="62.788918" lon="12.384993">
        <ele>897.104</ele>
        <time>2011-07-05T15:31:04Z</time>
      </trkpt>
      <trkpt lat="62.78899" lon="12.385133">
        <ele>896.084</ele>
        <time>2011-07-05T15:31:08Z</time>
      </trkpt>
      <trkpt lat="62.789025" lon="12.385199">
        <ele>895.46</ele>
        <time>2011-07-05T15:31:10Z</time>
      </trkpt>
      <trkpt lat="62.789096" lon="12.385281">
        <ele>893.735</ele>
        <time>2011-07-05T15:31:16Z</time>
      </trkpt>
      <trkpt lat="62.789107" lon="12.385249">
        <ele>893.22</ele>
        <time>2011-07-05T15:31:21Z</time>
      </trkpt>
      <trkpt lat="62.789108" lon="12.385249">
        <ele>893.065</ele>
        <time>2011-07-05T15:31:22Z</time>
      </trkpt>
      <trkpt lat="62.789111" lon="12.385311">
        <ele>893.048</ele>
        <time>2011-07-05T15:31:35Z</time>
      </trkpt>
      <trkpt lat="62.789119" lon="12.38533">
        <ele>892.533</ele>
        <time>2011-07-05T15:31:38Z</time>
      </trkpt>
      <trkpt lat="62.789138" lon="12.385233">
        <ele>893.224</ele>
        <time>2011-07-05T15:32:38Z</time>
      </trkpt>
      <trkpt lat="62.789123" lon="12.385282">
        <ele>893.073</ele>
        <time>2011-07-05T15:32:41Z</time>
      </trkpt>
      <trkpt lat="62.789125" lon="12.385318">
        <ele>893.179</ele>
        <time>2011-07-05T15:32:43Z</time>
      </trkpt>
      <trkpt lat="62.789189" lon="12.385412">
        <ele>893.845</ele>
        <time>2011-07-05T15:32:49Z</time>
      </trkpt>
      <trkpt lat="62.789251" lon="12.385521">
        <ele>895.3</ele>
        <time>2011-07-05T15:32:57Z</time>
      </trkpt>
      <trkpt lat="62.789307" lon="12.385606">
        <ele>894.658</ele>
        <time>2011-07-05T15:33:03Z</time>
      </trkpt>
      <trkpt lat="62.789344" lon="12.385678">
        <ele>894.642</ele>
        <time>2011-07-05T15:33:07Z</time>
      </trkpt>
      <trkpt lat="62.789417" lon="12.385819">
        <ele>895.033</ele>
        <time>2011-07-05T15:33:15Z</time>
      </trkpt>
      <trkpt lat="62.789489" lon="12.38599">
        <ele>896.001</ele>
        <time>2011-07-05T15:33:21Z</time>
      </trkpt>
      <trkpt lat="62.789595" lon="12.386248">
        <ele>897.625</ele>
        <time>2011-07-05T15:33:28Z</time>
      </trkpt>
      <trkpt lat="62.789686" lon="12.386458">
        <ele>897.407</ele>
        <time>2011-07-05T15:33:36Z</time>
      </trkpt>
      <trkpt lat="62.789791" lon="12.386598">
        <ele>895.945</ele>
        <time>2011-07-05T15:33:44Z</time>
      </trkpt>
      <trkpt lat="62.789806" lon="12.386603">
        <ele>895.556</ele>
        <time>2011-07-05T15:33:45Z</time>
      </trkpt>
      <trkpt lat="62.789877" lon="12.386744">
        <ele>893.944</ele>
        <time>2011-07-05T15:33:50Z</time>
      </trkpt>
      <trkpt lat="62.789985" lon="12.386929">
        <ele>892.119</ele>
        <time>2011-07-05T15:33:55Z</time>
      </trkpt>
      <trkpt lat="62.79007" lon="12.387142">
        <ele>891.462</ele>
        <time>2011-07-05T15:34:00Z</time>
      </trkpt>
      <trkpt lat="62.790178" lon="12.387438">
        <ele>890.21</ele>
        <time>2011-07-05T15:34:06Z</time>
      </trkpt>
      <trkpt lat="62.790256" lon="12.387661">
        <ele>890.052</ele>
        <time>2011-07-05T15:34:11Z</time>
      </trkpt>
      <trkpt lat="62.790364" lon="12.387978">
        <ele>887.613</ele>
        <time>2011-07-05T15:34:18Z</time>
      </trkpt>
      <trkpt lat="62.790397" lon="12.388094">
        <ele>886.909</ele>
        <time>2011-07-05T15:34:20Z</time>
      </trkpt>
      <trkpt lat="62.790447" lon="12.388343">
        <ele>886.982</ele>
        <time>2011-07-05T15:34:25Z</time>
      </trkpt>
      <trkpt lat="62.790547" lon="12.388548">
        <ele>885.488</ele>
        <time>2011-07-05T15:34:30Z</time>
      </trkpt>
      <trkpt lat="62.790594" lon="12.388612">
        <ele>885.077</ele>
        <time>2011-07-05T15:34:32Z</time>
      </trkpt>
      <trkpt lat="62.790728" lon="12.388621">
        <ele>883.456</ele>
        <time>2011-07-05T15:34:38Z</time>
      </trkpt>
      <trkpt lat="62.790749" lon="12.388729">
        <ele>882.528</ele>
        <time>2011-07-05T15:34:44Z</time>
      </trkpt>
      <trkpt lat="62.790706" lon="12.388846">
        <ele>882.518</ele>
        <time>2011-07-05T15:34:49Z</time>
      </trkpt>
      <trkpt lat="62.790711" lon="12.388859">
        <ele>882.597</ele>
        <time>2011-07-05T15:34:50Z</time>
      </trkpt>
      <trkpt lat="62.790759" lon="12.388937">
        <ele>880.848</ele>
        <time>2011-07-05T15:34:56Z</time>
      </trkpt>
      <trkpt lat="62.790778" lon="12.388962">
        <ele>880.665</ele>
        <time>2011-07-05T15:34:58Z</time>
      </trkpt>
      <trkpt lat="62.790825" lon="12.389015">
        <ele>880.487</ele>
        <time>2011-07-05T15:35:06Z</time>
      </trkpt>
      <trkpt lat="62.790845" lon="12.389023">
        <ele>880.34</ele>
        <time>2011-07-05T15:35:09Z</time>
      </trkpt>
      <trkpt lat="62.790858" lon="12.389039">
        <ele>880.469</ele>
        <time>2011-07-05T15:35:11Z</time>
      </trkpt>
      <trkpt lat="62.790885" lon="12.389112">
        <ele>880.941</ele>
        <time>2011-07-05T15:35:16Z</time>
      </trkpt>
      <trkpt lat="62.790938" lon="12.389247">
        <ele>881.913</ele>
        <time>2011-07-05T15:35:23Z</time>
      </trkpt>
      <trkpt lat="62.790964" lon="12.389314">
        <ele>882.313</ele>
        <time>2011-07-05T15:35:26Z</time>
      </trkpt>
      <trkpt lat="62.791045" lon="12.389516">
        <ele>883.464</ele>
        <time>2011-07-05T15:35:34Z</time>
      </trkpt>
      <trkpt lat="62.791128" lon="12.389699">
        <ele>883.154</ele>
        <time>2011-07-05T15:35:42Z</time>
      </trkpt>
      <trkpt lat="62.791185" lon="12.389861">
        <ele>883.219</ele>
        <time>2011-07-05T15:35:49Z</time>
      </trkpt>
      <trkpt lat="62.791254" lon="12.390035">
        <ele>883.45</ele>
        <time>2011-07-05T15:35:57Z</time>
      </trkpt>
      <trkpt lat="62.791304" lon="12.39016">
        <ele>883.153</ele>
        <time>2011-07-05T15:36:03Z</time>
      </trkpt>
      <trkpt lat="62.791334" lon="12.390254">
        <ele>882.94</ele>
        <time>2011-07-05T15:36:08Z</time>
      </trkpt>
      <trkpt lat="62.791397" lon="12.390431">
        <ele>882.392</ele>
        <time>2011-07-05T15:36:16Z</time>
      </trkpt>
      <trkpt lat="62.791461" lon="12.390554">
        <ele>882.324</ele>
        <time>2011-07-05T15:36:23Z</time>
      </trkpt>
      <trkpt lat="62.791512" lon="12.390738">
        <ele>882.166</ele>
        <time>2011-07-05T15:36:31Z</time>
      </trkpt>
      <trkpt lat="62.791555" lon="12.390932">
        <ele>881.739</ele>
        <time>2011-07-05T15:36:38Z</time>
      </trkpt>
      <trkpt lat="62.79163" lon="12.391071">
        <ele>881.116</ele>
        <time>2011-07-05T15:36:46Z</time>
      </trkpt>
      <trkpt lat="62.791695" lon="12.391181">
        <ele>880.918</ele>
        <time>2011-07-05T15:36:53Z</time>
      </trkpt>
      <trkpt lat="62.791768" lon="12.391318">
        <ele>880.708</ele>
        <time>2011-07-05T15:37:02Z</time>
      </trkpt>
      <trkpt lat="62.79181" lon="12.391379">
        <ele>880.614</ele>
        <time>2011-07-05T15:37:07Z</time>
      </trkpt>
      <trkpt lat="62.791841" lon="12.391365">
        <ele>881.063</ele>
        <time>2011-07-05T15:37:12Z</time>
      </trkpt>
      <trkpt lat="62.791858" lon="12.391374">
        <ele>881.011</ele>
        <time>2011-07-05T15:37:15Z</time>
      </trkpt>
      <trkpt lat="62.79187" lon="12.391391">
        <ele>880.928</ele>
        <time>2011-07-05T15:37:18Z</time>
      </trkpt>
      <trkpt lat="62.791918" lon="12.391463">
        <ele>880.741</ele>
        <time>2011-07-05T15:37:45Z</time>
      </trkpt>
      <trkpt lat="62.791988" lon="12.391592">
        <ele>880.545</ele>
        <time>2011-07-05T15:37:52Z</time>
      </trkpt>
      <trkpt lat="62.792077" lon="12.391773">
        <ele>880.348</ele>
        <time>2011-07-05T15:38:01Z</time>
      </trkpt>
      <trkpt lat="62.79213" lon="12.391833">
        <ele>879.34</ele>
        <time>2011-07-05T15:38:06Z</time>
      </trkpt>
      <trkpt lat="62.792197" lon="12.391987">
        <ele>878.397</ele>
        <time>2011-07-05T15:38:13Z</time>
      </trkpt>
      <trkpt lat="62.792242" lon="12.392085">
        <ele>877.982</ele>
        <time>2011-07-05T15:38:19Z</time>
      </trkpt>
      <trkpt lat="62.792277" lon="12.392219">
        <ele>878.907</ele>
        <time>2011-07-05T15:38:25Z</time>
      </trkpt>
      <trkpt lat="62.792276" lon="12.392357">
        <ele>878.594</ele>
        <time>2011-07-05T15:38:30Z</time>
      </trkpt>
      <trkpt lat="62.792324" lon="12.392574">
        <ele>878.965</ele>
        <time>2011-07-05T15:38:38Z</time>
      </trkpt>
      <trkpt lat="62.7924" lon="12.392743">
        <ele>879.72</ele>
        <time>2011-07-05T15:38:46Z</time>
      </trkpt>
      <trkpt lat="62.792421" lon="12.392776">
        <ele>879.763</ele>
        <time>2011-07-05T15:38:48Z</time>
      </trkpt>
      <trkpt lat="62.792542" lon="12.392817">
        <ele>880.092</ele>
        <time>2011-07-05T15:38:54Z</time>
      </trkpt>
      <trkpt lat="62.792609" lon="12.392912">
        <ele>880.63</ele>
        <time>2011-07-05T15:38:58Z</time>
      </trkpt>
      <trkpt lat="62.792659" lon="12.393065">
        <ele>881.13</ele>
        <time>2011-07-05T15:39:02Z</time>
      </trkpt>
      <trkpt lat="62.792695" lon="12.393277">
        <ele>881.823</ele>
        <time>2011-07-05T15:39:08Z</time>
      </trkpt>
      <trkpt lat="62.792772" lon="12.393409">
        <ele>882.644</ele>
        <time>2011-07-05T15:39:13Z</time>
      </trkpt>
      <trkpt lat="62.792855" lon="12.393635">
        <ele>882.346</ele>
        <time>2011-07-05T15:39:19Z</time>
      </trkpt>
      <trkpt lat="62.79289" lon="12.393807">
        <ele>882.091</ele>
        <time>2011-07-05T15:39:23Z</time>
      </trkpt>
      <trkpt lat="62.792893" lon="12.393828">
        <ele>882.165</ele>
        <time>2011-07-05T15:39:24Z</time>
      </trkpt>
      <trkpt lat="62.792895" lon="12.393868">
        <ele>881.991</ele>
        <time>2011-07-05T15:39:26Z</time>
      </trkpt>
      <trkpt lat="62.792945" lon="12.393924">
        <ele>882.196</ele>
        <time>2011-07-05T15:39:30Z</time>
      </trkpt>
      <trkpt lat="62.792989" lon="12.394067">
        <ele>882.607</ele>
        <time>2011-07-05T15:39:35Z</time>
      </trkpt>
      <trkpt lat="62.793004" lon="12.394097">
        <ele>882.786</ele>
        <time>2011-07-05T15:39:36Z</time>
      </trkpt>
      <trkpt lat="62.793113" lon="12.394288">
        <ele>883.122</ele>
        <time>2011-07-05T15:39:42Z</time>
      </trkpt>
      <trkpt lat="62.793187" lon="12.394504">
        <ele>883.883</ele>
        <time>2011-07-05T15:39:48Z</time>
      </trkpt>
      <trkpt lat="62.793258" lon="12.394642">
        <ele>885.39</ele>
        <time>2011-07-05T15:39:55Z</time>
      </trkpt>
      <trkpt lat="62.793344" lon="12.394684">
        <ele>885.787</ele>
        <time>2011-07-05T15:40:02Z</time>
      </trkpt>
      <trkpt lat="62.793434" lon="12.394631">
        <ele>885.772</ele>
        <time>2011-07-05T15:40:09Z</time>
      </trkpt>
      <trkpt lat="62.793498" lon="12.394786">
        <ele>886.047</ele>
        <time>2011-07-05T15:40:14Z</time>
      </trkpt>
      <trkpt lat="62.793593" lon="12.395006">
        <ele>886.721</ele>
        <time>2011-07-05T15:40:20Z</time>
      </trkpt>
      <trkpt lat="62.793654" lon="12.395164">
        <ele>887.595</ele>
        <time>2011-07-05T15:40:25Z</time>
      </trkpt>
      <trkpt lat="62.793693" lon="12.395339">
        <ele>888.67</ele>
        <time>2011-07-05T15:40:30Z</time>
      </trkpt>
      <trkpt lat="62.793686" lon="12.395578">
        <ele>890.445</ele>
        <time>2011-07-05T15:40:36Z</time>
      </trkpt>
      <trkpt lat="62.793724" lon="12.395778">
        <ele>892.259</ele>
        <time>2011-07-05T15:40:41Z</time>
      </trkpt>
      <trkpt lat="62.793731" lon="12.395804">
        <ele>892.46</ele>
        <time>2011-07-05T15:40:42Z</time>
      </trkpt>
      <trkpt lat="62.793756" lon="12.395966">
        <ele>894.019</ele>
        <time>2011-07-05T15:40:48Z</time>
      </trkpt>
      <trkpt lat="62.793796" lon="12.396069">
        <ele>895.065</ele>
        <time>2011-07-05T15:40:52Z</time>
      </trkpt>
      <trkpt lat="62.793898" lon="12.396238">
        <ele>897.048</ele>
        <time>2011-07-05T15:41:01Z</time>
      </trkpt>
      <trkpt lat="62.794007" lon="12.396426">
        <ele>897.727</ele>
        <time>2011-07-05T15:41:10Z</time>
      </trkpt>
      <trkpt lat="62.794017" lon="12.396459">
        <ele>897.869</ele>
        <time>2011-07-05T15:41:11Z</time>
      </trkpt>
      <trkpt lat="62.794075" lon="12.396644">
        <ele>899.144</ele>
        <time>2011-07-05T15:41:16Z</time>
      </trkpt>
      <trkpt lat="62.79419" lon="12.396822">
        <ele>901.582</ele>
        <time>2011-07-05T15:41:23Z</time>
      </trkpt>
      <trkpt lat="62.794232" lon="12.396842">
        <ele>901.982</ele>
        <time>2011-07-05T15:41:25Z</time>
      </trkpt>
      <trkpt lat="62.794336" lon="12.396928">
        <ele>902.641</ele>
        <time>2011-07-05T15:41:30Z</time>
      </trkpt>
      <trkpt lat="62.794445" lon="12.397001">
        <ele>903.677</ele>
        <time>2011-07-05T15:41:38Z</time>
      </trkpt>
      <trkpt lat="62.794529" lon="12.397038">
        <ele>903.718</ele>
        <time>2011-07-05T15:41:44Z</time>
      </trkpt>
      <trkpt lat="62.794615" lon="12.397082">
        <ele>904.254</ele>
        <time>2011-07-05T15:41:50Z</time>
      </trkpt>
      <trkpt lat="62.794716" lon="12.397159">
        <ele>904.332</ele>
        <time>2011-07-05T15:41:57Z</time>
      </trkpt>
      <trkpt lat="62.7948" lon="12.397315">
        <ele>904.727</ele>
        <time>2011-07-05T15:42:04Z</time>
      </trkpt>
      <trkpt lat="62.794906" lon="12.397544">
        <ele>905.766</ele>
        <time>2011-07-05T15:42:12Z</time>
      </trkpt>
      <trkpt lat="62.795006" lon="12.397765">
        <ele>906.224</ele>
        <time>2011-07-05T15:42:18Z</time>
      </trkpt>
      <trkpt lat="62.795133" lon="12.398003">
        <ele>907.182</ele>
        <time>2011-07-05T15:42:25Z</time>
      </trkpt>
      <trkpt lat="62.795271" lon="12.398218">
        <ele>907.806</ele>
        <time>2011-07-05T15:42:32Z</time>
      </trkpt>
      <trkpt lat="62.795352" lon="12.398324">
        <ele>907.727</ele>
        <time>2011-07-05T15:42:36Z</time>
      </trkpt>
      <trkpt lat="62.795386" lon="12.398536">
        <ele>908.69</ele>
        <time>2011-07-05T15:42:42Z</time>
      </trkpt>
      <trkpt lat="62.795394" lon="12.398614">
        <ele>909.277</ele>
        <time>2011-07-05T15:42:44Z</time>
      </trkpt>
      <trkpt lat="62.795474" lon="12.398906">
        <ele>911.407</ele>
        <time>2011-07-05T15:42:52Z</time>
      </trkpt>
      <trkpt lat="62.795585" lon="12.399023">
        <ele>911.116</ele>
        <time>2011-07-05T15:42:57Z</time>
      </trkpt>
      <trkpt lat="62.795681" lon="12.399107">
        <ele>911.009</ele>
        <time>2011-07-05T15:43:02Z</time>
      </trkpt>
      <trkpt lat="62.795729" lon="12.399335">
        <ele>911.557</ele>
        <time>2011-07-05T15:43:08Z</time>
      </trkpt>
      <trkpt lat="62.795761" lon="12.399564">
        <ele>912.604</ele>
        <time>2011-07-05T15:43:16Z</time>
      </trkpt>
      <trkpt lat="62.795793" lon="12.399776">
        <ele>913.813</ele>
        <time>2011-07-05T15:43:24Z</time>
      </trkpt>
      <trkpt lat="62.795843" lon="12.400027">
        <ele>915.069</ele>
        <time>2011-07-05T15:43:33Z</time>
      </trkpt>
      <trkpt lat="62.795861" lon="12.400248">
        <ele>916.148</ele>
        <time>2011-07-05T15:43:41Z</time>
      </trkpt>
      <trkpt lat="62.795895" lon="12.400448">
        <ele>916.619</ele>
        <time>2011-07-05T15:43:47Z</time>
      </trkpt>
      <trkpt lat="62.795903" lon="12.400559">
        <ele>916.833</ele>
        <time>2011-07-05T15:43:51Z</time>
      </trkpt>
      <trkpt lat="62.795929" lon="12.400731">
        <ele>917.479</ele>
        <time>2011-07-05T15:43:57Z</time>
      </trkpt>
      <trkpt lat="62.795962" lon="12.400896">
        <ele>918.099</ele>
        <time>2011-07-05T15:44:03Z</time>
      </trkpt>
      <trkpt lat="62.796043" lon="12.401086">
        <ele>919.087</ele>
        <time>2011-07-05T15:44:11Z</time>
      </trkpt>
      <trkpt lat="62.796097" lon="12.401257">
        <ele>920.3</ele>
        <time>2011-07-05T15:44:18Z</time>
      </trkpt>
      <trkpt lat="62.796104" lon="12.401284">
        <ele>920.443</ele>
        <time>2011-07-05T15:44:19Z</time>
      </trkpt>
      <trkpt lat="62.796123" lon="12.401321">
        <ele>920.803</ele>
        <time>2011-07-05T15:44:21Z</time>
      </trkpt>
      <trkpt lat="62.79619" lon="12.401482">
        <ele>921.464</ele>
        <time>2011-07-05T15:44:27Z</time>
      </trkpt>
      <trkpt lat="62.796287" lon="12.401682">
        <ele>922.7</ele>
        <time>2011-07-05T15:44:33Z</time>
      </trkpt>
      <trkpt lat="62.796387" lon="12.401873">
        <ele>924.032</ele>
        <time>2011-07-05T15:44:39Z</time>
      </trkpt>
      <trkpt lat="62.796423" lon="12.402041">
        <ele>925.221</ele>
        <time>2011-07-05T15:44:43Z</time>
      </trkpt>
      <trkpt lat="62.796484" lon="12.402179">
        <ele>926.958</ele>
        <time>2011-07-05T15:44:48Z</time>
      </trkpt>
      <trkpt lat="62.796561" lon="12.402357">
        <ele>929.858</ele>
        <time>2011-07-05T15:44:55Z</time>
      </trkpt>
      <trkpt lat="62.796642" lon="12.402531">
        <ele>932.019</ele>
        <time>2011-07-05T15:45:03Z</time>
      </trkpt>
      <trkpt lat="62.796721" lon="12.4027">
        <ele>933.617</ele>
        <time>2011-07-05T15:45:11Z</time>
      </trkpt>
      <trkpt lat="62.796791" lon="12.402843">
        <ele>934.734</ele>
        <time>2011-07-05T15:45:18Z</time>
      </trkpt>
      <trkpt lat="62.796868" lon="12.403022">
        <ele>935.889</ele>
        <time>2011-07-05T15:45:26Z</time>
      </trkpt>
      <trkpt lat="62.796946" lon="12.403187">
        <ele>936.406</ele>
        <time>2011-07-05T15:45:33Z</time>
      </trkpt>
      <trkpt lat="62.797031" lon="12.403388">
        <ele>936.284</ele>
        <time>2011-07-05T15:45:38Z</time>
      </trkpt>
      <trkpt lat="62.797111" lon="12.403595">
        <ele>936.779</ele>
        <time>2011-07-05T15:45:43Z</time>
      </trkpt>
      <trkpt lat="62.797187" lon="12.403771">
        <ele>937.873</ele>
        <time>2011-07-05T15:45:48Z</time>
      </trkpt>
      <trkpt lat="62.797295" lon="12.40402">
        <ele>939.609</ele>
        <time>2011-07-05T15:45:55Z</time>
      </trkpt>
      <trkpt lat="62.79731" lon="12.404067">
        <ele>939.889</ele>
        <time>2011-07-05T15:45:56Z</time>
      </trkpt>
      <trkpt lat="62.797376" lon="12.404193">
        <ele>940.863</ele>
        <time>2011-07-05T15:46:00Z</time>
      </trkpt>
      <trkpt lat="62.797485" lon="12.404463">
        <ele>942.404</ele>
        <time>2011-07-05T15:46:08Z</time>
      </trkpt>
      <trkpt lat="62.797545" lon="12.404629">
        <ele>944.005</ele>
        <time>2011-07-05T15:46:14Z</time>
      </trkpt>
      <trkpt lat="62.797605" lon="12.404788">
        <ele>943.442</ele>
        <time>2011-07-05T15:46:20Z</time>
      </trkpt>
      <trkpt lat="62.79763" lon="12.405139">
        <ele>942.081</ele>
        <time>2011-07-05T15:46:27Z</time>
      </trkpt>
      <trkpt lat="62.797723" lon="12.405317">
        <ele>941.839</ele>
        <time>2011-07-05T15:46:32Z</time>
      </trkpt>
      <trkpt lat="62.797768" lon="12.405371">
        <ele>941.839</ele>
        <time>2011-07-05T15:46:34Z</time>
      </trkpt>
      <trkpt lat="62.797824" lon="12.405507">
        <ele>941.984</ele>
        <time>2011-07-05T15:46:39Z</time>
      </trkpt>
      <trkpt lat="62.79784" lon="12.40554">
        <ele>942.071</ele>
        <time>2011-07-05T15:46:40Z</time>
      </trkpt>
      <trkpt lat="62.797939" lon="12.405754">
        <ele>942.748</ele>
        <time>2011-07-05T15:46:46Z</time>
      </trkpt>
      <trkpt lat="62.798012" lon="12.405907">
        <ele>943.732</ele>
        <time>2011-07-05T15:46:52Z</time>
      </trkpt>
      <trkpt lat="62.798126" lon="12.406116">
        <ele>945.971</ele>
        <time>2011-07-05T15:47:02Z</time>
      </trkpt>
      <trkpt lat="62.798194" lon="12.406211">
        <ele>947.901</ele>
        <time>2011-07-05T15:47:09Z</time>
      </trkpt>
      <trkpt lat="62.798244" lon="12.406378">
        <ele>950.222</ele>
        <time>2011-07-05T15:47:16Z</time>
      </trkpt>
      <trkpt lat="62.798312" lon="12.406548">
        <ele>952.74</ele>
        <time>2011-07-05T15:47:22Z</time>
      </trkpt>
      <trkpt lat="62.798382" lon="12.406662">
        <ele>954.397</ele>
        <time>2011-07-05T15:47:28Z</time>
      </trkpt>
      <trkpt lat="62.798455" lon="12.406797">
        <ele>955.367</ele>
        <time>2011-07-05T15:47:35Z</time>
      </trkpt>
      <trkpt lat="62.798544" lon="12.406949">
        <ele>956.045</ele>
        <time>2011-07-05T15:47:43Z</time>
      </trkpt>
      <trkpt lat="62.79861" lon="12.407093">
        <ele>957.108</ele>
        <time>2011-07-05T15:47:50Z</time>
      </trkpt>
      <trkpt lat="62.79871" lon="12.407323">
        <ele>957.988</ele>
        <time>2011-07-05T15:47:59Z</time>
      </trkpt>
      <trkpt lat="62.798794" lon="12.407582">
        <ele>958.647</ele>
        <time>2011-07-05T15:48:06Z</time>
      </trkpt>
      <trkpt lat="62.798818" lon="12.407791">
        <ele>959.239</ele>
        <time>2011-07-05T15:48:11Z</time>
      </trkpt>
      <trkpt lat="62.798888" lon="12.407932">
        <ele>960.361</ele>
        <time>2011-07-05T15:48:17Z</time>
      </trkpt>
      <trkpt lat="62.798969" lon="12.408029">
        <ele>961.546</ele>
        <time>2011-07-05T15:48:24Z</time>
      </trkpt>
      <trkpt lat="62.799067" lon="12.408167">
        <ele>962.602</ele>
        <time>2011-07-05T15:48:33Z</time>
      </trkpt>
      <trkpt lat="62.799124" lon="12.408338">
        <ele>964.178</ele>
        <time>2011-07-05T15:48:41Z</time>
      </trkpt>
      <trkpt lat="62.799157" lon="12.408542">
        <ele>965.711</ele>
        <time>2011-07-05T15:48:49Z</time>
      </trkpt>
      <trkpt lat="62.799241" lon="12.408744">
        <ele>967.369</ele>
        <time>2011-07-05T15:48:58Z</time>
      </trkpt>
      <trkpt lat="62.799292" lon="12.408803">
        <ele>968.924</ele>
        <time>2011-07-05T15:49:03Z</time>
      </trkpt>
      <trkpt lat="62.799346" lon="12.408906">
        <ele>970.952</ele>
        <time>2011-07-05T15:49:07Z</time>
      </trkpt>
      <trkpt lat="62.799443" lon="12.409092">
        <ele>973.589</ele>
        <time>2011-07-05T15:49:14Z</time>
      </trkpt>
      <trkpt lat="62.799586" lon="12.409387">
        <ele>975.818</ele>
        <time>2011-07-05T15:49:27Z</time>
      </trkpt>
      <trkpt lat="62.79969" lon="12.409622">
        <ele>977.238</ele>
        <time>2011-07-05T15:49:37Z</time>
      </trkpt>
      <trkpt lat="62.79979" lon="12.409831">
        <ele>978.092</ele>
        <time>2011-07-05T15:49:46Z</time>
      </trkpt>
      <trkpt lat="62.799887" lon="12.410041">
        <ele>979.096</ele>
        <time>2011-07-05T15:49:54Z</time>
      </trkpt>
      <trkpt lat="62.799979" lon="12.410298">
        <ele>980.434</ele>
        <time>2011-07-05T15:50:01Z</time>
      </trkpt>
      <trkpt lat="62.800085" lon="12.410545">
        <ele>981.973</ele>
        <time>2011-07-05T15:50:08Z</time>
      </trkpt>
      <trkpt lat="62.800208" lon="12.410786">
        <ele>982.987</ele>
        <time>2011-07-05T15:50:15Z</time>
      </trkpt>
      <trkpt lat="62.800375" lon="12.411096">
        <ele>983.254</ele>
        <time>2011-07-05T15:50:23Z</time>
      </trkpt>
      <trkpt lat="62.800503" lon="12.411325">
        <ele>982.828</ele>
        <time>2011-07-05T15:50:29Z</time>
      </trkpt>
      <trkpt lat="62.800639" lon="12.411549">
        <ele>982.253</ele>
        <time>2011-07-05T15:50:35Z</time>
      </trkpt>
      <trkpt lat="62.800839" lon="12.411851">
        <ele>981.657</ele>
        <time>2011-07-05T15:50:44Z</time>
      </trkpt>
      <trkpt lat="62.800978" lon="12.412055">
        <ele>980.776</ele>
        <time>2011-07-05T15:50:50Z</time>
      </trkpt>
      <trkpt lat="62.801126" lon="12.412284">
        <ele>980.546</ele>
        <time>2011-07-05T15:50:57Z</time>
      </trkpt>
      <trkpt lat="62.801278" lon="12.412499">
        <ele>980.594</ele>
        <time>2011-07-05T15:51:04Z</time>
      </trkpt>
      <trkpt lat="62.801435" lon="12.412732">
        <ele>980.022</ele>
        <time>2011-07-05T15:51:11Z</time>
      </trkpt>
      <trkpt lat="62.801625" lon="12.41297">
        <ele>978.57</ele>
        <time>2011-07-05T15:51:19Z</time>
      </trkpt>
      <trkpt lat="62.801734" lon="12.413144">
        <ele>977.785</ele>
        <time>2011-07-05T15:51:24Z</time>
      </trkpt>
      <trkpt lat="62.801898" lon="12.41324">
        <ele>977.592</ele>
        <time>2011-07-05T15:51:31Z</time>
      </trkpt>
      <trkpt lat="62.802032" lon="12.413475">
        <ele>979.005</ele>
        <time>2011-07-05T15:51:38Z</time>
      </trkpt>
      <trkpt lat="62.802161" lon="12.413669">
        <ele>979.461</ele>
        <time>2011-07-05T15:51:44Z</time>
      </trkpt>
      <trkpt lat="62.802321" lon="12.413894">
        <ele>979.335</ele>
        <time>2011-07-05T15:51:51Z</time>
      </trkpt>
      <trkpt lat="62.802458" lon="12.414109">
        <ele>979.138</ele>
        <time>2011-07-05T15:51:57Z</time>
      </trkpt>
      <trkpt lat="62.802588" lon="12.414279">
        <ele>978.872</ele>
        <time>2011-07-05T15:52:03Z</time>
      </trkpt>
      <trkpt lat="62.802755" lon="12.414396">
        <ele>977.864</ele>
        <time>2011-07-05T15:52:10Z</time>
      </trkpt>
      <trkpt lat="62.802891" lon="12.414488">
        <ele>976.75</ele>
        <time>2011-07-05T15:52:16Z</time>
      </trkpt>
      <trkpt lat="62.803019" lon="12.414568">
        <ele>976.089</ele>
        <time>2011-07-05T15:52:22Z</time>
      </trkpt>
      <trkpt lat="62.803208" lon="12.414683">
        <ele>974.851</ele>
        <time>2011-07-05T15:52:29Z</time>
      </trkpt>
      <trkpt lat="62.80342" lon="12.414881">
        <ele>974.099</ele>
        <time>2011-07-05T15:52:37Z</time>
      </trkpt>
      <trkpt lat="62.803552" lon="12.415106">
        <ele>974.254</ele>
        <time>2011-07-05T15:52:43Z</time>
      </trkpt>
      <trkpt lat="62.803655" lon="12.415287">
        <ele>974.181</ele>
        <time>2011-07-05T15:52:48Z</time>
      </trkpt>
      <trkpt lat="62.803736" lon="12.415531">
        <ele>974.053</ele>
        <time>2011-07-05T15:52:53Z</time>
      </trkpt>
      <trkpt lat="62.803836" lon="12.415901">
        <ele>974.134</ele>
        <time>2011-07-05T15:53:00Z</time>
      </trkpt>
      <trkpt lat="62.803897" lon="12.416106">
        <ele>974.813</ele>
        <time>2011-07-05T15:53:05Z</time>
      </trkpt>
      <trkpt lat="62.803971" lon="12.416465">
        <ele>973.843</ele>
        <time>2011-07-05T15:53:12Z</time>
      </trkpt>
      <trkpt lat="62.804035" lon="12.416844">
        <ele>973.182</ele>
        <time>2011-07-05T15:53:19Z</time>
      </trkpt>
      <trkpt lat="62.804104" lon="12.417141">
        <ele>971.684</ele>
        <time>2011-07-05T15:53:25Z</time>
      </trkpt>
      <trkpt lat="62.804201" lon="12.417382">
        <ele>969.864</ele>
        <time>2011-07-05T15:53:31Z</time>
      </trkpt>
      <trkpt lat="62.804259" lon="12.417638">
        <ele>967.601</ele>
        <time>2011-07-05T15:53:37Z</time>
      </trkpt>
      <trkpt lat="62.804348" lon="12.41793">
        <ele>965.001</ele>
        <time>2011-07-05T15:53:43Z</time>
      </trkpt>
      <trkpt lat="62.804474" lon="12.418069">
        <ele>963.787</ele>
        <time>2011-07-05T15:53:48Z</time>
      </trkpt>
      <trkpt lat="62.804645" lon="12.41809">
        <ele>962.882</ele>
        <time>2011-07-05T15:53:54Z</time>
      </trkpt>
      <trkpt lat="62.804862" lon="12.418143">
        <ele>961.597</ele>
        <time>2011-07-05T15:54:01Z</time>
      </trkpt>
      <trkpt lat="62.805077" lon="12.418233">
        <ele>961.312</ele>
        <time>2011-07-05T15:54:09Z</time>
      </trkpt>
      <trkpt lat="62.80512" lon="12.418232">
        <ele>961.548</ele>
        <time>2011-07-05T15:54:11Z</time>
      </trkpt>
      <trkpt lat="62.805236" lon="12.418334">
        <ele>961.54</ele>
        <time>2011-07-05T15:54:17Z</time>
      </trkpt>
      <trkpt lat="62.805292" lon="12.418361">
        <ele>961.413</ele>
        <time>2011-07-05T15:54:20Z</time>
      </trkpt>
      <trkpt lat="62.805445" lon="12.418603">
        <ele>961.494</ele>
        <time>2011-07-05T15:54:27Z</time>
      </trkpt>
      <trkpt lat="62.805619" lon="12.418906">
        <ele>961.473</ele>
        <time>2011-07-05T15:54:35Z</time>
      </trkpt>
      <trkpt lat="62.805703" lon="12.419164">
        <ele>961.998</ele>
        <time>2011-07-05T15:54:41Z</time>
      </trkpt>
      <trkpt lat="62.805808" lon="12.419348">
        <ele>963.136</ele>
        <time>2011-07-05T15:54:47Z</time>
      </trkpt>
      <trkpt lat="62.805875" lon="12.419501">
        <ele>964.665</ele>
        <time>2011-07-05T15:54:52Z</time>
      </trkpt>
      <trkpt lat="62.806003" lon="12.419703">
        <ele>964.772</ele>
        <time>2011-07-05T15:54:58Z</time>
      </trkpt>
      <trkpt lat="62.806121" lon="12.419909">
        <ele>965.668</ele>
        <time>2011-07-05T15:55:04Z</time>
      </trkpt>
      <trkpt lat="62.806256" lon="12.420153">
        <ele>966.264</ele>
        <time>2011-07-05T15:55:11Z</time>
      </trkpt>
      <trkpt lat="62.806357" lon="12.420324">
        <ele>966.44</ele>
        <time>2011-07-05T15:55:16Z</time>
      </trkpt>
      <trkpt lat="62.806481" lon="12.420446">
        <ele>966.204</ele>
        <time>2011-07-05T15:55:21Z</time>
      </trkpt>
      <trkpt lat="62.806551" lon="12.420653">
        <ele>966.404</ele>
        <time>2011-07-05T15:55:26Z</time>
      </trkpt>
      <trkpt lat="62.806633" lon="12.420885">
        <ele>965.957</ele>
        <time>2011-07-05T15:55:31Z</time>
      </trkpt>
      <trkpt lat="62.806679" lon="12.420998">
        <ele>965.885</ele>
        <time>2011-07-05T15:55:34Z</time>
      </trkpt>
      <trkpt lat="62.806685" lon="12.421168">
        <ele>966.168</ele>
        <time>2011-07-05T15:55:38Z</time>
      </trkpt>
      <trkpt lat="62.806705" lon="12.421296">
        <ele>966.436</ele>
        <time>2011-07-05T15:55:43Z</time>
      </trkpt>
      <trkpt lat="62.806761" lon="12.421335">
        <ele>966.451</ele>
        <time>2011-07-05T15:55:48Z</time>
      </trkpt>
      <trkpt lat="62.806824" lon="12.421361">
        <ele>966.522</ele>
        <time>2011-07-05T15:55:53Z</time>
      </trkpt>
      <trkpt lat="62.806878" lon="12.421356">
        <ele>966.465</ele>
        <time>2011-07-05T15:55:57Z</time>
      </trkpt>
      <trkpt lat="62.806964" lon="12.421497">
        <ele>966.987</ele>
        <time>2011-07-05T15:56:05Z</time>
      </trkpt>
      <trkpt lat="62.806973" lon="12.421512">
        <ele>967.033</ele>
        <time>2011-07-05T15:56:06Z</time>
      </trkpt>
      <trkpt lat="62.807041" lon="12.421643">
        <ele>966.957</ele>
        <time>2011-07-05T15:56:11Z</time>
      </trkpt>
      <trkpt lat="62.807068" lon="12.421722">
        <ele>967.114</ele>
        <time>2011-07-05T15:56:13Z</time>
      </trkpt>
      <trkpt lat="62.8072" lon="12.421916">
        <ele>968.438</ele>
        <time>2011-07-05T15:56:21Z</time>
      </trkpt>
      <trkpt lat="62.807272" lon="12.422102">
        <ele>969.776</ele>
        <time>2011-07-05T15:56:27Z</time>
      </trkpt>
      <trkpt lat="62.807359" lon="12.42223">
        <ele>970.412</ele>
        <time>2011-07-05T15:56:32Z</time>
      </trkpt>
      <trkpt lat="62.807446" lon="12.422435">
        <ele>971.051</ele>
        <time>2011-07-05T15:56:38Z</time>
      </trkpt>
      <trkpt lat="62.807525" lon="12.422577">
        <ele>972.004</ele>
        <time>2011-07-05T15:56:43Z</time>
      </trkpt>
      <trkpt lat="62.807607" lon="12.42285">
        <ele>973.121</ele>
        <time>2011-07-05T15:56:50Z</time>
      </trkpt>
      <trkpt lat="62.807672" lon="12.423019">
        <ele>973.522</ele>
        <time>2011-07-05T15:56:56Z</time>
      </trkpt>
      <trkpt lat="62.807745" lon="12.42315">
        <ele>974.285</ele>
        <time>2011-07-05T15:57:03Z</time>
      </trkpt>
      <trkpt lat="62.80782" lon="12.423319">
        <ele>975.391</ele>
        <time>2011-07-05T15:57:11Z</time>
      </trkpt>
      <trkpt lat="62.807884" lon="12.423414">
        <ele>976.982</ele>
        <time>2011-07-05T15:57:17Z</time>
      </trkpt>
      <trkpt lat="62.807973" lon="12.423576">
        <ele>978.824</ele>
        <time>2011-07-05T15:57:26Z</time>
      </trkpt>
      <trkpt lat="62.80806" lon="12.423706">
        <ele>980.298</ele>
        <time>2011-07-05T15:57:34Z</time>
      </trkpt>
      <trkpt lat="62.80815" lon="12.423868">
        <ele>981.318</ele>
        <time>2011-07-05T15:57:42Z</time>
      </trkpt>
      <trkpt lat="62.808238" lon="12.424065">
        <ele>981.644</ele>
        <time>2011-07-05T15:57:50Z</time>
      </trkpt>
      <trkpt lat="62.808325" lon="12.424278">
        <ele>982.662</ele>
        <time>2011-07-05T15:57:59Z</time>
      </trkpt>
      <trkpt lat="62.808372" lon="12.424417">
        <ele>983.36</ele>
        <time>2011-07-05T15:58:05Z</time>
      </trkpt>
      <trkpt lat="62.80844" lon="12.424482">
        <ele>984.124</ele>
        <time>2011-07-05T15:58:10Z</time>
      </trkpt>
      <trkpt lat="62.808489" lon="12.424566">
        <ele>985.188</ele>
        <time>2011-07-05T15:58:16Z</time>
      </trkpt>
      <trkpt lat="62.808564" lon="12.42472">
        <ele>987.607</ele>
        <time>2011-07-05T15:58:25Z</time>
      </trkpt>
      <trkpt lat="62.808653" lon="12.424874">
        <ele>988.903</ele>
        <time>2011-07-05T15:58:33Z</time>
      </trkpt>
      <trkpt lat="62.80874" lon="12.425071">
        <ele>990.318</ele>
        <time>2011-07-05T15:58:39Z</time>
      </trkpt>
      <trkpt lat="62.80875" lon="12.425118">
        <ele>990.398</ele>
        <time>2011-07-05T15:58:40Z</time>
      </trkpt>
      <trkpt lat="62.808855" lon="12.425304">
        <ele>991.705</ele>
        <time>2011-07-05T15:58:46Z</time>
      </trkpt>
      <trkpt lat="62.808956" lon="12.4255">
        <ele>993.773</ele>
        <time>2011-07-05T15:58:53Z</time>
      </trkpt>
      <trkpt lat="62.809057" lon="12.425743">
        <ele>995.317</ele>
        <time>2011-07-05T15:59:00Z</time>
      </trkpt>
      <trkpt lat="62.809118" lon="12.425872">
        <ele>995.786</ele>
        <time>2011-07-05T15:59:05Z</time>
      </trkpt>
      <trkpt lat="62.809211" lon="12.426039">
        <ele>997.338</ele>
        <time>2011-07-05T15:59:14Z</time>
      </trkpt>
      <trkpt lat="62.809294" lon="12.426209">
        <ele>998.125</ele>
        <time>2011-07-05T15:59:22Z</time>
      </trkpt>
      <trkpt lat="62.809388" lon="12.426408">
        <ele>998.322</ele>
        <time>2011-07-05T15:59:31Z</time>
      </trkpt>
      <trkpt lat="62.809472" lon="12.426651">
        <ele>999.194</ele>
        <time>2011-07-05T15:59:41Z</time>
      </trkpt>
      <trkpt lat="62.809561" lon="12.426836">
        <ele>1000.02</ele>
        <time>2011-07-05T15:59:47Z</time>
      </trkpt>
      <trkpt lat="62.809576" lon="12.426865">
        <ele>1000.19</ele>
        <time>2011-07-05T15:59:48Z</time>
      </trkpt>
      <trkpt lat="62.80968" lon="12.427027">
        <ele>1001.27</ele>
        <time>2011-07-05T15:59:54Z</time>
      </trkpt>
      <trkpt lat="62.809749" lon="12.427155">
        <ele>1002.3</ele>
        <time>2011-07-05T15:59:59Z</time>
      </trkpt>
      <trkpt lat="62.809852" lon="12.427439">
        <ele>1002.8</ele>
        <time>2011-07-05T16:00:06Z</time>
      </trkpt>
      <trkpt lat="62.809962" lon="12.427652">
        <ele>1003.63</ele>
        <time>2011-07-05T16:00:12Z</time>
      </trkpt>
      <trkpt lat="62.810117" lon="12.427987">
        <ele>1003.95</ele>
        <time>2011-07-05T16:00:20Z</time>
      </trkpt>
      <trkpt lat="62.810253" lon="12.428282">
        <ele>1003.57</ele>
        <time>2011-07-05T16:00:27Z</time>
      </trkpt>
      <trkpt lat="62.810376" lon="12.428501">
        <ele>1004.17</ele>
        <time>2011-07-05T16:00:33Z</time>
      </trkpt>
      <trkpt lat="62.810544" lon="12.428863">
        <ele>1004.29</ele>
        <time>2011-07-05T16:00:42Z</time>
      </trkpt>
      <trkpt lat="62.810667" lon="12.429111">
        <ele>1005.12</ele>
        <time>2011-07-05T16:00:49Z</time>
      </trkpt>
      <trkpt lat="62.810794" lon="12.429365">
        <ele>1005.43</ele>
        <time>2011-07-05T16:00:56Z</time>
      </trkpt>
      <trkpt lat="62.810948" lon="12.429657">
        <ele>1005.67</ele>
        <time>2011-07-05T16:01:04Z</time>
      </trkpt>
      <trkpt lat="62.811095" lon="12.429925">
        <ele>1005.11</ele>
        <time>2011-07-05T16:01:11Z</time>
      </trkpt>
      <trkpt lat="62.811192" lon="12.430128">
        <ele>1005.57</ele>
        <time>2011-07-05T16:01:16Z</time>
      </trkpt>
      <trkpt lat="62.811299" lon="12.430355">
        <ele>1005.3</ele>
        <time>2011-07-05T16:01:22Z</time>
      </trkpt>
      <trkpt lat="62.811399" lon="12.43058">
        <ele>1005.06</ele>
        <time>2011-07-05T16:01:28Z</time>
      </trkpt>
      <trkpt lat="62.811496" lon="12.430823">
        <ele>1005.41</ele>
        <time>2011-07-05T16:01:34Z</time>
      </trkpt>
      <trkpt lat="62.811582" lon="12.43107">
        <ele>1006.51</ele>
        <time>2011-07-05T16:01:40Z</time>
      </trkpt>
      <trkpt lat="62.811681" lon="12.431365">
        <ele>1006.57</ele>
        <time>2011-07-05T16:01:47Z</time>
      </trkpt>
      <trkpt lat="62.811761" lon="12.431615">
        <ele>1005.8</ele>
        <time>2011-07-05T16:01:52Z</time>
      </trkpt>
      <trkpt lat="62.81183" lon="12.431882">
        <ele>1005.09</ele>
        <time>2011-07-05T16:01:58Z</time>
      </trkpt>
      <trkpt lat="62.811861" lon="12.432037">
        <ele>1005.08</ele>
        <time>2011-07-05T16:02:03Z</time>
      </trkpt>
      <trkpt lat="62.811869" lon="12.432082">
        <ele>1005.05</ele>
        <time>2011-07-05T16:02:05Z</time>
      </trkpt>
      <trkpt lat="62.811946" lon="12.432265">
        <ele>1005.15</ele>
        <time>2011-07-05T16:02:14Z</time>
      </trkpt>
      <trkpt lat="62.81204" lon="12.432396">
        <ele>1005.62</ele>
        <time>2011-07-05T16:02:22Z</time>
      </trkpt>
      <trkpt lat="62.812189" lon="12.432523">
        <ele>1006.79</ele>
        <time>2011-07-05T16:02:33Z</time>
      </trkpt>
      <trkpt lat="62.812299" lon="12.4326">
        <ele>1007.57</ele>
        <time>2011-07-05T16:02:41Z</time>
      </trkpt>
      <trkpt lat="62.812434" lon="12.432699">
        <ele>1008.83</ele>
        <time>2011-07-05T16:02:51Z</time>
      </trkpt>
      <trkpt lat="62.81256" lon="12.432825">
        <ele>1010.71</ele>
        <time>2011-07-05T16:03:02Z</time>
      </trkpt>
      <trkpt lat="62.812655" lon="12.432935">
        <ele>1012.75</ele>
        <time>2011-07-05T16:03:11Z</time>
      </trkpt>
      <trkpt lat="62.812751" lon="12.433062">
        <ele>1014.43</ele>
        <time>2011-07-05T16:03:20Z</time>
      </trkpt>
      <trkpt lat="62.812856" lon="12.433192">
        <ele>1015.36</ele>
        <time>2011-07-05T16:03:29Z</time>
      </trkpt>
      <trkpt lat="62.812933" lon="12.433291">
        <ele>1015.16</ele>
        <time>2011-07-05T16:03:33Z</time>
      </trkpt>
      <trkpt lat="62.813036" lon="12.433458">
        <ele>1014.61</ele>
        <time>2011-07-05T16:03:38Z</time>
      </trkpt>
      <trkpt lat="62.813208" lon="12.433744">
        <ele>1013.62</ele>
        <time>2011-07-05T16:03:46Z</time>
      </trkpt>
      <trkpt lat="62.813363" lon="12.433942">
        <ele>1013.09</ele>
        <time>2011-07-05T16:03:53Z</time>
      </trkpt>
      <trkpt lat="62.813497" lon="12.434136">
        <ele>1012.23</ele>
        <time>2011-07-05T16:03:59Z</time>
      </trkpt>
      <trkpt lat="62.813682" lon="12.434359">
        <ele>1011.68</ele>
        <time>2011-07-05T16:04:07Z</time>
      </trkpt>
      <trkpt lat="62.813795" lon="12.434505">
        <ele>1010.51</ele>
        <time>2011-07-05T16:04:13Z</time>
      </trkpt>
      <trkpt lat="62.813923" lon="12.434742">
        <ele>1008.44</ele>
        <time>2011-07-05T16:04:20Z</time>
      </trkpt>
      <trkpt lat="62.814017" lon="12.43491">
        <ele>1007.74</ele>
        <time>2011-07-05T16:04:25Z</time>
      </trkpt>
      <trkpt lat="62.814194" lon="12.435062">
        <ele>1007.2</ele>
        <time>2011-07-05T16:04:32Z</time>
      </trkpt>
      <trkpt lat="62.814292" lon="12.435214">
        <ele>1008.27</ele>
        <time>2011-07-05T16:04:37Z</time>
      </trkpt>
      <trkpt lat="62.814404" lon="12.435401">
        <ele>1010.73</ele>
        <time>2011-07-05T16:04:44Z</time>
      </trkpt>
      <trkpt lat="62.814485" lon="12.435551">
        <ele>1012.72</ele>
        <time>2011-07-05T16:04:49Z</time>
      </trkpt>
      <trkpt lat="62.814588" lon="12.435671">
        <ele>1014.08</ele>
        <time>2011-07-05T16:04:55Z</time>
      </trkpt>
      <trkpt lat="62.814702" lon="12.435874">
        <ele>1012.63</ele>
        <time>2011-07-05T16:05:01Z</time>
      </trkpt>
      <trkpt lat="62.814798" lon="12.436077">
        <ele>1012.37</ele>
        <time>2011-07-05T16:05:07Z</time>
      </trkpt>
      <trkpt lat="62.814879" lon="12.436251">
        <ele>1012.72</ele>
        <time>2011-07-05T16:05:12Z</time>
      </trkpt>
      <trkpt lat="62.814936" lon="12.436311">
        <ele>1012.06</ele>
        <time>2011-07-05T16:05:15Z</time>
      </trkpt>
      <trkpt lat="62.815001" lon="12.436573">
        <ele>1009.8</ele>
        <time>2011-07-05T16:05:21Z</time>
      </trkpt>
      <trkpt lat="62.815064" lon="12.436652">
        <ele>1009.4</ele>
        <time>2011-07-05T16:05:26Z</time>
      </trkpt>
      <trkpt lat="62.815104" lon="12.436671">
        <ele>1009.35</ele>
        <time>2011-07-05T16:05:28Z</time>
      </trkpt>
      <trkpt lat="62.815248" lon="12.43689">
        <ele>1009.45</ele>
        <time>2011-07-05T16:05:35Z</time>
      </trkpt>
      <trkpt lat="62.81535" lon="12.437064">
        <ele>1009.78</ele>
        <time>2011-07-05T16:05:40Z</time>
      </trkpt>
      <trkpt lat="62.815452" lon="12.437232">
        <ele>1010.1</ele>
        <time>2011-07-05T16:05:45Z</time>
      </trkpt>
      <trkpt lat="62.815545" lon="12.437407">
        <ele>1010.41</ele>
        <time>2011-07-05T16:05:50Z</time>
      </trkpt>
      <trkpt lat="62.815664" lon="12.437613">
        <ele>1011.03</ele>
        <time>2011-07-05T16:05:56Z</time>
      </trkpt>
      <trkpt lat="62.815797" lon="12.437791">
        <ele>1011.49</ele>
        <time>2011-07-05T16:06:02Z</time>
      </trkpt>
      <trkpt lat="62.81588" lon="12.437993">
        <ele>1010.96</ele>
        <time>2011-07-05T16:06:07Z</time>
      </trkpt>
      <trkpt lat="62.81591" lon="12.438084">
        <ele>1010.88</ele>
        <time>2011-07-05T16:06:09Z</time>
      </trkpt>
      <trkpt lat="62.815995" lon="12.438244">
        <ele>1010.36</ele>
        <time>2011-07-05T16:06:14Z</time>
      </trkpt>
      <trkpt lat="62.816011" lon="12.438277">
        <ele>1010.25</ele>
        <time>2011-07-05T16:06:15Z</time>
      </trkpt>
      <trkpt lat="62.816104" lon="12.438459">
        <ele>1010.08</ele>
        <time>2011-07-05T16:06:21Z</time>
      </trkpt>
      <trkpt lat="62.816144" lon="12.438554">
        <ele>1010.04</ele>
        <time>2011-07-05T16:06:24Z</time>
      </trkpt>
      <trkpt lat="62.816193" lon="12.438638">
        <ele>1010.04</ele>
        <time>2011-07-05T16:06:27Z</time>
      </trkpt>
      <trkpt lat="62.816381" lon="12.43902">
        <ele>1011.08</ele>
        <time>2011-07-05T16:06:37Z</time>
      </trkpt>
      <trkpt lat="62.816502" lon="12.439274">
        <ele>1011.15</ele>
        <time>2011-07-05T16:06:44Z</time>
      </trkpt>
      <trkpt lat="62.816578" lon="12.439463">
        <ele>1011.98</ele>
        <time>2011-07-05T16:06:50Z</time>
      </trkpt>
      <trkpt lat="62.816666" lon="12.439639">
        <ele>1014.84</ele>
        <time>2011-07-05T16:07:00Z</time>
      </trkpt>
      <trkpt lat="62.816718" lon="12.439828">
        <ele>1017.18</ele>
        <time>2011-07-05T16:07:09Z</time>
      </trkpt>
      <trkpt lat="62.816775" lon="12.440025">
        <ele>1018.05</ele>
        <time>2011-07-05T16:07:17Z</time>
      </trkpt>
      <trkpt lat="62.81685" lon="12.440229">
        <ele>1018.33</ele>
        <time>2011-07-05T16:07:23Z</time>
      </trkpt>
      <trkpt lat="62.816917" lon="12.44049">
        <ele>1019.68</ele>
        <time>2011-07-05T16:07:29Z</time>
      </trkpt>
      <trkpt lat="62.816973" lon="12.440816">
        <ele>1020.11</ele>
        <time>2011-07-05T16:07:36Z</time>
      </trkpt>
      <trkpt lat="62.816998" lon="12.441027">
        <ele>1019.3</ele>
        <time>2011-07-05T16:07:40Z</time>
      </trkpt>
      <trkpt lat="62.816986" lon="12.441122">
        <ele>1018.54</ele>
        <time>2011-07-05T16:07:42Z</time>
      </trkpt>
      <trkpt lat="62.817014" lon="12.441307">
        <ele>1018.18</ele>
        <time>2011-07-05T16:07:46Z</time>
      </trkpt>
      <trkpt lat="62.817066" lon="12.441628">
        <ele>1018.02</ele>
        <time>2011-07-05T16:07:53Z</time>
      </trkpt>
      <trkpt lat="62.817147" lon="12.441795">
        <ele>1017.96</ele>
        <time>2011-07-05T16:07:58Z</time>
      </trkpt>
      <trkpt lat="62.817198" lon="12.442071">
        <ele>1018.6</ele>
        <time>2011-07-05T16:08:04Z</time>
      </trkpt>
      <trkpt lat="62.817226" lon="12.442261">
        <ele>1019.24</ele>
        <time>2011-07-05T16:08:10Z</time>
      </trkpt>
      <trkpt lat="62.817234" lon="12.442295">
        <ele>1019.29</ele>
        <time>2011-07-05T16:08:13Z</time>
      </trkpt>
      <trkpt lat="62.817247" lon="12.442392">
        <ele>1019.43</ele>
        <time>2011-07-05T16:08:18Z</time>
      </trkpt>
      <trkpt lat="62.817311" lon="12.442679">
        <ele>1018.99</ele>
        <time>2011-07-05T16:08:29Z</time>
      </trkpt>
      <trkpt lat="62.817362" lon="12.442887">
        <ele>1019.02</ele>
        <time>2011-07-05T16:08:37Z</time>
      </trkpt>
      <trkpt lat="62.817413" lon="12.443037">
        <ele>1019.05</ele>
        <time>2011-07-05T16:08:43Z</time>
      </trkpt>
      <trkpt lat="62.817427" lon="12.443092">
        <ele>1019.11</ele>
        <time>2011-07-05T16:08:45Z</time>
      </trkpt>
      <trkpt lat="62.817453" lon="12.443337">
        <ele>1019.95</ele>
        <time>2011-07-05T16:08:54Z</time>
      </trkpt>
      <trkpt lat="62.817483" lon="12.44353">
        <ele>1020.93</ele>
        <time>2011-07-05T16:09:01Z</time>
      </trkpt>
      <trkpt lat="62.817538" lon="12.443745">
        <ele>1021.63</ele>
        <time>2011-07-05T16:09:09Z</time>
      </trkpt>
      <trkpt lat="62.817569" lon="12.443812">
        <ele>1021.88</ele>
        <time>2011-07-05T16:09:12Z</time>
      </trkpt>
      <trkpt lat="62.817605" lon="12.44403">
        <ele>1022.77</ele>
        <time>2011-07-05T16:09:20Z</time>
      </trkpt>
      <trkpt lat="62.817628" lon="12.444209">
        <ele>1025.08</ele>
        <time>2011-07-05T16:09:28Z</time>
      </trkpt>
      <trkpt lat="62.817681" lon="12.44443">
        <ele>1026.59</ele>
        <time>2011-07-05T16:09:36Z</time>
      </trkpt>
      <trkpt lat="62.817708" lon="12.444603">
        <ele>1026.92</ele>
        <time>2011-07-05T16:09:42Z</time>
      </trkpt>
      <trkpt lat="62.817763" lon="12.444878">
        <ele>1026.85</ele>
        <time>2011-07-05T16:09:52Z</time>
      </trkpt>
      <trkpt lat="62.817844" lon="12.445099">
        <ele>1027.38</ele>
        <time>2011-07-05T16:10:01Z</time>
      </trkpt>
      <trkpt lat="62.817917" lon="12.445317">
        <ele>1028.08</ele>
        <time>2011-07-05T16:10:10Z</time>
      </trkpt>
      <trkpt lat="62.817975" lon="12.445443">
        <ele>1029.58</ele>
        <time>2011-07-05T16:10:17Z</time>
      </trkpt>
      <trkpt lat="62.818079" lon="12.445615">
        <ele>1032.7</ele>
        <time>2011-07-05T16:10:28Z</time>
      </trkpt>
      <trkpt lat="62.818186" lon="12.445808">
        <ele>1033.1</ele>
        <time>2011-07-05T16:10:39Z</time>
      </trkpt>
      <trkpt lat="62.81825" lon="12.445914">
        <ele>1032.9</ele>
        <time>2011-07-05T16:10:47Z</time>
      </trkpt>
      <trkpt lat="62.818285" lon="12.445941">
        <ele>1032.76</ele>
        <time>2011-07-05T16:10:52Z</time>
      </trkpt>
      <trkpt lat="62.818276" lon="12.445945">
        <ele>1032.66</ele>
        <time>2011-07-05T16:11:13Z</time>
      </trkpt>
      <trkpt lat="62.818314" lon="12.445961">
        <ele>1032.3</ele>
        <time>2011-07-05T16:11:41Z</time>
      </trkpt>
      <trkpt lat="62.818311" lon="12.44588">
        <ele>1031.07</ele>
        <time>2011-07-05T16:28:08Z</time>
      </trkpt>
      <trkpt lat="62.818292" lon="12.445879">
        <ele>1031.15</ele>
        <time>2011-07-05T16:28:18Z</time>
      </trkpt>
      <trkpt lat="62.818309" lon="12.445913">
        <ele>1030.68</ele>
        <time>2011-07-05T16:29:18Z</time>
      </trkpt>
      <trkpt lat="62.818322" lon="12.445867">
        <ele>1030.58</ele>
        <time>2011-07-05T16:29:23Z</time>
      </trkpt>
      <trkpt lat="62.818228" lon="12.44592">
        <ele>1030.21</ele>
        <time>2011-07-05T16:31:01Z</time>
      </trkpt>
      <trkpt lat="62.818279" lon="12.445812">
        <ele>1027.04</ele>
        <time>2011-07-05T16:41:26Z</time>
      </trkpt>
      <trkpt lat="62.818282" lon="12.445852">
        <ele>1027.15</ele>
        <time>2011-07-05T16:41:30Z</time>
      </trkpt>
      <trkpt lat="62.818282" lon="12.445748">
        <ele>1026.8</ele>
        <time>2011-07-05T16:42:15Z</time>
      </trkpt>
      <trkpt lat="62.818506" lon="12.446123">
        <ele>1020.97</ele>
        <time>2011-07-05T17:01:07Z</time>
      </trkpt>
      <trkpt lat="62.818535" lon="12.44619">
        <ele>1020.51</ele>
        <time>2011-07-05T17:01:10Z</time>
      </trkpt>
      <trkpt lat="62.818636" lon="12.446407">
        <ele>1017.51</ele>
        <time>2011-07-05T17:01:18Z</time>
      </trkpt>
      <trkpt lat="62.818743" lon="12.446524">
        <ele>1015.48</ele>
        <time>2011-07-05T17:01:25Z</time>
      </trkpt>
      <trkpt lat="62.818888" lon="12.446638">
        <ele>1014.11</ele>
        <time>2011-07-05T17:01:31Z</time>
      </trkpt>
      <trkpt lat="62.819006" lon="12.446692">
        <ele>1012.92</ele>
        <time>2011-07-05T17:01:36Z</time>
      </trkpt>
      <trkpt lat="62.819121" lon="12.446792">
        <ele>1012</ele>
        <time>2011-07-05T17:01:41Z</time>
      </trkpt>
      <trkpt lat="62.819217" lon="12.446935">
        <ele>1010.57</ele>
        <time>2011-07-05T17:01:46Z</time>
      </trkpt>
      <trkpt lat="62.819335" lon="12.446989">
        <ele>1009.15</ele>
        <time>2011-07-05T17:01:51Z</time>
      </trkpt>
      <trkpt lat="62.81948" lon="12.447115">
        <ele>1007.23</ele>
        <time>2011-07-05T17:01:57Z</time>
      </trkpt>
      <trkpt lat="62.819609" lon="12.447242">
        <ele>1006.78</ele>
        <time>2011-07-05T17:02:03Z</time>
      </trkpt>
      <trkpt lat="62.819752" lon="12.447391">
        <ele>1005.59</ele>
        <time>2011-07-05T17:02:09Z</time>
      </trkpt>
      <trkpt lat="62.819871" lon="12.447521">
        <ele>1003.98</ele>
        <time>2011-07-05T17:02:15Z</time>
      </trkpt>
      <trkpt lat="62.819976" lon="12.44768">
        <ele>1001.72</ele>
        <time>2011-07-05T17:02:21Z</time>
      </trkpt>
      <trkpt lat="62.820022" lon="12.447732">
        <ele>1000.8</ele>
        <time>2011-07-05T17:02:23Z</time>
      </trkpt>
      <trkpt lat="62.820128" lon="12.447875">
        <ele>998.31</ele>
        <time>2011-07-05T17:02:28Z</time>
      </trkpt>
      <trkpt lat="62.820226" lon="12.447987">
        <ele>996.097</ele>
        <time>2011-07-05T17:02:33Z</time>
      </trkpt>
      <trkpt lat="62.820248" lon="12.448013">
        <ele>995.808</ele>
        <time>2011-07-05T17:02:34Z</time>
      </trkpt>
      <trkpt lat="62.820382" lon="12.448174">
        <ele>992.999</ele>
        <time>2011-07-05T17:02:40Z</time>
      </trkpt>
      <trkpt lat="62.820459" lon="12.448215">
        <ele>992.068</ele>
        <time>2011-07-05T17:02:45Z</time>
      </trkpt>
      <trkpt lat="62.820575" lon="12.448301">
        <ele>990.163</ele>
        <time>2011-07-05T17:02:51Z</time>
      </trkpt>
      <trkpt lat="62.820623" lon="12.448379">
        <ele>988.86</ele>
        <time>2011-07-05T17:02:54Z</time>
      </trkpt>
      <trkpt lat="62.820759" lon="12.448513">
        <ele>987.866</ele>
        <time>2011-07-05T17:03:00Z</time>
      </trkpt>
      <trkpt lat="62.820812" lon="12.448549">
        <ele>987.715</ele>
        <time>2011-07-05T17:03:02Z</time>
      </trkpt>
      <trkpt lat="62.820982" lon="12.448691">
        <ele>988.959</ele>
        <time>2011-07-05T17:03:10Z</time>
      </trkpt>
      <trkpt lat="62.821121" lon="12.448752">
        <ele>988.705</ele>
        <time>2011-07-05T17:03:15Z</time>
      </trkpt>
      <trkpt lat="62.82132" lon="12.448878">
        <ele>988.811</ele>
        <time>2011-07-05T17:03:23Z</time>
      </trkpt>
      <trkpt lat="62.821469" lon="12.448901">
        <ele>989.579</ele>
        <time>2011-07-05T17:03:29Z</time>
      </trkpt>
      <trkpt lat="62.821615" lon="12.448973">
        <ele>990.476</ele>
        <time>2011-07-05T17:03:35Z</time>
      </trkpt>
      <trkpt lat="62.821754" lon="12.449075">
        <ele>989.857</ele>
        <time>2011-07-05T17:03:41Z</time>
      </trkpt>
      <trkpt lat="62.821894" lon="12.449218">
        <ele>989.454</ele>
        <time>2011-07-05T17:03:48Z</time>
      </trkpt>
      <trkpt lat="62.821984" lon="12.449321">
        <ele>989.567</ele>
        <time>2011-07-05T17:03:56Z</time>
      </trkpt>
      <trkpt lat="62.82209" lon="12.449382">
        <ele>989.492</ele>
        <time>2011-07-05T17:04:03Z</time>
      </trkpt>
      <trkpt lat="62.822138" lon="12.44946">
        <ele>991.274</ele>
        <time>2011-07-05T17:04:10Z</time>
      </trkpt>
      <trkpt lat="62.822206" lon="12.449519">
        <ele>992.251</ele>
        <time>2011-07-05T17:04:17Z</time>
      </trkpt>
      <trkpt lat="62.822312" lon="12.449557">
        <ele>993.051</ele>
        <time>2011-07-05T17:04:25Z</time>
      </trkpt>
      <trkpt lat="62.822354" lon="12.449626">
        <ele>993.963</ele>
        <time>2011-07-05T17:04:30Z</time>
      </trkpt>
      <trkpt lat="62.822452" lon="12.449735">
        <ele>996.099</ele>
        <time>2011-07-05T17:04:39Z</time>
      </trkpt>
      <trkpt lat="62.822519" lon="12.449814">
        <ele>996.97</ele>
        <time>2011-07-05T17:04:45Z</time>
      </trkpt>
      <trkpt lat="62.82262" lon="12.449894">
        <ele>998.428</ele>
        <time>2011-07-05T17:04:52Z</time>
      </trkpt>
      <trkpt lat="62.822721" lon="12.450037">
        <ele>999.923</ele>
        <time>2011-07-05T17:05:01Z</time>
      </trkpt>
      <trkpt lat="62.822811" lon="12.450144">
        <ele>1000.16</ele>
        <time>2011-07-05T17:05:08Z</time>
      </trkpt>
      <trkpt lat="62.822873" lon="12.450218">
        <ele>1000.22</ele>
        <time>2011-07-05T17:05:12Z</time>
      </trkpt>
      <trkpt lat="62.82296" lon="12.450285">
        <ele>1001</ele>
        <time>2011-07-05T17:05:18Z</time>
      </trkpt>
      <trkpt lat="62.823086" lon="12.4504">
        <ele>1002.98</ele>
        <time>2011-07-05T17:05:27Z</time>
      </trkpt>
      <trkpt lat="62.823184" lon="12.450514">
        <ele>1004.41</ele>
        <time>2011-07-05T17:05:34Z</time>
      </trkpt>
      <trkpt lat="62.823355" lon="12.4507">
        <ele>1005.66</ele>
        <time>2011-07-05T17:05:42Z</time>
      </trkpt>
      <trkpt lat="62.823497" lon="12.450762">
        <ele>1005.11</ele>
        <time>2011-07-05T17:05:48Z</time>
      </trkpt>
      <trkpt lat="62.823657" lon="12.450874">
        <ele>1005.04</ele>
        <time>2011-07-05T17:05:54Z</time>
      </trkpt>
      <trkpt lat="62.823777" lon="12.451045">
        <ele>1004.64</ele>
        <time>2011-07-05T17:06:00Z</time>
      </trkpt>
      <trkpt lat="62.823894" lon="12.451226">
        <ele>1003.9</ele>
        <time>2011-07-05T17:06:06Z</time>
      </trkpt>
      <trkpt lat="62.82404" lon="12.451436">
        <ele>1002.48</ele>
        <time>2011-07-05T17:06:13Z</time>
      </trkpt>
      <trkpt lat="62.824191" lon="12.451599">
        <ele>1002.31</ele>
        <time>2011-07-05T17:06:20Z</time>
      </trkpt>
      <trkpt lat="62.824343" lon="12.451788">
        <ele>1002.79</ele>
        <time>2011-07-05T17:06:27Z</time>
      </trkpt>
      <trkpt lat="62.824469" lon="12.451964">
        <ele>1002.84</ele>
        <time>2011-07-05T17:06:33Z</time>
      </trkpt>
      <trkpt lat="62.82459" lon="12.452103">
        <ele>1002.99</ele>
        <time>2011-07-05T17:06:39Z</time>
      </trkpt>
      <trkpt lat="62.824744" lon="12.452225">
        <ele>1001.68</ele>
        <time>2011-07-05T17:06:46Z</time>
      </trkpt>
      <trkpt lat="62.824891" lon="12.452241">
        <ele>999.707</ele>
        <time>2011-07-05T17:06:52Z</time>
      </trkpt>
      <trkpt lat="62.825025" lon="12.452276">
        <ele>999.166</ele>
        <time>2011-07-05T17:06:57Z</time>
      </trkpt>
      <trkpt lat="62.825165" lon="12.452519">
        <ele>999.487</ele>
        <time>2011-07-05T17:07:03Z</time>
      </trkpt>
      <trkpt lat="62.825343" lon="12.452819">
        <ele>999.868</ele>
        <time>2011-07-05T17:07:11Z</time>
      </trkpt>
      <trkpt lat="62.825387" lon="12.452983">
        <ele>1000.72</ele>
        <time>2011-07-05T17:07:16Z</time>
      </trkpt>
      <trkpt lat="62.825396" lon="12.452995">
        <ele>1000.87</ele>
        <time>2011-07-05T17:07:19Z</time>
      </trkpt>
      <trkpt lat="62.825462" lon="12.453079">
        <ele>1001.13</ele>
        <time>2011-07-05T17:07:40Z</time>
      </trkpt>
      <trkpt lat="62.825565" lon="12.453225">
        <ele>1001.29</ele>
        <time>2011-07-05T17:07:46Z</time>
      </trkpt>
      <trkpt lat="62.825707" lon="12.453393">
        <ele>1001.68</ele>
        <time>2011-07-05T17:07:53Z</time>
      </trkpt>
      <trkpt lat="62.82579" lon="12.453572">
        <ele>1002.15</ele>
        <time>2011-07-05T17:07:58Z</time>
      </trkpt>
      <trkpt lat="62.825877" lon="12.453755">
        <ele>1003.2</ele>
        <time>2011-07-05T17:08:05Z</time>
      </trkpt>
      <trkpt lat="62.825889" lon="12.453788">
        <ele>1003.26</ele>
        <time>2011-07-05T17:08:06Z</time>
      </trkpt>
      <trkpt lat="62.826043" lon="12.453919">
        <ele>1003.4</ele>
        <time>2011-07-05T17:08:13Z</time>
      </trkpt>
      <trkpt lat="62.826128" lon="12.454069">
        <ele>1002.82</ele>
        <time>2011-07-05T17:08:18Z</time>
      </trkpt>
      <trkpt lat="62.826306" lon="12.45417">
        <ele>1002.69</ele>
        <time>2011-07-05T17:08:25Z</time>
      </trkpt>
      <trkpt lat="62.826438" lon="12.454272">
        <ele>1004.87</ele>
        <time>2011-07-05T17:08:32Z</time>
      </trkpt>
      <trkpt lat="62.826457" lon="12.454289">
        <ele>1005.32</ele>
        <time>2011-07-05T17:08:33Z</time>
      </trkpt>
      <trkpt lat="62.826599" lon="12.454523">
        <ele>1006.95</ele>
        <time>2011-07-05T17:08:41Z</time>
      </trkpt>
      <trkpt lat="62.826718" lon="12.454664">
        <ele>1007.03</ele>
        <time>2011-07-05T17:08:47Z</time>
      </trkpt>
      <trkpt lat="62.826849" lon="12.454771">
        <ele>1007.17</ele>
        <time>2011-07-05T17:08:53Z</time>
      </trkpt>
      <trkpt lat="62.826984" lon="12.454926">
        <ele>1006.96</ele>
        <time>2011-07-05T17:09:00Z</time>
      </trkpt>
      <trkpt lat="62.827073" lon="12.455094">
        <ele>1006</ele>
        <time>2011-07-05T17:09:06Z</time>
      </trkpt>
      <trkpt lat="62.827178" lon="12.455214">
        <ele>1004.9</ele>
        <time>2011-07-05T17:09:12Z</time>
      </trkpt>
      <trkpt lat="62.827303" lon="12.455251">
        <ele>1004.09</ele>
        <time>2011-07-05T17:09:17Z</time>
      </trkpt>
      <trkpt lat="62.827461" lon="12.455358">
        <ele>1004.02</ele>
        <time>2011-07-05T17:09:23Z</time>
      </trkpt>
      <trkpt lat="62.827579" lon="12.455508">
        <ele>1004.12</ele>
        <time>2011-07-05T17:09:28Z</time>
      </trkpt>
      <trkpt lat="62.827642" lon="12.455612">
        <ele>1004.22</ele>
        <time>2011-07-05T17:09:31Z</time>
      </trkpt>
      <trkpt lat="62.827795" lon="12.455664">
        <ele>1003.3</ele>
        <time>2011-07-05T17:09:38Z</time>
      </trkpt>
      <trkpt lat="62.827951" lon="12.455711">
        <ele>1003.04</ele>
        <time>2011-07-05T17:09:44Z</time>
      </trkpt>
      <trkpt lat="62.827995" lon="12.455731">
        <ele>1003.21</ele>
        <time>2011-07-05T17:09:46Z</time>
      </trkpt>
      <trkpt lat="62.828028" lon="12.455806">
        <ele>1004.32</ele>
        <time>2011-07-05T17:09:49Z</time>
      </trkpt>
      <trkpt lat="62.828106" lon="12.455964">
        <ele>1005.7</ele>
        <time>2011-07-05T17:09:56Z</time>
      </trkpt>
      <trkpt lat="62.828116" lon="12.455981">
        <ele>1005.92</ele>
        <time>2011-07-05T17:09:57Z</time>
      </trkpt>
      <trkpt lat="62.828251" lon="12.456063">
        <ele>1006.09</ele>
        <time>2011-07-05T17:10:06Z</time>
      </trkpt>
      <trkpt lat="62.828329" lon="12.456176">
        <ele>1006.37</ele>
        <time>2011-07-05T17:10:13Z</time>
      </trkpt>
      <trkpt lat="62.828378" lon="12.456233">
        <ele>1006.93</ele>
        <time>2011-07-05T17:10:18Z</time>
      </trkpt>
      <trkpt lat="62.828498" lon="12.456314">
        <ele>1008.22</ele>
        <time>2011-07-05T17:10:27Z</time>
      </trkpt>
      <trkpt lat="62.828597" lon="12.45641">
        <ele>1009.7</ele>
        <time>2011-07-05T17:10:32Z</time>
      </trkpt>
      <trkpt lat="62.828677" lon="12.456479">
        <ele>1009.9</ele>
        <time>2011-07-05T17:10:36Z</time>
      </trkpt>
      <trkpt lat="62.828826" lon="12.456628">
        <ele>1007.84</ele>
        <time>2011-07-05T17:10:42Z</time>
      </trkpt>
      <trkpt lat="62.828939" lon="12.456776">
        <ele>1007.1</ele>
        <time>2011-07-05T17:10:47Z</time>
      </trkpt>
      <trkpt lat="62.829046" lon="12.457006">
        <ele>1006.76</ele>
        <time>2011-07-05T17:10:53Z</time>
      </trkpt>
      <trkpt lat="62.829109" lon="12.457179">
        <ele>1006.07</ele>
        <time>2011-07-05T17:10:57Z</time>
      </trkpt>
      <trkpt lat="62.829215" lon="12.457426">
        <ele>1004.66</ele>
        <time>2011-07-05T17:11:03Z</time>
      </trkpt>
      <trkpt lat="62.829345" lon="12.457469">
        <ele>1004.25</ele>
        <time>2011-07-05T17:11:08Z</time>
      </trkpt>
      <trkpt lat="62.829446" lon="12.457425">
        <ele>1003.84</ele>
        <time>2011-07-05T17:11:12Z</time>
      </trkpt>
      <trkpt lat="62.82961" lon="12.457538">
        <ele>1003.72</ele>
        <time>2011-07-05T17:11:19Z</time>
      </trkpt>
      <trkpt lat="62.829747" lon="12.457669">
        <ele>1004.2</ele>
        <time>2011-07-05T17:11:25Z</time>
      </trkpt>
      <trkpt lat="62.82987" lon="12.457793">
        <ele>1003.77</ele>
        <time>2011-07-05T17:11:31Z</time>
      </trkpt>
      <trkpt lat="62.829979" lon="12.457856">
        <ele>1002.18</ele>
        <time>2011-07-05T17:11:37Z</time>
      </trkpt>
      <trkpt lat="62.830066" lon="12.457945">
        <ele>1002.48</ele>
        <time>2011-07-05T17:11:43Z</time>
      </trkpt>
      <trkpt lat="62.830159" lon="12.458071">
        <ele>1002.9</ele>
        <time>2011-07-05T17:11:49Z</time>
      </trkpt>
      <trkpt lat="62.830173" lon="12.458102">
        <ele>1003.23</ele>
        <time>2011-07-05T17:11:50Z</time>
      </trkpt>
      <trkpt lat="62.830318" lon="12.458218">
        <ele>1004.98</ele>
        <time>2011-07-05T17:11:57Z</time>
      </trkpt>
      <trkpt lat="62.830481" lon="12.458298">
        <ele>1004.06</ele>
        <time>2011-07-05T17:12:04Z</time>
      </trkpt>
      <trkpt lat="62.830637" lon="12.458244">
        <ele>1003.7</ele>
        <time>2011-07-05T17:12:10Z</time>
      </trkpt>
      <trkpt lat="62.830769" lon="12.458266">
        <ele>1004.51</ele>
        <time>2011-07-05T17:12:16Z</time>
      </trkpt>
      <trkpt lat="62.830834" lon="12.45827">
        <ele>1004.53</ele>
        <time>2011-07-05T17:12:19Z</time>
      </trkpt>
      <trkpt lat="62.83089" lon="12.45849">
        <ele>1004.8</ele>
        <time>2011-07-05T17:12:25Z</time>
      </trkpt>
      <trkpt lat="62.830934" lon="12.458677">
        <ele>1005.34</ele>
        <time>2011-07-05T17:12:30Z</time>
      </trkpt>
      <trkpt lat="62.830989" lon="12.458821">
        <ele>1005.91</ele>
        <time>2011-07-05T17:12:35Z</time>
      </trkpt>
      <trkpt lat="62.831075" lon="12.458913">
        <ele>1006.23</ele>
        <time>2011-07-05T17:12:40Z</time>
      </trkpt>
      <trkpt lat="62.831171" lon="12.459044">
        <ele>1006.56</ele>
        <time>2011-07-05T17:12:45Z</time>
      </trkpt>
      <trkpt lat="62.831277" lon="12.459194">
        <ele>1006.57</ele>
        <time>2011-07-05T17:12:51Z</time>
      </trkpt>
      <trkpt lat="62.831361" lon="12.459267">
        <ele>1006.53</ele>
        <time>2011-07-05T17:12:59Z</time>
      </trkpt>
      <trkpt lat="62.831454" lon="12.459352">
        <ele>1007.45</ele>
        <time>2011-07-05T17:13:05Z</time>
      </trkpt>
      <trkpt lat="62.831571" lon="12.459476">
        <ele>1007.31</ele>
        <time>2011-07-05T17:13:11Z</time>
      </trkpt>
      <trkpt lat="62.831762" lon="12.45971">
        <ele>1006.65</ele>
        <time>2011-07-05T17:13:20Z</time>
      </trkpt>
      <trkpt lat="62.83188" lon="12.459854">
        <ele>1006.4</ele>
        <time>2011-07-05T17:13:26Z</time>
      </trkpt>
      <trkpt lat="62.832021" lon="12.459977">
        <ele>1007.31</ele>
        <time>2011-07-05T17:13:33Z</time>
      </trkpt>
      <trkpt lat="62.832142" lon="12.46009">
        <ele>1007.87</ele>
        <time>2011-07-05T17:13:39Z</time>
      </trkpt>
      <trkpt lat="62.832256" lon="12.460212">
        <ele>1008.5</ele>
        <time>2011-07-05T17:13:45Z</time>
      </trkpt>
      <trkpt lat="62.832384" lon="12.460361">
        <ele>1007.9</ele>
        <time>2011-07-05T17:13:52Z</time>
      </trkpt>
      <trkpt lat="62.832494" lon="12.460436">
        <ele>1006.83</ele>
        <time>2011-07-05T17:13:57Z</time>
      </trkpt>
      <trkpt lat="62.832627" lon="12.460581">
        <ele>1005.66</ele>
        <time>2011-07-05T17:14:03Z</time>
      </trkpt>
      <trkpt lat="62.832746" lon="12.460707">
        <ele>1004.7</ele>
        <time>2011-07-05T17:14:08Z</time>
      </trkpt>
      <trkpt lat="62.832849" lon="12.46081">
        <ele>1004.33</ele>
        <time>2011-07-05T17:14:14Z</time>
      </trkpt>
      <trkpt lat="62.832961" lon="12.460855">
        <ele>1003.58</ele>
        <time>2011-07-05T17:14:19Z</time>
      </trkpt>
      <trkpt lat="62.833097" lon="12.460913">
        <ele>1002.94</ele>
        <time>2011-07-05T17:14:25Z</time>
      </trkpt>
      <trkpt lat="62.833267" lon="12.46081">
        <ele>1002.09</ele>
        <time>2011-07-05T17:14:32Z</time>
      </trkpt>
      <trkpt lat="62.833416" lon="12.460705">
        <ele>1001.94</ele>
        <time>2011-07-05T17:14:38Z</time>
      </trkpt>
      <trkpt lat="62.83359" lon="12.460657">
        <ele>1001.4</ele>
        <time>2011-07-05T17:14:45Z</time>
      </trkpt>
      <trkpt lat="62.833724" lon="12.460562">
        <ele>1000.61</ele>
        <time>2011-07-05T17:14:52Z</time>
      </trkpt>
      <trkpt lat="62.833807" lon="12.460476">
        <ele>1000.83</ele>
        <time>2011-07-05T17:15:00Z</time>
      </trkpt>
      <trkpt lat="62.833879" lon="12.460463">
        <ele>1001.09</ele>
        <time>2011-07-05T17:15:06Z</time>
      </trkpt>
      <trkpt lat="62.833941" lon="12.460497">
        <ele>1001.14</ele>
        <time>2011-07-05T17:15:13Z</time>
      </trkpt>
      <trkpt lat="62.833983" lon="12.460576">
        <ele>1001</ele>
        <time>2011-07-05T17:15:20Z</time>
      </trkpt>
      <trkpt lat="62.834022" lon="12.460588">
        <ele>1001.04</ele>
        <time>2011-07-05T17:15:26Z</time>
      </trkpt>
      <trkpt lat="62.834057" lon="12.460585">
        <ele>1001.29</ele>
        <time>2011-07-05T17:15:31Z</time>
      </trkpt>
      <trkpt lat="62.834058" lon="12.460512">
        <ele>1001.42</ele>
        <time>2011-07-05T17:15:36Z</time>
      </trkpt>
      <trkpt lat="62.834061" lon="12.460502">
        <ele>1001.67</ele>
        <time>2011-07-05T17:15:38Z</time>
      </trkpt>
      <trkpt lat="62.834064" lon="12.460436">
        <ele>1001.74</ele>
        <time>2011-07-05T17:15:52Z</time>
      </trkpt>
      <trkpt lat="62.834069" lon="12.460543">
        <ele>1001.63</ele>
        <time>2011-07-05T17:16:06Z</time>
      </trkpt>
      <trkpt lat="62.834056" lon="12.460432">
        <ele>1001.92</ele>
        <time>2011-07-05T17:16:12Z</time>
      </trkpt>
      <trkpt lat="62.834035" lon="12.460506">
        <ele>1001.94</ele>
        <time>2011-07-05T17:16:29Z</time>
      </trkpt>
      <trkpt lat="62.83404" lon="12.460528">
        <ele>1001.89</ele>
        <time>2011-07-05T17:16:36Z</time>
      </trkpt>
      <trkpt lat="62.83405" lon="12.460557">
        <ele>1001.57</ele>
        <time>2011-07-05T17:16:39Z</time>
      </trkpt>
      <trkpt lat="62.834086" lon="12.46064">
        <ele>1001.57</ele>
        <time>2011-07-05T17:16:45Z</time>
      </trkpt>
      <trkpt lat="62.834136" lon="12.460863">
        <ele>1001.24</ele>
        <time>2011-07-05T17:16:53Z</time>
      </trkpt>
      <trkpt lat="62.834165" lon="12.461239">
        <ele>1001.09</ele>
        <time>2011-07-05T17:17:00Z</time>
      </trkpt>
      <trkpt lat="62.834158" lon="12.461506">
        <ele>999.116</ele>
        <time>2011-07-05T17:17:05Z</time>
      </trkpt>
      <trkpt lat="62.83423" lon="12.461646">
        <ele>997.163</ele>
        <time>2011-07-05T17:17:10Z</time>
      </trkpt>
      <trkpt lat="62.834251" lon="12.461675">
        <ele>996.792</ele>
        <time>2011-07-05T17:17:11Z</time>
      </trkpt>
      <trkpt lat="62.834385" lon="12.46183">
        <ele>995.078</ele>
        <time>2011-07-05T17:17:16Z</time>
      </trkpt>
      <trkpt lat="62.834507" lon="12.461889">
        <ele>995.731</ele>
        <time>2011-07-05T17:17:21Z</time>
      </trkpt>
      <trkpt lat="62.83464" lon="12.462007">
        <ele>995.311</ele>
        <time>2011-07-05T17:17:26Z</time>
      </trkpt>
      <trkpt lat="62.834711" lon="12.462211">
        <ele>994.569</ele>
        <time>2011-07-05T17:17:31Z</time>
      </trkpt>
      <trkpt lat="62.83477" lon="12.462379">
        <ele>993.12</ele>
        <time>2011-07-05T17:17:36Z</time>
      </trkpt>
      <trkpt lat="62.834806" lon="12.462568">
        <ele>991.545</ele>
        <time>2011-07-05T17:17:40Z</time>
      </trkpt>
      <trkpt lat="62.834984" lon="12.462938">
        <ele>990.09</ele>
        <time>2011-07-05T17:17:49Z</time>
      </trkpt>
      <trkpt lat="62.835068" lon="12.463247">
        <ele>989.343</ele>
        <time>2011-07-05T17:17:55Z</time>
      </trkpt>
      <trkpt lat="62.835151" lon="12.463418">
        <ele>987.5</ele>
        <time>2011-07-05T17:18:00Z</time>
      </trkpt>
      <trkpt lat="62.835181" lon="12.463484">
        <ele>986.707</ele>
        <time>2011-07-05T17:18:02Z</time>
      </trkpt>
      <trkpt lat="62.835209" lon="12.463559">
        <ele>986.675</ele>
        <time>2011-07-05T17:18:04Z</time>
      </trkpt>
      <trkpt lat="62.835326" lon="12.463738">
        <ele>986.699</ele>
        <time>2011-07-05T17:18:10Z</time>
      </trkpt>
      <trkpt lat="62.835504" lon="12.463851">
        <ele>986.522</ele>
        <time>2011-07-05T17:18:17Z</time>
      </trkpt>
      <trkpt lat="62.83555" lon="12.463903">
        <ele>986.565</ele>
        <time>2011-07-05T17:18:19Z</time>
      </trkpt>
      <trkpt lat="62.835557" lon="12.464097">
        <ele>987.182</ele>
        <time>2011-07-05T17:18:23Z</time>
      </trkpt>
      <trkpt lat="62.835535" lon="12.464307">
        <ele>987.539</ele>
        <time>2011-07-05T17:18:30Z</time>
      </trkpt>
      <trkpt lat="62.835534" lon="12.464311">
        <ele>987.334</ele>
        <time>2011-07-05T17:18:31Z</time>
      </trkpt>
      <trkpt lat="62.835401" lon="12.463994">
        <ele>986.41</ele>
        <time>2011-07-05T17:18:43Z</time>
      </trkpt>
      <trkpt lat="62.835405" lon="12.463946">
        <ele>986.615</ele>
        <time>2011-07-05T17:18:44Z</time>
      </trkpt>
      <trkpt lat="62.835521" lon="12.463859">
        <ele>986.715</ele>
        <time>2011-07-05T17:18:49Z</time>
      </trkpt>
      <trkpt lat="62.835544" lon="12.463882">
        <ele>986.74</ele>
        <time>2011-07-05T17:18:50Z</time>
      </trkpt>
      <trkpt lat="62.835693" lon="12.464009">
        <ele>986.642</ele>
        <time>2011-07-05T17:18:56Z</time>
      </trkpt>
      <trkpt lat="62.835698" lon="12.464155">
        <ele>985.863</ele>
        <time>2011-07-05T17:19:00Z</time>
      </trkpt>
      <trkpt lat="62.83561" lon="12.464228">
        <ele>985.733</ele>
        <time>2011-07-05T17:19:04Z</time>
      </trkpt>
      <trkpt lat="62.835539" lon="12.464271">
        <ele>987.013</ele>
        <time>2011-07-05T17:19:08Z</time>
      </trkpt>
      <trkpt lat="62.835666" lon="12.464211">
        <ele>986.869</ele>
        <time>2011-07-05T17:19:16Z</time>
      </trkpt>
      <trkpt lat="62.835671" lon="12.464218">
        <ele>986.648</ele>
        <time>2011-07-05T17:19:18Z</time>
      </trkpt>
      <trkpt lat="62.835738" lon="12.464221">
        <ele>985.85</ele>
        <time>2011-07-05T17:19:30Z</time>
      </trkpt>
      <trkpt lat="62.83587" lon="12.464158">
        <ele>984.694</ele>
        <time>2011-07-05T17:19:35Z</time>
      </trkpt>
      <trkpt lat="62.836045" lon="12.464287">
        <ele>983.888</ele>
        <time>2011-07-05T17:19:41Z</time>
      </trkpt>
      <trkpt lat="62.836172" lon="12.464428">
        <ele>983.273</ele>
        <time>2011-07-05T17:19:47Z</time>
      </trkpt>
      <trkpt lat="62.8363" lon="12.464487">
        <ele>983.633</ele>
        <time>2011-07-05T17:19:52Z</time>
      </trkpt>
      <trkpt lat="62.836451" lon="12.464571">
        <ele>984.453</ele>
        <time>2011-07-05T17:19:58Z</time>
      </trkpt>
      <trkpt lat="62.836575" lon="12.464596">
        <ele>985.329</ele>
        <time>2011-07-05T17:20:03Z</time>
      </trkpt>
      <trkpt lat="62.836721" lon="12.464493">
        <ele>986.19</ele>
        <time>2011-07-05T17:20:09Z</time>
      </trkpt>
      <trkpt lat="62.836869" lon="12.464407">
        <ele>986.967</ele>
        <time>2011-07-05T17:20:15Z</time>
      </trkpt>
      <trkpt lat="62.836955" lon="12.464359">
        <ele>987.487</ele>
        <time>2011-07-05T17:20:21Z</time>
      </trkpt>
      <trkpt lat="62.837061" lon="12.464274">
        <ele>986.931</ele>
        <time>2011-07-05T17:20:29Z</time>
      </trkpt>
      <trkpt lat="62.837161" lon="12.464104">
        <ele>986.467</ele>
        <time>2011-07-05T17:20:37Z</time>
      </trkpt>
      <trkpt lat="62.837225" lon="12.46404">
        <ele>985.781</ele>
        <time>2011-07-05T17:20:42Z</time>
      </trkpt>
      <trkpt lat="62.837386" lon="12.464026">
        <ele>984.647</ele>
        <time>2011-07-05T17:20:48Z</time>
      </trkpt>
      <trkpt lat="62.837485" lon="12.464099">
        <ele>985.02</ele>
        <time>2011-07-05T17:20:52Z</time>
      </trkpt>
      <trkpt lat="62.837682" lon="12.464271">
        <ele>985.931</ele>
        <time>2011-07-05T17:21:00Z</time>
      </trkpt>
      <trkpt lat="62.837826" lon="12.464443">
        <ele>984.599</ele>
        <time>2011-07-05T17:21:06Z</time>
      </trkpt>
      <trkpt lat="62.837951" lon="12.464539">
        <ele>983.798</ele>
        <time>2011-07-05T17:21:11Z</time>
      </trkpt>
      <trkpt lat="62.838096" lon="12.464667">
        <ele>982.706</ele>
        <time>2011-07-05T17:21:16Z</time>
      </trkpt>
      <trkpt lat="62.838236" lon="12.464949">
        <ele>981.345</ele>
        <time>2011-07-05T17:21:22Z</time>
      </trkpt>
      <trkpt lat="62.838356" lon="12.465187">
        <ele>980.54</ele>
        <time>2011-07-05T17:21:28Z</time>
      </trkpt>
      <trkpt lat="62.838543" lon="12.465215">
        <ele>980.09</ele>
        <time>2011-07-05T17:21:34Z</time>
      </trkpt>
      <trkpt lat="62.838673" lon="12.465237">
        <ele>981.303</ele>
        <time>2011-07-05T17:21:39Z</time>
      </trkpt>
      <trkpt lat="62.838793" lon="12.465279">
        <ele>982.722</ele>
        <time>2011-07-05T17:21:44Z</time>
      </trkpt>
      <trkpt lat="62.838984" lon="12.465376">
        <ele>981.506</ele>
        <time>2011-07-05T17:21:51Z</time>
      </trkpt>
      <trkpt lat="62.839099" lon="12.465388">
        <ele>979.46</ele>
        <time>2011-07-05T17:21:55Z</time>
      </trkpt>
      <trkpt lat="62.839129" lon="12.465415">
        <ele>979.216</ele>
        <time>2011-07-05T17:21:56Z</time>
      </trkpt>
      <trkpt lat="62.839335" lon="12.465603">
        <ele>977.936</ele>
        <time>2011-07-05T17:22:03Z</time>
      </trkpt>
      <trkpt lat="62.839361" lon="12.465629">
        <ele>978.018</ele>
        <time>2011-07-05T17:22:04Z</time>
      </trkpt>
      <trkpt lat="62.839541" lon="12.465731">
        <ele>979.666</ele>
        <time>2011-07-05T17:22:12Z</time>
      </trkpt>
      <trkpt lat="62.839691" lon="12.465889">
        <ele>978.199</ele>
        <time>2011-07-05T17:22:18Z</time>
      </trkpt>
      <trkpt lat="62.839803" lon="12.466096">
        <ele>977.028</ele>
        <time>2011-07-05T17:22:24Z</time>
      </trkpt>
      <trkpt lat="62.839816" lon="12.466127">
        <ele>976.697</ele>
        <time>2011-07-05T17:22:25Z</time>
      </trkpt>
      <trkpt lat="62.839879" lon="12.466198">
        <ele>975.237</ele>
        <time>2011-07-05T17:22:29Z</time>
      </trkpt>
      <trkpt lat="62.839934" lon="12.466311">
        <ele>973.438</ele>
        <time>2011-07-05T17:22:35Z</time>
      </trkpt>
      <trkpt lat="62.840009" lon="12.466371">
        <ele>971.104</ele>
        <time>2011-07-05T17:22:40Z</time>
      </trkpt>
      <trkpt lat="62.840022" lon="12.466385">
        <ele>970.728</ele>
        <time>2011-07-05T17:22:41Z</time>
      </trkpt>
      <trkpt lat="62.840096" lon="12.466397">
        <ele>968.784</ele>
        <time>2011-07-05T17:22:46Z</time>
      </trkpt>
      <trkpt lat="62.840171" lon="12.466481">
        <ele>968.558</ele>
        <time>2011-07-05T17:22:50Z</time>
      </trkpt>
      <trkpt lat="62.840309" lon="12.466664">
        <ele>968.241</ele>
        <time>2011-07-05T17:22:56Z</time>
      </trkpt>
      <trkpt lat="62.840397" lon="12.466818">
        <ele>967.963</ele>
        <time>2011-07-05T17:23:00Z</time>
      </trkpt>
      <trkpt lat="62.840537" lon="12.467027">
        <ele>967.376</ele>
        <time>2011-07-05T17:23:06Z</time>
      </trkpt>
      <trkpt lat="62.84063" lon="12.467136">
        <ele>967.419</ele>
        <time>2011-07-05T17:23:10Z</time>
      </trkpt>
      <trkpt lat="62.840653" lon="12.467155">
        <ele>967.377</ele>
        <time>2011-07-05T17:23:11Z</time>
      </trkpt>
      <trkpt lat="62.840745" lon="12.467428">
        <ele>967.906</ele>
        <time>2011-07-05T17:23:17Z</time>
      </trkpt>
      <trkpt lat="62.840877" lon="12.467646">
        <ele>967.925</ele>
        <time>2011-07-05T17:23:23Z</time>
      </trkpt>
      <trkpt lat="62.840941" lon="12.467816">
        <ele>968.002</ele>
        <time>2011-07-05T17:23:27Z</time>
      </trkpt>
      <trkpt lat="62.841082" lon="12.467931">
        <ele>967.662</ele>
        <time>2011-07-05T17:23:33Z</time>
      </trkpt>
      <trkpt lat="62.841181" lon="12.468011">
        <ele>967.498</ele>
        <time>2011-07-05T17:23:37Z</time>
      </trkpt>
      <trkpt lat="62.841252" lon="12.467953">
        <ele>967.093</ele>
        <time>2011-07-05T17:23:40Z</time>
      </trkpt>
      <trkpt lat="62.841313" lon="12.468064">
        <ele>966.876</ele>
        <time>2011-07-05T17:23:45Z</time>
      </trkpt>
      <trkpt lat="62.841323" lon="12.468099">
        <ele>966.942</ele>
        <time>2011-07-05T17:23:46Z</time>
      </trkpt>
      <trkpt lat="62.84139" lon="12.468354">
        <ele>966.503</ele>
        <time>2011-07-05T17:23:52Z</time>
      </trkpt>
      <trkpt lat="62.841521" lon="12.468553">
        <ele>966.021</ele>
        <time>2011-07-05T17:23:58Z</time>
      </trkpt>
      <trkpt lat="62.841647" lon="12.468742">
        <ele>965.244</ele>
        <time>2011-07-05T17:24:04Z</time>
      </trkpt>
      <trkpt lat="62.84176" lon="12.468943">
        <ele>963.595</ele>
        <time>2011-07-05T17:24:09Z</time>
      </trkpt>
      <trkpt lat="62.841819" lon="12.469008">
        <ele>963.51</ele>
        <time>2011-07-05T17:24:12Z</time>
      </trkpt>
      <trkpt lat="62.842002" lon="12.469038">
        <ele>962.692</ele>
        <time>2011-07-05T17:24:18Z</time>
      </trkpt>
      <trkpt lat="62.842135" lon="12.469129">
        <ele>962.251</ele>
        <time>2011-07-05T17:24:23Z</time>
      </trkpt>
      <trkpt lat="62.842264" lon="12.469344">
        <ele>962.674</ele>
        <time>2011-07-05T17:24:29Z</time>
      </trkpt>
      <trkpt lat="62.842412" lon="12.469408">
        <ele>963.207</ele>
        <time>2011-07-05T17:24:35Z</time>
      </trkpt>
      <trkpt lat="62.84259" lon="12.469621">
        <ele>962.461</ele>
        <time>2011-07-05T17:24:42Z</time>
      </trkpt>
      <trkpt lat="62.84273" lon="12.469792">
        <ele>962.135</ele>
        <time>2011-07-05T17:24:48Z</time>
      </trkpt>
      <trkpt lat="62.842877" lon="12.469968">
        <ele>960.92</ele>
        <time>2011-07-05T17:24:54Z</time>
      </trkpt>
      <trkpt lat="62.842986" lon="12.470135">
        <ele>960.344</ele>
        <time>2011-07-05T17:24:59Z</time>
      </trkpt>
      <trkpt lat="62.843125" lon="12.470274">
        <ele>960.644</ele>
        <time>2011-07-05T17:25:05Z</time>
      </trkpt>
      <trkpt lat="62.843313" lon="12.470392">
        <ele>960.763</ele>
        <time>2011-07-05T17:25:12Z</time>
      </trkpt>
      <trkpt lat="62.843429" lon="12.470534">
        <ele>961.208</ele>
        <time>2011-07-05T17:25:17Z</time>
      </trkpt>
      <trkpt lat="62.84354" lon="12.470736">
        <ele>961.496</ele>
        <time>2011-07-05T17:25:22Z</time>
      </trkpt>
      <trkpt lat="62.843603" lon="12.470915">
        <ele>961.992</ele>
        <time>2011-07-05T17:25:27Z</time>
      </trkpt>
      <trkpt lat="62.84369" lon="12.471111">
        <ele>961.284</ele>
        <time>2011-07-05T17:25:32Z</time>
      </trkpt>
      <trkpt lat="62.843789" lon="12.471372">
        <ele>960.096</ele>
        <time>2011-07-05T17:25:38Z</time>
      </trkpt>
      <trkpt lat="62.843868" lon="12.471523">
        <ele>959.513</ele>
        <time>2011-07-05T17:25:43Z</time>
      </trkpt>
      <trkpt lat="62.843932" lon="12.471616">
        <ele>959.041</ele>
        <time>2011-07-05T17:25:50Z</time>
      </trkpt>
      <trkpt lat="62.844024" lon="12.471718">
        <ele>959.48</ele>
        <time>2011-07-05T17:25:58Z</time>
      </trkpt>
      <trkpt lat="62.844073" lon="12.471748">
        <ele>959.881</ele>
        <time>2011-07-05T17:26:03Z</time>
      </trkpt>
      <trkpt lat="62.844186" lon="12.471868">
        <ele>959.913</ele>
        <time>2011-07-05T17:26:11Z</time>
      </trkpt>
      <trkpt lat="62.844207" lon="12.471893">
        <ele>959.806</ele>
        <time>2011-07-05T17:26:12Z</time>
      </trkpt>
      <trkpt lat="62.844382" lon="12.471932">
        <ele>959.216</ele>
        <time>2011-07-05T17:26:18Z</time>
      </trkpt>
      <trkpt lat="62.844437" lon="12.471975">
        <ele>959.208</ele>
        <time>2011-07-05T17:26:20Z</time>
      </trkpt>
      <trkpt lat="62.844587" lon="12.472122">
        <ele>960.11</ele>
        <time>2011-07-05T17:26:26Z</time>
      </trkpt>
      <trkpt lat="62.844766" lon="12.472097">
        <ele>961.832</ele>
        <time>2011-07-05T17:26:33Z</time>
      </trkpt>
      <trkpt lat="62.844941" lon="12.472099">
        <ele>962.278</ele>
        <time>2011-07-05T17:26:39Z</time>
      </trkpt>
      <trkpt lat="62.845031" lon="12.47219">
        <ele>964.107</ele>
        <time>2011-07-05T17:26:44Z</time>
      </trkpt>
      <trkpt lat="62.845119" lon="12.472194">
        <ele>965.468</ele>
        <time>2011-07-05T17:26:49Z</time>
      </trkpt>
      <trkpt lat="62.845217" lon="12.472189">
        <ele>965.863</ele>
        <time>2011-07-05T17:26:56Z</time>
      </trkpt>
      <trkpt lat="62.845344" lon="12.472135">
        <ele>965.047</ele>
        <time>2011-07-05T17:27:04Z</time>
      </trkpt>
      <trkpt lat="62.845455" lon="12.472143">
        <ele>963.896</ele>
        <time>2011-07-05T17:27:12Z</time>
      </trkpt>
      <trkpt lat="62.845571" lon="12.472222">
        <ele>963.811</ele>
        <time>2011-07-05T17:27:21Z</time>
      </trkpt>
      <trkpt lat="62.845647" lon="12.47222">
        <ele>964.222</ele>
        <time>2011-07-05T17:27:27Z</time>
      </trkpt>
      <trkpt lat="62.845776" lon="12.47227">
        <ele>964.243</ele>
        <time>2011-07-05T17:27:36Z</time>
      </trkpt>
      <trkpt lat="62.845899" lon="12.472325">
        <ele>963.75</ele>
        <time>2011-07-05T17:27:44Z</time>
      </trkpt>
      <trkpt lat="62.845996" lon="12.472486">
        <ele>965.247</ele>
        <time>2011-07-05T17:27:53Z</time>
      </trkpt>
      <trkpt lat="62.846083" lon="12.472637">
        <ele>966.019</ele>
        <time>2011-07-05T17:28:01Z</time>
      </trkpt>
      <trkpt lat="62.846197" lon="12.472794">
        <ele>965.938</ele>
        <time>2011-07-05T17:28:10Z</time>
      </trkpt>
      <trkpt lat="62.846282" lon="12.472949">
        <ele>965.058</ele>
        <time>2011-07-05T17:28:18Z</time>
      </trkpt>
      <trkpt lat="62.846396" lon="12.473088">
        <ele>964.563</ele>
        <time>2011-07-05T17:28:27Z</time>
      </trkpt>
      <trkpt lat="62.846522" lon="12.473258">
        <ele>964.519</ele>
        <time>2011-07-05T17:28:37Z</time>
      </trkpt>
      <trkpt lat="62.846601" lon="12.473389">
        <ele>963.879</ele>
        <time>2011-07-05T17:28:42Z</time>
      </trkpt>
      <trkpt lat="62.846725" lon="12.473559">
        <ele>962.905</ele>
        <time>2011-07-05T17:28:48Z</time>
      </trkpt>
      <trkpt lat="62.846821" lon="12.473822">
        <ele>961.542</ele>
        <time>2011-07-05T17:28:54Z</time>
      </trkpt>
      <trkpt lat="62.84689" lon="12.474018">
        <ele>960.199</ele>
        <time>2011-07-05T17:28:59Z</time>
      </trkpt>
      <trkpt lat="62.846991" lon="12.474185">
        <ele>958.285</ele>
        <time>2011-07-05T17:29:04Z</time>
      </trkpt>
      <trkpt lat="62.847039" lon="12.474446">
        <ele>956.704</ele>
        <time>2011-07-05T17:29:09Z</time>
      </trkpt>
      <trkpt lat="62.847183" lon="12.47467">
        <ele>953.884</ele>
        <time>2011-07-05T17:29:15Z</time>
      </trkpt>
      <trkpt lat="62.847306" lon="12.474861">
        <ele>952.113</ele>
        <time>2011-07-05T17:29:20Z</time>
      </trkpt>
      <trkpt lat="62.847439" lon="12.475106">
        <ele>950.528</ele>
        <time>2011-07-05T17:29:26Z</time>
      </trkpt>
      <trkpt lat="62.847537" lon="12.475193">
        <ele>949.711</ele>
        <time>2011-07-05T17:29:30Z</time>
      </trkpt>
      <trkpt lat="62.84762" lon="12.475439">
        <ele>947.927</ele>
        <time>2011-07-05T17:29:35Z</time>
      </trkpt>
      <trkpt lat="62.847721" lon="12.475675">
        <ele>945.633</ele>
        <time>2011-07-05T17:29:40Z</time>
      </trkpt>
      <trkpt lat="62.847835" lon="12.475892">
        <ele>944.053</ele>
        <time>2011-07-05T17:29:45Z</time>
      </trkpt>
      <trkpt lat="62.847952" lon="12.475953">
        <ele>943.432</ele>
        <time>2011-07-05T17:29:50Z</time>
      </trkpt>
      <trkpt lat="62.847976" lon="12.475948">
        <ele>943.26</ele>
        <time>2011-07-05T17:29:51Z</time>
      </trkpt>
      <trkpt lat="62.848092" lon="12.47611">
        <ele>943.136</ele>
        <time>2011-07-05T17:29:57Z</time>
      </trkpt>
      <trkpt lat="62.848118" lon="12.476234">
        <ele>942.935</ele>
        <time>2011-07-05T17:30:00Z</time>
      </trkpt>
      <trkpt lat="62.848208" lon="12.476552">
        <ele>942.525</ele>
        <time>2011-07-05T17:30:06Z</time>
      </trkpt>
      <trkpt lat="62.848299" lon="12.476853">
        <ele>943.023</ele>
        <time>2011-07-05T17:30:12Z</time>
      </trkpt>
      <trkpt lat="62.848427" lon="12.47707">
        <ele>943.765</ele>
        <time>2011-07-05T17:30:18Z</time>
      </trkpt>
      <trkpt lat="62.848523" lon="12.47725">
        <ele>942.963</ele>
        <time>2011-07-05T17:30:23Z</time>
      </trkpt>
      <trkpt lat="62.848677" lon="12.477434">
        <ele>941.859</ele>
        <time>2011-07-05T17:30:29Z</time>
      </trkpt>
      <trkpt lat="62.848848" lon="12.477553">
        <ele>940.622</ele>
        <time>2011-07-05T17:30:35Z</time>
      </trkpt>
      <trkpt lat="62.848989" lon="12.477591">
        <ele>938.447</ele>
        <time>2011-07-05T17:30:40Z</time>
      </trkpt>
      <trkpt lat="62.849111" lon="12.477667">
        <ele>936.994</ele>
        <time>2011-07-05T17:30:45Z</time>
      </trkpt>
      <trkpt lat="62.849254" lon="12.477989">
        <ele>933.098</ele>
        <time>2011-07-05T17:30:52Z</time>
      </trkpt>
      <trkpt lat="62.849392" lon="12.478138">
        <ele>930.813</ele>
        <time>2011-07-05T17:30:57Z</time>
      </trkpt>
      <trkpt lat="62.849518" lon="12.478258">
        <ele>929.588</ele>
        <time>2011-07-05T17:31:02Z</time>
      </trkpt>
      <trkpt lat="62.849623" lon="12.478359">
        <ele>928.311</ele>
        <time>2011-07-05T17:31:06Z</time>
      </trkpt>
      <trkpt lat="62.849674" lon="12.478385">
        <ele>927.87</ele>
        <time>2011-07-05T17:31:08Z</time>
      </trkpt>
      <trkpt lat="62.849801" lon="12.478605">
        <ele>925.753</ele>
        <time>2011-07-05T17:31:14Z</time>
      </trkpt>
      <trkpt lat="62.849892" lon="12.47868">
        <ele>924.059</ele>
        <time>2011-07-05T17:31:17Z</time>
      </trkpt>
      <trkpt lat="62.849936" lon="12.478744">
        <ele>923.04</ele>
        <time>2011-07-05T17:31:19Z</time>
      </trkpt>
      <trkpt lat="62.849997" lon="12.478821">
        <ele>923.671</ele>
        <time>2011-07-05T17:31:22Z</time>
      </trkpt>
      <trkpt lat="62.850037" lon="12.478851">
        <ele>921.577</ele>
        <time>2011-07-05T17:31:24Z</time>
      </trkpt>
      <trkpt lat="62.850126" lon="12.478871">
        <ele>922.921</ele>
        <time>2011-07-05T17:31:27Z</time>
      </trkpt>
      <trkpt lat="62.850305" lon="12.479074">
        <ele>919.384</ele>
        <time>2011-07-05T17:31:34Z</time>
      </trkpt>
      <trkpt lat="62.850363" lon="12.479118">
        <ele>918.65</ele>
        <time>2011-07-05T17:31:36Z</time>
      </trkpt>
      <trkpt lat="62.850457" lon="12.479237">
        <ele>919.141</ele>
        <time>2011-07-05T17:31:40Z</time>
      </trkpt>
      <trkpt lat="62.850593" lon="12.479373">
        <ele>918.076</ele>
        <time>2011-07-05T17:31:45Z</time>
      </trkpt>
      <trkpt lat="62.85074" lon="12.479471">
        <ele>918.385</ele>
        <time>2011-07-05T17:31:50Z</time>
      </trkpt>
      <trkpt lat="62.850817" lon="12.479637">
        <ele>920.24</ele>
        <time>2011-07-05T17:31:55Z</time>
      </trkpt>
      <trkpt lat="62.850921" lon="12.479737">
        <ele>919.999</ele>
        <time>2011-07-05T17:32:00Z</time>
      </trkpt>
      <trkpt lat="62.851009" lon="12.479765">
        <ele>919.382</ele>
        <time>2011-07-05T17:32:04Z</time>
      </trkpt>
      <trkpt lat="62.851036" lon="12.4798">
        <ele>919.144</ele>
        <time>2011-07-05T17:32:05Z</time>
      </trkpt>
      <trkpt lat="62.851172" lon="12.479989">
        <ele>918.41</ele>
        <time>2011-07-05T17:32:11Z</time>
      </trkpt>
      <trkpt lat="62.851337" lon="12.480222">
        <ele>917.645</ele>
        <time>2011-07-05T17:32:18Z</time>
      </trkpt>
      <trkpt lat="62.851479" lon="12.480388">
        <ele>916.986</ele>
        <time>2011-07-05T17:32:24Z</time>
      </trkpt>
      <trkpt lat="62.851515" lon="12.480449">
        <ele>916.929</ele>
        <time>2011-07-05T17:32:26Z</time>
      </trkpt>
      <trkpt lat="62.851595" lon="12.480444">
        <ele>916.711</ele>
        <time>2011-07-05T17:32:31Z</time>
      </trkpt>
      <trkpt lat="62.851643" lon="12.480409">
        <ele>916.682</ele>
        <time>2011-07-05T17:32:34Z</time>
      </trkpt>
      <trkpt lat="62.851754" lon="12.480467">
        <ele>916.669</ele>
        <time>2011-07-05T17:32:41Z</time>
      </trkpt>
      <trkpt lat="62.85188" lon="12.48051">
        <ele>918.75</ele>
        <time>2011-07-05T17:32:49Z</time>
      </trkpt>
      <trkpt lat="62.851974" lon="12.48058">
        <ele>920.316</ele>
        <time>2011-07-05T17:32:54Z</time>
      </trkpt>
      <trkpt lat="62.852071" lon="12.480632">
        <ele>922.135</ele>
        <time>2011-07-05T17:33:01Z</time>
      </trkpt>
      <trkpt lat="62.852159" lon="12.480789">
        <ele>923.786</ele>
        <time>2011-07-05T17:33:08Z</time>
      </trkpt>
      <trkpt lat="62.852233" lon="12.480823">
        <ele>925.618</ele>
        <time>2011-07-05T17:33:15Z</time>
      </trkpt>
      <trkpt lat="62.852284" lon="12.480885">
        <ele>927.567</ele>
        <time>2011-07-05T17:33:21Z</time>
      </trkpt>
      <trkpt lat="62.852332" lon="12.481002">
        <ele>929.565</ele>
        <time>2011-07-05T17:33:28Z</time>
      </trkpt>
      <trkpt lat="62.852401" lon="12.481128">
        <ele>930.496</ele>
        <time>2011-07-05T17:33:35Z</time>
      </trkpt>
      <trkpt lat="62.852467" lon="12.481293">
        <ele>929.771</ele>
        <time>2011-07-05T17:33:41Z</time>
      </trkpt>
      <trkpt lat="62.852531" lon="12.481472">
        <ele>929.682</ele>
        <time>2011-07-05T17:33:46Z</time>
      </trkpt>
      <trkpt lat="62.852587" lon="12.481648">
        <ele>929.381</ele>
        <time>2011-07-05T17:33:50Z</time>
      </trkpt>
      <trkpt lat="62.852684" lon="12.481913">
        <ele>929.728</ele>
        <time>2011-07-05T17:33:56Z</time>
      </trkpt>
      <trkpt lat="62.852801" lon="12.482114">
        <ele>929.088</ele>
        <time>2011-07-05T17:34:02Z</time>
      </trkpt>
      <trkpt lat="62.852887" lon="12.482313">
        <ele>928.846</ele>
        <time>2011-07-05T17:34:07Z</time>
      </trkpt>
      <trkpt lat="62.852967" lon="12.482533">
        <ele>928.961</ele>
        <time>2011-07-05T17:34:12Z</time>
      </trkpt>
      <trkpt lat="62.853095" lon="12.48282">
        <ele>927.71</ele>
        <time>2011-07-05T17:34:19Z</time>
      </trkpt>
      <trkpt lat="62.853165" lon="12.482988">
        <ele>926.866</ele>
        <time>2011-07-05T17:34:23Z</time>
      </trkpt>
      <trkpt lat="62.853259" lon="12.483203">
        <ele>926.828</ele>
        <time>2011-07-05T17:34:28Z</time>
      </trkpt>
      <trkpt lat="62.853391" lon="12.483461">
        <ele>927.752</ele>
        <time>2011-07-05T17:34:35Z</time>
      </trkpt>
      <trkpt lat="62.853509" lon="12.4837">
        <ele>927.845</ele>
        <time>2011-07-05T17:34:41Z</time>
      </trkpt>
      <trkpt lat="62.8536" lon="12.483846">
        <ele>926.872</ele>
        <time>2011-07-05T17:34:45Z</time>
      </trkpt>
      <trkpt lat="62.853701" lon="12.484055">
        <ele>926.027</ele>
        <time>2011-07-05T17:34:50Z</time>
      </trkpt>
      <trkpt lat="62.853834" lon="12.484298">
        <ele>925.74</ele>
        <time>2011-07-05T17:34:56Z</time>
      </trkpt>
      <trkpt lat="62.853932" lon="12.484525">
        <ele>925.712</ele>
        <time>2011-07-05T17:35:01Z</time>
      </trkpt>
      <trkpt lat="62.854066" lon="12.484849">
        <ele>925.386</ele>
        <time>2011-07-05T17:35:08Z</time>
      </trkpt>
      <trkpt lat="62.854204" lon="12.485156">
        <ele>925.506</ele>
        <time>2011-07-05T17:35:15Z</time>
      </trkpt>
      <trkpt lat="62.854338" lon="12.485388">
        <ele>925.208</ele>
        <time>2011-07-05T17:35:21Z</time>
      </trkpt>
      <trkpt lat="62.854472" lon="12.485613">
        <ele>924.349</ele>
        <time>2011-07-05T17:35:27Z</time>
      </trkpt>
      <trkpt lat="62.854512" lon="12.485684">
        <ele>923.876</ele>
        <time>2011-07-05T17:35:29Z</time>
      </trkpt>
      <trkpt lat="62.854587" lon="12.485722">
        <ele>923.339</ele>
        <time>2011-07-05T17:35:32Z</time>
      </trkpt>
      <trkpt lat="62.854672" lon="12.48585">
        <ele>922.75</ele>
        <time>2011-07-05T17:35:36Z</time>
      </trkpt>
      <trkpt lat="62.854779" lon="12.485991">
        <ele>922.11</ele>
        <time>2011-07-05T17:35:42Z</time>
      </trkpt>
      <trkpt lat="62.854879" lon="12.486156">
        <ele>921.754</ele>
        <time>2011-07-05T17:35:47Z</time>
      </trkpt>
      <trkpt lat="62.854936" lon="12.486242">
        <ele>921.649</ele>
        <time>2011-07-05T17:35:49Z</time>
      </trkpt>
      <trkpt lat="62.855015" lon="12.486478">
        <ele>921.245</ele>
        <time>2011-07-05T17:35:54Z</time>
      </trkpt>
      <trkpt lat="62.855038" lon="12.48651">
        <ele>921.165</ele>
        <time>2011-07-05T17:35:55Z</time>
      </trkpt>
      <trkpt lat="62.855163" lon="12.486706">
        <ele>921.079</ele>
        <time>2011-07-05T17:36:01Z</time>
      </trkpt>
      <trkpt lat="62.855227" lon="12.486771">
        <ele>921.279</ele>
        <time>2011-07-05T17:36:05Z</time>
      </trkpt>
      <trkpt lat="62.855236" lon="12.486776">
        <ele>921.362</ele>
        <time>2011-07-05T17:36:06Z</time>
      </trkpt>
      <trkpt lat="62.855302" lon="12.486784">
        <ele>921.282</ele>
        <time>2011-07-05T17:36:25Z</time>
      </trkpt>
      <trkpt lat="62.855342" lon="12.486813">
        <ele>921.058</ele>
        <time>2011-07-05T17:37:10Z</time>
      </trkpt>
      <trkpt lat="62.855353" lon="12.486767">
        <ele>920.388</ele>
        <time>2011-07-05T17:37:14Z</time>
      </trkpt>
      <trkpt lat="62.855372" lon="12.486723">
        <ele>920.253</ele>
        <time>2011-07-05T17:37:20Z</time>
      </trkpt>
      <trkpt lat="62.855377" lon="12.486711">
        <ele>920.282</ele>
        <time>2011-07-05T17:37:21Z</time>
      </trkpt>
      <trkpt lat="62.855425" lon="12.486772">
        <ele>920.838</ele>
        <time>2011-07-05T17:37:27Z</time>
      </trkpt>
      <trkpt lat="62.855449" lon="12.486802">
        <ele>920.636</ele>
        <time>2011-07-05T17:37:29Z</time>
      </trkpt>
      <trkpt lat="62.855481" lon="12.486874">
        <ele>920.761</ele>
        <time>2011-07-05T17:37:33Z</time>
      </trkpt>
      <trkpt lat="62.855567" lon="12.487037">
        <ele>921.681</ele>
        <time>2011-07-05T17:37:42Z</time>
      </trkpt>
      <trkpt lat="62.855602" lon="12.487173">
        <ele>921.753</ele>
        <time>2011-07-05T17:37:48Z</time>
      </trkpt>
      <trkpt lat="62.855671" lon="12.487285">
        <ele>922.887</ele>
        <time>2011-07-05T17:37:55Z</time>
      </trkpt>
      <trkpt lat="62.855737" lon="12.487379">
        <ele>923.101</ele>
        <time>2011-07-05T17:38:01Z</time>
      </trkpt>
      <trkpt lat="62.855836" lon="12.487521">
        <ele>923.169</ele>
        <time>2011-07-05T17:38:07Z</time>
      </trkpt>
      <trkpt lat="62.855968" lon="12.487705">
        <ele>924.352</ele>
        <time>2011-07-05T17:38:13Z</time>
      </trkpt>
      <trkpt lat="62.856058" lon="12.487887">
        <ele>925.552</ele>
        <time>2011-07-05T17:38:18Z</time>
      </trkpt>
      <trkpt lat="62.856175" lon="12.488087">
        <ele>926.429</ele>
        <time>2011-07-05T17:38:24Z</time>
      </trkpt>
      <trkpt lat="62.856316" lon="12.488303">
        <ele>926.148</ele>
        <time>2011-07-05T17:38:31Z</time>
      </trkpt>
      <trkpt lat="62.856448" lon="12.488471">
        <ele>924.928</ele>
        <time>2011-07-05T17:38:36Z</time>
      </trkpt>
      <trkpt lat="62.85651" lon="12.488574">
        <ele>925.422</ele>
        <time>2011-07-05T17:38:40Z</time>
      </trkpt>
      <trkpt lat="62.856616" lon="12.488757">
        <ele>925.68</ele>
        <time>2011-07-05T17:38:46Z</time>
      </trkpt>
      <trkpt lat="62.856679" lon="12.488892">
        <ele>924.673</ele>
        <time>2011-07-05T17:38:50Z</time>
      </trkpt>
      <trkpt lat="62.856799" lon="12.48908">
        <ele>924.638</ele>
        <time>2011-07-05T17:38:56Z</time>
      </trkpt>
      <trkpt lat="62.856914" lon="12.489212">
        <ele>924.486</ele>
        <time>2011-07-05T17:39:01Z</time>
      </trkpt>
      <trkpt lat="62.856983" lon="12.489327">
        <ele>924.22</ele>
        <time>2011-07-05T17:39:05Z</time>
      </trkpt>
      <trkpt lat="62.857054" lon="12.489422">
        <ele>923.067</ele>
        <time>2011-07-05T17:39:09Z</time>
      </trkpt>
      <trkpt lat="62.857105" lon="12.489514">
        <ele>921.996</ele>
        <time>2011-07-05T17:39:14Z</time>
      </trkpt>
      <trkpt lat="62.857175" lon="12.489584">
        <ele>922.557</ele>
        <time>2011-07-05T17:39:20Z</time>
      </trkpt>
      <trkpt lat="62.857204" lon="12.489606">
        <ele>922.639</ele>
        <time>2011-07-05T17:39:22Z</time>
      </trkpt>
      <trkpt lat="62.857338" lon="12.489617">
        <ele>922.973</ele>
        <time>2011-07-05T17:39:28Z</time>
      </trkpt>
      <trkpt lat="62.857467" lon="12.489532">
        <ele>922.569</ele>
        <time>2011-07-05T17:39:34Z</time>
      </trkpt>
      <trkpt lat="62.857545" lon="12.489656">
        <ele>923.68</ele>
        <time>2011-07-05T17:39:39Z</time>
      </trkpt>
      <trkpt lat="62.857663" lon="12.489781">
        <ele>925.02</ele>
        <time>2011-07-05T17:39:45Z</time>
      </trkpt>
      <trkpt lat="62.857787" lon="12.489885">
        <ele>927.013</ele>
        <time>2011-07-05T17:39:51Z</time>
      </trkpt>
      <trkpt lat="62.85792" lon="12.489987">
        <ele>927.755</ele>
        <time>2011-07-05T17:39:57Z</time>
      </trkpt>
      <trkpt lat="62.858053" lon="12.490083">
        <ele>928.456</ele>
        <time>2011-07-05T17:40:03Z</time>
      </trkpt>
      <trkpt lat="62.858178" lon="12.490194">
        <ele>929.603</ele>
        <time>2011-07-05T17:40:09Z</time>
      </trkpt>
      <trkpt lat="62.858308" lon="12.490289">
        <ele>929.466</ele>
        <time>2011-07-05T17:40:14Z</time>
      </trkpt>
      <trkpt lat="62.858395" lon="12.490345">
        <ele>930.169</ele>
        <time>2011-07-05T17:40:18Z</time>
      </trkpt>
      <trkpt lat="62.858481" lon="12.490402">
        <ele>931.242</ele>
        <time>2011-07-05T17:40:24Z</time>
      </trkpt>
      <trkpt lat="62.858577" lon="12.490424">
        <ele>931.497</ele>
        <time>2011-07-05T17:40:31Z</time>
      </trkpt>
      <trkpt lat="62.858667" lon="12.490491">
        <ele>932.323</ele>
        <time>2011-07-05T17:40:39Z</time>
      </trkpt>
      <trkpt lat="62.85876" lon="12.490544">
        <ele>932.846</ele>
        <time>2011-07-05T17:40:47Z</time>
      </trkpt>
      <trkpt lat="62.85884" lon="12.490652">
        <ele>930.668</ele>
        <time>2011-07-05T17:40:54Z</time>
      </trkpt>
      <trkpt lat="62.858948" lon="12.490759">
        <ele>930.108</ele>
        <time>2011-07-05T17:41:02Z</time>
      </trkpt>
      <trkpt lat="62.859029" lon="12.490782">
        <ele>931.109</ele>
        <time>2011-07-05T17:41:08Z</time>
      </trkpt>
      <trkpt lat="62.859039" lon="12.490792">
        <ele>931.378</ele>
        <time>2011-07-05T17:41:09Z</time>
      </trkpt>
      <trkpt lat="62.859075" lon="12.490863">
        <ele>932.506</ele>
        <time>2011-07-05T17:41:14Z</time>
      </trkpt>
      <trkpt lat="62.859183" lon="12.490955">
        <ele>934.444</ele>
        <time>2011-07-05T17:41:23Z</time>
      </trkpt>
      <trkpt lat="62.859293" lon="12.491049">
        <ele>934.858</ele>
        <time>2011-07-05T17:41:31Z</time>
      </trkpt>
      <trkpt lat="62.859395" lon="12.491115">
        <ele>935.423</ele>
        <time>2011-07-05T17:41:37Z</time>
      </trkpt>
      <trkpt lat="62.859523" lon="12.491136">
        <ele>936.033</ele>
        <time>2011-07-05T17:41:42Z</time>
      </trkpt>
      <trkpt lat="62.859644" lon="12.491171">
        <ele>936.383</ele>
        <time>2011-07-05T17:41:47Z</time>
      </trkpt>
      <trkpt lat="62.859753" lon="12.491179">
        <ele>937.407</ele>
        <time>2011-07-05T17:41:52Z</time>
      </trkpt>
      <trkpt lat="62.859889" lon="12.491245">
        <ele>937.672</ele>
        <time>2011-07-05T17:42:00Z</time>
      </trkpt>
      <trkpt lat="62.86004" lon="12.49128">
        <ele>936.204</ele>
        <time>2011-07-05T17:42:06Z</time>
      </trkpt>
      <trkpt lat="62.860156" lon="12.491277">
        <ele>934.541</ele>
        <time>2011-07-05T17:42:10Z</time>
      </trkpt>
      <trkpt lat="62.860185" lon="12.491274">
        <ele>934.24</ele>
        <time>2011-07-05T17:42:11Z</time>
      </trkpt>
      <trkpt lat="62.860365" lon="12.491292">
        <ele>933.399</ele>
        <time>2011-07-05T17:42:17Z</time>
      </trkpt>
      <trkpt lat="62.860532" lon="12.491376">
        <ele>932.897</ele>
        <time>2011-07-05T17:42:23Z</time>
      </trkpt>
      <trkpt lat="62.860636" lon="12.491363">
        <ele>931.885</ele>
        <time>2011-07-05T17:42:27Z</time>
      </trkpt>
      <trkpt lat="62.860696" lon="12.491308">
        <ele>931.264</ele>
        <time>2011-07-05T17:42:29Z</time>
      </trkpt>
      <trkpt lat="62.860794" lon="12.491354">
        <ele>930.295</ele>
        <time>2011-07-05T17:42:33Z</time>
      </trkpt>
      <trkpt lat="62.86089" lon="12.491386">
        <ele>929.16</ele>
        <time>2011-07-05T17:42:37Z</time>
      </trkpt>
      <trkpt lat="62.860989" lon="12.491453">
        <ele>927.696</ele>
        <time>2011-07-05T17:42:41Z</time>
      </trkpt>
      <trkpt lat="62.861012" lon="12.491458">
        <ele>927.828</ele>
        <time>2011-07-05T17:42:43Z</time>
      </trkpt>
      <trkpt lat="62.861039" lon="12.491478">
        <ele>928.296</ele>
        <time>2011-07-05T17:42:46Z</time>
      </trkpt>
      <trkpt lat="62.86105" lon="12.491502">
        <ele>928.285</ele>
        <time>2011-07-05T17:42:48Z</time>
      </trkpt>
      <trkpt lat="62.861121" lon="12.491475">
        <ele>926.702</ele>
        <time>2011-07-05T17:42:52Z</time>
      </trkpt>
      <trkpt lat="62.861228" lon="12.491423">
        <ele>925.208</ele>
        <time>2011-07-05T17:42:56Z</time>
      </trkpt>
      <trkpt lat="62.861373" lon="12.491358">
        <ele>926.043</ele>
        <time>2011-07-05T17:43:02Z</time>
      </trkpt>
      <trkpt lat="62.861492" lon="12.491417">
        <ele>925.311</ele>
        <time>2011-07-05T17:43:07Z</time>
      </trkpt>
      <trkpt lat="62.861574" lon="12.491523">
        <ele>925.442</ele>
        <time>2011-07-05T17:43:11Z</time>
      </trkpt>
      <trkpt lat="62.861623" lon="12.491473">
        <ele>925.489</ele>
        <time>2011-07-05T17:43:14Z</time>
      </trkpt>
      <trkpt lat="62.86171" lon="12.491457">
        <ele>926.754</ele>
        <time>2011-07-05T17:43:19Z</time>
      </trkpt>
      <trkpt lat="62.861814" lon="12.491492">
        <ele>928.781</ele>
        <time>2011-07-05T17:43:28Z</time>
      </trkpt>
      <trkpt lat="62.861838" lon="12.49148">
        <ele>929.319</ele>
        <time>2011-07-05T17:43:30Z</time>
      </trkpt>
      <trkpt lat="62.861935" lon="12.491401">
        <ele>928.918</ele>
        <time>2011-07-05T17:43:35Z</time>
      </trkpt>
      <trkpt lat="62.861958" lon="12.491395">
        <ele>928.97</ele>
        <time>2011-07-05T17:43:37Z</time>
      </trkpt>
      <trkpt lat="62.86204" lon="12.491369">
        <ele>928.703</ele>
        <time>2011-07-05T17:43:45Z</time>
      </trkpt>
      <trkpt lat="62.862107" lon="12.49146">
        <ele>929.548</ele>
        <time>2011-07-05T17:43:50Z</time>
      </trkpt>
      <trkpt lat="62.862197" lon="12.491568">
        <ele>930.303</ele>
        <time>2011-07-05T17:43:55Z</time>
      </trkpt>
      <trkpt lat="62.862292" lon="12.491648">
        <ele>931.921</ele>
        <time>2011-07-05T17:44:00Z</time>
      </trkpt>
      <trkpt lat="62.862401" lon="12.491712">
        <ele>933.215</ele>
        <time>2011-07-05T17:44:05Z</time>
      </trkpt>
      <trkpt lat="62.862444" lon="12.491712">
        <ele>933.651</ele>
        <time>2011-07-05T17:44:08Z</time>
      </trkpt>
      <trkpt lat="62.862486" lon="12.491753">
        <ele>934.221</ele>
        <time>2011-07-05T17:44:12Z</time>
      </trkpt>
      <trkpt lat="62.862565" lon="12.491888">
        <ele>934.904</ele>
        <time>2011-07-05T17:44:20Z</time>
      </trkpt>
      <trkpt lat="62.862656" lon="12.491979">
        <ele>935.571</ele>
        <time>2011-07-05T17:44:27Z</time>
      </trkpt>
      <trkpt lat="62.862734" lon="12.492069">
        <ele>936.231</ele>
        <time>2011-07-05T17:44:34Z</time>
      </trkpt>
      <trkpt lat="62.862794" lon="12.492108">
        <ele>937.03</ele>
        <time>2011-07-05T17:44:40Z</time>
      </trkpt>
      <trkpt lat="62.862886" lon="12.492115">
        <ele>937.417</ele>
        <time>2011-07-05T17:44:48Z</time>
      </trkpt>
      <trkpt lat="62.86293" lon="12.492169">
        <ele>937.153</ele>
        <time>2011-07-05T17:44:52Z</time>
      </trkpt>
      <trkpt lat="62.863022" lon="12.492223">
        <ele>937.52</ele>
        <time>2011-07-05T17:44:59Z</time>
      </trkpt>
      <trkpt lat="62.863116" lon="12.492326">
        <ele>938.607</ele>
        <time>2011-07-05T17:45:08Z</time>
      </trkpt>
      <trkpt lat="62.863207" lon="12.492383">
        <ele>939.141</ele>
        <time>2011-07-05T17:45:16Z</time>
      </trkpt>
      <trkpt lat="62.863314" lon="12.49237">
        <ele>939.881</ele>
        <time>2011-07-05T17:45:23Z</time>
      </trkpt>
      <trkpt lat="62.863444" lon="12.492316">
        <ele>939.542</ele>
        <time>2011-07-05T17:45:31Z</time>
      </trkpt>
      <trkpt lat="62.863508" lon="12.492382">
        <ele>941.024</ele>
        <time>2011-07-05T17:45:37Z</time>
      </trkpt>
      <trkpt lat="62.863602" lon="12.492462">
        <ele>942.711</ele>
        <time>2011-07-05T17:45:44Z</time>
      </trkpt>
      <trkpt lat="62.863693" lon="12.492563">
        <ele>944.5</ele>
        <time>2011-07-05T17:45:53Z</time>
      </trkpt>
      <trkpt lat="62.863795" lon="12.492583">
        <ele>944.987</ele>
        <time>2011-07-05T17:46:01Z</time>
      </trkpt>
      <trkpt lat="62.863921" lon="12.492624">
        <ele>944.874</ele>
        <time>2011-07-05T17:46:08Z</time>
      </trkpt>
      <trkpt lat="62.864019" lon="12.492668">
        <ele>944.189</ele>
        <time>2011-07-05T17:46:13Z</time>
      </trkpt>
      <trkpt lat="62.864189" lon="12.492866">
        <ele>946.054</ele>
        <time>2011-07-05T17:46:21Z</time>
      </trkpt>
      <trkpt lat="62.864328" lon="12.492945">
        <ele>946.118</ele>
        <time>2011-07-05T17:46:26Z</time>
      </trkpt>
      <trkpt lat="62.864397" lon="12.492986">
        <ele>946.85</ele>
        <time>2011-07-05T17:46:30Z</time>
      </trkpt>
      <trkpt lat="62.864557" lon="12.493041">
        <ele>948.577</ele>
        <time>2011-07-05T17:46:37Z</time>
      </trkpt>
      <trkpt lat="62.864692" lon="12.493135">
        <ele>948.814</ele>
        <time>2011-07-05T17:46:41Z</time>
      </trkpt>
      <trkpt lat="62.864769" lon="12.493206">
        <ele>948.962</ele>
        <time>2011-07-05T17:46:44Z</time>
      </trkpt>
      <trkpt lat="62.864913" lon="12.49319">
        <ele>950.442</ele>
        <time>2011-07-05T17:46:50Z</time>
      </trkpt>
      <trkpt lat="62.864988" lon="12.493221">
        <ele>951.635</ele>
        <time>2011-07-05T17:46:55Z</time>
      </trkpt>
      <trkpt lat="62.865085" lon="12.493298">
        <ele>951.795</ele>
        <time>2011-07-05T17:47:02Z</time>
      </trkpt>
      <trkpt lat="62.865183" lon="12.493341">
        <ele>950.805</ele>
        <time>2011-07-05T17:47:10Z</time>
      </trkpt>
      <trkpt lat="62.865244" lon="12.493417">
        <ele>949.572</ele>
        <time>2011-07-05T17:47:17Z</time>
      </trkpt>
      <trkpt lat="62.865321" lon="12.493504">
        <ele>948.022</ele>
        <time>2011-07-05T17:47:25Z</time>
      </trkpt>
      <trkpt lat="62.865383" lon="12.493672">
        <ele>946.138</ele>
        <time>2011-07-05T17:47:33Z</time>
      </trkpt>
      <trkpt lat="62.865432" lon="12.493727">
        <ele>945.057</ele>
        <time>2011-07-05T17:47:38Z</time>
      </trkpt>
      <trkpt lat="62.865521" lon="12.493743">
        <ele>944.159</ele>
        <time>2011-07-05T17:47:46Z</time>
      </trkpt>
      <trkpt lat="62.865606" lon="12.493712">
        <ele>943.354</ele>
        <time>2011-07-05T17:47:52Z</time>
      </trkpt>
      <trkpt lat="62.865667" lon="12.493728">
        <ele>942.293</ele>
        <time>2011-07-05T17:47:56Z</time>
      </trkpt>
      <trkpt lat="62.865786" lon="12.493785">
        <ele>940.156</ele>
        <time>2011-07-05T17:48:02Z</time>
      </trkpt>
      <trkpt lat="62.865863" lon="12.493872">
        <ele>939.414</ele>
        <time>2011-07-05T17:48:06Z</time>
      </trkpt>
      <trkpt lat="62.865982" lon="12.493851">
        <ele>937.79</ele>
        <time>2011-07-05T17:48:11Z</time>
      </trkpt>
      <trkpt lat="62.866134" lon="12.493981">
        <ele>935.482</ele>
        <time>2011-07-05T17:48:18Z</time>
      </trkpt>
      <trkpt lat="62.866246" lon="12.494121">
        <ele>934.054</ele>
        <time>2011-07-05T17:48:24Z</time>
      </trkpt>
      <trkpt lat="62.866404" lon="12.494243">
        <ele>931.948</ele>
        <time>2011-07-05T17:48:31Z</time>
      </trkpt>
      <trkpt lat="62.866538" lon="12.494328">
        <ele>930.434</ele>
        <time>2011-07-05T17:48:36Z</time>
      </trkpt>
      <trkpt lat="62.866688" lon="12.494427">
        <ele>928.843</ele>
        <time>2011-07-05T17:48:42Z</time>
      </trkpt>
      <trkpt lat="62.866834" lon="12.494532">
        <ele>926.222</ele>
        <time>2011-07-05T17:48:49Z</time>
      </trkpt>
      <trkpt lat="62.866962" lon="12.494615">
        <ele>923.139</ele>
        <time>2011-07-05T17:48:53Z</time>
      </trkpt>
      <trkpt lat="62.866999" lon="12.49466">
        <ele>922.462</ele>
        <time>2011-07-05T17:48:55Z</time>
      </trkpt>
      <trkpt lat="62.867099" lon="12.494648">
        <ele>920.912</ele>
        <time>2011-07-05T17:48:58Z</time>
      </trkpt>
      <trkpt lat="62.867269" lon="12.494664">
        <ele>919.23</ele>
        <time>2011-07-05T17:49:04Z</time>
      </trkpt>
      <trkpt lat="62.867422" lon="12.494686">
        <ele>917.576</ele>
        <time>2011-07-05T17:49:09Z</time>
      </trkpt>
      <trkpt lat="62.867535" lon="12.494854">
        <ele>916.45</ele>
        <time>2011-07-05T17:49:14Z</time>
      </trkpt>
      <trkpt lat="62.867636" lon="12.494983">
        <ele>914.905</ele>
        <time>2011-07-05T17:49:19Z</time>
      </trkpt>
      <trkpt lat="62.867725" lon="12.495113">
        <ele>914.465</ele>
        <time>2011-07-05T17:49:23Z</time>
      </trkpt>
      <trkpt lat="62.86792" lon="12.495192">
        <ele>913.746</ele>
        <time>2011-07-05T17:49:30Z</time>
      </trkpt>
      <trkpt lat="62.868063" lon="12.495269">
        <ele>913.654</ele>
        <time>2011-07-05T17:49:35Z</time>
      </trkpt>
      <trkpt lat="62.868215" lon="12.495455">
        <ele>912.667</ele>
        <time>2011-07-05T17:49:42Z</time>
      </trkpt>
      <trkpt lat="62.868305" lon="12.4956">
        <ele>910.653</ele>
        <time>2011-07-05T17:49:47Z</time>
      </trkpt>
      <trkpt lat="62.868428" lon="12.495755">
        <ele>909.205</ele>
        <time>2011-07-05T17:49:52Z</time>
      </trkpt>
      <trkpt lat="62.86863" lon="12.496068">
        <ele>908.918</ele>
        <time>2011-07-05T17:50:00Z</time>
      </trkpt>
      <trkpt lat="62.868702" lon="12.496126">
        <ele>909.269</ele>
        <time>2011-07-05T17:50:03Z</time>
      </trkpt>
      <trkpt lat="62.868795" lon="12.49626">
        <ele>910.285</ele>
        <time>2011-07-05T17:50:08Z</time>
      </trkpt>
      <trkpt lat="62.868922" lon="12.496528">
        <ele>911.844</ele>
        <time>2011-07-05T17:50:16Z</time>
      </trkpt>
      <trkpt lat="62.869046" lon="12.496654">
        <ele>912.676</ele>
        <time>2011-07-05T17:50:22Z</time>
      </trkpt>
      <trkpt lat="62.869124" lon="12.496799">
        <ele>913.092</ele>
        <time>2011-07-05T17:50:27Z</time>
      </trkpt>
      <trkpt lat="62.869208" lon="12.49695">
        <ele>913.664</ele>
        <time>2011-07-05T17:50:34Z</time>
      </trkpt>
      <trkpt lat="62.86923" lon="12.496998">
        <ele>913.534</ele>
        <time>2011-07-05T17:50:36Z</time>
      </trkpt>
      <trkpt lat="62.869334" lon="12.4972">
        <ele>913.446</ele>
        <time>2011-07-05T17:50:46Z</time>
      </trkpt>
      <trkpt lat="62.869413" lon="12.497329">
        <ele>913.461</ele>
        <time>2011-07-05T17:50:53Z</time>
      </trkpt>
      <trkpt lat="62.869508" lon="12.497489">
        <ele>913.77</ele>
        <time>2011-07-05T17:51:01Z</time>
      </trkpt>
      <trkpt lat="62.869627" lon="12.497548">
        <ele>913.758</ele>
        <time>2011-07-05T17:51:08Z</time>
      </trkpt>
      <trkpt lat="62.869709" lon="12.497663">
        <ele>914.451</ele>
        <time>2011-07-05T17:51:16Z</time>
      </trkpt>
      <trkpt lat="62.869775" lon="12.497765">
        <ele>915.084</ele>
        <time>2011-07-05T17:51:23Z</time>
      </trkpt>
      <trkpt lat="62.869889" lon="12.497826">
        <ele>915.432</ele>
        <time>2011-07-05T17:51:31Z</time>
      </trkpt>
      <trkpt lat="62.869955" lon="12.497943">
        <ele>914.369</ele>
        <time>2011-07-05T17:51:39Z</time>
      </trkpt>
      <trkpt lat="62.870043" lon="12.498011">
        <ele>914.518</ele>
        <time>2011-07-05T17:51:46Z</time>
      </trkpt>
      <trkpt lat="62.870131" lon="12.498141">
        <ele>915.019</ele>
        <time>2011-07-05T17:51:54Z</time>
      </trkpt>
      <trkpt lat="62.870286" lon="12.49826">
        <ele>914.802</ele>
        <time>2011-07-05T17:52:03Z</time>
      </trkpt>
      <trkpt lat="62.870405" lon="12.49828">
        <ele>914.599</ele>
        <time>2011-07-05T17:52:10Z</time>
      </trkpt>
      <trkpt lat="62.870456" lon="12.498278">
        <ele>914.79</ele>
        <time>2011-07-05T17:52:13Z</time>
      </trkpt>
      <trkpt lat="62.870586" lon="12.498456">
        <ele>915.086</ele>
        <time>2011-07-05T17:52:20Z</time>
      </trkpt>
      <trkpt lat="62.870693" lon="12.498678">
        <ele>915.747</ele>
        <time>2011-07-05T17:52:26Z</time>
      </trkpt>
      <trkpt lat="62.87078" lon="12.49882">
        <ele>917.605</ele>
        <time>2011-07-05T17:52:32Z</time>
      </trkpt>
      <trkpt lat="62.87087" lon="12.49895">
        <ele>916.03</ele>
        <time>2011-07-05T17:52:40Z</time>
      </trkpt>
      <trkpt lat="62.870972" lon="12.499122">
        <ele>914.946</ele>
        <time>2011-07-05T17:52:48Z</time>
      </trkpt>
      <trkpt lat="62.871069" lon="12.499284">
        <ele>914.657</ele>
        <time>2011-07-05T17:52:54Z</time>
      </trkpt>
      <trkpt lat="62.871208" lon="12.499578">
        <ele>912.123</ele>
        <time>2011-07-05T17:53:01Z</time>
      </trkpt>
      <trkpt lat="62.871326" lon="12.499785">
        <ele>911.069</ele>
        <time>2011-07-05T17:53:07Z</time>
      </trkpt>
      <trkpt lat="62.871431" lon="12.499934">
        <ele>909.827</ele>
        <time>2011-07-05T17:53:12Z</time>
      </trkpt>
      <trkpt lat="62.871575" lon="12.500074">
        <ele>908.023</ele>
        <time>2011-07-05T17:53:18Z</time>
      </trkpt>
      <trkpt lat="62.871642" lon="12.500128">
        <ele>907.252</ele>
        <time>2011-07-05T17:53:22Z</time>
      </trkpt>
      <trkpt lat="62.871661" lon="12.500156">
        <ele>906.956</ele>
        <time>2011-07-05T17:53:25Z</time>
      </trkpt>
      <trkpt lat="62.871729" lon="12.500156">
        <ele>906.697</ele>
        <time>2011-07-05T17:53:30Z</time>
      </trkpt>
      <trkpt lat="62.871769" lon="12.500176">
        <ele>905.924</ele>
        <time>2011-07-05T17:53:35Z</time>
      </trkpt>
      <trkpt lat="62.871777" lon="12.500182">
        <ele>905.752</ele>
        <time>2011-07-05T17:53:54Z</time>
      </trkpt>
      <trkpt lat="62.871815" lon="12.500231">
        <ele>905.922</ele>
        <time>2011-07-05T17:54:05Z</time>
      </trkpt>
      <trkpt lat="62.871844" lon="12.500246">
        <ele>905.764</ele>
        <time>2011-07-05T17:54:25Z</time>
      </trkpt>
      <trkpt lat="62.871867" lon="12.500293">
        <ele>905.847</ele>
        <time>2011-07-05T17:54:33Z</time>
      </trkpt>
      <trkpt lat="62.871898" lon="12.500353">
        <ele>906.351</ele>
        <time>2011-07-05T17:54:38Z</time>
      </trkpt>
      <trkpt lat="62.871909" lon="12.500523">
        <ele>906.808</ele>
        <time>2011-07-05T17:54:44Z</time>
      </trkpt>
      <trkpt lat="62.871935" lon="12.500608">
        <ele>907.192</ele>
        <time>2011-07-05T17:54:47Z</time>
      </trkpt>
      <trkpt lat="62.872091" lon="12.500786">
        <ele>907.716</ele>
        <time>2011-07-05T17:54:54Z</time>
      </trkpt>
      <trkpt lat="62.872139" lon="12.500821">
        <ele>907.952</ele>
        <time>2011-07-05T17:54:56Z</time>
      </trkpt>
      <trkpt lat="62.872219" lon="12.500955">
        <ele>908.586</ele>
        <time>2011-07-05T17:55:01Z</time>
      </trkpt>
      <trkpt lat="62.872378" lon="12.50096">
        <ele>908.882</ele>
        <time>2011-07-05T17:55:08Z</time>
      </trkpt>
      <trkpt lat="62.872519" lon="12.501">
        <ele>909.355</ele>
        <time>2011-07-05T17:55:14Z</time>
      </trkpt>
      <trkpt lat="62.872627" lon="12.500947">
        <ele>909.925</ele>
        <time>2011-07-05T17:55:19Z</time>
      </trkpt>
      <trkpt lat="62.872665" lon="12.50094">
        <ele>910.079</ele>
        <time>2011-07-05T17:55:21Z</time>
      </trkpt>
      <trkpt lat="62.872767" lon="12.501091">
        <ele>910.341</ele>
        <time>2011-07-05T17:55:27Z</time>
      </trkpt>
      <trkpt lat="62.872894" lon="12.501163">
        <ele>910.725</ele>
        <time>2011-07-05T17:55:33Z</time>
      </trkpt>
      <trkpt lat="62.872973" lon="12.501177">
        <ele>911.138</ele>
        <time>2011-07-05T17:55:38Z</time>
      </trkpt>
      <trkpt lat="62.873082" lon="12.501185">
        <ele>911.372</ele>
        <time>2011-07-05T17:55:46Z</time>
      </trkpt>
      <trkpt lat="62.873122" lon="12.501249">
        <ele>911.475</ele>
        <time>2011-07-05T17:55:50Z</time>
      </trkpt>
      <trkpt lat="62.873208" lon="12.501256">
        <ele>912.911</ele>
        <time>2011-07-05T17:55:56Z</time>
      </trkpt>
      <trkpt lat="62.873223" lon="12.501269">
        <ele>913.29</ele>
        <time>2011-07-05T17:55:57Z</time>
      </trkpt>
      <trkpt lat="62.873364" lon="12.50127">
        <ele>914.869</ele>
        <time>2011-07-05T17:56:06Z</time>
      </trkpt>
      <trkpt lat="62.873464" lon="12.501287">
        <ele>915.199</ele>
        <time>2011-07-05T17:56:13Z</time>
      </trkpt>
      <trkpt lat="62.873549" lon="12.501357">
        <ele>915.319</ele>
        <time>2011-07-05T17:56:19Z</time>
      </trkpt>
      <trkpt lat="62.873655" lon="12.501428">
        <ele>915.405</ele>
        <time>2011-07-05T17:56:24Z</time>
      </trkpt>
      <trkpt lat="62.87371" lon="12.501551">
        <ele>915.59</ele>
        <time>2011-07-05T17:56:29Z</time>
      </trkpt>
      <trkpt lat="62.873784" lon="12.501624">
        <ele>916.076</ele>
        <time>2011-07-05T17:56:35Z</time>
      </trkpt>
      <trkpt lat="62.873903" lon="12.501573">
        <ele>916.457</ele>
        <time>2011-07-05T17:56:43Z</time>
      </trkpt>
      <trkpt lat="62.87401" lon="12.501599">
        <ele>917.167</ele>
        <time>2011-07-05T17:56:50Z</time>
      </trkpt>
      <trkpt lat="62.874131" lon="12.501596">
        <ele>917.74</ele>
        <time>2011-07-05T17:56:58Z</time>
      </trkpt>
      <trkpt lat="62.87425" lon="12.501663">
        <ele>918.345</ele>
        <time>2011-07-05T17:57:05Z</time>
      </trkpt>
      <trkpt lat="62.874377" lon="12.501695">
        <ele>919.637</ele>
        <time>2011-07-05T17:57:11Z</time>
      </trkpt>
      <trkpt lat="62.874515" lon="12.501737">
        <ele>919.699</ele>
        <time>2011-07-05T17:57:17Z</time>
      </trkpt>
      <trkpt lat="62.874583" lon="12.501824">
        <ele>920.698</ele>
        <time>2011-07-05T17:57:21Z</time>
      </trkpt>
      <trkpt lat="62.874722" lon="12.501834">
        <ele>921.616</ele>
        <time>2011-07-05T17:57:27Z</time>
      </trkpt>
      <trkpt lat="62.874852" lon="12.501926">
        <ele>922.045</ele>
        <time>2011-07-05T17:57:33Z</time>
      </trkpt>
      <trkpt lat="62.874962" lon="12.501882">
        <ele>922.324</ele>
        <time>2011-07-05T17:57:38Z</time>
      </trkpt>
      <trkpt lat="62.875081" lon="12.501871">
        <ele>922.597</ele>
        <time>2011-07-05T17:57:43Z</time>
      </trkpt>
      <trkpt lat="62.875172" lon="12.501928">
        <ele>922.528</ele>
        <time>2011-07-05T17:57:47Z</time>
      </trkpt>
      <trkpt lat="62.875211" lon="12.502028">
        <ele>923.747</ele>
        <time>2011-07-05T17:57:50Z</time>
      </trkpt>
      <trkpt lat="62.875306" lon="12.502213">
        <ele>924.51</ele>
        <time>2011-07-05T17:57:56Z</time>
      </trkpt>
      <trkpt lat="62.875397" lon="12.502355">
        <ele>924.619</ele>
        <time>2011-07-05T17:58:01Z</time>
      </trkpt>
      <trkpt lat="62.875459" lon="12.502424">
        <ele>925.03</ele>
        <time>2011-07-05T17:58:04Z</time>
      </trkpt>
      <trkpt lat="62.875547" lon="12.502461">
        <ele>926.209</ele>
        <time>2011-07-05T17:58:11Z</time>
      </trkpt>
      <trkpt lat="62.875567" lon="12.502494">
        <ele>926.226</ele>
        <time>2011-07-05T17:58:13Z</time>
      </trkpt>
      <trkpt lat="62.875675" lon="12.502643">
        <ele>926.12</ele>
        <time>2011-07-05T17:58:20Z</time>
      </trkpt>
      <trkpt lat="62.875815" lon="12.502774">
        <ele>926.313</ele>
        <time>2011-07-05T17:58:26Z</time>
      </trkpt>
      <trkpt lat="62.875939" lon="12.50278">
        <ele>926.909</ele>
        <time>2011-07-05T17:58:31Z</time>
      </trkpt>
      <trkpt lat="62.876112" lon="12.502828">
        <ele>927.561</ele>
        <time>2011-07-05T17:58:38Z</time>
      </trkpt>
      <trkpt lat="62.876153" lon="12.502866">
        <ele>927.946</ele>
        <time>2011-07-05T17:58:40Z</time>
      </trkpt>
      <trkpt lat="62.876209" lon="12.502852">
        <ele>929.507</ele>
        <time>2011-07-05T17:58:44Z</time>
      </trkpt>
      <trkpt lat="62.876313" lon="12.502881">
        <ele>930.991</ele>
        <time>2011-07-05T17:58:51Z</time>
      </trkpt>
      <trkpt lat="62.876429" lon="12.502913">
        <ele>931.049</ele>
        <time>2011-07-05T17:58:59Z</time>
      </trkpt>
      <trkpt lat="62.876442" lon="12.502905">
        <ele>931.048</ele>
        <time>2011-07-05T17:59:00Z</time>
      </trkpt>
      <trkpt lat="62.876617" lon="12.502999">
        <ele>930.76</ele>
        <time>2011-07-05T17:59:07Z</time>
      </trkpt>
      <trkpt lat="62.8767" lon="12.503063">
        <ele>932.358</ele>
        <time>2011-07-05T17:59:12Z</time>
      </trkpt>
      <trkpt lat="62.876819" lon="12.503189">
        <ele>931.449</ele>
        <time>2011-07-05T17:59:18Z</time>
      </trkpt>
      <trkpt lat="62.876985" lon="12.503268">
        <ele>928.983</ele>
        <time>2011-07-05T17:59:24Z</time>
      </trkpt>
      <trkpt lat="62.877035" lon="12.503264">
        <ele>928.397</ele>
        <time>2011-07-05T17:59:26Z</time>
      </trkpt>
      <trkpt lat="62.877172" lon="12.503354">
        <ele>928.755</ele>
        <time>2011-07-05T17:59:32Z</time>
      </trkpt>
      <trkpt lat="62.877314" lon="12.503409">
        <ele>929.023</ele>
        <time>2011-07-05T17:59:37Z</time>
      </trkpt>
      <trkpt lat="62.877432" lon="12.503433">
        <ele>930.389</ele>
        <time>2011-07-05T17:59:42Z</time>
      </trkpt>
      <trkpt lat="62.877525" lon="12.503508">
        <ele>931.43</ele>
        <time>2011-07-05T17:59:46Z</time>
      </trkpt>
      <trkpt lat="62.877543" lon="12.503526">
        <ele>931.549</ele>
        <time>2011-07-05T17:59:47Z</time>
      </trkpt>
      <trkpt lat="62.877691" lon="12.503504">
        <ele>932.067</ele>
        <time>2011-07-05T17:59:53Z</time>
      </trkpt>
      <trkpt lat="62.877711" lon="12.503503">
        <ele>932.272</ele>
        <time>2011-07-05T17:59:54Z</time>
      </trkpt>
      <trkpt lat="62.877764" lon="12.503665">
        <ele>934.317</ele>
        <time>2011-07-05T17:59:59Z</time>
      </trkpt>
      <trkpt lat="62.877874" lon="12.503677">
        <ele>935.967</ele>
        <time>2011-07-05T18:00:07Z</time>
      </trkpt>
      <trkpt lat="62.877968" lon="12.503715">
        <ele>936.689</ele>
        <time>2011-07-05T18:00:14Z</time>
      </trkpt>
      <trkpt lat="62.878071" lon="12.503774">
        <ele>937.431</ele>
        <time>2011-07-05T18:00:21Z</time>
      </trkpt>
      <trkpt lat="62.878168" lon="12.503815">
        <ele>937.933</ele>
        <time>2011-07-05T18:00:26Z</time>
      </trkpt>
      <trkpt lat="62.878317" lon="12.503882">
        <ele>939.001</ele>
        <time>2011-07-05T18:00:33Z</time>
      </trkpt>
      <trkpt lat="62.878466" lon="12.504013">
        <ele>939.468</ele>
        <time>2011-07-05T18:00:40Z</time>
      </trkpt>
      <trkpt lat="62.878564" lon="12.504056">
        <ele>940.038</ele>
        <time>2011-07-05T18:00:46Z</time>
      </trkpt>
      <trkpt lat="62.878639" lon="12.504116">
        <ele>939.255</ele>
        <time>2011-07-05T18:00:53Z</time>
      </trkpt>
      <trkpt lat="62.878751" lon="12.504178">
        <ele>938.066</ele>
        <time>2011-07-05T18:00:59Z</time>
      </trkpt>
      <trkpt lat="62.878883" lon="12.50419">
        <ele>936.278</ele>
        <time>2011-07-05T18:01:04Z</time>
      </trkpt>
      <trkpt lat="62.878997" lon="12.504185">
        <ele>936.273</ele>
        <time>2011-07-05T18:01:09Z</time>
      </trkpt>
      <trkpt lat="62.879127" lon="12.504285">
        <ele>935.601</ele>
        <time>2011-07-05T18:01:15Z</time>
      </trkpt>
      <trkpt lat="62.879204" lon="12.504315">
        <ele>936.109</ele>
        <time>2011-07-05T18:01:21Z</time>
      </trkpt>
      <trkpt lat="62.87922" lon="12.504335">
        <ele>936.375</ele>
        <time>2011-07-05T18:01:23Z</time>
      </trkpt>
      <trkpt lat="62.879298" lon="12.504373">
        <ele>938.057</ele>
        <time>2011-07-05T18:01:32Z</time>
      </trkpt>
      <trkpt lat="62.879305" lon="12.504379">
        <ele>938.318</ele>
        <time>2011-07-05T18:01:33Z</time>
      </trkpt>
      <trkpt lat="62.879343" lon="12.504408">
        <ele>939.534</ele>
        <time>2011-07-05T18:01:38Z</time>
      </trkpt>
      <trkpt lat="62.87943" lon="12.504387">
        <ele>941.891</ele>
        <time>2011-07-05T18:01:48Z</time>
      </trkpt>
      <trkpt lat="62.879453" lon="12.504398">
        <ele>943.007</ele>
        <time>2011-07-05T18:01:52Z</time>
      </trkpt>
      <trkpt lat="62.879482" lon="12.504417">
        <ele>944.248</ele>
        <time>2011-07-05T18:01:56Z</time>
      </trkpt>
      <trkpt lat="62.879556" lon="12.504471">
        <ele>945.787</ele>
        <time>2011-07-05T18:02:04Z</time>
      </trkpt>
      <trkpt lat="62.879672" lon="12.504573">
        <ele>946.816</ele>
        <time>2011-07-05T18:02:14Z</time>
      </trkpt>
      <trkpt lat="62.879785" lon="12.504623">
        <ele>946.729</ele>
        <time>2011-07-05T18:02:23Z</time>
      </trkpt>
      <trkpt lat="62.879901" lon="12.504677">
        <ele>947.235</ele>
        <time>2011-07-05T18:02:32Z</time>
      </trkpt>
      <trkpt lat="62.880006" lon="12.50473">
        <ele>947.455</ele>
        <time>2011-07-05T18:02:40Z</time>
      </trkpt>
      <trkpt lat="62.880097" lon="12.504793">
        <ele>947.148</ele>
        <time>2011-07-05T18:02:47Z</time>
      </trkpt>
      <trkpt lat="62.880199" lon="12.504832">
        <ele>946.519</ele>
        <time>2011-07-05T18:02:55Z</time>
      </trkpt>
      <trkpt lat="62.880282" lon="12.504882">
        <ele>945.668</ele>
        <time>2011-07-05T18:03:02Z</time>
      </trkpt>
      <trkpt lat="62.880389" lon="12.504943">
        <ele>945.264</ele>
        <time>2011-07-05T18:03:11Z</time>
      </trkpt>
      <trkpt lat="62.880496" lon="12.50499">
        <ele>944.956</ele>
        <time>2011-07-05T18:03:19Z</time>
      </trkpt>
      <trkpt lat="62.880576" lon="12.50503">
        <ele>944.392</ele>
        <time>2011-07-05T18:03:25Z</time>
      </trkpt>
      <trkpt lat="62.880679" lon="12.505069">
        <ele>943.562</ele>
        <time>2011-07-05T18:03:29Z</time>
      </trkpt>
      <trkpt lat="62.88084" lon="12.505082">
        <ele>941.93</ele>
        <time>2011-07-05T18:03:35Z</time>
      </trkpt>
      <trkpt lat="62.880962" lon="12.505098">
        <ele>941.419</ele>
        <time>2011-07-05T18:03:40Z</time>
      </trkpt>
      <trkpt lat="62.881005" lon="12.505138">
        <ele>941.455</ele>
        <time>2011-07-05T18:03:42Z</time>
      </trkpt>
      <trkpt lat="62.881131" lon="12.505266">
        <ele>941.747</ele>
        <time>2011-07-05T18:03:48Z</time>
      </trkpt>
      <trkpt lat="62.881162" lon="12.50534">
        <ele>941.735</ele>
        <time>2011-07-05T18:03:50Z</time>
      </trkpt>
      <trkpt lat="62.881264" lon="12.505514">
        <ele>940.283</ele>
        <time>2011-07-05T18:03:56Z</time>
      </trkpt>
      <trkpt lat="62.88127" lon="12.505522">
        <ele>940.153</ele>
        <time>2011-07-05T18:03:58Z</time>
      </trkpt>
      <trkpt lat="62.88124" lon="12.505453">
        <ele>940.316</ele>
        <time>2011-07-05T18:04:15Z</time>
      </trkpt>
      <trkpt lat="62.881311" lon="12.505483">
        <ele>939.859</ele>
        <time>2011-07-05T18:04:20Z</time>
      </trkpt>
      <trkpt lat="62.88129" lon="12.505509">
        <ele>939.974</ele>
        <time>2011-07-05T18:04:24Z</time>
      </trkpt>
      <trkpt lat="62.881353" lon="12.5055">
        <ele>940.17</ele>
        <time>2011-07-05T18:04:30Z</time>
      </trkpt>
      <trkpt lat="62.881376" lon="12.505519">
        <ele>940.384</ele>
        <time>2011-07-05T18:04:32Z</time>
      </trkpt>
      <trkpt lat="62.881472" lon="12.505586">
        <ele>940.675</ele>
        <time>2011-07-05T18:04:41Z</time>
      </trkpt>
      <trkpt lat="62.881501" lon="12.505594">
        <ele>941.118</ele>
        <time>2011-07-05T18:04:45Z</time>
      </trkpt>
      <trkpt lat="62.881549" lon="12.505602">
        <ele>941.787</ele>
        <time>2011-07-05T18:04:54Z</time>
      </trkpt>
      <trkpt lat="62.881713" lon="12.505588">
        <ele>943.764</ele>
        <time>2011-07-05T18:05:02Z</time>
      </trkpt>
      <trkpt lat="62.881732" lon="12.505575">
        <ele>944.147</ele>
        <time>2011-07-05T18:05:03Z</time>
      </trkpt>
      <trkpt lat="62.881857" lon="12.505698">
        <ele>945.801</ele>
        <time>2011-07-05T18:05:10Z</time>
      </trkpt>
      <trkpt lat="62.881901" lon="12.505754">
        <ele>946.848</ele>
        <time>2011-07-05T18:05:13Z</time>
      </trkpt>
      <trkpt lat="62.881946" lon="12.505773">
        <ele>948.972</ele>
        <time>2011-07-05T18:05:17Z</time>
      </trkpt>
      <trkpt lat="62.881992" lon="12.505784">
        <ele>950.751</ele>
        <time>2011-07-05T18:05:24Z</time>
      </trkpt>
      <trkpt lat="62.881911" lon="12.505764">
        <ele>949.32</ele>
        <time>2011-07-05T18:05:34Z</time>
      </trkpt>
      <trkpt lat="62.881896" lon="12.505745">
        <ele>947.695</ele>
        <time>2011-07-05T18:05:37Z</time>
      </trkpt>
      <trkpt lat="62.881907" lon="12.505751">
        <ele>947.621</ele>
        <time>2011-07-05T18:05:39Z</time>
      </trkpt>
      <trkpt lat="62.881999" lon="12.505773">
        <ele>950.469</ele>
        <time>2011-07-05T18:05:45Z</time>
      </trkpt>
      <trkpt lat="62.881992" lon="12.505789">
        <ele>950.699</ele>
        <time>2011-07-05T18:05:49Z</time>
      </trkpt>
      <trkpt lat="62.882077" lon="12.505802">
        <ele>950.473</ele>
        <time>2011-07-05T18:05:54Z</time>
      </trkpt>
      <trkpt lat="62.882248" lon="12.505848">
        <ele>949.452</ele>
        <time>2011-07-05T18:06:01Z</time>
      </trkpt>
      <trkpt lat="62.882302" lon="12.505849">
        <ele>948.776</ele>
        <time>2011-07-05T18:06:03Z</time>
      </trkpt>
      <trkpt lat="62.882397" lon="12.505777">
        <ele>949.071</ele>
        <time>2011-07-05T18:06:07Z</time>
      </trkpt>
      <trkpt lat="62.882529" lon="12.505695">
        <ele>949.241</ele>
        <time>2011-07-05T18:06:12Z</time>
      </trkpt>
      <trkpt lat="62.882623" lon="12.505723">
        <ele>950.184</ele>
        <time>2011-07-05T18:06:16Z</time>
      </trkpt>
      <trkpt lat="62.882678" lon="12.50573">
        <ele>950.133</ele>
        <time>2011-07-05T18:06:18Z</time>
      </trkpt>
      <trkpt lat="62.882758" lon="12.505956">
        <ele>950.104</ele>
        <time>2011-07-05T18:06:23Z</time>
      </trkpt>
      <trkpt lat="62.882845" lon="12.506241">
        <ele>951.689</ele>
        <time>2011-07-05T18:06:30Z</time>
      </trkpt>
      <trkpt lat="62.882965" lon="12.506331">
        <ele>951.847</ele>
        <time>2011-07-05T18:06:35Z</time>
      </trkpt>
      <trkpt lat="62.88305" lon="12.506388">
        <ele>951.994</ele>
        <time>2011-07-05T18:06:39Z</time>
      </trkpt>
      <trkpt lat="62.883069" lon="12.50638">
        <ele>952.04</ele>
        <time>2011-07-05T18:06:40Z</time>
      </trkpt>
      <trkpt lat="62.883171" lon="12.506458">
        <ele>954.445</ele>
        <time>2011-07-05T18:06:46Z</time>
      </trkpt>
      <trkpt lat="62.883261" lon="12.506519">
        <ele>955.782</ele>
        <time>2011-07-05T18:06:51Z</time>
      </trkpt>
      <trkpt lat="62.883415" lon="12.506545">
        <ele>957.423</ele>
        <time>2011-07-05T18:06:58Z</time>
      </trkpt>
      <trkpt lat="62.883525" lon="12.506642">
        <ele>959.482</ele>
        <time>2011-07-05T18:07:05Z</time>
      </trkpt>
      <trkpt lat="62.883675" lon="12.506648">
        <ele>960.039</ele>
        <time>2011-07-05T18:07:15Z</time>
      </trkpt>
      <trkpt lat="62.883789" lon="12.506681">
        <ele>959.657</ele>
        <time>2011-07-05T18:07:22Z</time>
      </trkpt>
      <trkpt lat="62.883891" lon="12.506704">
        <ele>959.817</ele>
        <time>2011-07-05T18:07:29Z</time>
      </trkpt>
      <trkpt lat="62.884003" lon="12.506776">
        <ele>959.959</ele>
        <time>2011-07-05T18:07:35Z</time>
      </trkpt>
      <trkpt lat="62.884121" lon="12.506824">
        <ele>959.908</ele>
        <time>2011-07-05T18:07:40Z</time>
      </trkpt>
      <trkpt lat="62.884215" lon="12.506844">
        <ele>960.228</ele>
        <time>2011-07-05T18:07:44Z</time>
      </trkpt>
      <trkpt lat="62.884282" lon="12.506914">
        <ele>960.591</ele>
        <time>2011-07-05T18:07:49Z</time>
      </trkpt>
      <trkpt lat="62.884398" lon="12.506955">
        <ele>960.945</ele>
        <time>2011-07-05T18:07:54Z</time>
      </trkpt>
      <trkpt lat="62.884425" lon="12.50695">
        <ele>960.844</ele>
        <time>2011-07-05T18:07:55Z</time>
      </trkpt>
      <trkpt lat="62.884471" lon="12.506931">
        <ele>960.954</ele>
        <time>2011-07-05T18:07:57Z</time>
      </trkpt>
      <trkpt lat="62.884595" lon="12.507016">
        <ele>962.331</ele>
        <time>2011-07-05T18:08:03Z</time>
      </trkpt>
      <trkpt lat="62.88467" lon="12.506996">
        <ele>962.971</ele>
        <time>2011-07-05T18:08:06Z</time>
      </trkpt>
      <trkpt lat="62.884715" lon="12.506986">
        <ele>964.215</ele>
        <time>2011-07-05T18:08:10Z</time>
      </trkpt>
      <trkpt lat="62.884786" lon="12.507064">
        <ele>966.956</ele>
        <time>2011-07-05T18:08:18Z</time>
      </trkpt>
      <trkpt lat="62.884857" lon="12.507138">
        <ele>968.362</ele>
        <time>2011-07-05T18:08:25Z</time>
      </trkpt>
      <trkpt lat="62.884877" lon="12.507191">
        <ele>969.312</ele>
        <time>2011-07-05T18:08:29Z</time>
      </trkpt>
      <trkpt lat="62.884928" lon="12.50723">
        <ele>970.268</ele>
        <time>2011-07-05T18:08:33Z</time>
      </trkpt>
      <trkpt lat="62.884978" lon="12.507243">
        <ele>970.763</ele>
        <time>2011-07-05T18:08:37Z</time>
      </trkpt>
      <trkpt lat="62.885002" lon="12.507237">
        <ele>971.092</ele>
        <time>2011-07-05T18:08:39Z</time>
      </trkpt>
      <trkpt lat="62.885056" lon="12.507317">
        <ele>971.753</ele>
        <time>2011-07-05T18:08:45Z</time>
      </trkpt>
      <trkpt lat="62.885099" lon="12.50747">
        <ele>973.154</ele>
        <time>2011-07-05T18:08:52Z</time>
      </trkpt>
      <trkpt lat="62.88513" lon="12.507519">
        <ele>973.755</ele>
        <time>2011-07-05T18:08:54Z</time>
      </trkpt>
      <trkpt lat="62.885233" lon="12.507463">
        <ele>975.368</ele>
        <time>2011-07-05T18:09:00Z</time>
      </trkpt>
      <trkpt lat="62.885317" lon="12.507452">
        <ele>975.273</ele>
        <time>2011-07-05T18:09:04Z</time>
      </trkpt>
      <trkpt lat="62.885456" lon="12.507459">
        <ele>976.601</ele>
        <time>2011-07-05T18:09:11Z</time>
      </trkpt>
      <trkpt lat="62.88552" lon="12.50752">
        <ele>977.682</ele>
        <time>2011-07-05T18:09:16Z</time>
      </trkpt>
      <trkpt lat="62.885586" lon="12.507566">
        <ele>977.825</ele>
        <time>2011-07-05T18:09:20Z</time>
      </trkpt>
      <trkpt lat="62.885681" lon="12.507591">
        <ele>978.739</ele>
        <time>2011-07-05T18:09:26Z</time>
      </trkpt>
      <trkpt lat="62.885791" lon="12.50759">
        <ele>979.224</ele>
        <time>2011-07-05T18:09:34Z</time>
      </trkpt>
      <trkpt lat="62.885883" lon="12.507698">
        <ele>979.651</ele>
        <time>2011-07-05T18:09:42Z</time>
      </trkpt>
      <trkpt lat="62.885945" lon="12.507733">
        <ele>979.758</ele>
        <time>2011-07-05T18:09:47Z</time>
      </trkpt>
      <trkpt lat="62.886" lon="12.507796">
        <ele>980.59</ele>
        <time>2011-07-05T18:09:54Z</time>
      </trkpt>
      <trkpt lat="62.886036" lon="12.507794">
        <ele>981.461</ele>
        <time>2011-07-05T18:09:58Z</time>
      </trkpt>
      <trkpt lat="62.886115" lon="12.507885">
        <ele>981.875</ele>
        <time>2011-07-05T18:10:05Z</time>
      </trkpt>
      <trkpt lat="62.886135" lon="12.507921">
        <ele>982.172</ele>
        <time>2011-07-05T18:10:07Z</time>
      </trkpt>
      <trkpt lat="62.88625" lon="12.507942">
        <ele>983.337</ele>
        <time>2011-07-05T18:10:15Z</time>
      </trkpt>
      <trkpt lat="62.886337" lon="12.507948">
        <ele>984.189</ele>
        <time>2011-07-05T18:10:22Z</time>
      </trkpt>
      <trkpt lat="62.886363" lon="12.507956">
        <ele>984.488</ele>
        <time>2011-07-05T18:10:24Z</time>
      </trkpt>
      <trkpt lat="62.886427" lon="12.507974">
        <ele>985.421</ele>
        <time>2011-07-05T18:10:29Z</time>
      </trkpt>
      <trkpt lat="62.886555" lon="12.507997">
        <ele>986.591</ele>
        <time>2011-07-05T18:10:38Z</time>
      </trkpt>
      <trkpt lat="62.886674" lon="12.508076">
        <ele>987.866</ele>
        <time>2011-07-05T18:10:45Z</time>
      </trkpt>
      <trkpt lat="62.886807" lon="12.508169">
        <ele>988.919</ele>
        <time>2011-07-05T18:10:53Z</time>
      </trkpt>
      <trkpt lat="62.886874" lon="12.508195">
        <ele>989.307</ele>
        <time>2011-07-05T18:10:58Z</time>
      </trkpt>
      <trkpt lat="62.886942" lon="12.508243">
        <ele>989.6</ele>
        <time>2011-07-05T18:11:03Z</time>
      </trkpt>
      <trkpt lat="62.886986" lon="12.508239">
        <ele>990.221</ele>
        <time>2011-07-05T18:11:05Z</time>
      </trkpt>
      <trkpt lat="62.887137" lon="12.508368">
        <ele>991.066</ele>
        <time>2011-07-05T18:11:11Z</time>
      </trkpt>
      <trkpt lat="62.887164" lon="12.508387">
        <ele>991.13</ele>
        <time>2011-07-05T18:11:12Z</time>
      </trkpt>
      <trkpt lat="62.88732" lon="12.508391">
        <ele>993.369</ele>
        <time>2011-07-05T18:11:19Z</time>
      </trkpt>
      <trkpt lat="62.887336" lon="12.508388">
        <ele>993.721</ele>
        <time>2011-07-05T18:11:20Z</time>
      </trkpt>
      <trkpt lat="62.887428" lon="12.50837">
        <ele>994.911</ele>
        <time>2011-07-05T18:11:25Z</time>
      </trkpt>
      <trkpt lat="62.887488" lon="12.508385">
        <ele>996.168</ele>
        <time>2011-07-05T18:11:28Z</time>
      </trkpt>
      <trkpt lat="62.88762" lon="12.508335">
        <ele>997.38</ele>
        <time>2011-07-05T18:11:34Z</time>
      </trkpt>
      <trkpt lat="62.887687" lon="12.50829">
        <ele>997.884</ele>
        <time>2011-07-05T18:11:38Z</time>
      </trkpt>
      <trkpt lat="62.887699" lon="12.508289">
        <ele>998.113</ele>
        <time>2011-07-05T18:11:39Z</time>
      </trkpt>
      <trkpt lat="62.887797" lon="12.508215">
        <ele>999.051</ele>
        <time>2011-07-05T18:11:46Z</time>
      </trkpt>
      <trkpt lat="62.887872" lon="12.508281">
        <ele>999.682</ele>
        <time>2011-07-05T18:11:51Z</time>
      </trkpt>
      <trkpt lat="62.887921" lon="12.508332">
        <ele>1000.23</ele>
        <time>2011-07-05T18:11:55Z</time>
      </trkpt>
      <trkpt lat="62.888041" lon="12.508484">
        <ele>1000.91</ele>
        <time>2011-07-05T18:12:04Z</time>
      </trkpt>
      <trkpt lat="62.888035" lon="12.508582">
        <ele>1001.71</ele>
        <time>2011-07-05T18:12:08Z</time>
      </trkpt>
      <trkpt lat="62.88809" lon="12.508713">
        <ele>1002.49</ele>
        <time>2011-07-05T18:12:14Z</time>
      </trkpt>
      <trkpt lat="62.888152" lon="12.508751">
        <ele>1003.12</ele>
        <time>2011-07-05T18:12:20Z</time>
      </trkpt>
      <trkpt lat="62.88822" lon="12.508748">
        <ele>1004.17</ele>
        <time>2011-07-05T18:12:24Z</time>
      </trkpt>
      <trkpt lat="62.888297" lon="12.508837">
        <ele>1006.01</ele>
        <time>2011-07-05T18:12:31Z</time>
      </trkpt>
      <trkpt lat="62.888308" lon="12.508886">
        <ele>1006.2</ele>
        <time>2011-07-05T18:12:33Z</time>
      </trkpt>
      <trkpt lat="62.888334" lon="12.508919">
        <ele>1006.4</ele>
        <time>2011-07-05T18:12:36Z</time>
      </trkpt>
      <trkpt lat="62.888435" lon="12.50898">
        <ele>1008.28</ele>
        <time>2011-07-05T18:12:44Z</time>
      </trkpt>
      <trkpt lat="62.888529" lon="12.509009">
        <ele>1009.12</ele>
        <time>2011-07-05T18:12:50Z</time>
      </trkpt>
      <trkpt lat="62.888542" lon="12.509028">
        <ele>1009.3</ele>
        <time>2011-07-05T18:12:51Z</time>
      </trkpt>
      <trkpt lat="62.888644" lon="12.509228">
        <ele>1010.43</ele>
        <time>2011-07-05T18:13:00Z</time>
      </trkpt>
      <trkpt lat="62.888729" lon="12.509308">
        <ele>1011.28</ele>
        <time>2011-07-05T18:13:06Z</time>
      </trkpt>
      <trkpt lat="62.888742" lon="12.509329">
        <ele>1011.52</ele>
        <time>2011-07-05T18:13:07Z</time>
      </trkpt>
      <trkpt lat="62.888869" lon="12.509378">
        <ele>1013.33</ele>
        <time>2011-07-05T18:13:15Z</time>
      </trkpt>
      <trkpt lat="62.888921" lon="12.509363">
        <ele>1013.79</ele>
        <time>2011-07-05T18:13:18Z</time>
      </trkpt>
      <trkpt lat="62.888987" lon="12.509367">
        <ele>1014.78</ele>
        <time>2011-07-05T18:13:22Z</time>
      </trkpt>
      <trkpt lat="62.88911" lon="12.509329">
        <ele>1016.6</ele>
        <time>2011-07-05T18:13:31Z</time>
      </trkpt>
      <trkpt lat="62.889199" lon="12.50928">
        <ele>1018.91</ele>
        <time>2011-07-05T18:13:38Z</time>
      </trkpt>
      <trkpt lat="62.889207" lon="12.509273">
        <ele>1019.06</ele>
        <time>2011-07-05T18:13:39Z</time>
      </trkpt>
      <trkpt lat="62.889306" lon="12.50933">
        <ele>1021.68</ele>
        <time>2011-07-05T18:13:48Z</time>
      </trkpt>
      <trkpt lat="62.889396" lon="12.509409">
        <ele>1022.95</ele>
        <time>2011-07-05T18:13:55Z</time>
      </trkpt>
      <trkpt lat="62.889407" lon="12.50942">
        <ele>1023.14</ele>
        <time>2011-07-05T18:13:56Z</time>
      </trkpt>
      <trkpt lat="62.889488" lon="12.509432">
        <ele>1025.1</ele>
        <time>2011-07-05T18:14:03Z</time>
      </trkpt>
      <trkpt lat="62.889512" lon="12.509471">
        <ele>1025.81</ele>
        <time>2011-07-05T18:14:05Z</time>
      </trkpt>
      <trkpt lat="62.889558" lon="12.509536">
        <ele>1027.28</ele>
        <time>2011-07-05T18:14:12Z</time>
      </trkpt>
      <trkpt lat="62.889664" lon="12.509634">
        <ele>1029.05</ele>
        <time>2011-07-05T18:14:20Z</time>
      </trkpt>
      <trkpt lat="62.889767" lon="12.509728">
        <ele>1030.13</ele>
        <time>2011-07-05T18:14:27Z</time>
      </trkpt>
      <trkpt lat="62.889852" lon="12.509719">
        <ele>1030.58</ele>
        <time>2011-07-05T18:14:33Z</time>
      </trkpt>
      <trkpt lat="62.889995" lon="12.509743">
        <ele>1032.24</ele>
        <time>2011-07-05T18:14:42Z</time>
      </trkpt>
      <trkpt lat="62.890131" lon="12.509787">
        <ele>1033.34</ele>
        <time>2011-07-05T18:14:49Z</time>
      </trkpt>
      <trkpt lat="62.890125" lon="12.509819">
        <ele>1033.92</ele>
        <time>2011-07-05T18:14:51Z</time>
      </trkpt>
      <trkpt lat="62.890192" lon="12.509817">
        <ele>1035.76</ele>
        <time>2011-07-05T18:14:59Z</time>
      </trkpt>
      <trkpt lat="62.890217" lon="12.509813">
        <ele>1036.3</ele>
        <time>2011-07-05T18:15:02Z</time>
      </trkpt>
      <trkpt lat="62.890306" lon="12.509839">
        <ele>1037.39</ele>
        <time>2011-07-05T18:15:09Z</time>
      </trkpt>
      <trkpt lat="62.890359" lon="12.509863">
        <ele>1038.28</ele>
        <time>2011-07-05T18:15:14Z</time>
      </trkpt>
      <trkpt lat="62.89037" lon="12.50988">
        <ele>1038.62</ele>
        <time>2011-07-05T18:15:16Z</time>
      </trkpt>
      <trkpt lat="62.890382" lon="12.50997">
        <ele>1040.41</ele>
        <time>2011-07-05T18:15:21Z</time>
      </trkpt>
      <trkpt lat="62.890518" lon="12.510004">
        <ele>1043.16</ele>
        <time>2011-07-05T18:15:30Z</time>
      </trkpt>
      <trkpt lat="62.890611" lon="12.510029">
        <ele>1044.38</ele>
        <time>2011-07-05T18:15:37Z</time>
      </trkpt>
      <trkpt lat="62.890646" lon="12.51001">
        <ele>1045.42</ele>
        <time>2011-07-05T18:15:41Z</time>
      </trkpt>
      <trkpt lat="62.890784" lon="12.51004">
        <ele>1046.54</ele>
        <time>2011-07-05T18:15:48Z</time>
      </trkpt>
      <trkpt lat="62.890849" lon="12.510099">
        <ele>1047.91</ele>
        <time>2011-07-05T18:15:53Z</time>
      </trkpt>
      <trkpt lat="62.890903" lon="12.510172">
        <ele>1049.27</ele>
        <time>2011-07-05T18:15:58Z</time>
      </trkpt>
      <trkpt lat="62.891046" lon="12.510209">
        <ele>1051.59</ele>
        <time>2011-07-05T18:16:09Z</time>
      </trkpt>
      <trkpt lat="62.891099" lon="12.510227">
        <ele>1052.45</ele>
        <time>2011-07-05T18:16:13Z</time>
      </trkpt>
      <trkpt lat="62.891143" lon="12.510294">
        <ele>1053.5</ele>
        <time>2011-07-05T18:16:18Z</time>
      </trkpt>
      <trkpt lat="62.891224" lon="12.510392">
        <ele>1055.4</ele>
        <time>2011-07-05T18:16:26Z</time>
      </trkpt>
      <trkpt lat="62.89128" lon="12.51043">
        <ele>1056.32</ele>
        <time>2011-07-05T18:16:31Z</time>
      </trkpt>
      <trkpt lat="62.891358" lon="12.510422">
        <ele>1057.73</ele>
        <time>2011-07-05T18:16:38Z</time>
      </trkpt>
      <trkpt lat="62.891435" lon="12.510478">
        <ele>1059.45</ele>
        <time>2011-07-05T18:16:45Z</time>
      </trkpt>
      <trkpt lat="62.891519" lon="12.510537">
        <ele>1061.57</ele>
        <time>2011-07-05T18:16:53Z</time>
      </trkpt>
      <trkpt lat="62.891568" lon="12.510537">
        <ele>1063.15</ele>
        <time>2011-07-05T18:16:58Z</time>
      </trkpt>
      <trkpt lat="62.891638" lon="12.510462">
        <ele>1064.01</ele>
        <time>2011-07-05T18:17:05Z</time>
      </trkpt>
      <trkpt lat="62.891657" lon="12.510497">
        <ele>1065.19</ele>
        <time>2011-07-05T18:17:09Z</time>
      </trkpt>
      <trkpt lat="62.891704" lon="12.510535">
        <ele>1066.88</ele>
        <time>2011-07-05T18:17:14Z</time>
      </trkpt>
      <trkpt lat="62.891778" lon="12.510585">
        <ele>1068.22</ele>
        <time>2011-07-05T18:17:20Z</time>
      </trkpt>
      <trkpt lat="62.891821" lon="12.510626">
        <ele>1069.29</ele>
        <time>2011-07-05T18:17:24Z</time>
      </trkpt>
      <trkpt lat="62.891934" lon="12.510657">
        <ele>1071.32</ele>
        <time>2011-07-05T18:17:34Z</time>
      </trkpt>
      <trkpt lat="62.892036" lon="12.510751">
        <ele>1071.98</ele>
        <time>2011-07-05T18:17:42Z</time>
      </trkpt>
      <trkpt lat="62.892095" lon="12.510733">
        <ele>1073.05</ele>
        <time>2011-07-05T18:17:48Z</time>
      </trkpt>
      <trkpt lat="62.892139" lon="12.510704">
        <ele>1074.24</ele>
        <time>2011-07-05T18:17:52Z</time>
      </trkpt>
      <trkpt lat="62.892267" lon="12.510775">
        <ele>1075.57</ele>
        <time>2011-07-05T18:18:01Z</time>
      </trkpt>
      <trkpt lat="62.89241" lon="12.510831">
        <ele>1076.07</ele>
        <time>2011-07-05T18:18:08Z</time>
      </trkpt>
      <trkpt lat="62.892484" lon="12.510923">
        <ele>1076.93</ele>
        <time>2011-07-05T18:18:13Z</time>
      </trkpt>
      <trkpt lat="62.892631" lon="12.510996">
        <ele>1077.76</ele>
        <time>2011-07-05T18:18:20Z</time>
      </trkpt>
      <trkpt lat="62.892639" lon="12.511012">
        <ele>1078.07</ele>
        <time>2011-07-05T18:18:21Z</time>
      </trkpt>
      <trkpt lat="62.892669" lon="12.511114">
        <ele>1079.72</ele>
        <time>2011-07-05T18:18:26Z</time>
      </trkpt>
      <trkpt lat="62.89273" lon="12.511149">
        <ele>1081.35</ele>
        <time>2011-07-05T18:18:31Z</time>
      </trkpt>
      <trkpt lat="62.892863" lon="12.511239">
        <ele>1083.97</ele>
        <time>2011-07-05T18:18:41Z</time>
      </trkpt>
      <trkpt lat="62.89293" lon="12.511254">
        <ele>1085.61</ele>
        <time>2011-07-05T18:18:47Z</time>
      </trkpt>
      <trkpt lat="62.893043" lon="12.511286">
        <ele>1085.95</ele>
        <time>2011-07-05T18:18:55Z</time>
      </trkpt>
      <trkpt lat="62.893161" lon="12.511265">
        <ele>1086.94</ele>
        <time>2011-07-05T18:19:03Z</time>
      </trkpt>
      <trkpt lat="62.893269" lon="12.511307">
        <ele>1088.64</ele>
        <time>2011-07-05T18:19:11Z</time>
      </trkpt>
      <trkpt lat="62.893281" lon="12.511336">
        <ele>1090.69</ele>
        <time>2011-07-05T18:19:17Z</time>
      </trkpt>
      <trkpt lat="62.89329" lon="12.511339">
        <ele>1091.21</ele>
        <time>2011-07-05T18:19:18Z</time>
      </trkpt>
      <trkpt lat="62.893391" lon="12.511377">
        <ele>1094.16</ele>
        <time>2011-07-05T18:19:28Z</time>
      </trkpt>
      <trkpt lat="62.893498" lon="12.51142">
        <ele>1094.2</ele>
        <time>2011-07-05T18:19:36Z</time>
      </trkpt>
      <trkpt lat="62.893601" lon="12.511483">
        <ele>1094.52</ele>
        <time>2011-07-05T18:19:42Z</time>
      </trkpt>
      <trkpt lat="62.893688" lon="12.511635">
        <ele>1096.29</ele>
        <time>2011-07-05T18:19:48Z</time>
      </trkpt>
      <trkpt lat="62.893705" lon="12.511666">
        <ele>1096.45</ele>
        <time>2011-07-05T18:19:49Z</time>
      </trkpt>
      <trkpt lat="62.893797" lon="12.511739">
        <ele>1096.19</ele>
        <time>2011-07-05T18:19:55Z</time>
      </trkpt>
      <trkpt lat="62.893859" lon="12.511845">
        <ele>1096.6</ele>
        <time>2011-07-05T18:20:03Z</time>
      </trkpt>
      <trkpt lat="62.893858" lon="12.511846">
        <ele>1096.7</ele>
        <time>2011-07-05T18:20:04Z</time>
      </trkpt>
      <trkpt lat="62.893938" lon="12.51199">
        <ele>1096.3</ele>
        <time>2011-07-05T18:20:26Z</time>
      </trkpt>
      <trkpt lat="62.894063" lon="12.512115">
        <ele>1097.43</ele>
        <time>2011-07-05T18:20:32Z</time>
      </trkpt>
      <trkpt lat="62.894134" lon="12.512031">
        <ele>1098.59</ele>
        <time>2011-07-05T18:20:38Z</time>
      </trkpt>
      <trkpt lat="62.894223" lon="12.512084">
        <ele>1098.53</ele>
        <time>2011-07-05T18:20:44Z</time>
      </trkpt>
      <trkpt lat="62.894262" lon="12.512108">
        <ele>1098.88</ele>
        <time>2011-07-05T18:20:47Z</time>
      </trkpt>
      <trkpt lat="62.894296" lon="12.512119">
        <ele>1099.48</ele>
        <time>2011-07-05T18:20:49Z</time>
      </trkpt>
      <trkpt lat="62.894399" lon="12.512205">
        <ele>1101.09</ele>
        <time>2011-07-05T18:20:57Z</time>
      </trkpt>
      <trkpt lat="62.89446" lon="12.512227">
        <ele>1101.84</ele>
        <time>2011-07-05T18:21:03Z</time>
      </trkpt>
      <trkpt lat="62.894479" lon="12.512198">
        <ele>1102.56</ele>
        <time>2011-07-05T18:21:07Z</time>
      </trkpt>
      <trkpt lat="62.894486" lon="12.512283">
        <ele>1103.15</ele>
        <time>2011-07-05T18:21:14Z</time>
      </trkpt>
      <trkpt lat="62.894571" lon="12.512378">
        <ele>1104.05</ele>
        <time>2011-07-05T18:21:33Z</time>
      </trkpt>
      <trkpt lat="62.894617" lon="12.512457">
        <ele>1105.04</ele>
        <time>2011-07-05T18:21:38Z</time>
      </trkpt>
      <trkpt lat="62.894716" lon="12.512573">
        <ele>1106.22</ele>
        <time>2011-07-05T18:21:48Z</time>
      </trkpt>
      <trkpt lat="62.894825" lon="12.512659">
        <ele>1107.06</ele>
        <time>2011-07-05T18:21:55Z</time>
      </trkpt>
      <trkpt lat="62.894952" lon="12.512748">
        <ele>1107.67</ele>
        <time>2011-07-05T18:22:04Z</time>
      </trkpt>
      <trkpt lat="62.895121" lon="12.512862">
        <ele>1109.16</ele>
        <time>2011-07-05T18:22:11Z</time>
      </trkpt>
      <trkpt lat="62.895254" lon="12.512927">
        <ele>1110.85</ele>
        <time>2011-07-05T18:22:17Z</time>
      </trkpt>
      <trkpt lat="62.895345" lon="12.512983">
        <ele>1111.62</ele>
        <time>2011-07-05T18:22:23Z</time>
      </trkpt>
      <trkpt lat="62.895436" lon="12.513021">
        <ele>1110.83</ele>
        <time>2011-07-05T18:22:31Z</time>
      </trkpt>
      <trkpt lat="62.895496" lon="12.51307">
        <ele>1109.24</ele>
        <time>2011-07-05T18:22:37Z</time>
      </trkpt>
      <trkpt lat="62.895507" lon="12.513081">
        <ele>1109.11</ele>
        <time>2011-07-05T18:22:38Z</time>
      </trkpt>
      <trkpt lat="62.895585" lon="12.513084">
        <ele>1108.5</ele>
        <time>2011-07-05T18:22:42Z</time>
      </trkpt>
      <trkpt lat="62.895774" lon="12.513189">
        <ele>1109.29</ele>
        <time>2011-07-05T18:22:49Z</time>
      </trkpt>
      <trkpt lat="62.895922" lon="12.513349">
        <ele>1111.71</ele>
        <time>2011-07-05T18:22:56Z</time>
      </trkpt>
      <trkpt lat="62.896077" lon="12.513452">
        <ele>1112.11</ele>
        <time>2011-07-05T18:23:02Z</time>
      </trkpt>
      <trkpt lat="62.896147" lon="12.513531">
        <ele>1111.94</ele>
        <time>2011-07-05T18:23:07Z</time>
      </trkpt>
      <trkpt lat="62.896232" lon="12.513645">
        <ele>1111.23</ele>
        <time>2011-07-05T18:23:15Z</time>
      </trkpt>
      <trkpt lat="62.896392" lon="12.513738">
        <ele>1110.69</ele>
        <time>2011-07-05T18:23:21Z</time>
      </trkpt>
      <trkpt lat="62.896455" lon="12.513787">
        <ele>1111.07</ele>
        <time>2011-07-05T18:23:25Z</time>
      </trkpt>
      <trkpt lat="62.896591" lon="12.513926">
        <ele>1111.11</ele>
        <time>2011-07-05T18:23:35Z</time>
      </trkpt>
      <trkpt lat="62.896695" lon="12.514014">
        <ele>1110.25</ele>
        <time>2011-07-05T18:23:42Z</time>
      </trkpt>
      <trkpt lat="62.896711" lon="12.514029">
        <ele>1110.09</ele>
        <time>2011-07-05T18:23:43Z</time>
      </trkpt>
      <trkpt lat="62.896749" lon="12.514061">
        <ele>1109.85</ele>
        <time>2011-07-05T18:23:47Z</time>
      </trkpt>
      <trkpt lat="62.896787" lon="12.51417">
        <ele>1108.65</ele>
        <time>2011-07-05T18:23:53Z</time>
      </trkpt>
      <trkpt lat="62.896791" lon="12.514172">
        <ele>1108.91</ele>
        <time>2011-07-05T18:23:54Z</time>
      </trkpt>
      <trkpt lat="62.896834" lon="12.514183">
        <ele>1109.77</ele>
        <time>2011-07-05T18:24:21Z</time>
      </trkpt>
      <trkpt lat="62.896941" lon="12.514248">
        <ele>1108.11</ele>
        <time>2011-07-05T18:24:26Z</time>
      </trkpt>
      <trkpt lat="62.897128" lon="12.514348">
        <ele>1106.32</ele>
        <time>2011-07-05T18:24:33Z</time>
      </trkpt>
      <trkpt lat="62.897301" lon="12.514446">
        <ele>1105.21</ele>
        <time>2011-07-05T18:24:39Z</time>
      </trkpt>
      <trkpt lat="62.897412" lon="12.51455">
        <ele>1104.75</ele>
        <time>2011-07-05T18:24:43Z</time>
      </trkpt>
      <trkpt lat="62.897567" lon="12.514697">
        <ele>1104.12</ele>
        <time>2011-07-05T18:24:49Z</time>
      </trkpt>
      <trkpt lat="62.897718" lon="12.514814">
        <ele>1102.99</ele>
        <time>2011-07-05T18:24:55Z</time>
      </trkpt>
      <trkpt lat="62.897768" lon="12.514987">
        <ele>1102.1</ele>
        <time>2011-07-05T18:25:00Z</time>
      </trkpt>
      <trkpt lat="62.897925" lon="12.515063">
        <ele>1101.46</ele>
        <time>2011-07-05T18:25:07Z</time>
      </trkpt>
      <trkpt lat="62.898026" lon="12.515116">
        <ele>1099.97</ele>
        <time>2011-07-05T18:25:11Z</time>
      </trkpt>
      <trkpt lat="62.89815" lon="12.51512">
        <ele>1097.27</ele>
        <time>2011-07-05T18:25:16Z</time>
      </trkpt>
      <trkpt lat="62.898296" lon="12.515094">
        <ele>1094.66</ele>
        <time>2011-07-05T18:25:22Z</time>
      </trkpt>
      <trkpt lat="62.898418" lon="12.51517">
        <ele>1092.22</ele>
        <time>2011-07-05T18:25:27Z</time>
      </trkpt>
      <trkpt lat="62.898546" lon="12.51522">
        <ele>1090.15</ele>
        <time>2011-07-05T18:25:32Z</time>
      </trkpt>
      <trkpt lat="62.8986" lon="12.515249">
        <ele>1089.47</ele>
        <time>2011-07-05T18:25:34Z</time>
      </trkpt>
      <trkpt lat="62.898764" lon="12.515346">
        <ele>1087.25</ele>
        <time>2011-07-05T18:25:40Z</time>
      </trkpt>
      <trkpt lat="62.89889" lon="12.515382">
        <ele>1086.47</ele>
        <time>2011-07-05T18:25:45Z</time>
      </trkpt>
      <trkpt lat="62.899022" lon="12.515516">
        <ele>1085</ele>
        <time>2011-07-05T18:25:51Z</time>
      </trkpt>
      <trkpt lat="62.899141" lon="12.515579">
        <ele>1084.4</ele>
        <time>2011-07-05T18:25:56Z</time>
      </trkpt>
      <trkpt lat="62.899233" lon="12.515652">
        <ele>1083.63</ele>
        <time>2011-07-05T18:26:00Z</time>
      </trkpt>
      <trkpt lat="62.899363" lon="12.515619">
        <ele>1081.83</ele>
        <time>2011-07-05T18:26:05Z</time>
      </trkpt>
      <trkpt lat="62.899483" lon="12.515625">
        <ele>1081.66</ele>
        <time>2011-07-05T18:26:10Z</time>
      </trkpt>
      <trkpt lat="62.899551" lon="12.515591">
        <ele>1081.12</ele>
        <time>2011-07-05T18:26:13Z</time>
      </trkpt>
      <trkpt lat="62.899652" lon="12.515617">
        <ele>1078.47</ele>
        <time>2011-07-05T18:26:19Z</time>
      </trkpt>
      <trkpt lat="62.899727" lon="12.515559">
        <ele>1076.91</ele>
        <time>2011-07-05T18:26:25Z</time>
      </trkpt>
      <trkpt lat="62.8998" lon="12.515549">
        <ele>1076.06</ele>
        <time>2011-07-05T18:26:31Z</time>
      </trkpt>
      <trkpt lat="62.899876" lon="12.51546">
        <ele>1075.05</ele>
        <time>2011-07-05T18:26:38Z</time>
      </trkpt>
      <trkpt lat="62.899888" lon="12.515453">
        <ele>1074.91</ele>
        <time>2011-07-05T18:26:39Z</time>
      </trkpt>
      <trkpt lat="62.899974" lon="12.515346">
        <ele>1073.88</ele>
        <time>2011-07-05T18:26:47Z</time>
      </trkpt>
      <trkpt lat="62.900063" lon="12.515284">
        <ele>1073.51</ele>
        <time>2011-07-05T18:26:54Z</time>
      </trkpt>
      <trkpt lat="62.900225" lon="12.515246">
        <ele>1073.35</ele>
        <time>2011-07-05T18:27:03Z</time>
      </trkpt>
      <trkpt lat="62.900328" lon="12.515227">
        <ele>1071.73</ele>
        <time>2011-07-05T18:27:10Z</time>
      </trkpt>
      <trkpt lat="62.900424" lon="12.515177">
        <ele>1071</ele>
        <time>2011-07-05T18:27:15Z</time>
      </trkpt>
      <trkpt lat="62.900579" lon="12.515081">
        <ele>1068.38</ele>
        <time>2011-07-05T18:27:20Z</time>
      </trkpt>
      <trkpt lat="62.900751" lon="12.514998">
        <ele>1066.58</ele>
        <time>2011-07-05T18:27:26Z</time>
      </trkpt>
      <trkpt lat="62.900859" lon="12.514929">
        <ele>1065.24</ele>
        <time>2011-07-05T18:27:30Z</time>
      </trkpt>
      <trkpt lat="62.900907" lon="12.514927">
        <ele>1064.8</ele>
        <time>2011-07-05T18:27:32Z</time>
      </trkpt>
      <trkpt lat="62.901022" lon="12.514841">
        <ele>1064.4</ele>
        <time>2011-07-05T18:27:38Z</time>
      </trkpt>
      <trkpt lat="62.901132" lon="12.514729">
        <ele>1063.71</ele>
        <time>2011-07-05T18:27:43Z</time>
      </trkpt>
      <trkpt lat="62.901236" lon="12.514464">
        <ele>1063.38</ele>
        <time>2011-07-05T18:27:49Z</time>
      </trkpt>
      <trkpt lat="62.901385" lon="12.514307">
        <ele>1061.68</ele>
        <time>2011-07-05T18:27:55Z</time>
      </trkpt>
      <trkpt lat="62.901517" lon="12.514185">
        <ele>1061.08</ele>
        <time>2011-07-05T18:28:00Z</time>
      </trkpt>
      <trkpt lat="62.901651" lon="12.514074">
        <ele>1060.31</ele>
        <time>2011-07-05T18:28:05Z</time>
      </trkpt>
      <trkpt lat="62.901815" lon="12.513991">
        <ele>1059.1</ele>
        <time>2011-07-05T18:28:12Z</time>
      </trkpt>
      <trkpt lat="62.901942" lon="12.513873">
        <ele>1056.51</ele>
        <time>2011-07-05T18:28:18Z</time>
      </trkpt>
      <trkpt lat="62.902063" lon="12.513881">
        <ele>1054.26</ele>
        <time>2011-07-05T18:28:22Z</time>
      </trkpt>
      <trkpt lat="62.902094" lon="12.513887">
        <ele>1054.04</ele>
        <time>2011-07-05T18:28:23Z</time>
      </trkpt>
      <trkpt lat="62.902203" lon="12.513824">
        <ele>1053.5</ele>
        <time>2011-07-05T18:28:28Z</time>
      </trkpt>
      <trkpt lat="62.902292" lon="12.513689">
        <ele>1053.21</ele>
        <time>2011-07-05T18:28:37Z</time>
      </trkpt>
      <trkpt lat="62.902391" lon="12.513675">
        <ele>1053.4</ele>
        <time>2011-07-05T18:28:43Z</time>
      </trkpt>
      <trkpt lat="62.902513" lon="12.513649">
        <ele>1053.08</ele>
        <time>2011-07-05T18:28:50Z</time>
      </trkpt>
      <trkpt lat="62.902663" lon="12.513661">
        <ele>1053.05</ele>
        <time>2011-07-05T18:28:56Z</time>
      </trkpt>
      <trkpt lat="62.902804" lon="12.513571">
        <ele>1052.38</ele>
        <time>2011-07-05T18:29:01Z</time>
      </trkpt>
      <trkpt lat="62.902995" lon="12.513365">
        <ele>1052.15</ele>
        <time>2011-07-05T18:29:09Z</time>
      </trkpt>
      <trkpt lat="62.903119" lon="12.513227">
        <ele>1051.33</ele>
        <time>2011-07-05T18:29:15Z</time>
      </trkpt>
      <trkpt lat="62.903148" lon="12.513122">
        <ele>1050.25</ele>
        <time>2011-07-05T18:29:20Z</time>
      </trkpt>
      <trkpt lat="62.903136" lon="12.512973">
        <ele>1049.78</ele>
        <time>2011-07-05T18:29:28Z</time>
      </trkpt>
      <trkpt lat="62.9032" lon="12.512917">
        <ele>1049.72</ele>
        <time>2011-07-05T18:29:34Z</time>
      </trkpt>
      <trkpt lat="62.903229" lon="12.512893">
        <ele>1048.86</ele>
        <time>2011-07-05T18:29:38Z</time>
      </trkpt>
      <trkpt lat="62.903261" lon="12.51285">
        <ele>1048.29</ele>
        <time>2011-07-05T18:29:42Z</time>
      </trkpt>
      <trkpt lat="62.90335" lon="12.512751">
        <ele>1046.9</ele>
        <time>2011-07-05T18:29:48Z</time>
      </trkpt>
      <trkpt lat="62.903399" lon="12.512628">
        <ele>1046.28</ele>
        <time>2011-07-05T18:29:51Z</time>
      </trkpt>
      <trkpt lat="62.903538" lon="12.512559">
        <ele>1046.07</ele>
        <time>2011-07-05T18:29:56Z</time>
      </trkpt>
      <trkpt lat="62.903685" lon="12.512464">
        <ele>1045.91</ele>
        <time>2011-07-05T18:30:01Z</time>
      </trkpt>
      <trkpt lat="62.903849" lon="12.512206">
        <ele>1045.56</ele>
        <time>2011-07-05T18:30:09Z</time>
      </trkpt>
      <trkpt lat="62.903921" lon="12.512085">
        <ele>1044.92</ele>
        <time>2011-07-05T18:30:13Z</time>
      </trkpt>
      <trkpt lat="62.904103" lon="12.512079">
        <ele>1043.55</ele>
        <time>2011-07-05T18:30:19Z</time>
      </trkpt>
      <trkpt lat="62.904261" lon="12.512068">
        <ele>1043.64</ele>
        <time>2011-07-05T18:30:25Z</time>
      </trkpt>
      <trkpt lat="62.904364" lon="12.512046">
        <ele>1043.35</ele>
        <time>2011-07-05T18:30:29Z</time>
      </trkpt>
      <trkpt lat="62.904503" lon="12.51192">
        <ele>1041.67</ele>
        <time>2011-07-05T18:30:35Z</time>
      </trkpt>
      <trkpt lat="62.904531" lon="12.511884">
        <ele>1041.56</ele>
        <time>2011-07-05T18:30:40Z</time>
      </trkpt>
      <trkpt lat="62.904598" lon="12.511774">
        <ele>1041.1</ele>
        <time>2011-07-05T18:30:45Z</time>
      </trkpt>
      <trkpt lat="62.904661" lon="12.511713">
        <ele>1040.35</ele>
        <time>2011-07-05T18:30:48Z</time>
      </trkpt>
      <trkpt lat="62.904635" lon="12.511594">
        <ele>1039.1</ele>
        <time>2011-07-05T18:30:53Z</time>
      </trkpt>
      <trkpt lat="62.90467" lon="12.511554">
        <ele>1038.31</ele>
        <time>2011-07-05T18:30:59Z</time>
      </trkpt>
      <trkpt lat="62.904681" lon="12.51156">
        <ele>1038.38</ele>
        <time>2011-07-05T18:31:00Z</time>
      </trkpt>
      <trkpt lat="62.904804" lon="12.511598">
        <ele>1039.35</ele>
        <time>2011-07-05T18:31:08Z</time>
      </trkpt>
      <trkpt lat="62.90488" lon="12.51152">
        <ele>1039.89</ele>
        <time>2011-07-05T18:31:14Z</time>
      </trkpt>
      <trkpt lat="62.904971" lon="12.511448">
        <ele>1040.61</ele>
        <time>2011-07-05T18:31:21Z</time>
      </trkpt>
      <trkpt lat="62.905056" lon="12.51139">
        <ele>1039.5</ele>
        <time>2011-07-05T18:31:27Z</time>
      </trkpt>
      <trkpt lat="62.905178" lon="12.511323">
        <ele>1038.44</ele>
        <time>2011-07-05T18:31:33Z</time>
      </trkpt>
      <trkpt lat="62.905221" lon="12.511271">
        <ele>1037.53</ele>
        <time>2011-07-05T18:31:38Z</time>
      </trkpt>
      <trkpt lat="62.905223" lon="12.511272">
        <ele>1037.29</ele>
        <time>2011-07-05T18:31:40Z</time>
      </trkpt>
      <trkpt lat="62.905228" lon="12.511217">
        <ele>1037.53</ele>
        <time>2011-07-05T18:32:05Z</time>
      </trkpt>
      <trkpt lat="62.905319" lon="12.511139">
        <ele>1037.91</ele>
        <time>2011-07-05T18:32:12Z</time>
      </trkpt>
      <trkpt lat="62.90536" lon="12.511095">
        <ele>1038.14</ele>
        <time>2011-07-05T18:32:15Z</time>
      </trkpt>
      <trkpt lat="62.905454" lon="12.510962">
        <ele>1039.04</ele>
        <time>2011-07-05T18:32:22Z</time>
      </trkpt>
      <trkpt lat="62.905538" lon="12.510878">
        <ele>1040.8</ele>
        <time>2011-07-05T18:32:27Z</time>
      </trkpt>
      <trkpt lat="62.905597" lon="12.510849">
        <ele>1041.91</ele>
        <time>2011-07-05T18:32:30Z</time>
      </trkpt>
      <trkpt lat="62.905762" lon="12.510784">
        <ele>1042.1</ele>
        <time>2011-07-05T18:32:37Z</time>
      </trkpt>
      <trkpt lat="62.905923" lon="12.510701">
        <ele>1040.07</ele>
        <time>2011-07-05T18:32:43Z</time>
      </trkpt>
      <trkpt lat="62.906022" lon="12.510707">
        <ele>1039.9</ele>
        <time>2011-07-05T18:32:47Z</time>
      </trkpt>
      <trkpt lat="62.906176" lon="12.510733">
        <ele>1041.67</ele>
        <time>2011-07-05T18:32:54Z</time>
      </trkpt>
      <trkpt lat="62.906353" lon="12.510763">
        <ele>1041.02</ele>
        <time>2011-07-05T18:33:01Z</time>
      </trkpt>
      <trkpt lat="62.906489" lon="12.510714">
        <ele>1038.46</ele>
        <time>2011-07-05T18:33:07Z</time>
      </trkpt>
      <trkpt lat="62.906611" lon="12.510681">
        <ele>1035.99</ele>
        <time>2011-07-05T18:33:11Z</time>
      </trkpt>
      <trkpt lat="62.906759" lon="12.510569">
        <ele>1035.74</ele>
        <time>2011-07-05T18:33:17Z</time>
      </trkpt>
      <trkpt lat="62.906927" lon="12.51053">
        <ele>1034.61</ele>
        <time>2011-07-05T18:33:23Z</time>
      </trkpt>
      <trkpt lat="62.907053" lon="12.510568">
        <ele>1033.63</ele>
        <time>2011-07-05T18:33:28Z</time>
      </trkpt>
      <trkpt lat="62.907127" lon="12.51063">
        <ele>1034.86</ele>
        <time>2011-07-05T18:33:32Z</time>
      </trkpt>
      <trkpt lat="62.907233" lon="12.510513">
        <ele>1034.67</ele>
        <time>2011-07-05T18:33:38Z</time>
      </trkpt>
      <trkpt lat="62.907393" lon="12.510359">
        <ele>1033.56</ele>
        <time>2011-07-05T18:33:45Z</time>
      </trkpt>
      <trkpt lat="62.907436" lon="12.510317">
        <ele>1033.29</ele>
        <time>2011-07-05T18:33:47Z</time>
      </trkpt>
      <trkpt lat="62.907545" lon="12.510372">
        <ele>1032.27</ele>
        <time>2011-07-05T18:33:51Z</time>
      </trkpt>
      <trkpt lat="62.907669" lon="12.510349">
        <ele>1031.51</ele>
        <time>2011-07-05T18:33:56Z</time>
      </trkpt>
      <trkpt lat="62.90776" lon="12.510277">
        <ele>1031.29</ele>
        <time>2011-07-05T18:34:01Z</time>
      </trkpt>
      <trkpt lat="62.907817" lon="12.510186">
        <ele>1031.44</ele>
        <time>2011-07-05T18:34:05Z</time>
      </trkpt>
      <trkpt lat="62.907876" lon="12.510198">
        <ele>1030.72</ele>
        <time>2011-07-05T18:34:10Z</time>
      </trkpt>
      <trkpt lat="62.908" lon="12.510282">
        <ele>1031.98</ele>
        <time>2011-07-05T18:34:16Z</time>
      </trkpt>
      <trkpt lat="62.908095" lon="12.510203">
        <ele>1033.39</ele>
        <time>2011-07-05T18:34:21Z</time>
      </trkpt>
      <trkpt lat="62.908206" lon="12.510052">
        <ele>1035.34</ele>
        <time>2011-07-05T18:34:27Z</time>
      </trkpt>
      <trkpt lat="62.908285" lon="12.509884">
        <ele>1037.64</ele>
        <time>2011-07-05T18:34:32Z</time>
      </trkpt>
      <trkpt lat="62.908363" lon="12.509723">
        <ele>1038.49</ele>
        <time>2011-07-05T18:34:37Z</time>
      </trkpt>
      <trkpt lat="62.908438" lon="12.50952">
        <ele>1037.07</ele>
        <time>2011-07-05T18:34:44Z</time>
      </trkpt>
      <trkpt lat="62.908534" lon="12.509445">
        <ele>1035.24</ele>
        <time>2011-07-05T18:34:48Z</time>
      </trkpt>
      <trkpt lat="62.908644" lon="12.509239">
        <ele>1033.4</ele>
        <time>2011-07-05T18:34:54Z</time>
      </trkpt>
      <trkpt lat="62.908752" lon="12.50904">
        <ele>1031.63</ele>
        <time>2011-07-05T18:34:59Z</time>
      </trkpt>
      <trkpt lat="62.908911" lon="12.509048">
        <ele>1030.68</ele>
        <time>2011-07-05T18:35:05Z</time>
      </trkpt>
      <trkpt lat="62.908969" lon="12.508977">
        <ele>1030</ele>
        <time>2011-07-05T18:35:10Z</time>
      </trkpt>
      <trkpt lat="62.909044" lon="12.50889">
        <ele>1031.53</ele>
        <time>2011-07-05T18:35:15Z</time>
      </trkpt>
      <trkpt lat="62.909085" lon="12.508823">
        <ele>1031.52</ele>
        <time>2011-07-05T18:35:17Z</time>
      </trkpt>
      <trkpt lat="62.909287" lon="12.508673">
        <ele>1031.83</ele>
        <time>2011-07-05T18:35:25Z</time>
      </trkpt>
      <trkpt lat="62.909449" lon="12.508551">
        <ele>1032.8</ele>
        <time>2011-07-05T18:35:32Z</time>
      </trkpt>
      <trkpt lat="62.909576" lon="12.508434">
        <ele>1033.89</ele>
        <time>2011-07-05T18:35:38Z</time>
      </trkpt>
      <trkpt lat="62.909657" lon="12.508308">
        <ele>1033.02</ele>
        <time>2011-07-05T18:35:42Z</time>
      </trkpt>
      <trkpt lat="62.909748" lon="12.508054">
        <ele>1032.42</ele>
        <time>2011-07-05T18:35:47Z</time>
      </trkpt>
      <trkpt lat="62.909823" lon="12.508039">
        <ele>1033.44</ele>
        <time>2011-07-05T18:35:51Z</time>
      </trkpt>
      <trkpt lat="62.909968" lon="12.508161">
        <ele>1034.36</ele>
        <time>2011-07-05T18:35:59Z</time>
      </trkpt>
      <trkpt lat="62.910077" lon="12.508303">
        <ele>1032.95</ele>
        <time>2011-07-05T18:36:03Z</time>
      </trkpt>
      <trkpt lat="62.910181" lon="12.508404">
        <ele>1034.33</ele>
        <time>2011-07-05T18:36:08Z</time>
      </trkpt>
      <trkpt lat="62.91029" lon="12.508529">
        <ele>1034.01</ele>
        <time>2011-07-05T18:36:14Z</time>
      </trkpt>
      <trkpt lat="62.910428" lon="12.508601">
        <ele>1032.2</ele>
        <time>2011-07-05T18:36:21Z</time>
      </trkpt>
      <trkpt lat="62.91055" lon="12.508716">
        <ele>1028.83</ele>
        <time>2011-07-05T18:36:27Z</time>
      </trkpt>
      <trkpt lat="62.910644" lon="12.508794">
        <ele>1026.84</ele>
        <time>2011-07-05T18:36:31Z</time>
      </trkpt>
      <trkpt lat="62.910763" lon="12.50889">
        <ele>1026.4</ele>
        <time>2011-07-05T18:36:36Z</time>
      </trkpt>
      <trkpt lat="62.910929" lon="12.508981">
        <ele>1027.04</ele>
        <time>2011-07-05T18:36:43Z</time>
      </trkpt>
      <trkpt lat="62.91098" lon="12.509124">
        <ele>1027.33</ele>
        <time>2011-07-05T18:36:47Z</time>
      </trkpt>
      <trkpt lat="62.911156" lon="12.509269">
        <ele>1027.65</ele>
        <time>2011-07-05T18:36:54Z</time>
      </trkpt>
      <trkpt lat="62.911283" lon="12.509379">
        <ele>1027.89</ele>
        <time>2011-07-05T18:36:59Z</time>
      </trkpt>
      <trkpt lat="62.911395" lon="12.509514">
        <ele>1027.26</ele>
        <time>2011-07-05T18:37:04Z</time>
      </trkpt>
      <trkpt lat="62.911415" lon="12.509545">
        <ele>1027.29</ele>
        <time>2011-07-05T18:37:05Z</time>
      </trkpt>
      <trkpt lat="62.911513" lon="12.509617">
        <ele>1027.94</ele>
        <time>2011-07-05T18:37:11Z</time>
      </trkpt>
      <trkpt lat="62.911589" lon="12.509658">
        <ele>1028.04</ele>
        <time>2011-07-05T18:37:19Z</time>
      </trkpt>
      <trkpt lat="62.91166" lon="12.509691">
        <ele>1027.83</ele>
        <time>2011-07-05T18:37:30Z</time>
      </trkpt>
      <trkpt lat="62.911639" lon="12.509691">
        <ele>1028.07</ele>
        <time>2011-07-05T18:37:32Z</time>
      </trkpt>
      <trkpt lat="62.911666" lon="12.509699">
        <ele>1027.79</ele>
        <time>2011-07-05T18:37:53Z</time>
      </trkpt>
      <trkpt lat="62.911734" lon="12.509724">
        <ele>1027.57</ele>
        <time>2011-07-05T18:37:57Z</time>
      </trkpt>
      <trkpt lat="62.911815" lon="12.509622">
        <ele>1027.27</ele>
        <time>2011-07-05T18:38:04Z</time>
      </trkpt>
      <trkpt lat="62.911857" lon="12.509588">
        <ele>1026.41</ele>
        <time>2011-07-05T18:38:10Z</time>
      </trkpt>
      <trkpt lat="62.911771" lon="12.509755">
        <ele>1027.65</ele>
        <time>2011-07-05T18:38:41Z</time>
      </trkpt>
      <trkpt lat="62.911882" lon="12.509828">
        <ele>1027.19</ele>
        <time>2011-07-05T18:38:45Z</time>
      </trkpt>
      <trkpt lat="62.911944" lon="12.509788">
        <ele>1026.16</ele>
        <time>2011-07-05T18:38:49Z</time>
      </trkpt>
      <trkpt lat="62.911936" lon="12.509743">
        <ele>1025.46</ele>
        <time>2011-07-05T18:38:50Z</time>
      </trkpt>
      <trkpt lat="62.911914" lon="12.509657">
        <ele>1024.66</ele>
        <time>2011-07-05T18:38:52Z</time>
      </trkpt>
      <trkpt lat="62.911874" lon="12.509591">
        <ele>1026.1</ele>
        <time>2011-07-05T18:38:56Z</time>
      </trkpt>
      <trkpt lat="62.911883" lon="12.509624">
        <ele>1026.94</ele>
        <time>2011-07-05T18:38:58Z</time>
      </trkpt>
      <trkpt lat="62.911924" lon="12.50975">
        <ele>1027.02</ele>
        <time>2011-07-05T18:39:03Z</time>
      </trkpt>
      <trkpt lat="62.911935" lon="12.509802">
        <ele>1026.86</ele>
        <time>2011-07-05T18:39:05Z</time>
      </trkpt>
      <trkpt lat="62.911977" lon="12.509836">
        <ele>1025.87</ele>
        <time>2011-07-05T18:39:11Z</time>
      </trkpt>
      <trkpt lat="62.912053" lon="12.509907">
        <ele>1025.24</ele>
        <time>2011-07-05T18:39:20Z</time>
      </trkpt>
      <trkpt lat="62.912197" lon="12.509937">
        <ele>1025.63</ele>
        <time>2011-07-05T18:39:25Z</time>
      </trkpt>
      <trkpt lat="62.912359" lon="12.509873">
        <ele>1025.98</ele>
        <time>2011-07-05T18:39:31Z</time>
      </trkpt>
      <trkpt lat="62.912407" lon="12.509777">
        <ele>1026.56</ele>
        <time>2011-07-05T18:39:36Z</time>
      </trkpt>
      <trkpt lat="62.912456" lon="12.509713">
        <ele>1026.59</ele>
        <time>2011-07-05T18:39:42Z</time>
      </trkpt>
      <trkpt lat="62.912465" lon="12.509711">
        <ele>1025.81</ele>
        <time>2011-07-05T18:39:44Z</time>
      </trkpt>
      <trkpt lat="62.912435" lon="12.509685">
        <ele>1025.48</ele>
        <time>2011-07-05T18:40:01Z</time>
      </trkpt>
      <trkpt lat="62.912474" lon="12.50948">
        <ele>1026.02</ele>
        <time>2011-07-05T18:40:06Z</time>
      </trkpt>
      <trkpt lat="62.912487" lon="12.509427">
        <ele>1027.25</ele>
        <time>2011-07-05T18:40:08Z</time>
      </trkpt>
      <trkpt lat="62.912442" lon="12.509619">
        <ele>1028</ele>
        <time>2011-07-05T18:40:14Z</time>
      </trkpt>
      <trkpt lat="62.912441" lon="12.509633">
        <ele>1026.97</ele>
        <time>2011-07-05T18:40:16Z</time>
      </trkpt>
      <trkpt lat="62.912495" lon="12.50949">
        <ele>1027.33</ele>
        <time>2011-07-05T18:40:25Z</time>
      </trkpt>
      <trkpt lat="62.912549" lon="12.50936">
        <ele>1028.72</ele>
        <time>2011-07-05T18:40:32Z</time>
      </trkpt>
      <trkpt lat="62.912604" lon="12.509152">
        <ele>1030.37</ele>
        <time>2011-07-05T18:40:40Z</time>
      </trkpt>
      <trkpt lat="62.912663" lon="12.508969">
        <ele>1029.41</ele>
        <time>2011-07-05T18:40:44Z</time>
      </trkpt>
      <trkpt lat="62.912731" lon="12.508781">
        <ele>1029.23</ele>
        <time>2011-07-05T18:40:48Z</time>
      </trkpt>
      <trkpt lat="62.912833" lon="12.508498">
        <ele>1029.92</ele>
        <time>2011-07-05T18:40:54Z</time>
      </trkpt>
      <trkpt lat="62.912948" lon="12.508197">
        <ele>1030.03</ele>
        <time>2011-07-05T18:41:01Z</time>
      </trkpt>
      <trkpt lat="62.913067" lon="12.508039">
        <ele>1029.61</ele>
        <time>2011-07-05T18:41:06Z</time>
      </trkpt>
      <trkpt lat="62.913208" lon="12.507847">
        <ele>1028.53</ele>
        <time>2011-07-05T18:41:12Z</time>
      </trkpt>
      <trkpt lat="62.913351" lon="12.507666">
        <ele>1027.66</ele>
        <time>2011-07-05T18:41:18Z</time>
      </trkpt>
      <trkpt lat="62.91339" lon="12.50763">
        <ele>1026.3</ele>
        <time>2011-07-05T18:41:22Z</time>
      </trkpt>
      <trkpt lat="62.913451" lon="12.507548">
        <ele>1026.54</ele>
        <time>2011-07-05T18:41:30Z</time>
      </trkpt>
      <trkpt lat="62.913589" lon="12.507476">
        <ele>1026.3</ele>
        <time>2011-07-05T18:41:36Z</time>
      </trkpt>
      <trkpt lat="62.913694" lon="12.507442">
        <ele>1025.05</ele>
        <time>2011-07-05T18:41:40Z</time>
      </trkpt>
      <trkpt lat="62.913796" lon="12.507396">
        <ele>1025.8</ele>
        <time>2011-07-05T18:41:46Z</time>
      </trkpt>
      <trkpt lat="62.913905" lon="12.507306">
        <ele>1025.49</ele>
        <time>2011-07-05T18:41:54Z</time>
      </trkpt>
      <trkpt lat="62.913965" lon="12.507133">
        <ele>1024.8</ele>
        <time>2011-07-05T18:42:01Z</time>
      </trkpt>
      <trkpt lat="62.914005" lon="12.507054">
        <ele>1024.79</ele>
        <time>2011-07-05T18:42:07Z</time>
      </trkpt>
      <trkpt lat="62.914056" lon="12.506988">
        <ele>1025.12</ele>
        <time>2011-07-05T18:42:18Z</time>
      </trkpt>
      <trkpt lat="62.91415" lon="12.506873">
        <ele>1025.85</ele>
        <time>2011-07-05T18:42:25Z</time>
      </trkpt>
      <trkpt lat="62.914187" lon="12.506864">
        <ele>1025.92</ele>
        <time>2011-07-05T18:42:27Z</time>
      </trkpt>
      <trkpt lat="62.914291" lon="12.506731">
        <ele>1026.45</ele>
        <time>2011-07-05T18:42:33Z</time>
      </trkpt>
      <trkpt lat="62.914366" lon="12.506455">
        <ele>1021.51</ele>
        <time>2011-07-05T18:42:39Z</time>
      </trkpt>
      <trkpt lat="62.914413" lon="12.506303">
        <ele>1021.47</ele>
        <time>2011-07-05T18:42:43Z</time>
      </trkpt>
      <trkpt lat="62.914541" lon="12.506248">
        <ele>1022.13</ele>
        <time>2011-07-05T18:42:50Z</time>
      </trkpt>
      <trkpt lat="62.914588" lon="12.506267">
        <ele>1022.22</ele>
        <time>2011-07-05T18:42:54Z</time>
      </trkpt>
      <trkpt lat="62.914594" lon="12.506221">
        <ele>1021.93</ele>
        <time>2011-07-05T18:42:56Z</time>
      </trkpt>
      <trkpt lat="62.914646" lon="12.506062">
        <ele>1022.94</ele>
        <time>2011-07-05T18:43:02Z</time>
      </trkpt>
      <trkpt lat="62.914676" lon="12.505993">
        <ele>1023.11</ele>
        <time>2011-07-05T18:43:05Z</time>
      </trkpt>
      <trkpt lat="62.914719" lon="12.505937">
        <ele>1023.03</ele>
        <time>2011-07-05T18:43:09Z</time>
      </trkpt>
      <trkpt lat="62.914802" lon="12.505875">
        <ele>1022.88</ele>
        <time>2011-07-05T18:43:14Z</time>
      </trkpt>
      <trkpt lat="62.914892" lon="12.505735">
        <ele>1023.41</ele>
        <time>2011-07-05T18:43:19Z</time>
      </trkpt>
      <trkpt lat="62.914969" lon="12.505593">
        <ele>1023.04</ele>
        <time>2011-07-05T18:43:22Z</time>
      </trkpt>
      <trkpt lat="62.915082" lon="12.505474">
        <ele>1023.31</ele>
        <time>2011-07-05T18:43:26Z</time>
      </trkpt>
      <trkpt lat="62.915112" lon="12.505468">
        <ele>1025.23</ele>
        <time>2011-07-05T18:43:30Z</time>
      </trkpt>
      <trkpt lat="62.91511" lon="12.505466">
        <ele>1025.95</ele>
        <time>2011-07-05T18:43:31Z</time>
      </trkpt>
      <trkpt lat="62.915127" lon="12.505467">
        <ele>1024.92</ele>
        <time>2011-07-05T18:43:43Z</time>
      </trkpt>
      <trkpt lat="62.915172" lon="12.505489">
        <ele>1024.05</ele>
        <time>2011-07-05T18:43:47Z</time>
      </trkpt>
      <trkpt lat="62.915311" lon="12.505467">
        <ele>1021.29</ele>
        <time>2011-07-05T18:43:52Z</time>
      </trkpt>
      <trkpt lat="62.91545" lon="12.505514">
        <ele>1021.1</ele>
        <time>2011-07-05T18:43:57Z</time>
      </trkpt>
    </trkseg>
  </trk>
</gpx>